<?xml version="1.0" encoding="UTF-8" standalone="no" ?>
<gpx xmlns="http://www.topografix.com/GPX/1/1" xmlns:xsi="http://www.w3.org/2001/XMLSchema-instance" xsi:schemaLocation="http://www.topografix.com/GPX/1/1 http://www.topografix.com/GPX/1/1/gpx.xsd" version="1.1" creator="VisuGPX - https://www.visugpx.com">
  <metadata>
    <name>Edirne-Mostar</name>
  </metadata>
  <trk>
    <name><![CDATA[Tour d'Europe: étape 700]]></name>
    <extensions>
      <line xmlns="http://www.topografix.com/GPX/gpx_style/0/2">
        <color>FF00FF</color>
        <width>4</width>
      </line>
    </extensions>
    <trkseg>
      <trkpt lat="42.2837" lon="18.83812">
        <ele>94.793916</ele>
        <time>2022-05-29T08:04:44.764Z</time>
      </trkpt>
      <trkpt lat="42.28394" lon="18.83813">
        <ele>94.793916</ele>
        <time>2022-05-29T08:04:48.735Z</time>
      </trkpt>
      <trkpt lat="42.28379" lon="18.838">
        <ele>94.793916</ele>
        <time>2022-05-29T08:16:32.712Z</time>
      </trkpt>
      <trkpt lat="42.28342" lon="18.83802">
        <ele>94.793916</ele>
        <time>2022-05-29T08:25:37.750Z</time>
      </trkpt>
      <trkpt lat="42.28326" lon="18.8379">
        <ele>94.037596</ele>
        <time>2022-05-29T08:25:54.716Z</time>
      </trkpt>
      <trkpt lat="42.28308" lon="18.83788">
        <ele>92.048879</ele>
        <time>2022-05-29T08:26:23.725Z</time>
      </trkpt>
      <trkpt lat="42.28324" lon="18.8377">
        <ele>89.756582</ele>
        <time>2022-05-29T08:26:31.803Z</time>
      </trkpt>
      <trkpt lat="42.28333" lon="18.83761">
        <ele>88.5552</ele>
        <time>2022-05-29T08:26:35.720Z</time>
      </trkpt>
      <trkpt lat="42.28341" lon="18.83754">
        <ele>87.544229</ele>
        <time>2022-05-29T08:26:39.812Z</time>
      </trkpt>
      <trkpt lat="42.2835" lon="18.8375">
        <ele>86.507566</ele>
        <time>2022-05-29T08:26:44.717Z</time>
      </trkpt>
      <trkpt lat="42.28359" lon="18.83753">
        <ele>85.454613</ele>
        <time>2022-05-29T08:26:50.734Z</time>
      </trkpt>
      <trkpt lat="42.28366" lon="18.8376">
        <ele>84.437953</ele>
        <time>2022-05-29T08:26:58.732Z</time>
      </trkpt>
      <trkpt lat="42.28375" lon="18.83766">
        <ele>83.373181</ele>
        <time>2022-05-29T08:27:03.740Z</time>
      </trkpt>
      <trkpt lat="42.28382" lon="18.83776">
        <ele>82.282587</ele>
        <time>2022-05-29T08:27:08.737Z</time>
      </trkpt>
      <trkpt lat="42.28389" lon="18.83786">
        <ele>81.108864</ele>
        <time>2022-05-29T08:27:11.733Z</time>
      </trkpt>
      <trkpt lat="42.28397" lon="18.83797">
        <ele>79.904645</ele>
        <time>2022-05-29T08:27:15.741Z</time>
      </trkpt>
      <trkpt lat="42.28405" lon="18.83806">
        <ele>78.788026</ele>
        <time>2022-05-29T08:27:18.749Z</time>
      </trkpt>
      <trkpt lat="42.28413" lon="18.83815">
        <ele>77.62594</ele>
        <time>2022-05-29T08:27:21.743Z</time>
      </trkpt>
      <trkpt lat="42.28423" lon="18.83824">
        <ele>76.365754</ele>
        <time>2022-05-29T08:27:25.720Z</time>
      </trkpt>
      <trkpt lat="42.28433" lon="18.83826">
        <ele>75.208787</ele>
        <time>2022-05-29T08:27:28.748Z</time>
      </trkpt>
      <trkpt lat="42.28441" lon="18.8382">
        <ele>74.694262</ele>
        <time>2022-05-29T08:27:31.776Z</time>
      </trkpt>
      <trkpt lat="42.2845" lon="18.8381">
        <ele>74.141573</ele>
        <time>2022-05-29T08:27:35.746Z</time>
      </trkpt>
      <trkpt lat="42.28458" lon="18.83801">
        <ele>73.614691</ele>
        <time>2022-05-29T08:27:39.732Z</time>
      </trkpt>
      <trkpt lat="42.28469" lon="18.83792">
        <ele>72.989044</ele>
        <time>2022-05-29T08:27:42.753Z</time>
      </trkpt>
      <trkpt lat="42.28479" lon="18.83782">
        <ele>72.37179</ele>
        <time>2022-05-29T08:27:45.748Z</time>
      </trkpt>
      <trkpt lat="42.28486" lon="18.83772">
        <ele>71.891324</ele>
        <time>2022-05-29T08:27:48.731Z</time>
      </trkpt>
      <trkpt lat="42.28491" lon="18.83762">
        <ele>71.446856</ele>
        <time>2022-05-29T08:27:51.733Z</time>
      </trkpt>
      <trkpt lat="42.28498" lon="18.83754">
        <ele>70.98131</ele>
        <time>2022-05-29T08:27:55.763Z</time>
      </trkpt>
      <trkpt lat="42.28508" lon="18.83744">
        <ele>70.373771</ele>
        <time>2022-05-29T08:27:58.754Z</time>
      </trkpt>
      <trkpt lat="42.28517" lon="18.83734">
        <ele>69.8233</ele>
        <time>2022-05-29T08:28:01.722Z</time>
      </trkpt>
      <trkpt lat="42.28522" lon="18.83724">
        <ele>69.358499</ele>
        <time>2022-05-29T08:28:04.765Z</time>
      </trkpt>
      <trkpt lat="42.28525" lon="18.83711">
        <ele>68.877727</ele>
        <time>2022-05-29T08:28:08.725Z</time>
      </trkpt>
      <trkpt lat="42.28531" lon="18.83701">
        <ele>68.418877</ele>
        <time>2022-05-29T08:28:12.800Z</time>
      </trkpt>
      <trkpt lat="42.28537" lon="18.8369">
        <ele>67.921965</ele>
        <time>2022-05-29T08:28:17.751Z</time>
      </trkpt>
      <trkpt lat="42.28545" lon="18.83657">
        <ele>66.645026</ele>
        <time>2022-05-29T08:28:51.767Z</time>
      </trkpt>
      <trkpt lat="42.28542" lon="18.83642">
        <ele>66.027948</ele>
        <time>2022-05-29T08:28:54.743Z</time>
      </trkpt>
      <trkpt lat="42.28537" lon="18.83632">
        <ele>65.440376</ele>
        <time>2022-05-29T08:28:57.732Z</time>
      </trkpt>
      <trkpt lat="42.2853" lon="18.83624">
        <ele>64.854213</ele>
        <time>2022-05-29T08:29:00.759Z</time>
      </trkpt>
      <trkpt lat="42.28521" lon="18.83615">
        <ele>64.175467</ele>
        <time>2022-05-29T08:29:04.730Z</time>
      </trkpt>
      <trkpt lat="42.28511" lon="18.83609">
        <ele>63.444294</ele>
        <time>2022-05-29T08:29:08.742Z</time>
      </trkpt>
      <trkpt lat="42.28503" lon="18.83602">
        <ele>62.830461</ele>
        <time>2022-05-29T08:29:11.727Z</time>
      </trkpt>
      <trkpt lat="42.28493" lon="18.83593">
        <ele>62.083813</ele>
        <time>2022-05-29T08:29:15.743Z</time>
      </trkpt>
      <trkpt lat="42.28485" lon="18.83587">
        <ele>61.467662</ele>
        <time>2022-05-29T08:29:18.765Z</time>
      </trkpt>
      <trkpt lat="42.28477" lon="18.83581">
        <ele>60.889674</ele>
        <time>2022-05-29T08:29:21.726Z</time>
      </trkpt>
      <trkpt lat="42.28468" lon="18.83574">
        <ele>60.231725</ele>
        <time>2022-05-29T08:29:25.725Z</time>
      </trkpt>
      <trkpt lat="42.28459" lon="18.83564">
        <ele>59.497885</ele>
        <time>2022-05-29T08:29:29.766Z</time>
      </trkpt>
      <trkpt lat="42.28451" lon="18.83555">
        <ele>58.822334</ele>
        <time>2022-05-29T08:29:33.732Z</time>
      </trkpt>
      <trkpt lat="42.28442" lon="18.83547">
        <ele>58.123522</ele>
        <time>2022-05-29T08:29:38.752Z</time>
      </trkpt>
      <trkpt lat="42.28435" lon="18.83539">
        <ele>57.515754</ele>
        <time>2022-05-29T08:29:42.742Z</time>
      </trkpt>
      <trkpt lat="42.28426" lon="18.83531">
        <ele>56.843386</ele>
        <time>2022-05-29T08:29:46.724Z</time>
      </trkpt>
      <trkpt lat="42.28417" lon="18.83522">
        <ele>56.128627</ele>
        <time>2022-05-29T08:29:51.741Z</time>
      </trkpt>
      <trkpt lat="42.28408" lon="18.83514">
        <ele>55.427149</ele>
        <time>2022-05-29T08:29:56.730Z</time>
      </trkpt>
      <trkpt lat="42.28399" lon="18.83509">
        <ele>54.832574</ele>
        <time>2022-05-29T08:30:01.727Z</time>
      </trkpt>
      <trkpt lat="42.28392" lon="18.83501">
        <ele>55.502028</ele>
        <time>2022-05-29T08:30:05.751Z</time>
      </trkpt>
      <trkpt lat="42.28383" lon="18.83493">
        <ele>56.518424</ele>
        <time>2022-05-29T08:30:09.739Z</time>
      </trkpt>
      <trkpt lat="42.28375" lon="18.83484">
        <ele>57.477923</ele>
        <time>2022-05-29T08:30:14.729Z</time>
      </trkpt>
      <trkpt lat="42.28367" lon="18.83476">
        <ele>58.397499</ele>
        <time>2022-05-29T08:30:18.750Z</time>
      </trkpt>
      <trkpt lat="42.2836" lon="18.83467">
        <ele>59.302087</ele>
        <time>2022-05-29T08:30:23.747Z</time>
      </trkpt>
      <trkpt lat="42.28354" lon="18.83457">
        <ele>60.191976</ele>
        <time>2022-05-29T08:30:30.724Z</time>
      </trkpt>
      <trkpt lat="42.28346" lon="18.83451">
        <ele>61.099661</ele>
        <time>2022-05-29T08:30:35.754Z</time>
      </trkpt>
      <trkpt lat="42.28338" lon="18.83444">
        <ele>61.970676</ele>
        <time>2022-05-29T08:30:40.737Z</time>
      </trkpt>
      <trkpt lat="42.28328" lon="18.8344">
        <ele>62.904268</ele>
        <time>2022-05-29T08:30:46.744Z</time>
      </trkpt>
      <trkpt lat="42.2832" lon="18.83431">
        <ele>63.896161</ele>
        <time>2022-05-29T08:30:53.773Z</time>
      </trkpt>
      <trkpt lat="42.28311" lon="18.83424">
        <ele>64.797476</ele>
        <time>2022-05-29T08:30:58.736Z</time>
      </trkpt>
      <trkpt lat="42.28303" lon="18.83416">
        <ele>65.710181</ele>
        <time>2022-05-29T08:31:05.746Z</time>
      </trkpt>
      <trkpt lat="42.28295" lon="18.83412">
        <ele>66.562011</ele>
        <time>2022-05-29T08:31:12.751Z</time>
      </trkpt>
      <trkpt lat="42.28286" lon="18.83408">
        <ele>67.435841</ele>
        <time>2022-05-29T08:31:18.747Z</time>
      </trkpt>
      <trkpt lat="42.28276" lon="18.83406">
        <ele>68.38491</ele>
        <time>2022-05-29T08:31:26.745Z</time>
      </trkpt>
      <trkpt lat="42.28267" lon="18.83404">
        <ele>69.217604</ele>
        <time>2022-05-29T08:31:33.743Z</time>
      </trkpt>
      <trkpt lat="42.28256" lon="18.83405">
        <ele>70.212377</ele>
        <time>2022-05-29T08:31:40.735Z</time>
      </trkpt>
      <trkpt lat="42.28246" lon="18.83405">
        <ele>71.123777</ele>
        <time>2022-05-29T08:31:46.747Z</time>
      </trkpt>
      <trkpt lat="42.28236" lon="18.83403">
        <ele>71.849131</ele>
        <time>2022-05-29T08:31:51.726Z</time>
      </trkpt>
      <trkpt lat="42.28228" lon="18.834">
        <ele>72.389934</ele>
        <time>2022-05-29T08:31:57.723Z</time>
      </trkpt>
      <trkpt lat="42.28218" lon="18.834">
        <ele>72.946539</ele>
        <time>2022-05-29T08:32:04.729Z</time>
      </trkpt>
      <trkpt lat="42.28209" lon="18.834">
        <ele>73.490917</ele>
        <time>2022-05-29T08:32:12.753Z</time>
      </trkpt>
      <trkpt lat="42.28199" lon="18.83402">
        <ele>74.098472</ele>
        <time>2022-05-29T08:32:18.785Z</time>
      </trkpt>
      <trkpt lat="42.2819" lon="18.83408">
        <ele>74.725707</ele>
        <time>2022-05-29T08:32:24.746Z</time>
      </trkpt>
      <trkpt lat="42.2818" lon="18.83409">
        <ele>75.326665</ele>
        <time>2022-05-29T08:32:31.727Z</time>
      </trkpt>
      <trkpt lat="42.2817" lon="18.8341">
        <ele>75.926498</ele>
        <time>2022-05-29T08:32:38.744Z</time>
      </trkpt>
      <trkpt lat="42.28161" lon="18.83413">
        <ele>76.476128</ele>
        <time>2022-05-29T08:32:42.718Z</time>
      </trkpt>
      <trkpt lat="42.28152" lon="18.83417">
        <ele>77.025845</ele>
        <time>2022-05-29T08:32:47.830Z</time>
      </trkpt>
      <trkpt lat="42.28142" lon="18.83417">
        <ele>77.606704</ele>
        <time>2022-05-29T08:32:54.734Z</time>
      </trkpt>
      <trkpt lat="42.28132" lon="18.83417">
        <ele>78.199069</ele>
        <time>2022-05-29T08:33:00.734Z</time>
      </trkpt>
      <trkpt lat="42.28123" lon="18.83417">
        <ele>78.749696</ele>
        <time>2022-05-29T08:33:07.749Z</time>
      </trkpt>
      <trkpt lat="42.28114" lon="18.83417">
        <ele>79.306037</ele>
        <time>2022-05-29T08:33:14.741Z</time>
      </trkpt>
      <trkpt lat="42.28104" lon="18.83416">
        <ele>79.887368</ele>
        <time>2022-05-29T08:33:21.747Z</time>
      </trkpt>
      <trkpt lat="42.28095" lon="18.83412">
        <ele>80.475241</ele>
        <time>2022-05-29T08:33:28.739Z</time>
      </trkpt>
      <trkpt lat="42.28085" lon="18.8341">
        <ele>81.042461</ele>
        <time>2022-05-29T08:33:35.728Z</time>
      </trkpt>
      <trkpt lat="42.28076" lon="18.83406">
        <ele>81.645377</ele>
        <time>2022-05-29T08:33:41.750Z</time>
      </trkpt>
      <trkpt lat="42.28068" lon="18.83399">
        <ele>82.198026</ele>
        <time>2022-05-29T08:33:48.746Z</time>
      </trkpt>
      <trkpt lat="42.2806" lon="18.83393">
        <ele>82.883046</ele>
        <time>2022-05-29T08:33:54.737Z</time>
      </trkpt>
      <trkpt lat="42.28051" lon="18.83387">
        <ele>83.667183</ele>
        <time>2022-05-29T08:34:00.748Z</time>
      </trkpt>
      <trkpt lat="42.28044" lon="18.83378">
        <ele>84.381718</ele>
        <time>2022-05-29T08:34:07.738Z</time>
      </trkpt>
      <trkpt lat="42.28039" lon="18.83367">
        <ele>85.179253</ele>
        <time>2022-05-29T08:34:14.750Z</time>
      </trkpt>
      <trkpt lat="42.28033" lon="18.83356">
        <ele>85.961416</ele>
        <time>2022-05-29T08:34:21.733Z</time>
      </trkpt>
      <trkpt lat="42.28027" lon="18.83344">
        <ele>86.741714</ele>
        <time>2022-05-29T08:34:29.750Z</time>
      </trkpt>
      <trkpt lat="42.28022" lon="18.83332">
        <ele>87.529664</ele>
        <time>2022-05-29T08:34:35.778Z</time>
      </trkpt>
      <trkpt lat="42.28014" lon="18.83323">
        <ele>88.365127</ele>
        <time>2022-05-29T08:34:41.729Z</time>
      </trkpt>
      <trkpt lat="42.28005" lon="18.83318">
        <ele>89.091671</ele>
        <time>2022-05-29T08:34:47.730Z</time>
      </trkpt>
      <trkpt lat="42.28001" lon="18.83306">
        <ele>89.858189</ele>
        <time>2022-05-29T08:34:55.772Z</time>
      </trkpt>
      <trkpt lat="42.27995" lon="18.83296">
        <ele>90.55872</ele>
        <time>2022-05-29T08:35:01.740Z</time>
      </trkpt>
      <trkpt lat="42.27988" lon="18.83289">
        <ele>91.259334</ele>
        <time>2022-05-29T08:35:07.746Z</time>
      </trkpt>
      <trkpt lat="42.27979" lon="18.83279">
        <ele>92.11133</ele>
        <time>2022-05-29T08:35:14.728Z</time>
      </trkpt>
      <trkpt lat="42.27971" lon="18.83273">
        <ele>92.866808</ele>
        <time>2022-05-29T08:35:20.741Z</time>
      </trkpt>
      <trkpt lat="42.27962" lon="18.83269">
        <ele>93.585012</ele>
        <time>2022-05-29T08:35:26.742Z</time>
      </trkpt>
      <trkpt lat="42.27952" lon="18.8327">
        <ele>94.353917</ele>
        <time>2022-05-29T08:35:33.742Z</time>
      </trkpt>
      <trkpt lat="42.27943" lon="18.83273">
        <ele>95.115618</ele>
        <time>2022-05-29T08:35:39.750Z</time>
      </trkpt>
      <trkpt lat="42.27934" lon="18.83278">
        <ele>95.823351</ele>
        <time>2022-05-29T08:35:45.747Z</time>
      </trkpt>
      <trkpt lat="42.27927" lon="18.83288">
        <ele>96.463846</ele>
        <time>2022-05-29T08:35:51.771Z</time>
      </trkpt>
      <trkpt lat="42.27921" lon="18.83297">
        <ele>96.986495</ele>
        <time>2022-05-29T08:35:57.752Z</time>
      </trkpt>
      <trkpt lat="42.27913" lon="18.83306">
        <ele>97.56588</ele>
        <time>2022-05-29T08:36:04.756Z</time>
      </trkpt>
      <trkpt lat="42.27904" lon="18.83313">
        <ele>98.139658</ele>
        <time>2022-05-29T08:36:10.735Z</time>
      </trkpt>
      <trkpt lat="42.27897" lon="18.83322">
        <ele>98.659478</ele>
        <time>2022-05-29T08:36:16.720Z</time>
      </trkpt>
      <trkpt lat="42.27889" lon="18.83331">
        <ele>99.243924</ele>
        <time>2022-05-29T08:36:22.729Z</time>
      </trkpt>
      <trkpt lat="42.27881" lon="18.83338">
        <ele>99.77836</ele>
        <time>2022-05-29T08:36:27.734Z</time>
      </trkpt>
      <trkpt lat="42.27872" lon="18.83343">
        <ele>100.297464</ele>
        <time>2022-05-29T08:36:32.803Z</time>
      </trkpt>
      <trkpt lat="42.27864" lon="18.83347">
        <ele>100.819779</ele>
        <time>2022-05-29T08:36:37.757Z</time>
      </trkpt>
      <trkpt lat="42.27853" lon="18.83349">
        <ele>101.395084</ele>
        <time>2022-05-29T08:36:43.801Z</time>
      </trkpt>
      <trkpt lat="42.27844" lon="18.83348">
        <ele>101.942865</ele>
        <time>2022-05-29T08:36:49.752Z</time>
      </trkpt>
      <trkpt lat="42.27834" lon="18.83346">
        <ele>102.468504</ele>
        <time>2022-05-29T08:36:54.744Z</time>
      </trkpt>
      <trkpt lat="42.27825" lon="18.83343">
        <ele>102.996616</ele>
        <time>2022-05-29T08:36:59.762Z</time>
      </trkpt>
      <trkpt lat="42.27816" lon="18.83339">
        <ele>103.530099</ele>
        <time>2022-05-29T08:37:05.732Z</time>
      </trkpt>
      <trkpt lat="42.27809" lon="18.83332">
        <ele>104.029561</ele>
        <time>2022-05-29T08:37:11.736Z</time>
      </trkpt>
      <trkpt lat="42.27802" lon="18.83322">
        <ele>104.600495</ele>
        <time>2022-05-29T08:37:17.736Z</time>
      </trkpt>
      <trkpt lat="42.27795" lon="18.83311">
        <ele>105.201455</ele>
        <time>2022-05-29T08:37:23.724Z</time>
      </trkpt>
      <trkpt lat="42.27791" lon="18.83298">
        <ele>105.783081</ele>
        <time>2022-05-29T08:37:29.748Z</time>
      </trkpt>
      <trkpt lat="42.27787" lon="18.83285">
        <ele>106.396385</ele>
        <time>2022-05-29T08:37:35.741Z</time>
      </trkpt>
      <trkpt lat="42.27783" lon="18.83273">
        <ele>107.086046</ele>
        <time>2022-05-29T08:37:42.735Z</time>
      </trkpt>
      <trkpt lat="42.2778" lon="18.83259">
        <ele>107.802176</ele>
        <time>2022-05-29T08:37:49.766Z</time>
      </trkpt>
      <trkpt lat="42.27777" lon="18.83247">
        <ele>108.439078</ele>
        <time>2022-05-29T08:37:55.726Z</time>
      </trkpt>
      <trkpt lat="42.27775" lon="18.83236">
        <ele>109.062566</ele>
        <time>2022-05-29T08:38:01.753Z</time>
      </trkpt>
      <trkpt lat="42.27773" lon="18.83222">
        <ele>109.774136</ele>
        <time>2022-05-29T08:38:08.735Z</time>
      </trkpt>
      <trkpt lat="42.2777" lon="18.8321">
        <ele>110.404964</ele>
        <time>2022-05-29T08:38:14.741Z</time>
      </trkpt>
      <trkpt lat="42.27768" lon="18.83197">
        <ele>111.106382</ele>
        <time>2022-05-29T08:38:20.795Z</time>
      </trkpt>
      <trkpt lat="42.27765" lon="18.83185">
        <ele>111.736555</ele>
        <time>2022-05-29T08:38:26.741Z</time>
      </trkpt>
      <trkpt lat="42.27764" lon="18.83171">
        <ele>112.456001</ele>
        <time>2022-05-29T08:38:32.736Z</time>
      </trkpt>
      <trkpt lat="42.27767" lon="18.83159">
        <ele>113.109343</ele>
        <time>2022-05-29T08:38:37.735Z</time>
      </trkpt>
      <trkpt lat="42.27769" lon="18.83146">
        <ele>113.761105</ele>
        <time>2022-05-29T08:38:42.752Z</time>
      </trkpt>
      <trkpt lat="42.27774" lon="18.83135">
        <ele>114.467639</ele>
        <time>2022-05-29T08:38:48.716Z</time>
      </trkpt>
      <trkpt lat="42.27778" lon="18.83124">
        <ele>115.097229</ele>
        <time>2022-05-29T08:38:54.737Z</time>
      </trkpt>
      <trkpt lat="42.27783" lon="18.83113">
        <ele>115.777874</ele>
        <time>2022-05-29T08:39:00.751Z</time>
      </trkpt>
      <trkpt lat="42.27788" lon="18.831">
        <ele>116.505672</ele>
        <time>2022-05-29T08:39:07.765Z</time>
      </trkpt>
      <trkpt lat="42.27791" lon="18.83086">
        <ele>117.222979</ele>
        <time>2022-05-29T08:39:13.753Z</time>
      </trkpt>
      <trkpt lat="42.27794" lon="18.83074">
        <ele>117.898452</ele>
        <time>2022-05-29T08:39:19.728Z</time>
      </trkpt>
      <trkpt lat="42.27797" lon="18.83061">
        <ele>118.600138</ele>
        <time>2022-05-29T08:39:25.753Z</time>
      </trkpt>
      <trkpt lat="42.27797" lon="18.83046">
        <ele>119.289233</ele>
        <time>2022-05-29T08:39:31.730Z</time>
      </trkpt>
      <trkpt lat="42.27795" lon="18.83033">
        <ele>119.928551</ele>
        <time>2022-05-29T08:39:37.744Z</time>
      </trkpt>
      <trkpt lat="42.27792" lon="18.83021">
        <ele>120.54908</ele>
        <time>2022-05-29T08:39:43.730Z</time>
      </trkpt>
      <trkpt lat="42.27789" lon="18.83007">
        <ele>121.211498</ele>
        <time>2022-05-29T08:39:50.749Z</time>
      </trkpt>
      <trkpt lat="42.27786" lon="18.82995">
        <ele>121.813855</ele>
        <time>2022-05-29T08:39:56.748Z</time>
      </trkpt>
      <trkpt lat="42.27783" lon="18.82982">
        <ele>122.489608</ele>
        <time>2022-05-29T08:40:02.735Z</time>
      </trkpt>
      <trkpt lat="42.27783" lon="18.82969">
        <ele>123.101221</ele>
        <time>2022-05-29T08:40:08.742Z</time>
      </trkpt>
      <trkpt lat="42.27783" lon="18.82956">
        <ele>123.745416</ele>
        <time>2022-05-29T08:40:14.739Z</time>
      </trkpt>
      <trkpt lat="42.27784" lon="18.82943">
        <ele>124.348845</ele>
        <time>2022-05-29T08:40:20.781Z</time>
      </trkpt>
      <trkpt lat="42.27785" lon="18.82929">
        <ele>125.006389</ele>
        <time>2022-05-29T08:40:26.730Z</time>
      </trkpt>
      <trkpt lat="42.27789" lon="18.82917">
        <ele>125.624833</ele>
        <time>2022-05-29T08:40:33.744Z</time>
      </trkpt>
      <trkpt lat="42.27793" lon="18.82906">
        <ele>126.236772</ele>
        <time>2022-05-29T08:40:39.739Z</time>
      </trkpt>
      <trkpt lat="42.27796" lon="18.82894">
        <ele>126.841711</ele>
        <time>2022-05-29T08:40:46.764Z</time>
      </trkpt>
      <trkpt lat="42.27799" lon="18.82881">
        <ele>127.468751</ele>
        <time>2022-05-29T08:40:52.785Z</time>
      </trkpt>
      <trkpt lat="42.27802" lon="18.82869">
        <ele>128.103847</ele>
        <time>2022-05-29T08:40:58.784Z</time>
      </trkpt>
      <trkpt lat="42.27803" lon="18.82856">
        <ele>128.714757</ele>
        <time>2022-05-29T08:41:04.732Z</time>
      </trkpt>
      <trkpt lat="42.27802" lon="18.82841">
        <ele>129.403344</ele>
        <time>2022-05-29T08:41:10.740Z</time>
      </trkpt>
      <trkpt lat="42.27802" lon="18.82829">
        <ele>129.98551</ele>
        <time>2022-05-29T08:41:15.727Z</time>
      </trkpt>
      <trkpt lat="42.27801" lon="18.82815">
        <ele>130.395639</ele>
        <time>2022-05-29T08:41:21.747Z</time>
      </trkpt>
      <trkpt lat="42.27801" lon="18.82802">
        <ele>130.626802</ele>
        <time>2022-05-29T08:41:26.745Z</time>
      </trkpt>
      <trkpt lat="42.278" lon="18.82787">
        <ele>130.888083</ele>
        <time>2022-05-29T08:41:31.724Z</time>
      </trkpt>
      <trkpt lat="42.278" lon="18.82772">
        <ele>131.151016</ele>
        <time>2022-05-29T08:41:36.735Z</time>
      </trkpt>
      <trkpt lat="42.27798" lon="18.82758">
        <ele>131.401736</ele>
        <time>2022-05-29T08:41:41.753Z</time>
      </trkpt>
      <trkpt lat="42.27797" lon="18.82745">
        <ele>131.645629</ele>
        <time>2022-05-29T08:41:46.727Z</time>
      </trkpt>
      <trkpt lat="42.27796" lon="18.8273">
        <ele>131.900546</ele>
        <time>2022-05-29T08:41:51.753Z</time>
      </trkpt>
      <trkpt lat="42.27796" lon="18.82718">
        <ele>132.120729</ele>
        <time>2022-05-29T08:41:55.737Z</time>
      </trkpt>
      <trkpt lat="42.27795" lon="18.82706">
        <ele>132.33857</ele>
        <time>2022-05-29T08:41:59.749Z</time>
      </trkpt>
      <trkpt lat="42.27795" lon="18.82693">
        <ele>132.560877</ele>
        <time>2022-05-29T08:42:03.726Z</time>
      </trkpt>
      <trkpt lat="42.27793" lon="18.8268">
        <ele>132.793095</ele>
        <time>2022-05-29T08:42:08.747Z</time>
      </trkpt>
      <trkpt lat="42.27792" lon="18.82668">
        <ele>133.015709</ele>
        <time>2022-05-29T08:42:12.750Z</time>
      </trkpt>
      <trkpt lat="42.27791" lon="18.82655">
        <ele>133.245705</ele>
        <time>2022-05-29T08:42:16.740Z</time>
      </trkpt>
      <trkpt lat="42.2779" lon="18.82642">
        <ele>133.480411</ele>
        <time>2022-05-29T08:42:20.733Z</time>
      </trkpt>
      <trkpt lat="42.27791" lon="18.82628">
        <ele>133.725898</ele>
        <time>2022-05-29T08:42:24.734Z</time>
      </trkpt>
      <trkpt lat="42.2779" lon="18.82615">
        <ele>133.95564</ele>
        <time>2022-05-29T08:42:28.744Z</time>
      </trkpt>
      <trkpt lat="42.27791" lon="18.82602">
        <ele>134.188735</ele>
        <time>2022-05-29T08:42:32.763Z</time>
      </trkpt>
      <trkpt lat="42.2779" lon="18.82588">
        <ele>134.442702</ele>
        <time>2022-05-29T08:42:36.724Z</time>
      </trkpt>
      <trkpt lat="42.2779" lon="18.82575">
        <ele>134.44183</ele>
        <time>2022-05-29T08:42:39.763Z</time>
      </trkpt>
      <trkpt lat="42.2779" lon="18.82561">
        <ele>134.22628</ele>
        <time>2022-05-29T08:42:43.750Z</time>
      </trkpt>
      <trkpt lat="42.27791" lon="18.82547">
        <ele>134.00873</ele>
        <time>2022-05-29T08:42:47.743Z</time>
      </trkpt>
      <trkpt lat="42.27793" lon="18.82533">
        <ele>133.796379</ele>
        <time>2022-05-29T08:42:51.728Z</time>
      </trkpt>
      <trkpt lat="42.27795" lon="18.82518">
        <ele>133.564085</ele>
        <time>2022-05-29T08:42:55.771Z</time>
      </trkpt>
      <trkpt lat="42.27797" lon="18.82505">
        <ele>133.344917</ele>
        <time>2022-05-29T08:42:59.743Z</time>
      </trkpt>
      <trkpt lat="42.278" lon="18.82491">
        <ele>133.133151</ele>
        <time>2022-05-29T08:43:03.748Z</time>
      </trkpt>
      <trkpt lat="42.27803" lon="18.82479">
        <ele>132.93307</ele>
        <time>2022-05-29T08:43:08.744Z</time>
      </trkpt>
      <trkpt lat="42.27932" lon="18.82247">
        <ele>121.32149</ele>
        <time>2022-05-29T08:43:46.880Z</time>
      </trkpt>
      <trkpt lat="42.28107" lon="18.8204">
        <ele>111.525144</ele>
        <time>2022-05-29T08:45:03.713Z</time>
      </trkpt>
      <trkpt lat="42.28114" lon="18.82024">
        <ele>111.176056</ele>
        <time>2022-05-29T08:45:05.723Z</time>
      </trkpt>
      <trkpt lat="42.2812" lon="18.82014">
        <ele>112.272314</ele>
        <time>2022-05-29T08:45:07.750Z</time>
      </trkpt>
      <trkpt lat="42.28128" lon="18.82002">
        <ele>113.881633</ele>
        <time>2022-05-29T08:45:10.733Z</time>
      </trkpt>
      <trkpt lat="42.28136" lon="18.81991">
        <ele>115.411336</ele>
        <time>2022-05-29T08:45:13.734Z</time>
      </trkpt>
      <trkpt lat="42.28144" lon="18.81983">
        <ele>116.829865</ele>
        <time>2022-05-29T08:45:16.722Z</time>
      </trkpt>
      <trkpt lat="42.28153" lon="18.81977">
        <ele>118.098788</ele>
        <time>2022-05-29T08:45:19.718Z</time>
      </trkpt>
      <trkpt lat="42.28161" lon="18.81971">
        <ele>119.353426</ele>
        <time>2022-05-29T08:45:22.732Z</time>
      </trkpt>
      <trkpt lat="42.28171" lon="18.81962">
        <ele>120.936889</ele>
        <time>2022-05-29T08:45:26.713Z</time>
      </trkpt>
      <trkpt lat="42.28179" lon="18.81956">
        <ele>122.177973</ele>
        <time>2022-05-29T08:45:29.741Z</time>
      </trkpt>
      <trkpt lat="42.28188" lon="18.81949">
        <ele>123.545788</ele>
        <time>2022-05-29T08:45:32.716Z</time>
      </trkpt>
      <trkpt lat="42.28196" lon="18.81943">
        <ele>124.840479</ele>
        <time>2022-05-29T08:45:35.736Z</time>
      </trkpt>
      <trkpt lat="42.28207" lon="18.81936">
        <ele>126.392689</ele>
        <time>2022-05-29T08:45:39.720Z</time>
      </trkpt>
      <trkpt lat="42.28217" lon="18.81929">
        <ele>127.937391</ele>
        <time>2022-05-29T08:45:43.735Z</time>
      </trkpt>
      <trkpt lat="42.28227" lon="18.81921">
        <ele>129.515145</ele>
        <time>2022-05-29T08:45:47.716Z</time>
      </trkpt>
      <trkpt lat="42.28235" lon="18.81914">
        <ele>130.765704</ele>
        <time>2022-05-29T08:45:50.737Z</time>
      </trkpt>
      <trkpt lat="42.28242" lon="18.81905">
        <ele>132.03705</ele>
        <time>2022-05-29T08:45:53.753Z</time>
      </trkpt>
      <trkpt lat="42.28248" lon="18.81896">
        <ele>133.262202</ele>
        <time>2022-05-29T08:45:56.718Z</time>
      </trkpt>
      <trkpt lat="42.28254" lon="18.81886">
        <ele>134.604778</ele>
        <time>2022-05-29T08:45:59.744Z</time>
      </trkpt>
      <trkpt lat="42.2826" lon="18.81874">
        <ele>135.264521</ele>
        <time>2022-05-29T08:46:02.743Z</time>
      </trkpt>
      <trkpt lat="42.28266" lon="18.81863">
        <ele>135.267846</ele>
        <time>2022-05-29T08:46:05.717Z</time>
      </trkpt>
      <trkpt lat="42.28271" lon="18.81851">
        <ele>135.271072</ele>
        <time>2022-05-29T08:46:08.725Z</time>
      </trkpt>
      <trkpt lat="42.28277" lon="18.8184">
        <ele>135.274238</ele>
        <time>2022-05-29T08:46:11.735Z</time>
      </trkpt>
      <trkpt lat="42.28282" lon="18.81829">
        <ele>135.27738</ele>
        <time>2022-05-29T08:46:14.744Z</time>
      </trkpt>
      <trkpt lat="42.28287" lon="18.81818">
        <ele>135.28058</ele>
        <time>2022-05-29T08:46:17.734Z</time>
      </trkpt>
      <trkpt lat="42.28293" lon="18.81808">
        <ele>135.283762</ele>
        <time>2022-05-29T08:46:20.770Z</time>
      </trkpt>
      <trkpt lat="42.283" lon="18.81798">
        <ele>135.286984</ele>
        <time>2022-05-29T08:46:23.736Z</time>
      </trkpt>
      <trkpt lat="42.28307" lon="18.81789">
        <ele>135.29008</ele>
        <time>2022-05-29T08:46:26.775Z</time>
      </trkpt>
      <trkpt lat="42.28313" lon="18.8178">
        <ele>135.293086</ele>
        <time>2022-05-29T08:46:29.747Z</time>
      </trkpt>
      <trkpt lat="42.2832" lon="18.81772">
        <ele>135.296027</ele>
        <time>2022-05-29T08:46:32.752Z</time>
      </trkpt>
      <trkpt lat="42.28328" lon="18.8176">
        <ele>135.299833</ele>
        <time>2022-05-29T08:46:36.766Z</time>
      </trkpt>
      <trkpt lat="42.28333" lon="18.8175">
        <ele>135.302791</ele>
        <time>2022-05-29T08:46:39.740Z</time>
      </trkpt>
      <trkpt lat="42.28339" lon="18.81739">
        <ele>135.305992</ele>
        <time>2022-05-29T08:46:42.746Z</time>
      </trkpt>
      <trkpt lat="42.28343" lon="18.81727">
        <ele>135.309191</ele>
        <time>2022-05-29T08:46:45.725Z</time>
      </trkpt>
      <trkpt lat="42.28347" lon="18.81715">
        <ele>135.312239</ele>
        <time>2022-05-29T08:46:48.733Z</time>
      </trkpt>
      <trkpt lat="42.28351" lon="18.81703">
        <ele>135.315439</ele>
        <time>2022-05-29T08:46:51.742Z</time>
      </trkpt>
      <trkpt lat="42.28356" lon="18.81691">
        <ele>135.318737</ele>
        <time>2022-05-29T08:46:54.727Z</time>
      </trkpt>
      <trkpt lat="42.28361" lon="18.8168">
        <ele>135.333242</ele>
        <time>2022-05-29T08:46:57.740Z</time>
      </trkpt>
      <trkpt lat="42.28367" lon="18.8167">
        <ele>135.383138</ele>
        <time>2022-05-29T08:47:00.756Z</time>
      </trkpt>
      <trkpt lat="42.28373" lon="18.81661">
        <ele>135.430557</ele>
        <time>2022-05-29T08:47:03.751Z</time>
      </trkpt>
      <trkpt lat="42.28381" lon="18.8165">
        <ele>135.488825</ele>
        <time>2022-05-29T08:47:07.745Z</time>
      </trkpt>
      <trkpt lat="42.28389" lon="18.8164">
        <ele>135.545823</ele>
        <time>2022-05-29T08:47:11.741Z</time>
      </trkpt>
      <trkpt lat="42.28397" lon="18.81632">
        <ele>135.597791</ele>
        <time>2022-05-29T08:47:15.753Z</time>
      </trkpt>
      <trkpt lat="42.28404" lon="18.81624">
        <ele>135.647359</ele>
        <time>2022-05-29T08:47:19.742Z</time>
      </trkpt>
      <trkpt lat="42.28412" lon="18.81616">
        <ele>135.699077</ele>
        <time>2022-05-29T08:47:23.747Z</time>
      </trkpt>
      <trkpt lat="42.28421" lon="18.81609">
        <ele>135.751672</ele>
        <time>2022-05-29T08:47:27.745Z</time>
      </trkpt>
      <trkpt lat="42.2843" lon="18.81604">
        <ele>135.803031</ele>
        <time>2022-05-29T08:47:31.782Z</time>
      </trkpt>
      <trkpt lat="42.28438" lon="18.81598">
        <ele>135.852382</ele>
        <time>2022-05-29T08:47:35.732Z</time>
      </trkpt>
      <trkpt lat="42.28476" lon="18.81552">
        <ele>136.121533</ele>
        <time>2022-05-29T08:49:21.784Z</time>
      </trkpt>
      <trkpt lat="42.28483" lon="18.81543">
        <ele>136.17204</ele>
        <time>2022-05-29T08:49:26.727Z</time>
      </trkpt>
      <trkpt lat="42.28491" lon="18.81535">
        <ele>136.22439</ele>
        <time>2022-05-29T08:49:31.735Z</time>
      </trkpt>
      <trkpt lat="42.28501" lon="18.81528">
        <ele>136.640761</ele>
        <time>2022-05-29T08:49:36.741Z</time>
      </trkpt>
      <trkpt lat="42.28508" lon="18.81521">
        <ele>137.645669</ele>
        <time>2022-05-29T08:49:40.744Z</time>
      </trkpt>
      <trkpt lat="42.28518" lon="18.81514">
        <ele>138.844024</ele>
        <time>2022-05-29T08:49:45.749Z</time>
      </trkpt>
      <trkpt lat="42.28528" lon="18.81509">
        <ele>140.006011</ele>
        <time>2022-05-29T08:49:50.752Z</time>
      </trkpt>
      <trkpt lat="42.28538" lon="18.81504">
        <ele>141.170826</ele>
        <time>2022-05-29T08:49:56.759Z</time>
      </trkpt>
      <trkpt lat="42.28546" lon="18.81498">
        <ele>142.22806</ele>
        <time>2022-05-29T08:50:01.766Z</time>
      </trkpt>
      <trkpt lat="42.28554" lon="18.8149">
        <ele>143.269356</ele>
        <time>2022-05-29T08:50:05.747Z</time>
      </trkpt>
      <trkpt lat="42.28562" lon="18.81481">
        <ele>144.44069</ele>
        <time>2022-05-29T08:50:10.742Z</time>
      </trkpt>
      <trkpt lat="42.28569" lon="18.81471">
        <ele>145.586196</ele>
        <time>2022-05-29T08:50:15.749Z</time>
      </trkpt>
      <trkpt lat="42.28575" lon="18.8146">
        <ele>146.708114</ele>
        <time>2022-05-29T08:50:20.723Z</time>
      </trkpt>
      <trkpt lat="42.2858" lon="18.81448">
        <ele>147.758024</ele>
        <time>2022-05-29T08:50:25.751Z</time>
      </trkpt>
      <trkpt lat="42.28584" lon="18.81436">
        <ele>148.864176</ele>
        <time>2022-05-29T08:50:30.753Z</time>
      </trkpt>
      <trkpt lat="42.28588" lon="18.81422">
        <ele>150.050794</ele>
        <time>2022-05-29T08:50:35.731Z</time>
      </trkpt>
      <trkpt lat="42.28592" lon="18.81409">
        <ele>151.213881</ele>
        <time>2022-05-29T08:50:40.761Z</time>
      </trkpt>
      <trkpt lat="42.28595" lon="18.81395">
        <ele>152.393076</ele>
        <time>2022-05-29T08:50:45.750Z</time>
      </trkpt>
      <trkpt lat="42.28598" lon="18.81382">
        <ele>153.58679</ele>
        <time>2022-05-29T08:50:50.771Z</time>
      </trkpt>
      <trkpt lat="42.28601" lon="18.81369">
        <ele>154.670519</ele>
        <time>2022-05-29T08:50:55.747Z</time>
      </trkpt>
      <trkpt lat="42.28604" lon="18.81355">
        <ele>155.841935</ele>
        <time>2022-05-29T08:51:00.729Z</time>
      </trkpt>
      <trkpt lat="42.28606" lon="18.81341">
        <ele>155.943745</ele>
        <time>2022-05-29T08:51:05.747Z</time>
      </trkpt>
      <trkpt lat="42.28607" lon="18.81327">
        <ele>155.766529</ele>
        <time>2022-05-29T08:51:10.756Z</time>
      </trkpt>
      <trkpt lat="42.28609" lon="18.81313">
        <ele>155.582349</ele>
        <time>2022-05-29T08:51:15.749Z</time>
      </trkpt>
      <trkpt lat="42.28609" lon="18.813">
        <ele>155.418001</ele>
        <time>2022-05-29T08:51:19.745Z</time>
      </trkpt>
      <trkpt lat="42.28609" lon="18.81286">
        <ele>155.243565</ele>
        <time>2022-05-29T08:51:23.826Z</time>
      </trkpt>
      <trkpt lat="42.28608" lon="18.8127">
        <ele>155.039741</ele>
        <time>2022-05-29T08:51:27.727Z</time>
      </trkpt>
      <trkpt lat="42.28607" lon="18.81257">
        <ele>154.870085</ele>
        <time>2022-05-29T08:51:30.757Z</time>
      </trkpt>
      <trkpt lat="42.28605" lon="18.81243">
        <ele>154.687073</ele>
        <time>2022-05-29T08:51:33.736Z</time>
      </trkpt>
      <trkpt lat="42.28602" lon="18.81227">
        <ele>154.483996</ele>
        <time>2022-05-29T08:51:36.739Z</time>
      </trkpt>
      <trkpt lat="42.28601" lon="18.81211">
        <ele>154.27306</ele>
        <time>2022-05-29T08:51:39.725Z</time>
      </trkpt>
      <trkpt lat="42.28598" lon="18.81193">
        <ele>154.045266</ele>
        <time>2022-05-29T08:51:42.752Z</time>
      </trkpt>
      <trkpt lat="42.28595" lon="18.81181">
        <ele>153.883425</ele>
        <time>2022-05-29T08:51:44.738Z</time>
      </trkpt>
      <trkpt lat="42.28593" lon="18.81167">
        <ele>153.70637</ele>
        <time>2022-05-29T08:51:46.743Z</time>
      </trkpt>
      <trkpt lat="42.2859" lon="18.81153">
        <ele>153.517785</ele>
        <time>2022-05-29T08:51:48.757Z</time>
      </trkpt>
      <trkpt lat="42.28587" lon="18.81138">
        <ele>153.315024</ele>
        <time>2022-05-29T08:51:50.796Z</time>
      </trkpt>
      <trkpt lat="42.28583" lon="18.81121">
        <ele>153.086145</ele>
        <time>2022-05-29T08:51:52.738Z</time>
      </trkpt>
      <trkpt lat="42.28579" lon="18.81102">
        <ele>152.334077</ele>
        <time>2022-05-29T08:51:54.747Z</time>
      </trkpt>
      <trkpt lat="42.28576" lon="18.81083">
        <ele>151.252134</ele>
        <time>2022-05-29T08:51:56.738Z</time>
      </trkpt>
      <trkpt lat="42.28571" lon="18.81062">
        <ele>150.085243</ele>
        <time>2022-05-29T08:51:58.736Z</time>
      </trkpt>
      <trkpt lat="42.28566" lon="18.81039">
        <ele>148.76867</ele>
        <time>2022-05-29T08:52:00.757Z</time>
      </trkpt>
      <trkpt lat="42.28563" lon="18.81026">
        <ele>148.067842</ele>
        <time>2022-05-29T08:52:01.732Z</time>
      </trkpt>
      <trkpt lat="42.28561" lon="18.81013">
        <ele>147.333654</ele>
        <time>2022-05-29T08:52:02.745Z</time>
      </trkpt>
      <trkpt lat="42.28558" lon="18.81">
        <ele>146.594209</ele>
        <time>2022-05-29T08:52:03.733Z</time>
      </trkpt>
      <trkpt lat="42.28555" lon="18.80987">
        <ele>145.847809</ele>
        <time>2022-05-29T08:52:04.736Z</time>
      </trkpt>
      <trkpt lat="42.28551" lon="18.80974">
        <ele>145.085875</ele>
        <time>2022-05-29T08:52:05.742Z</time>
      </trkpt>
      <trkpt lat="42.28546" lon="18.80961">
        <ele>144.313374</ele>
        <time>2022-05-29T08:52:06.724Z</time>
      </trkpt>
      <trkpt lat="42.28541" lon="18.80949">
        <ele>143.524106</ele>
        <time>2022-05-29T08:52:07.769Z</time>
      </trkpt>
      <trkpt lat="42.28535" lon="18.80937">
        <ele>142.733968</ele>
        <time>2022-05-29T08:52:08.737Z</time>
      </trkpt>
      <trkpt lat="42.28528" lon="18.80926">
        <ele>141.960721</ele>
        <time>2022-05-29T08:52:09.741Z</time>
      </trkpt>
      <trkpt lat="42.28521" lon="18.80916">
        <ele>141.191698</ele>
        <time>2022-05-29T08:52:10.777Z</time>
      </trkpt>
      <trkpt lat="42.28514" lon="18.80906">
        <ele>140.438305</ele>
        <time>2022-05-29T08:52:11.733Z</time>
      </trkpt>
      <trkpt lat="42.28506" lon="18.80896">
        <ele>139.655938</ele>
        <time>2022-05-29T08:52:12.753Z</time>
      </trkpt>
      <trkpt lat="42.285" lon="18.80886">
        <ele>138.651524</ele>
        <time>2022-05-29T08:52:13.759Z</time>
      </trkpt>
      <trkpt lat="42.28494" lon="18.80876">
        <ele>137.663716</ele>
        <time>2022-05-29T08:52:14.727Z</time>
      </trkpt>
      <trkpt lat="42.28489" lon="18.80865">
        <ele>136.689135</ele>
        <time>2022-05-29T08:52:15.739Z</time>
      </trkpt>
      <trkpt lat="42.28486" lon="18.80853">
        <ele>135.747836</ele>
        <time>2022-05-29T08:52:16.740Z</time>
      </trkpt>
      <trkpt lat="42.28484" lon="18.80841">
        <ele>134.796976</ele>
        <time>2022-05-29T08:52:17.729Z</time>
      </trkpt>
      <trkpt lat="42.28483" lon="18.80818">
        <ele>133.002888</ele>
        <time>2022-05-29T08:52:19.744Z</time>
      </trkpt>
      <trkpt lat="42.28485" lon="18.80805">
        <ele>132.036529</ele>
        <time>2022-05-29T08:52:20.740Z</time>
      </trkpt>
      <trkpt lat="42.28489" lon="18.80793">
        <ele>130.991489</ele>
        <time>2022-05-29T08:52:21.754Z</time>
      </trkpt>
      <trkpt lat="42.28494" lon="18.8078">
        <ele>129.853746</ele>
        <time>2022-05-29T08:52:22.752Z</time>
      </trkpt>
      <trkpt lat="42.28501" lon="18.80766">
        <ele>128.63252</ele>
        <time>2022-05-29T08:52:23.745Z</time>
      </trkpt>
      <trkpt lat="42.28507" lon="18.80754">
        <ele>127.454031</ele>
        <time>2022-05-29T08:52:24.751Z</time>
      </trkpt>
      <trkpt lat="42.28514" lon="18.80742">
        <ele>126.324595</ele>
        <time>2022-05-29T08:52:25.735Z</time>
      </trkpt>
      <trkpt lat="42.2852" lon="18.8073">
        <ele>125.241881</ele>
        <time>2022-05-29T08:52:26.744Z</time>
      </trkpt>
      <trkpt lat="42.28524" lon="18.80718">
        <ele>124.192393</ele>
        <time>2022-05-29T08:52:27.740Z</time>
      </trkpt>
      <trkpt lat="42.28527" lon="18.80705">
        <ele>123.148908</ele>
        <time>2022-05-29T08:52:28.733Z</time>
      </trkpt>
      <trkpt lat="42.28529" lon="18.80692">
        <ele>122.137677</ele>
        <time>2022-05-29T08:52:29.736Z</time>
      </trkpt>
      <trkpt lat="42.2853" lon="18.80678">
        <ele>121.118075</ele>
        <time>2022-05-29T08:52:30.757Z</time>
      </trkpt>
      <trkpt lat="42.28531" lon="18.80664">
        <ele>120.243702</ele>
        <time>2022-05-29T08:52:31.726Z</time>
      </trkpt>
      <trkpt lat="42.28531" lon="18.80651">
        <ele>119.362969</ele>
        <time>2022-05-29T08:52:32.749Z</time>
      </trkpt>
      <trkpt lat="42.28532" lon="18.80637">
        <ele>118.473996</ele>
        <time>2022-05-29T08:52:33.779Z</time>
      </trkpt>
      <trkpt lat="42.28534" lon="18.80623">
        <ele>117.596635</ele>
        <time>2022-05-29T08:52:34.753Z</time>
      </trkpt>
      <trkpt lat="42.28537" lon="18.8061">
        <ele>116.719346</ele>
        <time>2022-05-29T08:52:35.740Z</time>
      </trkpt>
      <trkpt lat="42.28541" lon="18.80597">
        <ele>115.846842</ele>
        <time>2022-05-29T08:52:36.740Z</time>
      </trkpt>
      <trkpt lat="42.28547" lon="18.80586">
        <ele>115.000968</ele>
        <time>2022-05-29T08:52:37.733Z</time>
      </trkpt>
      <trkpt lat="42.28553" lon="18.80576">
        <ele>114.165338</ele>
        <time>2022-05-29T08:52:38.769Z</time>
      </trkpt>
      <trkpt lat="42.28559" lon="18.80567">
        <ele>113.338295</ele>
        <time>2022-05-29T08:52:39.732Z</time>
      </trkpt>
      <trkpt lat="42.28567" lon="18.80559">
        <ele>112.491219</ele>
        <time>2022-05-29T08:52:40.730Z</time>
      </trkpt>
      <trkpt lat="42.28576" lon="18.80552">
        <ele>111.604451</ele>
        <time>2022-05-29T08:52:41.748Z</time>
      </trkpt>
      <trkpt lat="42.28586" lon="18.80546">
        <ele>110.66188</ele>
        <time>2022-05-29T08:52:42.738Z</time>
      </trkpt>
      <trkpt lat="42.28597" lon="18.80542">
        <ele>109.712379</ele>
        <time>2022-05-29T08:52:43.739Z</time>
      </trkpt>
      <trkpt lat="42.28608" lon="18.8054">
        <ele>108.741781</ele>
        <time>2022-05-29T08:52:44.747Z</time>
      </trkpt>
      <trkpt lat="42.2862" lon="18.8054">
        <ele>107.725574</ele>
        <time>2022-05-29T08:52:45.753Z</time>
      </trkpt>
      <trkpt lat="42.28631" lon="18.80542">
        <ele>106.713457</ele>
        <time>2022-05-29T08:52:46.737Z</time>
      </trkpt>
      <trkpt lat="42.28643" lon="18.80545">
        <ele>105.743141</ele>
        <time>2022-05-29T08:52:47.769Z</time>
      </trkpt>
      <trkpt lat="42.28653" lon="18.80548">
        <ele>104.847214</ele>
        <time>2022-05-29T08:52:48.753Z</time>
      </trkpt>
      <trkpt lat="42.28664" lon="18.80552">
        <ele>103.96418</ele>
        <time>2022-05-29T08:52:49.747Z</time>
      </trkpt>
      <trkpt lat="42.28675" lon="18.80555">
        <ele>103.065465</ele>
        <time>2022-05-29T08:52:50.744Z</time>
      </trkpt>
      <trkpt lat="42.28686" lon="18.80558">
        <ele>102.142978</ele>
        <time>2022-05-29T08:52:51.730Z</time>
      </trkpt>
      <trkpt lat="42.28697" lon="18.8056">
        <ele>101.227702</ele>
        <time>2022-05-29T08:52:52.749Z</time>
      </trkpt>
      <trkpt lat="42.28708" lon="18.80562">
        <ele>100.331742</ele>
        <time>2022-05-29T08:52:53.740Z</time>
      </trkpt>
      <trkpt lat="42.28719" lon="18.80564">
        <ele>99.44454</ele>
        <time>2022-05-29T08:52:54.778Z</time>
      </trkpt>
      <trkpt lat="42.2873" lon="18.80566">
        <ele>98.558043</ele>
        <time>2022-05-29T08:52:55.758Z</time>
      </trkpt>
      <trkpt lat="42.28741" lon="18.80567">
        <ele>97.666419</ele>
        <time>2022-05-29T08:52:56.743Z</time>
      </trkpt>
      <trkpt lat="42.28752" lon="18.80568">
        <ele>96.776058</ele>
        <time>2022-05-29T08:52:57.743Z</time>
      </trkpt>
      <trkpt lat="42.28763" lon="18.80569">
        <ele>95.877633</ele>
        <time>2022-05-29T08:52:58.727Z</time>
      </trkpt>
      <trkpt lat="42.28775" lon="18.8057">
        <ele>94.92157</ele>
        <time>2022-05-29T08:52:59.753Z</time>
      </trkpt>
      <trkpt lat="42.28787" lon="18.80571">
        <ele>93.975807</ele>
        <time>2022-05-29T08:53:00.764Z</time>
      </trkpt>
      <trkpt lat="42.28798" lon="18.80571">
        <ele>93.029837</ele>
        <time>2022-05-29T08:53:01.743Z</time>
      </trkpt>
      <trkpt lat="42.2881" lon="18.80573">
        <ele>92.102524</ele>
        <time>2022-05-29T08:53:02.744Z</time>
      </trkpt>
      <trkpt lat="42.28822" lon="18.80576">
        <ele>91.075722</ele>
        <time>2022-05-29T08:53:03.738Z</time>
      </trkpt>
      <trkpt lat="42.28833" lon="18.8058">
        <ele>89.623632</ele>
        <time>2022-05-29T08:53:04.738Z</time>
      </trkpt>
      <trkpt lat="42.28845" lon="18.80584">
        <ele>88.227425</ele>
        <time>2022-05-29T08:53:05.744Z</time>
      </trkpt>
      <trkpt lat="42.28856" lon="18.8059">
        <ele>86.809136</ele>
        <time>2022-05-29T08:53:06.762Z</time>
      </trkpt>
      <trkpt lat="42.28867" lon="18.80597">
        <ele>85.368329</ele>
        <time>2022-05-29T08:53:07.733Z</time>
      </trkpt>
      <trkpt lat="42.28877" lon="18.80605">
        <ele>83.861958</ele>
        <time>2022-05-29T08:53:08.759Z</time>
      </trkpt>
      <trkpt lat="42.28888" lon="18.80615">
        <ele>82.358034</ele>
        <time>2022-05-29T08:53:09.752Z</time>
      </trkpt>
      <trkpt lat="42.28897" lon="18.80627">
        <ele>80.857143</ele>
        <time>2022-05-29T08:53:10.737Z</time>
      </trkpt>
      <trkpt lat="42.28905" lon="18.8064">
        <ele>79.336449</ele>
        <time>2022-05-29T08:53:11.747Z</time>
      </trkpt>
      <trkpt lat="42.28913" lon="18.80653">
        <ele>77.832154</ele>
        <time>2022-05-29T08:53:12.782Z</time>
      </trkpt>
      <trkpt lat="42.28921" lon="18.80666">
        <ele>76.313406</ele>
        <time>2022-05-29T08:53:13.735Z</time>
      </trkpt>
      <trkpt lat="42.28929" lon="18.80679">
        <ele>74.776965</ele>
        <time>2022-05-29T08:53:14.734Z</time>
      </trkpt>
      <trkpt lat="42.28938" lon="18.80692">
        <ele>73.232281</ele>
        <time>2022-05-29T08:53:15.726Z</time>
      </trkpt>
      <trkpt lat="42.28948" lon="18.80704">
        <ele>71.720201</ele>
        <time>2022-05-29T08:53:16.734Z</time>
      </trkpt>
      <trkpt lat="42.28957" lon="18.80715">
        <ele>70.235069</ele>
        <time>2022-05-29T08:53:17.767Z</time>
      </trkpt>
      <trkpt lat="42.28966" lon="18.80725">
        <ele>69.013961</ele>
        <time>2022-05-29T08:53:18.739Z</time>
      </trkpt>
      <trkpt lat="42.28976" lon="18.80735">
        <ele>67.945136</ele>
        <time>2022-05-29T08:53:19.741Z</time>
      </trkpt>
      <trkpt lat="42.28986" lon="18.80744">
        <ele>66.859904</ele>
        <time>2022-05-29T08:53:20.734Z</time>
      </trkpt>
      <trkpt lat="42.28997" lon="18.80751">
        <ele>65.770024</ele>
        <time>2022-05-29T08:53:21.747Z</time>
      </trkpt>
      <trkpt lat="42.29008" lon="18.80757">
        <ele>64.683948</ele>
        <time>2022-05-29T08:53:22.749Z</time>
      </trkpt>
      <trkpt lat="42.2902" lon="18.80761">
        <ele>63.579589</ele>
        <time>2022-05-29T08:53:23.750Z</time>
      </trkpt>
      <trkpt lat="42.29033" lon="18.80763">
        <ele>62.459349</ele>
        <time>2022-05-29T08:53:24.725Z</time>
      </trkpt>
      <trkpt lat="42.29045" lon="18.80765">
        <ele>61.382532</ele>
        <time>2022-05-29T08:53:25.730Z</time>
      </trkpt>
      <trkpt lat="42.29057" lon="18.80765">
        <ele>60.318711</ele>
        <time>2022-05-29T08:53:26.729Z</time>
      </trkpt>
      <trkpt lat="42.29068" lon="18.80765">
        <ele>59.299544</ele>
        <time>2022-05-29T08:53:27.753Z</time>
      </trkpt>
      <trkpt lat="42.2908" lon="18.80763">
        <ele>58.275438</ele>
        <time>2022-05-29T08:53:28.748Z</time>
      </trkpt>
      <trkpt lat="42.29091" lon="18.80761">
        <ele>57.254362</ele>
        <time>2022-05-29T08:53:29.760Z</time>
      </trkpt>
      <trkpt lat="42.29102" lon="18.80758">
        <ele>56.213594</ele>
        <time>2022-05-29T08:53:30.732Z</time>
      </trkpt>
      <trkpt lat="42.29114" lon="18.80756">
        <ele>55.162942</ele>
        <time>2022-05-29T08:53:31.744Z</time>
      </trkpt>
      <trkpt lat="42.29125" lon="18.80752">
        <ele>54.13133</ele>
        <time>2022-05-29T08:53:32.730Z</time>
      </trkpt>
      <trkpt lat="42.29136" lon="18.80749">
        <ele>53.475431</ele>
        <time>2022-05-29T08:53:33.754Z</time>
      </trkpt>
      <trkpt lat="42.29147" lon="18.80746">
        <ele>53.179588</ele>
        <time>2022-05-29T08:53:34.737Z</time>
      </trkpt>
      <trkpt lat="42.29158" lon="18.80743">
        <ele>52.889635</ele>
        <time>2022-05-29T08:53:35.747Z</time>
      </trkpt>
      <trkpt lat="42.29169" lon="18.8074">
        <ele>52.593792</ele>
        <time>2022-05-29T08:53:36.750Z</time>
      </trkpt>
      <trkpt lat="42.29181" lon="18.80737">
        <ele>52.297541</ele>
        <time>2022-05-29T08:53:37.728Z</time>
      </trkpt>
      <trkpt lat="42.29192" lon="18.80733">
        <ele>52.003412</ele>
        <time>2022-05-29T08:53:38.754Z</time>
      </trkpt>
      <trkpt lat="42.29202" lon="18.8073">
        <ele>51.715993</ele>
        <time>2022-05-29T08:53:39.730Z</time>
      </trkpt>
      <trkpt lat="42.29213" lon="18.80726">
        <ele>51.429916</ele>
        <time>2022-05-29T08:53:40.737Z</time>
      </trkpt>
      <trkpt lat="42.29224" lon="18.80723">
        <ele>51.144673</ele>
        <time>2022-05-29T08:53:41.731Z</time>
      </trkpt>
      <trkpt lat="42.29234" lon="18.8072">
        <ele>50.86493</ele>
        <time>2022-05-29T08:53:42.751Z</time>
      </trkpt>
      <trkpt lat="42.29244" lon="18.80717">
        <ele>50.590685</ele>
        <time>2022-05-29T08:53:43.736Z</time>
      </trkpt>
      <trkpt lat="42.29255" lon="18.80715">
        <ele>50.323378</ele>
        <time>2022-05-29T08:53:44.742Z</time>
      </trkpt>
      <trkpt lat="42.29265" lon="18.80713">
        <ele>50.056712</ele>
        <time>2022-05-29T08:53:45.751Z</time>
      </trkpt>
      <trkpt lat="42.29275" lon="18.80711">
        <ele>49.792922</ele>
        <time>2022-05-29T08:53:46.760Z</time>
      </trkpt>
      <trkpt lat="42.29285" lon="18.80708">
        <ele>49.531707</ele>
        <time>2022-05-29T08:53:47.749Z</time>
      </trkpt>
      <trkpt lat="42.29294" lon="18.80707">
        <ele>49.281381</ele>
        <time>2022-05-29T08:53:48.737Z</time>
      </trkpt>
      <trkpt lat="42.29303" lon="18.80705">
        <ele>49.037008</ele>
        <time>2022-05-29T08:53:49.725Z</time>
      </trkpt>
      <trkpt lat="42.29312" lon="18.80704">
        <ele>48.936438</ele>
        <time>2022-05-29T08:53:50.774Z</time>
      </trkpt>
      <trkpt lat="42.2933" lon="18.80702">
        <ele>48.942942</ele>
        <time>2022-05-29T08:53:52.756Z</time>
      </trkpt>
      <trkpt lat="42.29347" lon="18.807">
        <ele>48.949267</ele>
        <time>2022-05-29T08:53:54.730Z</time>
      </trkpt>
      <trkpt lat="42.29364" lon="18.80698">
        <ele>48.955297</ele>
        <time>2022-05-29T08:53:56.745Z</time>
      </trkpt>
      <trkpt lat="42.29379" lon="18.80696">
        <ele>48.960989</ele>
        <time>2022-05-29T08:53:58.744Z</time>
      </trkpt>
      <trkpt lat="42.29394" lon="18.80695">
        <ele>48.966491</ele>
        <time>2022-05-29T08:54:00.726Z</time>
      </trkpt>
      <trkpt lat="42.29408" lon="18.80693">
        <ele>48.971636</ele>
        <time>2022-05-29T08:54:02.732Z</time>
      </trkpt>
      <trkpt lat="42.29421" lon="18.80692">
        <ele>48.976366</ele>
        <time>2022-05-29T08:54:04.763Z</time>
      </trkpt>
      <trkpt lat="42.29433" lon="18.80693">
        <ele>48.980871</ele>
        <time>2022-05-29T08:54:06.769Z</time>
      </trkpt>
      <trkpt lat="42.29445" lon="18.80693">
        <ele>48.98501</ele>
        <time>2022-05-29T08:54:08.780Z</time>
      </trkpt>
      <trkpt lat="42.29455" lon="18.80694">
        <ele>48.988825</ele>
        <time>2022-05-29T08:54:10.749Z</time>
      </trkpt>
      <trkpt lat="42.29465" lon="18.80695">
        <ele>48.992353</ele>
        <time>2022-05-29T08:54:12.731Z</time>
      </trkpt>
      <trkpt lat="42.29474" lon="18.80696">
        <ele>48.995889</ele>
        <time>2022-05-29T08:54:14.734Z</time>
      </trkpt>
      <trkpt lat="42.29487" lon="18.80698">
        <ele>49.017382</ele>
        <time>2022-05-29T08:54:17.741Z</time>
      </trkpt>
      <trkpt lat="42.29501" lon="18.807">
        <ele>49.268656</ele>
        <time>2022-05-29T08:54:20.748Z</time>
      </trkpt>
      <trkpt lat="42.2951" lon="18.80702">
        <ele>49.445444</ele>
        <time>2022-05-29T08:54:22.738Z</time>
      </trkpt>
      <trkpt lat="42.2952" lon="18.80703">
        <ele>49.61977</ele>
        <time>2022-05-29T08:54:24.755Z</time>
      </trkpt>
      <trkpt lat="42.29533" lon="18.80705">
        <ele>49.872769</ele>
        <time>2022-05-29T08:54:27.734Z</time>
      </trkpt>
      <trkpt lat="42.29543" lon="18.80706">
        <ele>50.050473</ele>
        <time>2022-05-29T08:54:29.735Z</time>
      </trkpt>
      <trkpt lat="42.29552" lon="18.80707">
        <ele>50.220838</ele>
        <time>2022-05-29T08:54:31.749Z</time>
      </trkpt>
      <trkpt lat="42.29565" lon="18.80709">
        <ele>50.472718</ele>
        <time>2022-05-29T08:54:34.727Z</time>
      </trkpt>
      <trkpt lat="42.29574" lon="18.80711">
        <ele>50.64107</ele>
        <time>2022-05-29T08:54:36.718Z</time>
      </trkpt>
      <trkpt lat="42.29583" lon="18.80713">
        <ele>50.809896</ele>
        <time>2022-05-29T08:54:38.743Z</time>
      </trkpt>
      <trkpt lat="42.29596" lon="18.80715">
        <ele>51.048994</ele>
        <time>2022-05-29T08:54:41.753Z</time>
      </trkpt>
      <trkpt lat="42.29607" lon="18.80718">
        <ele>51.269814</ele>
        <time>2022-05-29T08:54:44.749Z</time>
      </trkpt>
      <trkpt lat="42.29619" lon="18.8072">
        <ele>51.4851</ele>
        <time>2022-05-29T08:54:47.749Z</time>
      </trkpt>
      <trkpt lat="42.29631" lon="18.80722">
        <ele>51.71382</ele>
        <time>2022-05-29T08:54:50.737Z</time>
      </trkpt>
      <trkpt lat="42.29642" lon="18.80723">
        <ele>51.927548</ele>
        <time>2022-05-29T08:54:53.775Z</time>
      </trkpt>
      <trkpt lat="42.29654" lon="18.80724">
        <ele>52.151811</ele>
        <time>2022-05-29T08:54:56.734Z</time>
      </trkpt>
      <trkpt lat="42.29666" lon="18.80725">
        <ele>52.370809</ele>
        <time>2022-05-29T08:54:59.735Z</time>
      </trkpt>
      <trkpt lat="42.29677" lon="18.80726">
        <ele>52.552494</ele>
        <time>2022-05-29T08:55:02.754Z</time>
      </trkpt>
      <trkpt lat="42.29687" lon="18.80727">
        <ele>52.727777</ele>
        <time>2022-05-29T08:55:05.738Z</time>
      </trkpt>
      <trkpt lat="42.29698" lon="18.80728">
        <ele>52.902888</ele>
        <time>2022-05-29T08:55:08.754Z</time>
      </trkpt>
      <trkpt lat="42.29708" lon="18.80729">
        <ele>53.07642</ele>
        <time>2022-05-29T08:55:11.729Z</time>
      </trkpt>
      <trkpt lat="42.29719" lon="18.8073">
        <ele>53.256278</ele>
        <time>2022-05-29T08:55:14.755Z</time>
      </trkpt>
      <trkpt lat="42.29729" lon="18.8073">
        <ele>53.426062</ele>
        <time>2022-05-29T08:55:17.729Z</time>
      </trkpt>
      <trkpt lat="42.2974" lon="18.8073">
        <ele>53.597564</ele>
        <time>2022-05-29T08:55:20.755Z</time>
      </trkpt>
      <trkpt lat="42.29751" lon="18.80731">
        <ele>53.782457</ele>
        <time>2022-05-29T08:55:23.754Z</time>
      </trkpt>
      <trkpt lat="42.29762" lon="18.80731">
        <ele>53.967404</ele>
        <time>2022-05-29T08:55:26.750Z</time>
      </trkpt>
      <trkpt lat="42.29773" lon="18.80732">
        <ele>54.145497</ele>
        <time>2022-05-29T08:55:29.748Z</time>
      </trkpt>
      <trkpt lat="42.29783" lon="18.80732">
        <ele>54.325254</ele>
        <time>2022-05-29T08:55:32.731Z</time>
      </trkpt>
      <trkpt lat="42.29793" lon="18.80732">
        <ele>54.491805</ele>
        <time>2022-05-29T08:55:35.730Z</time>
      </trkpt>
      <trkpt lat="42.29802" lon="18.80732">
        <ele>54.643388</ele>
        <time>2022-05-29T08:55:38.758Z</time>
      </trkpt>
      <trkpt lat="42.29812" lon="18.80731">
        <ele>54.799961</ele>
        <time>2022-05-29T08:55:41.736Z</time>
      </trkpt>
      <trkpt lat="42.29822" lon="18.80731">
        <ele>54.963186</ele>
        <time>2022-05-29T08:55:44.728Z</time>
      </trkpt>
      <trkpt lat="42.29832" lon="18.8073">
        <ele>55.13136</ele>
        <time>2022-05-29T08:55:47.729Z</time>
      </trkpt>
      <trkpt lat="42.29842" lon="18.8073">
        <ele>55.309448</ele>
        <time>2022-05-29T08:55:50.736Z</time>
      </trkpt>
      <trkpt lat="42.29853" lon="18.80729">
        <ele>55.536863</ele>
        <time>2022-05-29T08:55:53.729Z</time>
      </trkpt>
      <trkpt lat="42.29863" lon="18.80728">
        <ele>55.79286</ele>
        <time>2022-05-29T08:55:56.740Z</time>
      </trkpt>
      <trkpt lat="42.29874" lon="18.80727">
        <ele>56.057671</ele>
        <time>2022-05-29T08:55:59.736Z</time>
      </trkpt>
      <trkpt lat="42.29885" lon="18.80726">
        <ele>56.315421</ele>
        <time>2022-05-29T08:56:02.728Z</time>
      </trkpt>
      <trkpt lat="42.29895" lon="18.80725">
        <ele>56.568524</ele>
        <time>2022-05-29T08:56:05.791Z</time>
      </trkpt>
      <trkpt lat="42.29907" lon="18.80723">
        <ele>56.846394</ele>
        <time>2022-05-29T08:56:08.737Z</time>
      </trkpt>
      <trkpt lat="42.29918" lon="18.80722">
        <ele>57.108501</ele>
        <time>2022-05-29T08:56:11.782Z</time>
      </trkpt>
      <trkpt lat="42.29928" lon="18.80722">
        <ele>57.348931</ele>
        <time>2022-05-29T08:56:14.767Z</time>
      </trkpt>
      <trkpt lat="42.29939" lon="18.80721">
        <ele>57.608949</ele>
        <time>2022-05-29T08:56:17.735Z</time>
      </trkpt>
      <trkpt lat="42.29949" lon="18.80719">
        <ele>57.852642</ele>
        <time>2022-05-29T08:56:20.729Z</time>
      </trkpt>
      <trkpt lat="42.29959" lon="18.80718">
        <ele>58.089163</ele>
        <time>2022-05-29T08:56:23.742Z</time>
      </trkpt>
      <trkpt lat="42.29969" lon="18.80717">
        <ele>58.34003</ele>
        <time>2022-05-29T08:56:26.748Z</time>
      </trkpt>
      <trkpt lat="42.29979" lon="18.80715">
        <ele>58.588861</ele>
        <time>2022-05-29T08:56:29.762Z</time>
      </trkpt>
      <trkpt lat="42.29991" lon="18.80713">
        <ele>58.870215</ele>
        <time>2022-05-29T08:56:32.738Z</time>
      </trkpt>
      <trkpt lat="42.30003" lon="18.8071">
        <ele>59.164782</ele>
        <time>2022-05-29T08:56:35.763Z</time>
      </trkpt>
      <trkpt lat="42.30014" lon="18.80708">
        <ele>59.439811</ele>
        <time>2022-05-29T08:56:38.755Z</time>
      </trkpt>
      <trkpt lat="42.30026" lon="18.80706">
        <ele>59.698787</ele>
        <time>2022-05-29T08:56:41.746Z</time>
      </trkpt>
      <trkpt lat="42.30037" lon="18.80703">
        <ele>59.883931</ele>
        <time>2022-05-29T08:56:44.707Z</time>
      </trkpt>
      <trkpt lat="42.30048" lon="18.80701">
        <ele>60.062369</ele>
        <time>2022-05-29T08:56:47.789Z</time>
      </trkpt>
      <trkpt lat="42.30058" lon="18.80698">
        <ele>60.228594</ele>
        <time>2022-05-29T08:56:50.731Z</time>
      </trkpt>
      <trkpt lat="42.30068" lon="18.80696">
        <ele>60.391242</ele>
        <time>2022-05-29T08:56:53.746Z</time>
      </trkpt>
      <trkpt lat="42.30078" lon="18.80693">
        <ele>60.556119</ele>
        <time>2022-05-29T08:56:56.753Z</time>
      </trkpt>
      <trkpt lat="42.30088" lon="18.80691">
        <ele>60.717191</ele>
        <time>2022-05-29T08:56:59.728Z</time>
      </trkpt>
      <trkpt lat="42.30098" lon="18.80688">
        <ele>60.88499</ele>
        <time>2022-05-29T08:57:02.727Z</time>
      </trkpt>
      <trkpt lat="42.30109" lon="18.80686">
        <ele>61.057514</ele>
        <time>2022-05-29T08:57:05.796Z</time>
      </trkpt>
      <trkpt lat="42.3012" lon="18.80683">
        <ele>61.231408</ele>
        <time>2022-05-29T08:57:08.730Z</time>
      </trkpt>
      <trkpt lat="42.30131" lon="18.80681">
        <ele>61.406497</ele>
        <time>2022-05-29T08:57:11.778Z</time>
      </trkpt>
      <trkpt lat="42.30141" lon="18.80679">
        <ele>61.581405</ele>
        <time>2022-05-29T08:57:14.746Z</time>
      </trkpt>
      <trkpt lat="42.30152" lon="18.80676">
        <ele>61.747207</ele>
        <time>2022-05-29T08:57:17.780Z</time>
      </trkpt>
      <trkpt lat="42.30162" lon="18.80674">
        <ele>61.91262</ele>
        <time>2022-05-29T08:57:20.746Z</time>
      </trkpt>
      <trkpt lat="42.30172" lon="18.80672">
        <ele>62.079803</ele>
        <time>2022-05-29T08:57:23.767Z</time>
      </trkpt>
      <trkpt lat="42.30183" lon="18.80669">
        <ele>62.257057</ele>
        <time>2022-05-29T08:57:26.731Z</time>
      </trkpt>
      <trkpt lat="42.30194" lon="18.80667">
        <ele>62.437671</ele>
        <time>2022-05-29T08:57:29.733Z</time>
      </trkpt>
      <trkpt lat="42.30204" lon="18.80664">
        <ele>62.612471</ele>
        <time>2022-05-29T08:57:32.748Z</time>
      </trkpt>
      <trkpt lat="42.30214" lon="18.80662">
        <ele>62.7934</ele>
        <time>2022-05-29T08:57:35.762Z</time>
      </trkpt>
      <trkpt lat="42.30223" lon="18.80659">
        <ele>62.969201</ele>
        <time>2022-05-29T08:57:38.738Z</time>
      </trkpt>
      <trkpt lat="42.30233" lon="18.80656">
        <ele>63.172176</ele>
        <time>2022-05-29T08:57:41.759Z</time>
      </trkpt>
      <trkpt lat="42.30244" lon="18.80654">
        <ele>63.376248</ele>
        <time>2022-05-29T08:57:44.744Z</time>
      </trkpt>
      <trkpt lat="42.30254" lon="18.80651">
        <ele>63.572072</ele>
        <time>2022-05-29T08:57:47.738Z</time>
      </trkpt>
      <trkpt lat="42.30263" lon="18.80648">
        <ele>63.758942</ele>
        <time>2022-05-29T08:57:50.770Z</time>
      </trkpt>
      <trkpt lat="42.30274" lon="18.80645">
        <ele>63.961651</ele>
        <time>2022-05-29T08:57:53.745Z</time>
      </trkpt>
      <trkpt lat="42.30285" lon="18.80643">
        <ele>64.178377</ele>
        <time>2022-05-29T08:57:56.735Z</time>
      </trkpt>
      <trkpt lat="42.30297" lon="18.80641">
        <ele>64.40429</ele>
        <time>2022-05-29T08:57:59.744Z</time>
      </trkpt>
      <trkpt lat="42.30309" lon="18.80639">
        <ele>64.629351</ele>
        <time>2022-05-29T08:58:02.745Z</time>
      </trkpt>
      <trkpt lat="42.3032" lon="18.80637">
        <ele>64.836705</ele>
        <time>2022-05-29T08:58:05.729Z</time>
      </trkpt>
      <trkpt lat="42.3033" lon="18.80634">
        <ele>65.041153</ele>
        <time>2022-05-29T08:58:08.728Z</time>
      </trkpt>
      <trkpt lat="42.3034" lon="18.80631">
        <ele>65.238833</ele>
        <time>2022-05-29T08:58:11.743Z</time>
      </trkpt>
      <trkpt lat="42.3035" lon="18.80627">
        <ele>65.424858</ele>
        <time>2022-05-29T08:58:14.742Z</time>
      </trkpt>
      <trkpt lat="42.3036" lon="18.80624">
        <ele>65.620765</ele>
        <time>2022-05-29T08:58:17.742Z</time>
      </trkpt>
      <trkpt lat="42.3037" lon="18.80621">
        <ele>65.816026</ele>
        <time>2022-05-29T08:58:20.758Z</time>
      </trkpt>
      <trkpt lat="42.30382" lon="18.80619">
        <ele>65.995642</ele>
        <time>2022-05-29T08:58:23.750Z</time>
      </trkpt>
      <trkpt lat="42.30393" lon="18.80617">
        <ele>66.094713</ele>
        <time>2022-05-29T08:58:26.731Z</time>
      </trkpt>
      <trkpt lat="42.30403" lon="18.80614">
        <ele>66.179415</ele>
        <time>2022-05-29T08:58:29.725Z</time>
      </trkpt>
      <trkpt lat="42.30414" lon="18.80612">
        <ele>66.273176</ele>
        <time>2022-05-29T08:58:32.741Z</time>
      </trkpt>
      <trkpt lat="42.30425" lon="18.80609">
        <ele>66.366616</ele>
        <time>2022-05-29T08:58:35.731Z</time>
      </trkpt>
      <trkpt lat="42.30435" lon="18.80604">
        <ele>66.450836</ele>
        <time>2022-05-29T08:58:38.765Z</time>
      </trkpt>
      <trkpt lat="42.30443" lon="18.80601">
        <ele>66.528127</ele>
        <time>2022-05-29T08:58:41.724Z</time>
      </trkpt>
      <trkpt lat="42.30454" lon="18.80597">
        <ele>66.617027</ele>
        <time>2022-05-29T08:58:44.742Z</time>
      </trkpt>
      <trkpt lat="42.30464" lon="18.80593">
        <ele>66.705928</ele>
        <time>2022-05-29T08:58:47.742Z</time>
      </trkpt>
      <trkpt lat="42.30473" lon="18.80589">
        <ele>66.790362</ele>
        <time>2022-05-29T08:58:50.732Z</time>
      </trkpt>
      <trkpt lat="42.30483" lon="18.80585">
        <ele>66.872133</ele>
        <time>2022-05-29T08:58:53.747Z</time>
      </trkpt>
      <trkpt lat="42.30492" lon="18.80581">
        <ele>66.953796</ele>
        <time>2022-05-29T08:58:56.743Z</time>
      </trkpt>
      <trkpt lat="42.30502" lon="18.80577">
        <ele>67.042793</ele>
        <time>2022-05-29T08:58:59.761Z</time>
      </trkpt>
      <trkpt lat="42.30511" lon="18.80571">
        <ele>67.12614</ele>
        <time>2022-05-29T08:59:02.728Z</time>
      </trkpt>
      <trkpt lat="42.3052" lon="18.80566">
        <ele>67.205667</ele>
        <time>2022-05-29T08:59:05.763Z</time>
      </trkpt>
      <trkpt lat="42.30529" lon="18.80561">
        <ele>67.289938</ele>
        <time>2022-05-29T08:59:08.748Z</time>
      </trkpt>
      <trkpt lat="42.30538" lon="18.80557">
        <ele>67.372204</ele>
        <time>2022-05-29T08:59:11.744Z</time>
      </trkpt>
      <trkpt lat="42.30548" lon="18.80551">
        <ele>67.455551</ele>
        <time>2022-05-29T08:59:14.728Z</time>
      </trkpt>
      <trkpt lat="42.30557" lon="18.80545">
        <ele>67.518234</ele>
        <time>2022-05-29T08:59:17.725Z</time>
      </trkpt>
      <trkpt lat="42.30567" lon="18.80539">
        <ele>67.576472</ele>
        <time>2022-05-29T08:59:20.747Z</time>
      </trkpt>
      <trkpt lat="42.30577" lon="18.80534">
        <ele>67.633437</ele>
        <time>2022-05-29T08:59:23.738Z</time>
      </trkpt>
      <trkpt lat="42.30587" lon="18.80528">
        <ele>67.693967</ele>
        <time>2022-05-29T08:59:26.756Z</time>
      </trkpt>
      <trkpt lat="42.30598" lon="18.8052">
        <ele>67.757414</ele>
        <time>2022-05-29T08:59:29.730Z</time>
      </trkpt>
      <trkpt lat="42.30608" lon="18.80512">
        <ele>67.823323</ele>
        <time>2022-05-29T08:59:32.729Z</time>
      </trkpt>
      <trkpt lat="42.30619" lon="18.80505">
        <ele>67.887812</ele>
        <time>2022-05-29T08:59:35.740Z</time>
      </trkpt>
      <trkpt lat="42.30629" lon="18.80495">
        <ele>67.954947</ele>
        <time>2022-05-29T08:59:38.739Z</time>
      </trkpt>
      <trkpt lat="42.30639" lon="18.80487">
        <ele>68.018273</ele>
        <time>2022-05-29T08:59:41.743Z</time>
      </trkpt>
      <trkpt lat="42.30648" lon="18.80478">
        <ele>68.079604</ele>
        <time>2022-05-29T08:59:44.779Z</time>
      </trkpt>
      <trkpt lat="42.30657" lon="18.80469">
        <ele>68.13939</ele>
        <time>2022-05-29T08:59:47.746Z</time>
      </trkpt>
      <trkpt lat="42.30667" lon="18.8046">
        <ele>68.201853</ele>
        <time>2022-05-29T08:59:50.731Z</time>
      </trkpt>
      <trkpt lat="42.30676" lon="18.8045">
        <ele>68.263255</ele>
        <time>2022-05-29T08:59:53.743Z</time>
      </trkpt>
      <trkpt lat="42.30686" lon="18.80441">
        <ele>68.328867</ele>
        <time>2022-05-29T08:59:56.769Z</time>
      </trkpt>
      <trkpt lat="42.30695" lon="18.8043">
        <ele>68.392043</ele>
        <time>2022-05-29T08:59:59.741Z</time>
      </trkpt>
      <trkpt lat="42.30703" lon="18.80419">
        <ele>68.430385</ele>
        <time>2022-05-29T09:00:02.728Z</time>
      </trkpt>
      <trkpt lat="42.30713" lon="18.80408">
        <ele>68.396819</ele>
        <time>2022-05-29T09:00:05.748Z</time>
      </trkpt>
      <trkpt lat="42.30723" lon="18.80396">
        <ele>68.361633</ele>
        <time>2022-05-29T09:00:08.729Z</time>
      </trkpt>
      <trkpt lat="42.3073" lon="18.80387">
        <ele>68.33631</ele>
        <time>2022-05-29T09:00:10.757Z</time>
      </trkpt>
      <trkpt lat="42.30737" lon="18.80378">
        <ele>68.312146</ele>
        <time>2022-05-29T09:00:12.752Z</time>
      </trkpt>
      <trkpt lat="42.30743" lon="18.80369">
        <ele>68.287756</ele>
        <time>2022-05-29T09:00:14.747Z</time>
      </trkpt>
      <trkpt lat="42.3075" lon="18.80359">
        <ele>68.262201</ele>
        <time>2022-05-29T09:00:16.737Z</time>
      </trkpt>
      <trkpt lat="42.30757" lon="18.80349">
        <ele>68.235184</ele>
        <time>2022-05-29T09:00:18.763Z</time>
      </trkpt>
      <trkpt lat="42.30763" lon="18.80339">
        <ele>68.209451</ele>
        <time>2022-05-29T09:00:20.740Z</time>
      </trkpt>
      <trkpt lat="42.3077" lon="18.80329">
        <ele>68.183516</ele>
        <time>2022-05-29T09:00:22.748Z</time>
      </trkpt>
      <trkpt lat="42.30776" lon="18.80319">
        <ele>68.158084</ele>
        <time>2022-05-29T09:00:24.733Z</time>
      </trkpt>
      <trkpt lat="42.30782" lon="18.80309">
        <ele>68.133079</ele>
        <time>2022-05-29T09:00:26.769Z</time>
      </trkpt>
      <trkpt lat="42.30788" lon="18.80299">
        <ele>68.107962</ele>
        <time>2022-05-29T09:00:28.759Z</time>
      </trkpt>
      <trkpt lat="42.30794" lon="18.80289">
        <ele>68.082709</ele>
        <time>2022-05-29T09:00:30.738Z</time>
      </trkpt>
      <trkpt lat="42.30799" lon="18.80278">
        <ele>68.057136</ele>
        <time>2022-05-29T09:00:32.730Z</time>
      </trkpt>
      <trkpt lat="42.30805" lon="18.80267">
        <ele>68.031085</ele>
        <time>2022-05-29T09:00:34.726Z</time>
      </trkpt>
      <trkpt lat="42.30811" lon="18.80255">
        <ele>68.004097</ele>
        <time>2022-05-29T09:00:36.748Z</time>
      </trkpt>
      <trkpt lat="42.30816" lon="18.80243">
        <ele>67.976863</ele>
        <time>2022-05-29T09:00:38.716Z</time>
      </trkpt>
      <trkpt lat="42.30822" lon="18.80231">
        <ele>67.855296</ele>
        <time>2022-05-29T09:00:40.739Z</time>
      </trkpt>
      <trkpt lat="42.30827" lon="18.80219">
        <ele>67.683341</ele>
        <time>2022-05-29T09:00:42.733Z</time>
      </trkpt>
      <trkpt lat="42.30833" lon="18.80206">
        <ele>67.505945</ele>
        <time>2022-05-29T09:00:44.749Z</time>
      </trkpt>
      <trkpt lat="42.30838" lon="18.80194">
        <ele>67.331093</ele>
        <time>2022-05-29T09:00:46.757Z</time>
      </trkpt>
      <trkpt lat="42.30843" lon="18.80181">
        <ele>67.158135</ele>
        <time>2022-05-29T09:00:48.738Z</time>
      </trkpt>
      <trkpt lat="42.30849" lon="18.80169">
        <ele>66.987817</ele>
        <time>2022-05-29T09:00:50.785Z</time>
      </trkpt>
      <trkpt lat="42.30854" lon="18.80156">
        <ele>66.816978</ele>
        <time>2022-05-29T09:00:52.758Z</time>
      </trkpt>
      <trkpt lat="42.30858" lon="18.80143">
        <ele>66.646203</ele>
        <time>2022-05-29T09:00:54.746Z</time>
      </trkpt>
      <trkpt lat="42.30862" lon="18.8013">
        <ele>66.471709</ele>
        <time>2022-05-29T09:00:56.724Z</time>
      </trkpt>
      <trkpt lat="42.30867" lon="18.80116">
        <ele>66.292156</ele>
        <time>2022-05-29T09:00:58.755Z</time>
      </trkpt>
      <trkpt lat="42.30871" lon="18.80102">
        <ele>66.112855</ele>
        <time>2022-05-29T09:01:00.739Z</time>
      </trkpt>
      <trkpt lat="42.30874" lon="18.80089">
        <ele>65.940332</ele>
        <time>2022-05-29T09:01:02.724Z</time>
      </trkpt>
      <trkpt lat="42.30878" lon="18.80075">
        <ele>65.758238</ele>
        <time>2022-05-29T09:01:04.724Z</time>
      </trkpt>
      <trkpt lat="42.30883" lon="18.80061">
        <ele>65.574389</ele>
        <time>2022-05-29T09:01:06.744Z</time>
      </trkpt>
      <trkpt lat="42.30886" lon="18.80047">
        <ele>65.39793</ele>
        <time>2022-05-29T09:01:08.746Z</time>
      </trkpt>
      <trkpt lat="42.3089" lon="18.80034">
        <ele>65.233301</ele>
        <time>2022-05-29T09:01:10.726Z</time>
      </trkpt>
      <trkpt lat="42.30893" lon="18.80022">
        <ele>65.074321</ele>
        <time>2022-05-29T09:01:12.747Z</time>
      </trkpt>
      <trkpt lat="42.30896" lon="18.80008">
        <ele>64.852096</ele>
        <time>2022-05-29T09:01:14.725Z</time>
      </trkpt>
      <trkpt lat="42.30899" lon="18.79994">
        <ele>64.606606</ele>
        <time>2022-05-29T09:01:16.745Z</time>
      </trkpt>
      <trkpt lat="42.30902" lon="18.7998">
        <ele>64.352089</ele>
        <time>2022-05-29T09:01:18.737Z</time>
      </trkpt>
      <trkpt lat="42.30906" lon="18.79965">
        <ele>64.095047</ele>
        <time>2022-05-29T09:01:20.754Z</time>
      </trkpt>
      <trkpt lat="42.30909" lon="18.7995">
        <ele>63.837338</ele>
        <time>2022-05-29T09:01:22.728Z</time>
      </trkpt>
      <trkpt lat="42.30913" lon="18.79935">
        <ele>63.572766</ele>
        <time>2022-05-29T09:01:24.731Z</time>
      </trkpt>
      <trkpt lat="42.30917" lon="18.7992">
        <ele>63.300245</ele>
        <time>2022-05-29T09:01:26.743Z</time>
      </trkpt>
      <trkpt lat="42.3092" lon="18.79905">
        <ele>63.038846</ele>
        <time>2022-05-29T09:01:28.734Z</time>
      </trkpt>
      <trkpt lat="42.30924" lon="18.7989">
        <ele>62.77088</ele>
        <time>2022-05-29T09:01:30.730Z</time>
      </trkpt>
      <trkpt lat="42.30927" lon="18.79874">
        <ele>62.504841</ele>
        <time>2022-05-29T09:01:32.741Z</time>
      </trkpt>
      <trkpt lat="42.3093" lon="18.79859">
        <ele>62.237795</ele>
        <time>2022-05-29T09:01:34.719Z</time>
      </trkpt>
      <trkpt lat="42.30934" lon="18.79843">
        <ele>61.965434</ele>
        <time>2022-05-29T09:01:36.732Z</time>
      </trkpt>
      <trkpt lat="42.30938" lon="18.79828">
        <ele>61.687591</ele>
        <time>2022-05-29T09:01:38.724Z</time>
      </trkpt>
      <trkpt lat="42.30942" lon="18.79812">
        <ele>61.413479</ele>
        <time>2022-05-29T09:01:40.714Z</time>
      </trkpt>
      <trkpt lat="42.30945" lon="18.79797">
        <ele>61.144571</ele>
        <time>2022-05-29T09:01:42.754Z</time>
      </trkpt>
      <trkpt lat="42.30949" lon="18.79781">
        <ele>60.919238</ele>
        <time>2022-05-29T09:01:44.737Z</time>
      </trkpt>
      <trkpt lat="42.30953" lon="18.79766">
        <ele>60.770031</ele>
        <time>2022-05-29T09:01:46.745Z</time>
      </trkpt>
      <trkpt lat="42.30957" lon="18.79751">
        <ele>60.62039</ele>
        <time>2022-05-29T09:01:48.726Z</time>
      </trkpt>
      <trkpt lat="42.3096" lon="18.79735">
        <ele>60.465193</ele>
        <time>2022-05-29T09:01:50.717Z</time>
      </trkpt>
      <trkpt lat="42.30964" lon="18.79718">
        <ele>60.304074</ele>
        <time>2022-05-29T09:01:52.740Z</time>
      </trkpt>
      <trkpt lat="42.30967" lon="18.79701">
        <ele>60.143461</ele>
        <time>2022-05-29T09:01:54.743Z</time>
      </trkpt>
      <trkpt lat="42.30971" lon="18.79685">
        <ele>59.986596</ele>
        <time>2022-05-29T09:01:56.731Z</time>
      </trkpt>
      <trkpt lat="42.30975" lon="18.79668">
        <ele>59.827963</ele>
        <time>2022-05-29T09:01:58.754Z</time>
      </trkpt>
      <trkpt lat="42.30979" lon="18.79652">
        <ele>59.664434</ele>
        <time>2022-05-29T09:02:00.753Z</time>
      </trkpt>
      <trkpt lat="42.30983" lon="18.79635">
        <ele>59.504196</ele>
        <time>2022-05-29T09:02:02.743Z</time>
      </trkpt>
      <trkpt lat="42.30986" lon="18.79619">
        <ele>59.351743</ele>
        <time>2022-05-29T09:02:04.749Z</time>
      </trkpt>
      <trkpt lat="42.3099" lon="18.79603">
        <ele>59.197001</ele>
        <time>2022-05-29T09:02:06.721Z</time>
      </trkpt>
      <trkpt lat="42.30993" lon="18.79587">
        <ele>59.039774</ele>
        <time>2022-05-29T09:02:08.753Z</time>
      </trkpt>
      <trkpt lat="42.30997" lon="18.79571">
        <ele>58.885917</ele>
        <time>2022-05-29T09:02:10.751Z</time>
      </trkpt>
      <trkpt lat="42.31001" lon="18.79555">
        <ele>58.734942</ele>
        <time>2022-05-29T09:02:12.724Z</time>
      </trkpt>
      <trkpt lat="42.31005" lon="18.7954">
        <ele>58.81538</ele>
        <time>2022-05-29T09:02:14.752Z</time>
      </trkpt>
      <trkpt lat="42.31009" lon="18.79525">
        <ele>58.90097</ele>
        <time>2022-05-29T09:02:16.751Z</time>
      </trkpt>
      <trkpt lat="42.31013" lon="18.7951">
        <ele>58.987562</ele>
        <time>2022-05-29T09:02:18.756Z</time>
      </trkpt>
      <trkpt lat="42.31018" lon="18.79495">
        <ele>59.075248</ele>
        <time>2022-05-29T09:02:20.764Z</time>
      </trkpt>
      <trkpt lat="42.31023" lon="18.79481">
        <ele>59.162156</ele>
        <time>2022-05-29T09:02:22.737Z</time>
      </trkpt>
      <trkpt lat="42.31028" lon="18.79466">
        <ele>59.251019</ele>
        <time>2022-05-29T09:02:24.755Z</time>
      </trkpt>
      <trkpt lat="42.31033" lon="18.79451">
        <ele>59.337621</ele>
        <time>2022-05-29T09:02:26.729Z</time>
      </trkpt>
      <trkpt lat="42.31038" lon="18.79437">
        <ele>59.42356</ele>
        <time>2022-05-29T09:02:28.754Z</time>
      </trkpt>
      <trkpt lat="42.31043" lon="18.79423">
        <ele>59.508889</ele>
        <time>2022-05-29T09:02:30.725Z</time>
      </trkpt>
      <trkpt lat="42.31049" lon="18.79409">
        <ele>59.592562</ele>
        <time>2022-05-29T09:02:32.740Z</time>
      </trkpt>
      <trkpt lat="42.31055" lon="18.79395">
        <ele>59.678177</ele>
        <time>2022-05-29T09:02:34.733Z</time>
      </trkpt>
      <trkpt lat="42.31062" lon="18.79382">
        <ele>59.766095</ele>
        <time>2022-05-29T09:02:36.747Z</time>
      </trkpt>
      <trkpt lat="42.31069" lon="18.79369">
        <ele>59.850527</ele>
        <time>2022-05-29T09:02:38.748Z</time>
      </trkpt>
      <trkpt lat="42.31075" lon="18.79357">
        <ele>59.933198</ele>
        <time>2022-05-29T09:02:40.738Z</time>
      </trkpt>
      <trkpt lat="42.31082" lon="18.79345">
        <ele>60.012847</ele>
        <time>2022-05-29T09:02:42.760Z</time>
      </trkpt>
      <trkpt lat="42.31089" lon="18.79333">
        <ele>60.108895</ele>
        <time>2022-05-29T09:02:44.734Z</time>
      </trkpt>
      <trkpt lat="42.31096" lon="18.79322">
        <ele>60.214222</ele>
        <time>2022-05-29T09:02:46.756Z</time>
      </trkpt>
      <trkpt lat="42.31103" lon="18.79312">
        <ele>60.320022</ele>
        <time>2022-05-29T09:02:48.765Z</time>
      </trkpt>
      <trkpt lat="42.3111" lon="18.79301">
        <ele>60.424772</ele>
        <time>2022-05-29T09:02:50.728Z</time>
      </trkpt>
      <trkpt lat="42.31118" lon="18.79291">
        <ele>60.531773</ele>
        <time>2022-05-29T09:02:52.750Z</time>
      </trkpt>
      <trkpt lat="42.31126" lon="18.79281">
        <ele>60.638975</ele>
        <time>2022-05-29T09:02:54.756Z</time>
      </trkpt>
      <trkpt lat="42.31134" lon="18.79271">
        <ele>60.750572</ele>
        <time>2022-05-29T09:02:56.743Z</time>
      </trkpt>
      <trkpt lat="42.31144" lon="18.79261">
        <ele>60.864527</ele>
        <time>2022-05-29T09:02:58.746Z</time>
      </trkpt>
      <trkpt lat="42.31153" lon="18.79252">
        <ele>60.979983</ele>
        <time>2022-05-29T09:03:00.730Z</time>
      </trkpt>
      <trkpt lat="42.31163" lon="18.79243">
        <ele>61.092999</ele>
        <time>2022-05-29T09:03:02.724Z</time>
      </trkpt>
      <trkpt lat="42.31173" lon="18.79234">
        <ele>61.212534</ele>
        <time>2022-05-29T09:03:04.729Z</time>
      </trkpt>
      <trkpt lat="42.31183" lon="18.79226">
        <ele>61.326857</ele>
        <time>2022-05-29T09:03:06.726Z</time>
      </trkpt>
      <trkpt lat="42.31193" lon="18.79219">
        <ele>61.441671</ele>
        <time>2022-05-29T09:03:08.721Z</time>
      </trkpt>
      <trkpt lat="42.31203" lon="18.79211">
        <ele>61.552862</ele>
        <time>2022-05-29T09:03:10.746Z</time>
      </trkpt>
      <trkpt lat="42.31213" lon="18.79205">
        <ele>61.662956</ele>
        <time>2022-05-29T09:03:12.740Z</time>
      </trkpt>
      <trkpt lat="42.31224" lon="18.79198">
        <ele>61.774207</ele>
        <time>2022-05-29T09:03:14.745Z</time>
      </trkpt>
      <trkpt lat="42.31234" lon="18.79193">
        <ele>61.687642</ele>
        <time>2022-05-29T09:03:16.797Z</time>
      </trkpt>
      <trkpt lat="42.31244" lon="18.79187">
        <ele>61.520333</ele>
        <time>2022-05-29T09:03:18.738Z</time>
      </trkpt>
      <trkpt lat="42.31255" lon="18.79181">
        <ele>61.357023</ele>
        <time>2022-05-29T09:03:20.741Z</time>
      </trkpt>
      <trkpt lat="42.31265" lon="18.79176">
        <ele>61.194122</ele>
        <time>2022-05-29T09:03:22.739Z</time>
      </trkpt>
      <trkpt lat="42.31275" lon="18.7917">
        <ele>61.03973</ele>
        <time>2022-05-29T09:03:24.740Z</time>
      </trkpt>
      <trkpt lat="42.31284" lon="18.79165">
        <ele>60.886316</ele>
        <time>2022-05-29T09:03:26.733Z</time>
      </trkpt>
      <trkpt lat="42.31294" lon="18.7916">
        <ele>60.733703</ele>
        <time>2022-05-29T09:03:28.764Z</time>
      </trkpt>
      <trkpt lat="42.31303" lon="18.79155">
        <ele>60.585236</ele>
        <time>2022-05-29T09:03:30.749Z</time>
      </trkpt>
      <trkpt lat="42.31312" lon="18.7915">
        <ele>60.441841</ele>
        <time>2022-05-29T09:03:32.729Z</time>
      </trkpt>
      <trkpt lat="42.31321" lon="18.79146">
        <ele>60.303263</ele>
        <time>2022-05-29T09:03:34.758Z</time>
      </trkpt>
      <trkpt lat="42.3133" lon="18.79141">
        <ele>60.161523</ele>
        <time>2022-05-29T09:03:36.784Z</time>
      </trkpt>
      <trkpt lat="42.31338" lon="18.79136">
        <ele>60.021714</ele>
        <time>2022-05-29T09:03:38.738Z</time>
      </trkpt>
      <trkpt lat="42.31347" lon="18.79131">
        <ele>59.881904</ele>
        <time>2022-05-29T09:03:40.737Z</time>
      </trkpt>
      <trkpt lat="42.31355" lon="18.79126">
        <ele>59.745674</ele>
        <time>2022-05-29T09:03:42.752Z</time>
      </trkpt>
      <trkpt lat="42.31364" lon="18.79121">
        <ele>59.604494</ele>
        <time>2022-05-29T09:03:44.742Z</time>
      </trkpt>
      <trkpt lat="42.31373" lon="18.79116">
        <ele>59.46564</ele>
        <time>2022-05-29T09:03:46.741Z</time>
      </trkpt>
      <trkpt lat="42.31381" lon="18.79111">
        <ele>59.329928</ele>
        <time>2022-05-29T09:03:48.744Z</time>
      </trkpt>
      <trkpt lat="42.3139" lon="18.79106">
        <ele>59.189261</ele>
        <time>2022-05-29T09:03:50.747Z</time>
      </trkpt>
      <trkpt lat="42.31398" lon="18.79101">
        <ele>59.065303</ele>
        <time>2022-05-29T09:03:52.728Z</time>
      </trkpt>
      <trkpt lat="42.31407" lon="18.79097">
        <ele>58.951167</ele>
        <time>2022-05-29T09:03:54.725Z</time>
      </trkpt>
      <trkpt lat="42.31415" lon="18.79091">
        <ele>58.835924</ele>
        <time>2022-05-29T09:03:56.764Z</time>
      </trkpt>
      <trkpt lat="42.31423" lon="18.79086">
        <ele>58.717926</ele>
        <time>2022-05-29T09:03:58.777Z</time>
      </trkpt>
      <trkpt lat="42.31436" lon="18.79077">
        <ele>58.544075</ele>
        <time>2022-05-29T09:04:01.755Z</time>
      </trkpt>
      <trkpt lat="42.31444" lon="18.79071">
        <ele>58.422999</ele>
        <time>2022-05-29T09:04:03.770Z</time>
      </trkpt>
      <trkpt lat="42.31453" lon="18.79065">
        <ele>58.303463</ele>
        <time>2022-05-29T09:04:05.738Z</time>
      </trkpt>
      <trkpt lat="42.31461" lon="18.7906">
        <ele>58.187704</ele>
        <time>2022-05-29T09:04:07.768Z</time>
      </trkpt>
      <trkpt lat="42.31469" lon="18.79054">
        <ele>58.070827</ele>
        <time>2022-05-29T09:04:09.733Z</time>
      </trkpt>
      <trkpt lat="42.31478" lon="18.79048">
        <ele>57.954368</ele>
        <time>2022-05-29T09:04:11.727Z</time>
      </trkpt>
      <trkpt lat="42.31486" lon="18.79042">
        <ele>57.834217</ele>
        <time>2022-05-29T09:04:13.766Z</time>
      </trkpt>
      <trkpt lat="42.31495" lon="18.79036">
        <ele>57.71207</ele>
        <time>2022-05-29T09:04:15.735Z</time>
      </trkpt>
      <trkpt lat="42.31503" lon="18.79029">
        <ele>57.587599</ele>
        <time>2022-05-29T09:04:17.743Z</time>
      </trkpt>
      <trkpt lat="42.31512" lon="18.79023">
        <ele>57.466345</ele>
        <time>2022-05-29T09:04:19.739Z</time>
      </trkpt>
      <trkpt lat="42.3152" lon="18.79016">
        <ele>57.345293</ele>
        <time>2022-05-29T09:04:21.728Z</time>
      </trkpt>
      <trkpt lat="42.31528" lon="18.7901">
        <ele>57.22734</ele>
        <time>2022-05-29T09:04:23.730Z</time>
      </trkpt>
      <trkpt lat="42.31537" lon="18.79004">
        <ele>57.106742</ele>
        <time>2022-05-29T09:04:25.751Z</time>
      </trkpt>
      <trkpt lat="42.31545" lon="18.78997">
        <ele>56.988598</ele>
        <time>2022-05-29T09:04:27.762Z</time>
      </trkpt>
      <trkpt lat="42.31553" lon="18.7899">
        <ele>56.881158</ele>
        <time>2022-05-29T09:04:29.743Z</time>
      </trkpt>
      <trkpt lat="42.31561" lon="18.78984">
        <ele>56.907868</ele>
        <time>2022-05-29T09:04:31.736Z</time>
      </trkpt>
      <trkpt lat="42.31569" lon="18.78977">
        <ele>56.93399</ele>
        <time>2022-05-29T09:04:33.781Z</time>
      </trkpt>
      <trkpt lat="42.3158" lon="18.78968">
        <ele>56.970832</ele>
        <time>2022-05-29T09:04:36.741Z</time>
      </trkpt>
      <trkpt lat="42.31591" lon="18.78958">
        <ele>57.008134</ele>
        <time>2022-05-29T09:04:39.767Z</time>
      </trkpt>
      <trkpt lat="42.31602" lon="18.78949">
        <ele>57.044677</ele>
        <time>2022-05-29T09:04:42.730Z</time>
      </trkpt>
      <trkpt lat="42.31613" lon="18.7894">
        <ele>57.081916</ele>
        <time>2022-05-29T09:04:45.746Z</time>
      </trkpt>
      <trkpt lat="42.31625" lon="18.7893">
        <ele>57.119093</ele>
        <time>2022-05-29T09:04:48.744Z</time>
      </trkpt>
      <trkpt lat="42.31636" lon="18.78921">
        <ele>57.15627</ele>
        <time>2022-05-29T09:04:51.745Z</time>
      </trkpt>
      <trkpt lat="42.31647" lon="18.7891">
        <ele>57.193789</ele>
        <time>2022-05-29T09:04:54.731Z</time>
      </trkpt>
      <trkpt lat="42.31657" lon="18.78901">
        <ele>57.229444</ele>
        <time>2022-05-29T09:04:57.733Z</time>
      </trkpt>
      <trkpt lat="42.31665" lon="18.78894">
        <ele>57.255778</ele>
        <time>2022-05-29T09:04:59.745Z</time>
      </trkpt>
      <trkpt lat="42.31673" lon="18.78887">
        <ele>57.282946</ele>
        <time>2022-05-29T09:05:01.720Z</time>
      </trkpt>
      <trkpt lat="42.31681" lon="18.7888">
        <ele>57.308466</ele>
        <time>2022-05-29T09:05:03.745Z</time>
      </trkpt>
      <trkpt lat="42.31691" lon="18.7887">
        <ele>57.344823</ele>
        <time>2022-05-29T09:05:06.734Z</time>
      </trkpt>
      <trkpt lat="42.31701" lon="18.78861">
        <ele>57.379313</ele>
        <time>2022-05-29T09:05:09.735Z</time>
      </trkpt>
      <trkpt lat="42.31712" lon="18.78851">
        <ele>57.531093</ele>
        <time>2022-05-29T09:05:12.727Z</time>
      </trkpt>
      <trkpt lat="42.31722" lon="18.78842">
        <ele>57.703679</ele>
        <time>2022-05-29T09:05:15.747Z</time>
      </trkpt>
      <trkpt lat="42.31732" lon="18.78832">
        <ele>57.880921</ele>
        <time>2022-05-29T09:05:18.740Z</time>
      </trkpt>
      <trkpt lat="42.31743" lon="18.78822">
        <ele>58.061159</ele>
        <time>2022-05-29T09:05:21.750Z</time>
      </trkpt>
      <trkpt lat="42.31754" lon="18.78812">
        <ele>58.247121</ele>
        <time>2022-05-29T09:05:24.721Z</time>
      </trkpt>
      <trkpt lat="42.31764" lon="18.78802">
        <ele>58.430166</ele>
        <time>2022-05-29T09:05:27.739Z</time>
      </trkpt>
      <trkpt lat="42.31776" lon="18.78792">
        <ele>58.617861</ele>
        <time>2022-05-29T09:05:30.756Z</time>
      </trkpt>
      <trkpt lat="42.31787" lon="18.78782">
        <ele>58.804405</ele>
        <time>2022-05-29T09:05:33.751Z</time>
      </trkpt>
      <trkpt lat="42.31794" lon="18.78774">
        <ele>58.932544</ele>
        <time>2022-05-29T09:05:35.778Z</time>
      </trkpt>
      <trkpt lat="42.31801" lon="18.78767">
        <ele>59.059836</ele>
        <time>2022-05-29T09:05:37.727Z</time>
      </trkpt>
      <trkpt lat="42.31813" lon="18.7876">
        <ele>59.242734</ele>
        <time>2022-05-29T09:05:40.746Z</time>
      </trkpt>
      <trkpt lat="42.31825" lon="18.78752">
        <ele>59.426851</ele>
        <time>2022-05-29T09:05:43.734Z</time>
      </trkpt>
      <trkpt lat="42.31836" lon="18.78742">
        <ele>59.610519</ele>
        <time>2022-05-29T09:05:46.740Z</time>
      </trkpt>
      <trkpt lat="42.31847" lon="18.78733">
        <ele>59.794164</ele>
        <time>2022-05-29T09:05:49.725Z</time>
      </trkpt>
      <trkpt lat="42.31859" lon="18.78724">
        <ele>59.966143</ele>
        <time>2022-05-29T09:05:52.744Z</time>
      </trkpt>
      <trkpt lat="42.3187" lon="18.78715">
        <ele>60.110126</ele>
        <time>2022-05-29T09:05:55.764Z</time>
      </trkpt>
      <trkpt lat="42.31882" lon="18.78707">
        <ele>60.256288</ele>
        <time>2022-05-29T09:05:58.738Z</time>
      </trkpt>
      <trkpt lat="42.31893" lon="18.78699">
        <ele>60.401016</ele>
        <time>2022-05-29T09:06:01.751Z</time>
      </trkpt>
      <trkpt lat="42.31905" lon="18.78691">
        <ele>60.545575</ele>
        <time>2022-05-29T09:06:04.751Z</time>
      </trkpt>
      <trkpt lat="42.31916" lon="18.78682">
        <ele>60.691667</ele>
        <time>2022-05-29T09:06:07.746Z</time>
      </trkpt>
      <trkpt lat="42.31928" lon="18.78674">
        <ele>60.840176</ele>
        <time>2022-05-29T09:06:10.734Z</time>
      </trkpt>
      <trkpt lat="42.31936" lon="18.78669">
        <ele>60.93955</ele>
        <time>2022-05-29T09:06:12.728Z</time>
      </trkpt>
      <trkpt lat="42.31944" lon="18.78663">
        <ele>61.039677</ele>
        <time>2022-05-29T09:06:14.732Z</time>
      </trkpt>
      <trkpt lat="42.31956" lon="18.78655">
        <ele>61.187336</ele>
        <time>2022-05-29T09:06:17.782Z</time>
      </trkpt>
      <trkpt lat="42.31964" lon="18.78648">
        <ele>61.287937</ele>
        <time>2022-05-29T09:06:19.734Z</time>
      </trkpt>
      <trkpt lat="42.31972" lon="18.78642">
        <ele>61.39128</ele>
        <time>2022-05-29T09:06:21.719Z</time>
      </trkpt>
      <trkpt lat="42.3198" lon="18.78635">
        <ele>61.493561</ele>
        <time>2022-05-29T09:06:23.765Z</time>
      </trkpt>
      <trkpt lat="42.3199" lon="18.78626">
        <ele>61.634846</ele>
        <time>2022-05-29T09:06:26.731Z</time>
      </trkpt>
      <trkpt lat="42.31998" lon="18.78619">
        <ele>61.738052</ele>
        <time>2022-05-29T09:06:28.759Z</time>
      </trkpt>
      <trkpt lat="42.32008" lon="18.78609">
        <ele>61.876104</ele>
        <time>2022-05-29T09:06:31.752Z</time>
      </trkpt>
      <trkpt lat="42.32019" lon="18.786">
        <ele>62.07591</ele>
        <time>2022-05-29T09:06:34.794Z</time>
      </trkpt>
      <trkpt lat="42.32029" lon="18.7859">
        <ele>62.278124</ele>
        <time>2022-05-29T09:06:37.754Z</time>
      </trkpt>
      <trkpt lat="42.32039" lon="18.7858">
        <ele>62.47509</ele>
        <time>2022-05-29T09:06:40.752Z</time>
      </trkpt>
      <trkpt lat="42.32048" lon="18.7857">
        <ele>62.677332</ele>
        <time>2022-05-29T09:06:43.733Z</time>
      </trkpt>
      <trkpt lat="42.32058" lon="18.78559">
        <ele>62.884742</ele>
        <time>2022-05-29T09:06:46.744Z</time>
      </trkpt>
      <trkpt lat="42.32068" lon="18.78548">
        <ele>63.101155</ele>
        <time>2022-05-29T09:06:49.738Z</time>
      </trkpt>
      <trkpt lat="42.32078" lon="18.78536">
        <ele>63.318053</ele>
        <time>2022-05-29T09:06:52.756Z</time>
      </trkpt>
      <trkpt lat="42.32088" lon="18.78525">
        <ele>63.537007</ele>
        <time>2022-05-29T09:06:55.745Z</time>
      </trkpt>
      <trkpt lat="42.32098" lon="18.78513">
        <ele>63.750841</ele>
        <time>2022-05-29T09:06:58.727Z</time>
      </trkpt>
      <trkpt lat="42.32107" lon="18.78502">
        <ele>63.958531</ele>
        <time>2022-05-29T09:07:01.778Z</time>
      </trkpt>
      <trkpt lat="42.32116" lon="18.78491">
        <ele>64.161304</ele>
        <time>2022-05-29T09:07:04.740Z</time>
      </trkpt>
      <trkpt lat="42.32124" lon="18.7848">
        <ele>64.354451</ele>
        <time>2022-05-29T09:07:07.725Z</time>
      </trkpt>
      <trkpt lat="42.32133" lon="18.78468">
        <ele>64.549917</ele>
        <time>2022-05-29T09:07:10.750Z</time>
      </trkpt>
      <trkpt lat="42.32141" lon="18.78456">
        <ele>64.752351</ele>
        <time>2022-05-29T09:07:13.747Z</time>
      </trkpt>
      <trkpt lat="42.3215" lon="18.78445">
        <ele>64.973897</ele>
        <time>2022-05-29T09:07:16.747Z</time>
      </trkpt>
      <trkpt lat="42.32159" lon="18.78433">
        <ele>65.229246</ele>
        <time>2022-05-29T09:07:19.740Z</time>
      </trkpt>
      <trkpt lat="42.32169" lon="18.78421">
        <ele>65.490022</ele>
        <time>2022-05-29T09:07:22.782Z</time>
      </trkpt>
      <trkpt lat="42.32178" lon="18.78409">
        <ele>65.748882</ele>
        <time>2022-05-29T09:07:25.741Z</time>
      </trkpt>
      <trkpt lat="42.32187" lon="18.78397">
        <ele>65.999497</ele>
        <time>2022-05-29T09:07:28.754Z</time>
      </trkpt>
      <trkpt lat="42.32196" lon="18.78385">
        <ele>66.254421</ele>
        <time>2022-05-29T09:07:31.732Z</time>
      </trkpt>
      <trkpt lat="42.32204" lon="18.78374">
        <ele>66.497344</ele>
        <time>2022-05-29T09:07:34.749Z</time>
      </trkpt>
      <trkpt lat="42.32213" lon="18.78363">
        <ele>66.73867</ele>
        <time>2022-05-29T09:07:37.736Z</time>
      </trkpt>
      <trkpt lat="42.32222" lon="18.78352">
        <ele>66.97166</ele>
        <time>2022-05-29T09:07:40.765Z</time>
      </trkpt>
      <trkpt lat="42.3223" lon="18.78341">
        <ele>67.205518</ele>
        <time>2022-05-29T09:07:43.737Z</time>
      </trkpt>
      <trkpt lat="42.32239" lon="18.78331">
        <ele>67.441853</ele>
        <time>2022-05-29T09:07:46.728Z</time>
      </trkpt>
      <trkpt lat="42.32248" lon="18.7832">
        <ele>67.684165</ele>
        <time>2022-05-29T09:07:49.738Z</time>
      </trkpt>
      <trkpt lat="42.32257" lon="18.7831">
        <ele>67.9203</ele>
        <time>2022-05-29T09:07:52.746Z</time>
      </trkpt>
      <trkpt lat="42.32266" lon="18.783">
        <ele>68.155822</ele>
        <time>2022-05-29T09:07:55.753Z</time>
      </trkpt>
      <trkpt lat="42.32275" lon="18.7829">
        <ele>68.382893</ele>
        <time>2022-05-29T09:07:58.757Z</time>
      </trkpt>
      <trkpt lat="42.32284" lon="18.7828">
        <ele>68.480644</ele>
        <time>2022-05-29T09:08:01.737Z</time>
      </trkpt>
      <trkpt lat="42.32293" lon="18.7827">
        <ele>68.446038</ele>
        <time>2022-05-29T09:08:04.763Z</time>
      </trkpt>
      <trkpt lat="42.32302" lon="18.7826">
        <ele>68.412441</ele>
        <time>2022-05-29T09:08:07.726Z</time>
      </trkpt>
      <trkpt lat="42.32311" lon="18.78251">
        <ele>68.378524</ele>
        <time>2022-05-29T09:08:10.728Z</time>
      </trkpt>
      <trkpt lat="42.32319" lon="18.78241">
        <ele>68.347181</ele>
        <time>2022-05-29T09:08:13.736Z</time>
      </trkpt>
      <trkpt lat="42.32327" lon="18.78232">
        <ele>68.315658</ele>
        <time>2022-05-29T09:08:16.746Z</time>
      </trkpt>
      <trkpt lat="42.32336" lon="18.78224">
        <ele>68.282267</ele>
        <time>2022-05-29T09:08:19.756Z</time>
      </trkpt>
      <trkpt lat="42.32346" lon="18.78214">
        <ele>68.247626</ele>
        <time>2022-05-29T09:08:22.736Z</time>
      </trkpt>
      <trkpt lat="42.32355" lon="18.78205">
        <ele>68.213499</ele>
        <time>2022-05-29T09:08:25.738Z</time>
      </trkpt>
      <trkpt lat="42.32364" lon="18.78196">
        <ele>68.179614</ele>
        <time>2022-05-29T09:08:28.750Z</time>
      </trkpt>
      <trkpt lat="42.32373" lon="18.78188">
        <ele>68.148307</ele>
        <time>2022-05-29T09:08:31.735Z</time>
      </trkpt>
      <trkpt lat="42.32382" lon="18.78179">
        <ele>68.115639</ele>
        <time>2022-05-29T09:08:34.740Z</time>
      </trkpt>
      <trkpt lat="42.3239" lon="18.78171">
        <ele>68.08471</ele>
        <time>2022-05-29T09:08:37.765Z</time>
      </trkpt>
      <trkpt lat="42.32399" lon="18.78162">
        <ele>68.051802</ele>
        <time>2022-05-29T09:08:40.744Z</time>
      </trkpt>
      <trkpt lat="42.32409" lon="18.78154">
        <ele>68.017672</ele>
        <time>2022-05-29T09:08:43.753Z</time>
      </trkpt>
      <trkpt lat="42.32419" lon="18.78145">
        <ele>67.982815</ele>
        <time>2022-05-29T09:08:46.739Z</time>
      </trkpt>
      <trkpt lat="42.32428" lon="18.78137">
        <ele>68.092173</ele>
        <time>2022-05-29T09:08:49.749Z</time>
      </trkpt>
      <trkpt lat="42.32437" lon="18.78129">
        <ele>68.36076</ele>
        <time>2022-05-29T09:08:52.732Z</time>
      </trkpt>
      <trkpt lat="42.32447" lon="18.78121">
        <ele>68.635665</ele>
        <time>2022-05-29T09:08:55.734Z</time>
      </trkpt>
      <trkpt lat="42.32457" lon="18.78112">
        <ele>68.911505</ele>
        <time>2022-05-29T09:08:58.741Z</time>
      </trkpt>
      <trkpt lat="42.32466" lon="18.78104">
        <ele>69.180131</ele>
        <time>2022-05-29T09:09:01.739Z</time>
      </trkpt>
      <trkpt lat="42.32475" lon="18.78096">
        <ele>69.44478</ele>
        <time>2022-05-29T09:09:04.749Z</time>
      </trkpt>
      <trkpt lat="42.32484" lon="18.78088">
        <ele>69.707354</ele>
        <time>2022-05-29T09:09:07.761Z</time>
      </trkpt>
      <trkpt lat="42.32493" lon="18.7808">
        <ele>69.959917</ele>
        <time>2022-05-29T09:09:10.738Z</time>
      </trkpt>
      <trkpt lat="42.32502" lon="18.78073">
        <ele>70.209554</ele>
        <time>2022-05-29T09:09:13.742Z</time>
      </trkpt>
      <trkpt lat="42.3251" lon="18.78065">
        <ele>70.44607</ele>
        <time>2022-05-29T09:09:16.759Z</time>
      </trkpt>
      <trkpt lat="42.32518" lon="18.78058">
        <ele>70.680603</ele>
        <time>2022-05-29T09:09:19.744Z</time>
      </trkpt>
      <trkpt lat="42.32526" lon="18.78051">
        <ele>70.923169</ele>
        <time>2022-05-29T09:09:22.764Z</time>
      </trkpt>
      <trkpt lat="42.32535" lon="18.78043">
        <ele>71.175807</ele>
        <time>2022-05-29T09:09:25.748Z</time>
      </trkpt>
      <trkpt lat="42.32544" lon="18.78035">
        <ele>71.425364</ele>
        <time>2022-05-29T09:09:28.735Z</time>
      </trkpt>
      <trkpt lat="42.32552" lon="18.78028">
        <ele>71.668233</ele>
        <time>2022-05-29T09:09:31.729Z</time>
      </trkpt>
      <trkpt lat="42.3256" lon="18.78021">
        <ele>71.908774</ele>
        <time>2022-05-29T09:09:34.729Z</time>
      </trkpt>
      <trkpt lat="42.32569" lon="18.78013">
        <ele>72.165505</ele>
        <time>2022-05-29T09:09:37.724Z</time>
      </trkpt>
      <trkpt lat="42.32578" lon="18.78006">
        <ele>72.36319</ele>
        <time>2022-05-29T09:09:40.790Z</time>
      </trkpt>
      <trkpt lat="42.32587" lon="18.77996">
        <ele>72.493852</ele>
        <time>2022-05-29T09:09:43.737Z</time>
      </trkpt>
      <trkpt lat="42.32597" lon="18.77987">
        <ele>72.62892</ele>
        <time>2022-05-29T09:09:46.745Z</time>
      </trkpt>
      <trkpt lat="42.32607" lon="18.77978">
        <ele>72.760259</ele>
        <time>2022-05-29T09:09:49.744Z</time>
      </trkpt>
      <trkpt lat="42.32616" lon="18.7797">
        <ele>72.88974</ele>
        <time>2022-05-29T09:09:52.739Z</time>
      </trkpt>
      <trkpt lat="42.32626" lon="18.7796">
        <ele>73.025756</ele>
        <time>2022-05-29T09:09:55.729Z</time>
      </trkpt>
      <trkpt lat="42.32636" lon="18.77951">
        <ele>73.157102</ele>
        <time>2022-05-29T09:09:58.744Z</time>
      </trkpt>
      <trkpt lat="42.32646" lon="18.77942">
        <ele>73.288441</ele>
        <time>2022-05-29T09:10:01.757Z</time>
      </trkpt>
      <trkpt lat="42.32656" lon="18.77933">
        <ele>73.426829</ele>
        <time>2022-05-29T09:10:04.738Z</time>
      </trkpt>
      <trkpt lat="42.32666" lon="18.77924">
        <ele>73.561896</ele>
        <time>2022-05-29T09:10:07.770Z</time>
      </trkpt>
      <trkpt lat="42.32676" lon="18.77916">
        <ele>73.692303</ele>
        <time>2022-05-29T09:10:10.757Z</time>
      </trkpt>
      <trkpt lat="42.32685" lon="18.77907">
        <ele>73.820409</ele>
        <time>2022-05-29T09:10:13.763Z</time>
      </trkpt>
      <trkpt lat="42.32695" lon="18.77897">
        <ele>73.960129</ele>
        <time>2022-05-29T09:10:16.736Z</time>
      </trkpt>
      <trkpt lat="42.32705" lon="18.77888">
        <ele>74.092401</ele>
        <time>2022-05-29T09:10:19.730Z</time>
      </trkpt>
      <trkpt lat="42.32714" lon="18.77879">
        <ele>74.225253</ele>
        <time>2022-05-29T09:10:22.748Z</time>
      </trkpt>
      <trkpt lat="42.32724" lon="18.77869">
        <ele>74.331051</ele>
        <time>2022-05-29T09:10:25.735Z</time>
      </trkpt>
      <trkpt lat="42.32733" lon="18.77859">
        <ele>74.243206</ele>
        <time>2022-05-29T09:10:28.736Z</time>
      </trkpt>
      <trkpt lat="42.32742" lon="18.7785">
        <ele>74.153145</ele>
        <time>2022-05-29T09:10:31.735Z</time>
      </trkpt>
      <trkpt lat="42.32752" lon="18.77841">
        <ele>74.062139</ele>
        <time>2022-05-29T09:10:34.741Z</time>
      </trkpt>
      <trkpt lat="42.32762" lon="18.77832">
        <ele>73.972706</ele>
        <time>2022-05-29T09:10:37.738Z</time>
      </trkpt>
      <trkpt lat="42.32772" lon="18.77823">
        <ele>73.879432</ele>
        <time>2022-05-29T09:10:40.725Z</time>
      </trkpt>
      <trkpt lat="42.32782" lon="18.77813">
        <ele>73.786704</ele>
        <time>2022-05-29T09:10:43.772Z</time>
      </trkpt>
      <trkpt lat="42.32791" lon="18.77803">
        <ele>73.697212</ele>
        <time>2022-05-29T09:10:46.738Z</time>
      </trkpt>
      <trkpt lat="42.328" lon="18.77793">
        <ele>73.606978</ele>
        <time>2022-05-29T09:10:49.735Z</time>
      </trkpt>
      <trkpt lat="42.3281" lon="18.77783">
        <ele>73.515798</ele>
        <time>2022-05-29T09:10:52.755Z</time>
      </trkpt>
      <trkpt lat="42.3282" lon="18.77773">
        <ele>73.420494</ele>
        <time>2022-05-29T09:10:55.750Z</time>
      </trkpt>
      <trkpt lat="42.3283" lon="18.77763">
        <ele>73.32716</ele>
        <time>2022-05-29T09:10:58.750Z</time>
      </trkpt>
      <trkpt lat="42.32839" lon="18.77754">
        <ele>73.24105</ele>
        <time>2022-05-29T09:11:01.744Z</time>
      </trkpt>
      <trkpt lat="42.32848" lon="18.77744">
        <ele>73.151498</ele>
        <time>2022-05-29T09:11:04.755Z</time>
      </trkpt>
      <trkpt lat="42.32857" lon="18.77734">
        <ele>73.059166</ele>
        <time>2022-05-29T09:11:07.735Z</time>
      </trkpt>
      <trkpt lat="42.32866" lon="18.77724">
        <ele>72.978537</ele>
        <time>2022-05-29T09:11:10.753Z</time>
      </trkpt>
      <trkpt lat="42.32875" lon="18.77714">
        <ele>73.11584</ele>
        <time>2022-05-29T09:11:13.744Z</time>
      </trkpt>
      <trkpt lat="42.32884" lon="18.77704">
        <ele>73.251042</ele>
        <time>2022-05-29T09:11:16.732Z</time>
      </trkpt>
      <trkpt lat="42.32892" lon="18.77695">
        <ele>73.387575</ele>
        <time>2022-05-29T09:11:19.736Z</time>
      </trkpt>
      <trkpt lat="42.32901" lon="18.77685">
        <ele>73.530269</ele>
        <time>2022-05-29T09:11:22.725Z</time>
      </trkpt>
      <trkpt lat="42.3291" lon="18.77675">
        <ele>73.669094</ele>
        <time>2022-05-29T09:11:25.772Z</time>
      </trkpt>
      <trkpt lat="42.32918" lon="18.77665">
        <ele>73.808154</ele>
        <time>2022-05-29T09:11:28.730Z</time>
      </trkpt>
      <trkpt lat="42.32927" lon="18.77655">
        <ele>73.947806</ele>
        <time>2022-05-29T09:11:31.745Z</time>
      </trkpt>
      <trkpt lat="42.32936" lon="18.77644">
        <ele>74.09295</ele>
        <time>2022-05-29T09:11:34.751Z</time>
      </trkpt>
      <trkpt lat="42.32944" lon="18.77635">
        <ele>74.219838</ele>
        <time>2022-05-29T09:11:37.734Z</time>
      </trkpt>
      <trkpt lat="42.32952" lon="18.77625">
        <ele>74.355415</ele>
        <time>2022-05-29T09:11:40.747Z</time>
      </trkpt>
      <trkpt lat="42.32961" lon="18.77615">
        <ele>74.494144</ele>
        <time>2022-05-29T09:11:43.729Z</time>
      </trkpt>
      <trkpt lat="42.3297" lon="18.77604">
        <ele>74.64136</ele>
        <time>2022-05-29T09:11:46.725Z</time>
      </trkpt>
      <trkpt lat="42.32978" lon="18.77594">
        <ele>74.784395</ele>
        <time>2022-05-29T09:11:49.753Z</time>
      </trkpt>
      <trkpt lat="42.32987" lon="18.77584">
        <ele>74.923123</ele>
        <time>2022-05-29T09:11:52.733Z</time>
      </trkpt>
      <trkpt lat="42.32996" lon="18.77574">
        <ele>75.070139</ele>
        <time>2022-05-29T09:11:55.747Z</time>
      </trkpt>
      <trkpt lat="42.33005" lon="18.77563">
        <ele>75.155934</ele>
        <time>2022-05-29T09:11:58.793Z</time>
      </trkpt>
      <trkpt lat="42.33013" lon="18.77552">
        <ele>75.049905</ele>
        <time>2022-05-29T09:12:01.739Z</time>
      </trkpt>
      <trkpt lat="42.33023" lon="18.77541">
        <ele>74.940764</ele>
        <time>2022-05-29T09:12:04.743Z</time>
      </trkpt>
      <trkpt lat="42.33032" lon="18.77531">
        <ele>74.83775</ele>
        <time>2022-05-29T09:12:07.764Z</time>
      </trkpt>
      <trkpt lat="42.3304" lon="18.77521">
        <ele>74.741084</ele>
        <time>2022-05-29T09:12:10.734Z</time>
      </trkpt>
      <trkpt lat="42.33049" lon="18.77511">
        <ele>74.64042</ele>
        <time>2022-05-29T09:12:13.752Z</time>
      </trkpt>
      <trkpt lat="42.33058" lon="18.77501">
        <ele>74.536737</ele>
        <time>2022-05-29T09:12:16.736Z</time>
      </trkpt>
      <trkpt lat="42.33067" lon="18.77491">
        <ele>74.431962</ele>
        <time>2022-05-29T09:12:19.739Z</time>
      </trkpt>
      <trkpt lat="42.33076" lon="18.7748">
        <ele>74.328279</ele>
        <time>2022-05-29T09:12:22.751Z</time>
      </trkpt>
      <trkpt lat="42.33085" lon="18.7747">
        <ele>74.222155</ele>
        <time>2022-05-29T09:12:25.748Z</time>
      </trkpt>
      <trkpt lat="42.33095" lon="18.7746">
        <ele>74.116576</ele>
        <time>2022-05-29T09:12:28.756Z</time>
      </trkpt>
      <trkpt lat="42.33103" lon="18.7745">
        <ele>74.015076</ele>
        <time>2022-05-29T09:12:31.766Z</time>
      </trkpt>
      <trkpt lat="42.33112" lon="18.77441">
        <ele>73.921234</ele>
        <time>2022-05-29T09:12:34.737Z</time>
      </trkpt>
      <trkpt lat="42.3312" lon="18.77432">
        <ele>73.825897</ele>
        <time>2022-05-29T09:12:37.734Z</time>
      </trkpt>
      <trkpt lat="42.33129" lon="18.77422">
        <ele>73.726588</ele>
        <time>2022-05-29T09:12:40.734Z</time>
      </trkpt>
      <trkpt lat="42.33139" lon="18.77414">
        <ele>73.626053</ele>
        <time>2022-05-29T09:12:43.742Z</time>
      </trkpt>
      <trkpt lat="42.33148" lon="18.77405">
        <ele>73.549216</ele>
        <time>2022-05-29T09:12:46.749Z</time>
      </trkpt>
      <trkpt lat="42.33158" lon="18.77396">
        <ele>73.481079</ele>
        <time>2022-05-29T09:12:49.749Z</time>
      </trkpt>
      <trkpt lat="42.33167" lon="18.77387">
        <ele>73.416984</ele>
        <time>2022-05-29T09:12:52.760Z</time>
      </trkpt>
      <trkpt lat="42.33176" lon="18.77379">
        <ele>73.355046</ele>
        <time>2022-05-29T09:12:55.755Z</time>
      </trkpt>
      <trkpt lat="42.33185" lon="18.7737">
        <ele>73.290705</ele>
        <time>2022-05-29T09:12:58.745Z</time>
      </trkpt>
      <trkpt lat="42.33195" lon="18.77363">
        <ele>73.227569</ele>
        <time>2022-05-29T09:13:01.750Z</time>
      </trkpt>
      <trkpt lat="42.33205" lon="18.77356">
        <ele>73.161973</ele>
        <time>2022-05-29T09:13:04.750Z</time>
      </trkpt>
      <trkpt lat="42.33215" lon="18.77349">
        <ele>73.09772</ele>
        <time>2022-05-29T09:13:07.748Z</time>
      </trkpt>
      <trkpt lat="42.33225" lon="18.77342">
        <ele>73.033976</ele>
        <time>2022-05-29T09:13:10.750Z</time>
      </trkpt>
      <trkpt lat="42.33235" lon="18.77335">
        <ele>72.965877</ele>
        <time>2022-05-29T09:13:13.752Z</time>
      </trkpt>
      <trkpt lat="42.33245" lon="18.77328">
        <ele>72.903856</ele>
        <time>2022-05-29T09:13:16.738Z</time>
      </trkpt>
      <trkpt lat="42.33255" lon="18.77322">
        <ele>72.84076</ele>
        <time>2022-05-29T09:13:19.752Z</time>
      </trkpt>
      <trkpt lat="42.33265" lon="18.77316">
        <ele>72.778011</ele>
        <time>2022-05-29T09:13:22.735Z</time>
      </trkpt>
      <trkpt lat="42.33275" lon="18.7731">
        <ele>72.714035</ele>
        <time>2022-05-29T09:13:25.760Z</time>
      </trkpt>
      <trkpt lat="42.33284" lon="18.77303">
        <ele>72.653549</ele>
        <time>2022-05-29T09:13:28.746Z</time>
      </trkpt>
      <trkpt lat="42.33294" lon="18.77298">
        <ele>72.594761</ele>
        <time>2022-05-29T09:13:31.737Z</time>
      </trkpt>
      <trkpt lat="42.33305" lon="18.77294">
        <ele>72.804296</ele>
        <time>2022-05-29T09:13:34.745Z</time>
      </trkpt>
      <trkpt lat="42.33316" lon="18.7729">
        <ele>73.289506</ele>
        <time>2022-05-29T09:13:37.739Z</time>
      </trkpt>
      <trkpt lat="42.33327" lon="18.77286">
        <ele>73.77808</ele>
        <time>2022-05-29T09:13:40.757Z</time>
      </trkpt>
      <trkpt lat="42.33338" lon="18.77283">
        <ele>74.265877</ele>
        <time>2022-05-29T09:13:43.737Z</time>
      </trkpt>
      <trkpt lat="42.33348" lon="18.77278">
        <ele>74.73619</ele>
        <time>2022-05-29T09:13:46.783Z</time>
      </trkpt>
      <trkpt lat="42.33358" lon="18.77275">
        <ele>75.167413</ele>
        <time>2022-05-29T09:13:49.726Z</time>
      </trkpt>
      <trkpt lat="42.33368" lon="18.77272">
        <ele>75.606248</ele>
        <time>2022-05-29T09:13:52.742Z</time>
      </trkpt>
      <trkpt lat="42.33378" lon="18.77269">
        <ele>76.037962</ele>
        <time>2022-05-29T09:13:55.739Z</time>
      </trkpt>
      <trkpt lat="42.33388" lon="18.77267">
        <ele>76.479267</ele>
        <time>2022-05-29T09:13:58.739Z</time>
      </trkpt>
      <trkpt lat="42.33398" lon="18.77264">
        <ele>76.943452</ele>
        <time>2022-05-29T09:14:01.732Z</time>
      </trkpt>
      <trkpt lat="42.33409" lon="18.77262">
        <ele>77.422455</ele>
        <time>2022-05-29T09:14:04.735Z</time>
      </trkpt>
      <trkpt lat="42.3342" lon="18.77259">
        <ele>77.88664</ele>
        <time>2022-05-29T09:14:07.747Z</time>
      </trkpt>
      <trkpt lat="42.3343" lon="18.77257">
        <ele>78.340142</ele>
        <time>2022-05-29T09:14:10.735Z</time>
      </trkpt>
      <trkpt lat="42.3344" lon="18.77255">
        <ele>78.777763</ele>
        <time>2022-05-29T09:14:13.763Z</time>
      </trkpt>
      <trkpt lat="42.33449" lon="18.77254">
        <ele>79.169764</ele>
        <time>2022-05-29T09:14:16.730Z</time>
      </trkpt>
      <trkpt lat="42.33459" lon="18.77252">
        <ele>79.593527</ele>
        <time>2022-05-29T09:14:19.745Z</time>
      </trkpt>
      <trkpt lat="42.33469" lon="18.77251">
        <ele>80.033874</ele>
        <time>2022-05-29T09:14:22.732Z</time>
      </trkpt>
      <trkpt lat="42.33479" lon="18.7725">
        <ele>80.286672</ele>
        <time>2022-05-29T09:14:25.774Z</time>
      </trkpt>
      <trkpt lat="42.33489" lon="18.7725">
        <ele>80.245884</ele>
        <time>2022-05-29T09:14:28.724Z</time>
      </trkpt>
      <trkpt lat="42.33498" lon="18.77248">
        <ele>80.206688</ele>
        <time>2022-05-29T09:14:31.748Z</time>
      </trkpt>
      <trkpt lat="42.33507" lon="18.77248">
        <ele>80.167674</ele>
        <time>2022-05-29T09:14:34.748Z</time>
      </trkpt>
      <trkpt lat="42.33519" lon="18.77248">
        <ele>80.119304</ele>
        <time>2022-05-29T09:14:38.748Z</time>
      </trkpt>
      <trkpt lat="42.33531" lon="18.77247">
        <ele>80.067967</ele>
        <time>2022-05-29T09:14:42.730Z</time>
      </trkpt>
      <trkpt lat="42.3354" lon="18.77247">
        <ele>80.029365</ele>
        <time>2022-05-29T09:14:45.725Z</time>
      </trkpt>
      <trkpt lat="42.33549" lon="18.77247">
        <ele>79.990754</ele>
        <time>2022-05-29T09:14:48.736Z</time>
      </trkpt>
      <trkpt lat="42.3356" lon="18.77246">
        <ele>79.943249</ele>
        <time>2022-05-29T09:14:52.741Z</time>
      </trkpt>
      <trkpt lat="42.3357" lon="18.77246">
        <ele>79.903765</ele>
        <time>2022-05-29T09:14:55.742Z</time>
      </trkpt>
      <trkpt lat="42.3358" lon="18.77246">
        <ele>79.861347</ele>
        <time>2022-05-29T09:14:58.744Z</time>
      </trkpt>
      <trkpt lat="42.33589" lon="18.77245">
        <ele>79.82316</ele>
        <time>2022-05-29T09:15:01.734Z</time>
      </trkpt>
      <trkpt lat="42.33598" lon="18.77245">
        <ele>79.784125</ele>
        <time>2022-05-29T09:15:04.743Z</time>
      </trkpt>
      <trkpt lat="42.33608" lon="18.77245">
        <ele>79.742562</ele>
        <time>2022-05-29T09:15:07.741Z</time>
      </trkpt>
      <trkpt lat="42.33619" lon="18.77244">
        <ele>79.694982</ele>
        <time>2022-05-29T09:15:11.731Z</time>
      </trkpt>
      <trkpt lat="42.3363" lon="18.77242">
        <ele>79.64855</ele>
        <time>2022-05-29T09:15:15.739Z</time>
      </trkpt>
      <trkpt lat="42.33639" lon="18.77241">
        <ele>79.608932</ele>
        <time>2022-05-29T09:15:18.729Z</time>
      </trkpt>
      <trkpt lat="42.33648" lon="18.7724">
        <ele>79.570637</ele>
        <time>2022-05-29T09:15:21.727Z</time>
      </trkpt>
      <trkpt lat="42.33659" lon="18.77239">
        <ele>79.692456</ele>
        <time>2022-05-29T09:15:25.738Z</time>
      </trkpt>
      <trkpt lat="42.33669" lon="18.77239">
        <ele>80.116753</ele>
        <time>2022-05-29T09:15:29.747Z</time>
      </trkpt>
      <trkpt lat="42.3368" lon="18.77237">
        <ele>80.562955</ele>
        <time>2022-05-29T09:15:33.719Z</time>
      </trkpt>
      <trkpt lat="42.33689" lon="18.77236">
        <ele>80.942147</ele>
        <time>2022-05-29T09:15:36.731Z</time>
      </trkpt>
      <trkpt lat="42.33698" lon="18.77235">
        <ele>81.330699</ele>
        <time>2022-05-29T09:15:39.736Z</time>
      </trkpt>
      <trkpt lat="42.33707" lon="18.77234">
        <ele>81.706249</ele>
        <time>2022-05-29T09:15:42.724Z</time>
      </trkpt>
      <trkpt lat="42.33718" lon="18.77232">
        <ele>82.171622</ele>
        <time>2022-05-29T09:15:46.745Z</time>
      </trkpt>
      <trkpt lat="42.33729" lon="18.7723">
        <ele>82.631075</ele>
        <time>2022-05-29T09:15:50.733Z</time>
      </trkpt>
      <trkpt lat="42.33741" lon="18.77228">
        <ele>83.108809</ele>
        <time>2022-05-29T09:15:54.734Z</time>
      </trkpt>
      <trkpt lat="42.33752" lon="18.77225">
        <ele>83.575488</ele>
        <time>2022-05-29T09:15:58.752Z</time>
      </trkpt>
      <trkpt lat="42.33763" lon="18.77223">
        <ele>84.036343</ele>
        <time>2022-05-29T09:16:02.754Z</time>
      </trkpt>
      <trkpt lat="42.33772" lon="18.77222">
        <ele>84.416963</ele>
        <time>2022-05-29T09:16:06.748Z</time>
      </trkpt>
      <trkpt lat="42.33782" lon="18.7722">
        <ele>84.866295</ele>
        <time>2022-05-29T09:16:10.745Z</time>
      </trkpt>
      <trkpt lat="42.33794" lon="18.77217">
        <ele>85.350846</ele>
        <time>2022-05-29T09:16:14.752Z</time>
      </trkpt>
      <trkpt lat="42.33806" lon="18.77214">
        <ele>85.840538</ele>
        <time>2022-05-29T09:16:18.743Z</time>
      </trkpt>
      <trkpt lat="42.33815" lon="18.77212">
        <ele>86.22644</ele>
        <time>2022-05-29T09:16:21.741Z</time>
      </trkpt>
      <trkpt lat="42.33826" lon="18.77209">
        <ele>86.70851</ele>
        <time>2022-05-29T09:16:25.758Z</time>
      </trkpt>
      <trkpt lat="42.33837" lon="18.77206">
        <ele>87.13839</ele>
        <time>2022-05-29T09:16:29.734Z</time>
      </trkpt>
      <trkpt lat="42.33848" lon="18.77202">
        <ele>87.486283</ele>
        <time>2022-05-29T09:16:33.728Z</time>
      </trkpt>
      <trkpt lat="42.33858" lon="18.77198">
        <ele>87.823926</ele>
        <time>2022-05-29T09:16:37.765Z</time>
      </trkpt>
      <trkpt lat="42.33869" lon="18.77195">
        <ele>88.160483</ele>
        <time>2022-05-29T09:16:41.733Z</time>
      </trkpt>
      <trkpt lat="42.33879" lon="18.77192">
        <ele>88.4867</ele>
        <time>2022-05-29T09:16:45.736Z</time>
      </trkpt>
      <trkpt lat="42.33889" lon="18.77188">
        <ele>88.818314</ele>
        <time>2022-05-29T09:16:49.755Z</time>
      </trkpt>
      <trkpt lat="42.33899" lon="18.77184">
        <ele>89.149268</ele>
        <time>2022-05-29T09:16:53.770Z</time>
      </trkpt>
      <trkpt lat="42.33909" lon="18.77179">
        <ele>89.489652</ele>
        <time>2022-05-29T09:16:57.731Z</time>
      </trkpt>
      <trkpt lat="42.3392" lon="18.77174">
        <ele>89.853848</ele>
        <time>2022-05-29T09:17:01.730Z</time>
      </trkpt>
      <trkpt lat="42.33931" lon="18.77169">
        <ele>90.22262</ele>
        <time>2022-05-29T09:17:05.731Z</time>
      </trkpt>
      <trkpt lat="42.33943" lon="18.77165">
        <ele>90.596732</ele>
        <time>2022-05-29T09:17:09.754Z</time>
      </trkpt>
      <trkpt lat="42.33952" lon="18.77161">
        <ele>90.888203</ele>
        <time>2022-05-29T09:17:12.731Z</time>
      </trkpt>
      <trkpt lat="42.33962" lon="18.77156">
        <ele>91.234527</ele>
        <time>2022-05-29T09:17:16.747Z</time>
      </trkpt>
      <trkpt lat="42.33973" lon="18.77152">
        <ele>91.583071</ele>
        <time>2022-05-29T09:17:20.744Z</time>
      </trkpt>
      <trkpt lat="42.33983" lon="18.77147">
        <ele>91.923462</ele>
        <time>2022-05-29T09:17:24.749Z</time>
      </trkpt>
      <trkpt lat="42.33994" lon="18.77141">
        <ele>92.293636</ele>
        <time>2022-05-29T09:17:28.733Z</time>
      </trkpt>
      <trkpt lat="42.34005" lon="18.77136">
        <ele>92.671179</ele>
        <time>2022-05-29T09:17:32.747Z</time>
      </trkpt>
      <trkpt lat="42.34016" lon="18.7713">
        <ele>92.763072</ele>
        <time>2022-05-29T09:17:36.761Z</time>
      </trkpt>
      <trkpt lat="42.34026" lon="18.77125">
        <ele>92.848261</ele>
        <time>2022-05-29T09:17:40.734Z</time>
      </trkpt>
      <trkpt lat="42.34036" lon="18.7712">
        <ele>92.938663</ele>
        <time>2022-05-29T09:17:44.748Z</time>
      </trkpt>
      <trkpt lat="42.34047" lon="18.77114">
        <ele>93.032594</ele>
        <time>2022-05-29T09:17:48.740Z</time>
      </trkpt>
      <trkpt lat="42.34058" lon="18.77108">
        <ele>93.128336</ele>
        <time>2022-05-29T09:17:52.743Z</time>
      </trkpt>
      <trkpt lat="42.34069" lon="18.77103">
        <ele>93.216602</ele>
        <time>2022-05-29T09:17:56.740Z</time>
      </trkpt>
      <trkpt lat="42.34079" lon="18.77098">
        <ele>93.301452</ele>
        <time>2022-05-29T09:18:00.739Z</time>
      </trkpt>
      <trkpt lat="42.34089" lon="18.77092">
        <ele>93.390813</ele>
        <time>2022-05-29T09:18:04.760Z</time>
      </trkpt>
      <trkpt lat="42.34099" lon="18.77087">
        <ele>93.479291</ele>
        <time>2022-05-29T09:18:08.751Z</time>
      </trkpt>
      <trkpt lat="42.3411" lon="18.77081">
        <ele>93.569265</ele>
        <time>2022-05-29T09:18:12.751Z</time>
      </trkpt>
      <trkpt lat="42.3412" lon="18.77075">
        <ele>93.657618</ele>
        <time>2022-05-29T09:18:16.745Z</time>
      </trkpt>
      <trkpt lat="42.3413" lon="18.7707">
        <ele>93.741935</ele>
        <time>2022-05-29T09:18:20.738Z</time>
      </trkpt>
      <trkpt lat="42.34139" lon="18.77065">
        <ele>93.82447</ele>
        <time>2022-05-29T09:18:24.741Z</time>
      </trkpt>
      <trkpt lat="42.3415" lon="18.7706">
        <ele>93.914783</ele>
        <time>2022-05-29T09:18:28.751Z</time>
      </trkpt>
      <trkpt lat="42.3416" lon="18.77054">
        <ele>93.999845</ele>
        <time>2022-05-29T09:18:32.728Z</time>
      </trkpt>
      <trkpt lat="42.34169" lon="18.77049">
        <ele>94.085055</ele>
        <time>2022-05-29T09:18:36.749Z</time>
      </trkpt>
      <trkpt lat="42.3418" lon="18.77043">
        <ele>94.260636</ele>
        <time>2022-05-29T09:18:40.749Z</time>
      </trkpt>
      <trkpt lat="42.3419" lon="18.77038">
        <ele>94.449387</ele>
        <time>2022-05-29T09:18:44.733Z</time>
      </trkpt>
      <trkpt lat="42.34198" lon="18.77033">
        <ele>94.626801</ele>
        <time>2022-05-29T09:18:48.750Z</time>
      </trkpt>
      <trkpt lat="42.34208" lon="18.77028">
        <ele>94.821186</ele>
        <time>2022-05-29T09:18:52.731Z</time>
      </trkpt>
      <trkpt lat="42.34217" lon="18.77022">
        <ele>95.007556</ele>
        <time>2022-05-29T09:18:56.743Z</time>
      </trkpt>
      <trkpt lat="42.34226" lon="18.77017">
        <ele>95.182735</ele>
        <time>2022-05-29T09:19:00.751Z</time>
      </trkpt>
      <trkpt lat="42.34236" lon="18.77011">
        <ele>95.386452</ele>
        <time>2022-05-29T09:19:05.768Z</time>
      </trkpt>
      <trkpt lat="42.34245" lon="18.77005">
        <ele>95.561631</ele>
        <time>2022-05-29T09:19:09.776Z</time>
      </trkpt>
      <trkpt lat="42.34255" lon="18.77">
        <ele>95.754061</ele>
        <time>2022-05-29T09:19:13.735Z</time>
      </trkpt>
      <trkpt lat="42.34265" lon="18.76996">
        <ele>95.945155</ele>
        <time>2022-05-29T09:19:17.740Z</time>
      </trkpt>
      <trkpt lat="42.34275" lon="18.76992">
        <ele>96.144931</ele>
        <time>2022-05-29T09:19:22.723Z</time>
      </trkpt>
      <trkpt lat="42.34284" lon="18.76984">
        <ele>96.339093</ele>
        <time>2022-05-29T09:19:27.752Z</time>
      </trkpt>
      <trkpt lat="42.34294" lon="18.7698">
        <ele>96.52448</ele>
        <time>2022-05-29T09:19:32.772Z</time>
      </trkpt>
      <trkpt lat="42.34304" lon="18.76976">
        <ele>96.730456</ele>
        <time>2022-05-29T09:19:37.758Z</time>
      </trkpt>
      <trkpt lat="42.34313" lon="18.76971">
        <ele>96.905804</ele>
        <time>2022-05-29T09:19:41.803Z</time>
      </trkpt>
      <trkpt lat="42.34323" lon="18.76967">
        <ele>97.102523</ele>
        <time>2022-05-29T09:19:45.740Z</time>
      </trkpt>
      <trkpt lat="42.34333" lon="18.76963">
        <ele>97.286372</ele>
        <time>2022-05-29T09:19:49.756Z</time>
      </trkpt>
      <trkpt lat="42.34344" lon="18.7696">
        <ele>97.515764</ele>
        <time>2022-05-29T09:19:53.733Z</time>
      </trkpt>
      <trkpt lat="42.34354" lon="18.76956">
        <ele>97.801443</ele>
        <time>2022-05-29T09:19:57.743Z</time>
      </trkpt>
      <trkpt lat="42.34364" lon="18.76953">
        <ele>98.07969</ele>
        <time>2022-05-29T09:20:01.746Z</time>
      </trkpt>
      <trkpt lat="42.34373" lon="18.7695">
        <ele>98.329683</ele>
        <time>2022-05-29T09:20:05.730Z</time>
      </trkpt>
      <trkpt lat="42.34383" lon="18.76946">
        <ele>98.613657</ele>
        <time>2022-05-29T09:20:10.754Z</time>
      </trkpt>
      <trkpt lat="42.34393" lon="18.76944">
        <ele>98.886659</ele>
        <time>2022-05-29T09:20:15.745Z</time>
      </trkpt>
      <trkpt lat="42.34403" lon="18.7694">
        <ele>99.182583</ele>
        <time>2022-05-29T09:20:20.738Z</time>
      </trkpt>
      <trkpt lat="42.34414" lon="18.76936">
        <ele>99.48214</ele>
        <time>2022-05-29T09:20:25.738Z</time>
      </trkpt>
      <trkpt lat="42.34425" lon="18.76934">
        <ele>99.785117</ele>
        <time>2022-05-29T09:20:30.764Z</time>
      </trkpt>
      <trkpt lat="42.34434" lon="18.76932">
        <ele>100.035007</ele>
        <time>2022-05-29T09:20:34.717Z</time>
      </trkpt>
      <trkpt lat="42.34445" lon="18.76929">
        <ele>100.336098</ele>
        <time>2022-05-29T09:20:39.734Z</time>
      </trkpt>
      <trkpt lat="42.34455" lon="18.76927">
        <ele>100.609072</ele>
        <time>2022-05-29T09:20:44.744Z</time>
      </trkpt>
      <trkpt lat="42.34465" lon="18.76925">
        <ele>100.875258</ele>
        <time>2022-05-29T09:20:49.742Z</time>
      </trkpt>
      <trkpt lat="42.34475" lon="18.76924">
        <ele>101.157986</ele>
        <time>2022-05-29T09:20:55.747Z</time>
      </trkpt>
      <trkpt lat="42.34486" lon="18.76922">
        <ele>101.443182</ele>
        <time>2022-05-29T09:21:01.758Z</time>
      </trkpt>
      <trkpt lat="42.34496" lon="18.7692">
        <ele>101.707849</ele>
        <time>2022-05-29T09:21:07.728Z</time>
      </trkpt>
      <trkpt lat="42.34506" lon="18.76917">
        <ele>102.004039</ele>
        <time>2022-05-29T09:21:13.738Z</time>
      </trkpt>
      <trkpt lat="42.34516" lon="18.76915">
        <ele>102.26991</ele>
        <time>2022-05-29T09:21:18.750Z</time>
      </trkpt>
      <trkpt lat="42.34526" lon="18.76913">
        <ele>102.736659</ele>
        <time>2022-05-29T09:21:23.739Z</time>
      </trkpt>
      <trkpt lat="42.34535" lon="18.76911">
        <ele>103.212255</ele>
        <time>2022-05-29T09:21:28.738Z</time>
      </trkpt>
      <trkpt lat="42.34546" lon="18.76909">
        <ele>103.765485</ele>
        <time>2022-05-29T09:21:34.779Z</time>
      </trkpt>
      <trkpt lat="42.34556" lon="18.76906">
        <ele>104.27052</ele>
        <time>2022-05-29T09:21:39.743Z</time>
      </trkpt>
      <trkpt lat="42.34565" lon="18.76902">
        <ele>104.763761</ele>
        <time>2022-05-29T09:21:44.748Z</time>
      </trkpt>
      <trkpt lat="42.34576" lon="18.76901">
        <ele>105.288548</ele>
        <time>2022-05-29T09:21:49.748Z</time>
      </trkpt>
      <trkpt lat="42.34586" lon="18.76898">
        <ele>105.826351</ele>
        <time>2022-05-29T09:21:54.728Z</time>
      </trkpt>
      <trkpt lat="42.34597" lon="18.76899">
        <ele>106.348664</ele>
        <time>2022-05-29T09:21:59.762Z</time>
      </trkpt>
      <trkpt lat="42.34607" lon="18.76899">
        <ele>106.87488</ele>
        <time>2022-05-29T09:22:04.774Z</time>
      </trkpt>
      <trkpt lat="42.34616" lon="18.76897">
        <ele>107.349495</ele>
        <time>2022-05-29T09:22:09.739Z</time>
      </trkpt>
      <trkpt lat="42.34627" lon="18.76895">
        <ele>107.877407</ele>
        <time>2022-05-29T09:22:15.741Z</time>
      </trkpt>
      <trkpt lat="42.34636" lon="18.76892">
        <ele>108.33689</ele>
        <time>2022-05-29T09:22:20.759Z</time>
      </trkpt>
      <trkpt lat="42.34645" lon="18.7689">
        <ele>108.795726</ele>
        <time>2022-05-29T09:22:25.748Z</time>
      </trkpt>
      <trkpt lat="42.34654" lon="18.76887">
        <ele>109.285475</ele>
        <time>2022-05-29T09:22:30.731Z</time>
      </trkpt>
      <trkpt lat="42.34664" lon="18.76885">
        <ele>109.760474</ele>
        <time>2022-05-29T09:22:35.739Z</time>
      </trkpt>
      <trkpt lat="42.34675" lon="18.76882">
        <ele>110.323023</ele>
        <time>2022-05-29T09:22:41.771Z</time>
      </trkpt>
      <trkpt lat="42.34684" lon="18.76879">
        <ele>110.813461</ele>
        <time>2022-05-29T09:22:45.751Z</time>
      </trkpt>
      <trkpt lat="42.34694" lon="18.76877">
        <ele>111.312633</ele>
        <time>2022-05-29T09:22:50.740Z</time>
      </trkpt>
      <trkpt lat="42.34703" lon="18.76873">
        <ele>111.542905</ele>
        <time>2022-05-29T09:22:55.741Z</time>
      </trkpt>
      <trkpt lat="42.34713" lon="18.76871">
        <ele>111.776709</ele>
        <time>2022-05-29T09:23:00.735Z</time>
      </trkpt>
      <trkpt lat="42.34723" lon="18.76867">
        <ele>112.031858</ele>
        <time>2022-05-29T09:23:06.734Z</time>
      </trkpt>
      <trkpt lat="42.34732" lon="18.76863">
        <ele>112.283929</ele>
        <time>2022-05-29T09:23:12.734Z</time>
      </trkpt>
      <trkpt lat="42.34742" lon="18.76859">
        <ele>112.5266</ele>
        <time>2022-05-29T09:23:17.738Z</time>
      </trkpt>
      <trkpt lat="42.34751" lon="18.76857">
        <ele>112.756281</ele>
        <time>2022-05-29T09:23:22.760Z</time>
      </trkpt>
      <trkpt lat="42.34761" lon="18.76853">
        <ele>113.016856</ele>
        <time>2022-05-29T09:23:28.746Z</time>
      </trkpt>
      <trkpt lat="42.3477" lon="18.76849">
        <ele>113.242031</ele>
        <time>2022-05-29T09:23:33.748Z</time>
      </trkpt>
      <trkpt lat="42.34779" lon="18.76844">
        <ele>113.492817</ele>
        <time>2022-05-29T09:23:38.756Z</time>
      </trkpt>
      <trkpt lat="42.34789" lon="18.7684">
        <ele>113.752497</ele>
        <time>2022-05-29T09:23:43.742Z</time>
      </trkpt>
      <trkpt lat="42.34799" lon="18.76836">
        <ele>114.008173</ele>
        <time>2022-05-29T09:23:48.725Z</time>
      </trkpt>
      <trkpt lat="42.34808" lon="18.76832">
        <ele>114.248081</ele>
        <time>2022-05-29T09:23:53.744Z</time>
      </trkpt>
      <trkpt lat="42.34817" lon="18.76827">
        <ele>114.489278</ele>
        <time>2022-05-29T09:23:58.780Z</time>
      </trkpt>
      <trkpt lat="42.34827" lon="18.76822">
        <ele>114.729174</ele>
        <time>2022-05-29T09:24:03.739Z</time>
      </trkpt>
      <trkpt lat="42.34835" lon="18.76818">
        <ele>114.955249</ele>
        <time>2022-05-29T09:24:08.729Z</time>
      </trkpt>
      <trkpt lat="42.34844" lon="18.76813">
        <ele>115.206034</ele>
        <time>2022-05-29T09:24:13.740Z</time>
      </trkpt>
      <trkpt lat="42.34854" lon="18.76809">
        <ele>115.463549</ele>
        <time>2022-05-29T09:24:18.794Z</time>
      </trkpt>
      <trkpt lat="42.34863" lon="18.76803">
        <ele>115.707422</ele>
        <time>2022-05-29T09:24:23.758Z</time>
      </trkpt>
      <trkpt lat="42.34872" lon="18.76798">
        <ele>116.080204</ele>
        <time>2022-05-29T09:24:29.753Z</time>
      </trkpt>
      <trkpt lat="42.34881" lon="18.76789">
        <ele>116.527488</ele>
        <time>2022-05-29T09:24:35.744Z</time>
      </trkpt>
      <trkpt lat="42.3489" lon="18.76785">
        <ele>116.927013</ele>
        <time>2022-05-29T09:24:40.733Z</time>
      </trkpt>
      <trkpt lat="42.349" lon="18.7678">
        <ele>117.379296</ele>
        <time>2022-05-29T09:24:45.733Z</time>
      </trkpt>
      <trkpt lat="42.34909" lon="18.76775">
        <ele>117.763071</ele>
        <time>2022-05-29T09:24:50.761Z</time>
      </trkpt>
      <trkpt lat="42.34917" lon="18.76769">
        <ele>118.136463</ele>
        <time>2022-05-29T09:24:55.763Z</time>
      </trkpt>
      <trkpt lat="42.34926" lon="18.76763">
        <ele>118.539165</ele>
        <time>2022-05-29T09:25:00.742Z</time>
      </trkpt>
      <trkpt lat="42.34934" lon="18.76757">
        <ele>118.92775</ele>
        <time>2022-05-29T09:25:05.746Z</time>
      </trkpt>
      <trkpt lat="42.34942" lon="18.76751">
        <ele>119.317116</ele>
        <time>2022-05-29T09:25:10.744Z</time>
      </trkpt>
      <trkpt lat="42.34952" lon="18.76745">
        <ele>119.764648</ele>
        <time>2022-05-29T09:25:15.750Z</time>
      </trkpt>
      <trkpt lat="42.34961" lon="18.76739">
        <ele>120.14673</ele>
        <time>2022-05-29T09:25:20.750Z</time>
      </trkpt>
      <trkpt lat="42.34968" lon="18.76733">
        <ele>120.520936</ele>
        <time>2022-05-29T09:25:25.750Z</time>
      </trkpt>
      <trkpt lat="42.34978" lon="18.76727">
        <ele>120.981371</ele>
        <time>2022-05-29T09:25:30.760Z</time>
      </trkpt>
      <trkpt lat="42.34986" lon="18.7672">
        <ele>121.359156</ele>
        <time>2022-05-29T09:25:34.727Z</time>
      </trkpt>
      <trkpt lat="42.34996" lon="18.76714">
        <ele>121.791902</ele>
        <time>2022-05-29T09:25:39.751Z</time>
      </trkpt>
      <trkpt lat="42.35004" lon="18.76706">
        <ele>122.1974</ele>
        <time>2022-05-29T09:25:44.738Z</time>
      </trkpt>
      <trkpt lat="42.35012" lon="18.767">
        <ele>122.575184</ele>
        <time>2022-05-29T09:25:48.737Z</time>
      </trkpt>
      <trkpt lat="42.3502" lon="18.76694">
        <ele>122.949389</ele>
        <time>2022-05-29T09:25:52.748Z</time>
      </trkpt>
      <trkpt lat="42.35028" lon="18.76687">
        <ele>123.185354</ele>
        <time>2022-05-29T09:25:57.756Z</time>
      </trkpt>
      <trkpt lat="42.35037" lon="18.7668">
        <ele>123.280451</ele>
        <time>2022-05-29T09:26:02.752Z</time>
      </trkpt>
      <trkpt lat="42.35047" lon="18.76672">
        <ele>123.378713</ele>
        <time>2022-05-29T09:26:07.772Z</time>
      </trkpt>
      <trkpt lat="42.35056" lon="18.76665">
        <ele>123.474912</ele>
        <time>2022-05-29T09:26:12.744Z</time>
      </trkpt>
      <trkpt lat="42.35065" lon="18.76656">
        <ele>123.573589</ele>
        <time>2022-05-29T09:26:17.740Z</time>
      </trkpt>
      <trkpt lat="42.35073" lon="18.76648">
        <ele>123.663343</ele>
        <time>2022-05-29T09:26:22.740Z</time>
      </trkpt>
      <trkpt lat="42.35082" lon="18.7664">
        <ele>123.755315</ele>
        <time>2022-05-29T09:26:27.752Z</time>
      </trkpt>
      <trkpt lat="42.35091" lon="18.7663">
        <ele>123.856288</ele>
        <time>2022-05-29T09:26:32.733Z</time>
      </trkpt>
      <trkpt lat="42.35098" lon="18.76623">
        <ele>123.937175</ele>
        <time>2022-05-29T09:26:36.732Z</time>
      </trkpt>
      <trkpt lat="42.35106" lon="18.76615">
        <ele>124.026981</ele>
        <time>2022-05-29T09:26:40.746Z</time>
      </trkpt>
      <trkpt lat="42.35114" lon="18.76605">
        <ele>124.124749</ele>
        <time>2022-05-29T09:26:44.738Z</time>
      </trkpt>
      <trkpt lat="42.35122" lon="18.76597">
        <ele>124.216552</ele>
        <time>2022-05-29T09:26:48.731Z</time>
      </trkpt>
      <trkpt lat="42.3513" lon="18.76588">
        <ele>124.30353</ele>
        <time>2022-05-29T09:26:52.744Z</time>
      </trkpt>
      <trkpt lat="42.35138" lon="18.76579">
        <ele>124.397852</ele>
        <time>2022-05-29T09:26:56.735Z</time>
      </trkpt>
      <trkpt lat="42.35147" lon="18.76571">
        <ele>124.49829</ele>
        <time>2022-05-29T09:27:00.734Z</time>
      </trkpt>
      <trkpt lat="42.35157" lon="18.76563">
        <ele>124.595094</ele>
        <time>2022-05-29T09:27:04.775Z</time>
      </trkpt>
      <trkpt lat="42.35166" lon="18.76554">
        <ele>124.694795</ele>
        <time>2022-05-29T09:27:08.750Z</time>
      </trkpt>
      <trkpt lat="42.35175" lon="18.76545">
        <ele>124.709715</ele>
        <time>2022-05-29T09:27:12.747Z</time>
      </trkpt>
      <trkpt lat="42.35184" lon="18.76535">
        <ele>124.646274</ele>
        <time>2022-05-29T09:27:16.723Z</time>
      </trkpt>
      <trkpt lat="42.35193" lon="18.76524">
        <ele>124.584718</ele>
        <time>2022-05-29T09:27:20.728Z</time>
      </trkpt>
      <trkpt lat="42.352" lon="18.76517">
        <ele>124.536639</ele>
        <time>2022-05-29T09:27:23.749Z</time>
      </trkpt>
      <trkpt lat="42.35208" lon="18.76507">
        <ele>124.47826</ele>
        <time>2022-05-29T09:27:27.749Z</time>
      </trkpt>
      <trkpt lat="42.35216" lon="18.765">
        <ele>124.426861</ele>
        <time>2022-05-29T09:27:30.730Z</time>
      </trkpt>
      <trkpt lat="42.35223" lon="18.76492">
        <ele>124.377366</ele>
        <time>2022-05-29T09:27:33.734Z</time>
      </trkpt>
      <trkpt lat="42.35231" lon="18.76484">
        <ele>124.326784</ele>
        <time>2022-05-29T09:27:36.734Z</time>
      </trkpt>
      <trkpt lat="42.35239" lon="18.76477">
        <ele>124.275616</ele>
        <time>2022-05-29T09:27:39.754Z</time>
      </trkpt>
      <trkpt lat="42.35246" lon="18.76469">
        <ele>124.224302</ele>
        <time>2022-05-29T09:27:42.759Z</time>
      </trkpt>
      <trkpt lat="42.35254" lon="18.7646">
        <ele>124.171827</ele>
        <time>2022-05-29T09:27:45.764Z</time>
      </trkpt>
      <trkpt lat="42.35262" lon="18.76452">
        <ele>124.118398</ele>
        <time>2022-05-29T09:27:48.732Z</time>
      </trkpt>
      <trkpt lat="42.35269" lon="18.76444">
        <ele>124.06715</ele>
        <time>2022-05-29T09:27:51.740Z</time>
      </trkpt>
      <trkpt lat="42.35276" lon="18.76436">
        <ele>124.016827</ele>
        <time>2022-05-29T09:27:54.738Z</time>
      </trkpt>
      <trkpt lat="42.35284" lon="18.76428">
        <ele>123.962855</ele>
        <time>2022-05-29T09:27:57.748Z</time>
      </trkpt>
      <trkpt lat="42.35293" lon="18.76418">
        <ele>123.903812</ele>
        <time>2022-05-29T09:28:00.744Z</time>
      </trkpt>
      <trkpt lat="42.35302" lon="18.7641">
        <ele>123.845331</ele>
        <time>2022-05-29T09:28:03.738Z</time>
      </trkpt>
      <trkpt lat="42.35311" lon="18.76402">
        <ele>123.788391</ele>
        <time>2022-05-29T09:28:06.746Z</time>
      </trkpt>
      <trkpt lat="42.35319" lon="18.76394">
        <ele>123.8199</ele>
        <time>2022-05-29T09:28:09.727Z</time>
      </trkpt>
      <trkpt lat="42.35328" lon="18.76385">
        <ele>123.867628</ele>
        <time>2022-05-29T09:28:12.736Z</time>
      </trkpt>
      <trkpt lat="42.35337" lon="18.76376">
        <ele>123.917166</ele>
        <time>2022-05-29T09:28:15.737Z</time>
      </trkpt>
      <trkpt lat="42.35346" lon="18.76367">
        <ele>123.969751</ele>
        <time>2022-05-29T09:28:18.734Z</time>
      </trkpt>
      <trkpt lat="42.35356" lon="18.76358">
        <ele>124.022538</ele>
        <time>2022-05-29T09:28:21.751Z</time>
      </trkpt>
      <trkpt lat="42.35366" lon="18.76349">
        <ele>124.07457</ele>
        <time>2022-05-29T09:28:24.734Z</time>
      </trkpt>
      <trkpt lat="42.35376" lon="18.7634">
        <ele>124.129741</ele>
        <time>2022-05-29T09:28:27.752Z</time>
      </trkpt>
      <trkpt lat="42.35386" lon="18.76331">
        <ele>124.183628</ele>
        <time>2022-05-29T09:28:30.741Z</time>
      </trkpt>
      <trkpt lat="42.35397" lon="18.76323">
        <ele>124.237964</ele>
        <time>2022-05-29T09:28:33.732Z</time>
      </trkpt>
      <trkpt lat="42.35408" lon="18.76314">
        <ele>124.295778</ele>
        <time>2022-05-29T09:28:36.744Z</time>
      </trkpt>
      <trkpt lat="42.35419" lon="18.76305">
        <ele>124.354907</ele>
        <time>2022-05-29T09:28:39.736Z</time>
      </trkpt>
      <trkpt lat="42.35431" lon="18.76295">
        <ele>124.415738</ele>
        <time>2022-05-29T09:28:42.725Z</time>
      </trkpt>
      <trkpt lat="42.3544" lon="18.76289">
        <ele>124.45896</ele>
        <time>2022-05-29T09:28:44.744Z</time>
      </trkpt>
      <trkpt lat="42.35449" lon="18.76282">
        <ele>124.504718</ele>
        <time>2022-05-29T09:28:46.751Z</time>
      </trkpt>
      <trkpt lat="42.35458" lon="18.76276">
        <ele>124.549857</ele>
        <time>2022-05-29T09:28:48.749Z</time>
      </trkpt>
      <trkpt lat="42.35466" lon="18.76269">
        <ele>124.529526</ele>
        <time>2022-05-29T09:28:50.739Z</time>
      </trkpt>
      <trkpt lat="42.35475" lon="18.76263">
        <ele>124.338305</ele>
        <time>2022-05-29T09:28:52.727Z</time>
      </trkpt>
      <trkpt lat="42.35484" lon="18.76257">
        <ele>124.15403</ele>
        <time>2022-05-29T09:28:54.757Z</time>
      </trkpt>
      <trkpt lat="42.35492" lon="18.76252">
        <ele>123.979125</ele>
        <time>2022-05-29T09:28:56.727Z</time>
      </trkpt>
      <trkpt lat="42.35502" lon="18.76246">
        <ele>123.778981</ele>
        <time>2022-05-29T09:28:58.753Z</time>
      </trkpt>
      <trkpt lat="42.35512" lon="18.76239">
        <ele>123.570225</ele>
        <time>2022-05-29T09:29:00.732Z</time>
      </trkpt>
      <trkpt lat="42.35523" lon="18.76232">
        <ele>123.34773</ele>
        <time>2022-05-29T09:29:02.749Z</time>
      </trkpt>
      <trkpt lat="42.35533" lon="18.76226">
        <ele>123.127534</ele>
        <time>2022-05-29T09:29:04.728Z</time>
      </trkpt>
      <trkpt lat="42.35544" lon="18.7622">
        <ele>122.915358</ele>
        <time>2022-05-29T09:29:06.719Z</time>
      </trkpt>
      <trkpt lat="42.35554" lon="18.76213">
        <ele>122.695148</ele>
        <time>2022-05-29T09:29:08.810Z</time>
      </trkpt>
      <trkpt lat="42.35566" lon="18.76208">
        <ele>122.466578</ele>
        <time>2022-05-29T09:29:10.744Z</time>
      </trkpt>
      <trkpt lat="42.35578" lon="18.76202">
        <ele>122.225636</ele>
        <time>2022-05-29T09:29:12.766Z</time>
      </trkpt>
      <trkpt lat="42.3559" lon="18.76195">
        <ele>121.973282</ele>
        <time>2022-05-29T09:29:14.754Z</time>
      </trkpt>
      <trkpt lat="42.35602" lon="18.76188">
        <ele>121.721559</ele>
        <time>2022-05-29T09:29:16.738Z</time>
      </trkpt>
      <trkpt lat="42.35615" lon="18.76183">
        <ele>121.463674</ele>
        <time>2022-05-29T09:29:18.759Z</time>
      </trkpt>
      <trkpt lat="42.35629" lon="18.76177">
        <ele>121.197748</ele>
        <time>2022-05-29T09:29:20.745Z</time>
      </trkpt>
      <trkpt lat="42.35642" lon="18.76171">
        <ele>120.837744</ele>
        <time>2022-05-29T09:29:22.825Z</time>
      </trkpt>
      <trkpt lat="42.35656" lon="18.76165">
        <ele>120.464317</ele>
        <time>2022-05-29T09:29:24.731Z</time>
      </trkpt>
      <trkpt lat="42.35671" lon="18.7616">
        <ele>120.087353</ele>
        <time>2022-05-29T09:29:26.742Z</time>
      </trkpt>
      <trkpt lat="42.35685" lon="18.76154">
        <ele>119.694605</ele>
        <time>2022-05-29T09:29:28.736Z</time>
      </trkpt>
      <trkpt lat="42.35701" lon="18.76148">
        <ele>119.280781</ele>
        <time>2022-05-29T09:29:30.732Z</time>
      </trkpt>
      <trkpt lat="42.35717" lon="18.76141">
        <ele>118.854328</ele>
        <time>2022-05-29T09:29:32.738Z</time>
      </trkpt>
      <trkpt lat="42.35733" lon="18.76135">
        <ele>118.432976</ele>
        <time>2022-05-29T09:29:34.739Z</time>
      </trkpt>
      <trkpt lat="42.35749" lon="18.7613">
        <ele>118.005284</ele>
        <time>2022-05-29T09:29:36.743Z</time>
      </trkpt>
      <trkpt lat="42.35766" lon="18.76124">
        <ele>117.552765</ele>
        <time>2022-05-29T09:29:38.742Z</time>
      </trkpt>
      <trkpt lat="42.35783" lon="18.76119">
        <ele>117.106428</ele>
        <time>2022-05-29T09:29:40.723Z</time>
      </trkpt>
      <trkpt lat="42.358" lon="18.76115">
        <ele>116.680168</ele>
        <time>2022-05-29T09:29:42.741Z</time>
      </trkpt>
      <trkpt lat="42.35815" lon="18.76112">
        <ele>116.020726</ele>
        <time>2022-05-29T09:29:44.735Z</time>
      </trkpt>
      <trkpt lat="42.3583" lon="18.76108">
        <ele>115.275907</ele>
        <time>2022-05-29T09:29:46.738Z</time>
      </trkpt>
      <trkpt lat="42.35846" lon="18.76103">
        <ele>114.501776</ele>
        <time>2022-05-29T09:29:48.738Z</time>
      </trkpt>
      <trkpt lat="42.35863" lon="18.76098">
        <ele>113.691664</ele>
        <time>2022-05-29T09:29:50.736Z</time>
      </trkpt>
      <trkpt lat="42.3588" lon="18.76093">
        <ele>112.861446</ele>
        <time>2022-05-29T09:29:52.753Z</time>
      </trkpt>
      <trkpt lat="42.35896" lon="18.76088">
        <ele>112.058</ele>
        <time>2022-05-29T09:29:54.737Z</time>
      </trkpt>
      <trkpt lat="42.35914" lon="18.76083">
        <ele>111.210083</ele>
        <time>2022-05-29T09:29:56.745Z</time>
      </trkpt>
      <trkpt lat="42.35923" lon="18.7608">
        <ele>110.779043</ele>
        <time>2022-05-29T09:29:57.745Z</time>
      </trkpt>
      <trkpt lat="42.35939" lon="18.76073">
        <ele>109.952696</ele>
        <time>2022-05-29T09:29:59.768Z</time>
      </trkpt>
      <trkpt lat="42.35955" lon="18.76065">
        <ele>109.1445</ele>
        <time>2022-05-29T09:30:01.773Z</time>
      </trkpt>
      <trkpt lat="42.35971" lon="18.76057">
        <ele>108.357801</ele>
        <time>2022-05-29T09:30:03.734Z</time>
      </trkpt>
      <trkpt lat="42.35987" lon="18.76049">
        <ele>107.614595</ele>
        <time>2022-05-29T09:30:05.728Z</time>
      </trkpt>
      <trkpt lat="42.35995" lon="18.76044">
        <ele>107.244903</ele>
        <time>2022-05-29T09:30:06.759Z</time>
      </trkpt>
      <trkpt lat="42.36004" lon="18.76038">
        <ele>106.842066</ele>
        <time>2022-05-29T09:30:07.769Z</time>
      </trkpt>
      <trkpt lat="42.36014" lon="18.76033">
        <ele>106.435339</ele>
        <time>2022-05-29T09:30:08.749Z</time>
      </trkpt>
      <trkpt lat="42.36022" lon="18.76028">
        <ele>106.050915</ele>
        <time>2022-05-29T09:30:09.729Z</time>
      </trkpt>
      <trkpt lat="42.3603" lon="18.76022">
        <ele>105.680509</ele>
        <time>2022-05-29T09:30:10.731Z</time>
      </trkpt>
      <trkpt lat="42.36046" lon="18.7601">
        <ele>104.951805</ele>
        <time>2022-05-29T09:30:12.747Z</time>
      </trkpt>
      <trkpt lat="42.36054" lon="18.76004">
        <ele>104.583108</ele>
        <time>2022-05-29T09:30:13.768Z</time>
      </trkpt>
      <trkpt lat="42.36062" lon="18.75997">
        <ele>104.206453</ele>
        <time>2022-05-29T09:30:14.735Z</time>
      </trkpt>
      <trkpt lat="42.3607" lon="18.7599">
        <ele>103.818108</ele>
        <time>2022-05-29T09:30:15.743Z</time>
      </trkpt>
      <trkpt lat="42.36077" lon="18.75982">
        <ele>103.442943</ele>
        <time>2022-05-29T09:30:16.726Z</time>
      </trkpt>
      <trkpt lat="42.36085" lon="18.75975">
        <ele>103.06778</ele>
        <time>2022-05-29T09:30:17.735Z</time>
      </trkpt>
      <trkpt lat="42.36092" lon="18.75967">
        <ele>102.690849</ele>
        <time>2022-05-29T09:30:18.736Z</time>
      </trkpt>
      <trkpt lat="42.361" lon="18.7596">
        <ele>102.315363</ele>
        <time>2022-05-29T09:30:19.744Z</time>
      </trkpt>
      <trkpt lat="42.36107" lon="18.75952">
        <ele>101.941261</ele>
        <time>2022-05-29T09:30:20.757Z</time>
      </trkpt>
      <trkpt lat="42.36114" lon="18.75944">
        <ele>101.576646</ele>
        <time>2022-05-29T09:30:21.764Z</time>
      </trkpt>
      <trkpt lat="42.36121" lon="18.75936">
        <ele>101.211331</ele>
        <time>2022-05-29T09:30:22.749Z</time>
      </trkpt>
      <trkpt lat="42.36128" lon="18.75929">
        <ele>100.843571</ele>
        <time>2022-05-29T09:30:23.755Z</time>
      </trkpt>
      <trkpt lat="42.36135" lon="18.75921">
        <ele>100.567723</ele>
        <time>2022-05-29T09:30:24.747Z</time>
      </trkpt>
      <trkpt lat="42.36149" lon="18.75906">
        <ele>100.084078</ele>
        <time>2022-05-29T09:30:26.742Z</time>
      </trkpt>
      <trkpt lat="42.36156" lon="18.75898">
        <ele>99.828026</ele>
        <time>2022-05-29T09:30:27.744Z</time>
      </trkpt>
      <trkpt lat="42.36163" lon="18.75891">
        <ele>99.572576</ele>
        <time>2022-05-29T09:30:28.750Z</time>
      </trkpt>
      <trkpt lat="42.36171" lon="18.75883">
        <ele>99.309969</ele>
        <time>2022-05-29T09:30:29.756Z</time>
      </trkpt>
      <trkpt lat="42.36178" lon="18.75875">
        <ele>99.05263</ele>
        <time>2022-05-29T09:30:30.740Z</time>
      </trkpt>
      <trkpt lat="42.36185" lon="18.75867">
        <ele>98.793476</ele>
        <time>2022-05-29T09:30:31.740Z</time>
      </trkpt>
      <trkpt lat="42.36193" lon="18.7586">
        <ele>98.535788</ele>
        <time>2022-05-29T09:30:32.750Z</time>
      </trkpt>
      <trkpt lat="42.362" lon="18.75853">
        <ele>98.277107</ele>
        <time>2022-05-29T09:30:33.732Z</time>
      </trkpt>
      <trkpt lat="42.36208" lon="18.75846">
        <ele>98.016094</ele>
        <time>2022-05-29T09:30:34.769Z</time>
      </trkpt>
      <trkpt lat="42.36216" lon="18.75838">
        <ele>97.746996</ele>
        <time>2022-05-29T09:30:35.782Z</time>
      </trkpt>
      <trkpt lat="42.36224" lon="18.7583">
        <ele>97.469904</ele>
        <time>2022-05-29T09:30:36.745Z</time>
      </trkpt>
      <trkpt lat="42.36233" lon="18.75823">
        <ele>97.193958</ele>
        <time>2022-05-29T09:30:37.749Z</time>
      </trkpt>
      <trkpt lat="42.3624" lon="18.75816">
        <ele>96.930671</ele>
        <time>2022-05-29T09:30:38.732Z</time>
      </trkpt>
      <trkpt lat="42.36249" lon="18.75809">
        <ele>96.664948</ele>
        <time>2022-05-29T09:30:39.747Z</time>
      </trkpt>
      <trkpt lat="42.36257" lon="18.75802">
        <ele>96.39795</ele>
        <time>2022-05-29T09:30:40.735Z</time>
      </trkpt>
      <trkpt lat="42.36265" lon="18.75795">
        <ele>96.127248</ele>
        <time>2022-05-29T09:30:41.735Z</time>
      </trkpt>
      <trkpt lat="42.36274" lon="18.75789">
        <ele>95.849339</ele>
        <time>2022-05-29T09:30:42.732Z</time>
      </trkpt>
      <trkpt lat="42.36283" lon="18.75783">
        <ele>95.544792</ele>
        <time>2022-05-29T09:30:43.735Z</time>
      </trkpt>
      <trkpt lat="42.36292" lon="18.75776">
        <ele>95.220912</ele>
        <time>2022-05-29T09:30:44.725Z</time>
      </trkpt>
      <trkpt lat="42.36301" lon="18.7577">
        <ele>94.896274</ele>
        <time>2022-05-29T09:30:45.750Z</time>
      </trkpt>
      <trkpt lat="42.3631" lon="18.75764">
        <ele>94.569534</ele>
        <time>2022-05-29T09:30:46.777Z</time>
      </trkpt>
      <trkpt lat="42.36319" lon="18.75758">
        <ele>94.239118</ele>
        <time>2022-05-29T09:30:47.728Z</time>
      </trkpt>
      <trkpt lat="42.36328" lon="18.75752">
        <ele>93.909715</ele>
        <time>2022-05-29T09:30:48.744Z</time>
      </trkpt>
      <trkpt lat="42.36338" lon="18.75747">
        <ele>93.579372</ele>
        <time>2022-05-29T09:30:49.729Z</time>
      </trkpt>
      <trkpt lat="42.36347" lon="18.75741">
        <ele>93.250968</ele>
        <time>2022-05-29T09:30:50.727Z</time>
      </trkpt>
      <trkpt lat="42.36356" lon="18.75735">
        <ele>92.922564</ele>
        <time>2022-05-29T09:30:51.755Z</time>
      </trkpt>
      <trkpt lat="42.36366" lon="18.75729">
        <ele>92.595145</ele>
        <time>2022-05-29T09:30:52.818Z</time>
      </trkpt>
      <trkpt lat="42.36375" lon="18.75724">
        <ele>92.270645</ele>
        <time>2022-05-29T09:30:53.736Z</time>
      </trkpt>
      <trkpt lat="42.36384" lon="18.75718">
        <ele>91.950047</ele>
        <time>2022-05-29T09:30:54.730Z</time>
      </trkpt>
      <trkpt lat="42.36393" lon="18.75712">
        <ele>91.629448</ele>
        <time>2022-05-29T09:30:55.744Z</time>
      </trkpt>
      <trkpt lat="42.36402" lon="18.75707">
        <ele>91.327364</ele>
        <time>2022-05-29T09:30:56.731Z</time>
      </trkpt>
      <trkpt lat="42.3641" lon="18.75702">
        <ele>91.031124</ele>
        <time>2022-05-29T09:30:57.768Z</time>
      </trkpt>
      <trkpt lat="42.36418" lon="18.75697">
        <ele>90.735776</ele>
        <time>2022-05-29T09:30:58.726Z</time>
      </trkpt>
      <trkpt lat="42.36427" lon="18.75691">
        <ele>90.441211</ele>
        <time>2022-05-29T09:30:59.744Z</time>
      </trkpt>
      <trkpt lat="42.36435" lon="18.75685">
        <ele>90.138781</ele>
        <time>2022-05-29T09:31:00.748Z</time>
      </trkpt>
      <trkpt lat="42.36443" lon="18.75679">
        <ele>89.892297</ele>
        <time>2022-05-29T09:31:01.747Z</time>
      </trkpt>
      <trkpt lat="42.36451" lon="18.75674">
        <ele>89.685051</ele>
        <time>2022-05-29T09:31:02.752Z</time>
      </trkpt>
      <trkpt lat="42.3646" lon="18.75668">
        <ele>89.470981</ele>
        <time>2022-05-29T09:31:03.749Z</time>
      </trkpt>
      <trkpt lat="42.36468" lon="18.75662">
        <ele>89.260164</ele>
        <time>2022-05-29T09:31:04.739Z</time>
      </trkpt>
      <trkpt lat="42.36476" lon="18.75656">
        <ele>89.046555</ele>
        <time>2022-05-29T09:31:05.752Z</time>
      </trkpt>
      <trkpt lat="42.36484" lon="18.7565">
        <ele>88.834945</ele>
        <time>2022-05-29T09:31:06.733Z</time>
      </trkpt>
      <trkpt lat="42.36493" lon="18.75644">
        <ele>88.624128</ele>
        <time>2022-05-29T09:31:07.739Z</time>
      </trkpt>
      <trkpt lat="42.36501" lon="18.75638">
        <ele>88.414865</ele>
        <time>2022-05-29T09:31:08.764Z</time>
      </trkpt>
      <trkpt lat="42.36509" lon="18.75633">
        <ele>88.210841</ele>
        <time>2022-05-29T09:31:09.731Z</time>
      </trkpt>
      <trkpt lat="42.36524" lon="18.75621">
        <ele>87.815859</ele>
        <time>2022-05-29T09:31:11.763Z</time>
      </trkpt>
      <trkpt lat="42.36539" lon="18.75609">
        <ele>87.418591</ele>
        <time>2022-05-29T09:31:13.739Z</time>
      </trkpt>
      <trkpt lat="42.36554" lon="18.75596">
        <ele>87.010524</ele>
        <time>2022-05-29T09:31:15.812Z</time>
      </trkpt>
      <trkpt lat="42.36562" lon="18.75589">
        <ele>86.797087</ele>
        <time>2022-05-29T09:31:16.743Z</time>
      </trkpt>
      <trkpt lat="42.3657" lon="18.75582">
        <ele>86.577006</ele>
        <time>2022-05-29T09:31:17.760Z</time>
      </trkpt>
      <trkpt lat="42.36578" lon="18.75575">
        <ele>86.359836</ele>
        <time>2022-05-29T09:31:18.733Z</time>
      </trkpt>
      <trkpt lat="42.36586" lon="18.75568">
        <ele>86.149216</ele>
        <time>2022-05-29T09:31:19.771Z</time>
      </trkpt>
      <trkpt lat="42.36594" lon="18.75561">
        <ele>85.940393</ele>
        <time>2022-05-29T09:31:20.743Z</time>
      </trkpt>
      <trkpt lat="42.36601" lon="18.75555">
        <ele>85.765682</ele>
        <time>2022-05-29T09:31:21.746Z</time>
      </trkpt>
      <trkpt lat="42.3661" lon="18.75548">
        <ele>85.59054</ele>
        <time>2022-05-29T09:31:22.727Z</time>
      </trkpt>
      <trkpt lat="42.36618" lon="18.75542">
        <ele>85.407043</ele>
        <time>2022-05-29T09:31:23.739Z</time>
      </trkpt>
      <trkpt lat="42.36627" lon="18.75535">
        <ele>85.220319</ele>
        <time>2022-05-29T09:31:24.756Z</time>
      </trkpt>
      <trkpt lat="42.36635" lon="18.75528">
        <ele>85.03429</ele>
        <time>2022-05-29T09:31:25.731Z</time>
      </trkpt>
      <trkpt lat="42.36644" lon="18.75521">
        <ele>84.846634</ele>
        <time>2022-05-29T09:31:26.746Z</time>
      </trkpt>
      <trkpt lat="42.36653" lon="18.75515">
        <ele>84.659608</ele>
        <time>2022-05-29T09:31:27.748Z</time>
      </trkpt>
      <trkpt lat="42.36662" lon="18.75509">
        <ele>84.465255</ele>
        <time>2022-05-29T09:31:28.837Z</time>
      </trkpt>
      <trkpt lat="42.36671" lon="18.75504">
        <ele>84.274429</ele>
        <time>2022-05-29T09:31:29.744Z</time>
      </trkpt>
      <trkpt lat="42.36681" lon="18.75498">
        <ele>84.07953</ele>
        <time>2022-05-29T09:31:30.772Z</time>
      </trkpt>
      <trkpt lat="42.3669" lon="18.75493">
        <ele>83.890185</ele>
        <time>2022-05-29T09:31:31.740Z</time>
      </trkpt>
      <trkpt lat="42.367" lon="18.75489">
        <ele>83.702824</ele>
        <time>2022-05-29T09:31:32.745Z</time>
      </trkpt>
      <trkpt lat="42.36709" lon="18.75485">
        <ele>83.518095</ele>
        <time>2022-05-29T09:31:33.726Z</time>
      </trkpt>
      <trkpt lat="42.36719" lon="18.75481">
        <ele>83.333776</ele>
        <time>2022-05-29T09:31:34.745Z</time>
      </trkpt>
      <trkpt lat="42.36728" lon="18.75478">
        <ele>83.15388</ele>
        <time>2022-05-29T09:31:35.749Z</time>
      </trkpt>
      <trkpt lat="42.36737" lon="18.75475">
        <ele>82.975564</ele>
        <time>2022-05-29T09:31:36.773Z</time>
      </trkpt>
      <trkpt lat="42.36747" lon="18.75472">
        <ele>82.793581</ele>
        <time>2022-05-29T09:31:37.737Z</time>
      </trkpt>
      <trkpt lat="42.36756" lon="18.7547">
        <ele>82.607642</ele>
        <time>2022-05-29T09:31:38.734Z</time>
      </trkpt>
      <trkpt lat="42.36766" lon="18.75467">
        <ele>82.364289</ele>
        <time>2022-05-29T09:31:39.737Z</time>
      </trkpt>
      <trkpt lat="42.36776" lon="18.75464">
        <ele>82.100858</ele>
        <time>2022-05-29T09:31:40.734Z</time>
      </trkpt>
      <trkpt lat="42.36786" lon="18.75461">
        <ele>81.836639</ele>
        <time>2022-05-29T09:31:41.730Z</time>
      </trkpt>
      <trkpt lat="42.36796" lon="18.75459">
        <ele>81.570267</ele>
        <time>2022-05-29T09:31:42.728Z</time>
      </trkpt>
      <trkpt lat="42.36806" lon="18.75455">
        <ele>81.305205</ele>
        <time>2022-05-29T09:31:43.730Z</time>
      </trkpt>
      <trkpt lat="42.36816" lon="18.75452">
        <ele>81.039703</ele>
        <time>2022-05-29T09:31:44.726Z</time>
      </trkpt>
      <trkpt lat="42.36826" lon="18.75449">
        <ele>80.774642</ele>
        <time>2022-05-29T09:31:45.772Z</time>
      </trkpt>
      <trkpt lat="42.36836" lon="18.75446">
        <ele>80.512972</ele>
        <time>2022-05-29T09:31:46.781Z</time>
      </trkpt>
      <trkpt lat="42.36845" lon="18.75443">
        <ele>80.253849</ele>
        <time>2022-05-29T09:31:47.728Z</time>
      </trkpt>
      <trkpt lat="42.36855" lon="18.75441">
        <ele>80.000235</ele>
        <time>2022-05-29T09:31:48.732Z</time>
      </trkpt>
      <trkpt lat="42.36864" lon="18.75438">
        <ele>79.752128</ele>
        <time>2022-05-29T09:31:49.746Z</time>
      </trkpt>
      <trkpt lat="42.36873" lon="18.75435">
        <ele>79.504417</ele>
        <time>2022-05-29T09:31:50.727Z</time>
      </trkpt>
      <trkpt lat="42.36883" lon="18.75433">
        <ele>79.253759</ele>
        <time>2022-05-29T09:31:51.734Z</time>
      </trkpt>
      <trkpt lat="42.36892" lon="18.7543">
        <ele>79.008602</ele>
        <time>2022-05-29T09:31:52.739Z</time>
      </trkpt>
      <trkpt lat="42.36901" lon="18.75427">
        <ele>78.763446</ele>
        <time>2022-05-29T09:31:53.786Z</time>
      </trkpt>
      <trkpt lat="42.36911" lon="18.75425">
        <ele>78.51238</ele>
        <time>2022-05-29T09:31:54.744Z</time>
      </trkpt>
      <trkpt lat="42.3692" lon="18.75422">
        <ele>78.263862</ele>
        <time>2022-05-29T09:31:55.751Z</time>
      </trkpt>
      <trkpt lat="42.36929" lon="18.75419">
        <ele>78.009831</ele>
        <time>2022-05-29T09:31:56.724Z</time>
      </trkpt>
      <trkpt lat="42.36939" lon="18.75416">
        <ele>77.768447</ele>
        <time>2022-05-29T09:31:57.740Z</time>
      </trkpt>
      <trkpt lat="42.36949" lon="18.75414">
        <ele>77.55193</ele>
        <time>2022-05-29T09:31:58.750Z</time>
      </trkpt>
      <trkpt lat="42.36958" lon="18.75411">
        <ele>77.339464</ele>
        <time>2022-05-29T09:31:59.741Z</time>
      </trkpt>
      <trkpt lat="42.36968" lon="18.75408">
        <ele>77.125637</ele>
        <time>2022-05-29T09:32:00.761Z</time>
      </trkpt>
      <trkpt lat="42.36977" lon="18.75405">
        <ele>76.907121</ele>
        <time>2022-05-29T09:32:01.745Z</time>
      </trkpt>
      <trkpt lat="42.36987" lon="18.75402">
        <ele>76.688604</ele>
        <time>2022-05-29T09:32:02.739Z</time>
      </trkpt>
      <trkpt lat="42.36996" lon="18.754">
        <ele>76.475482</ele>
        <time>2022-05-29T09:32:03.748Z</time>
      </trkpt>
      <trkpt lat="42.37006" lon="18.75397">
        <ele>76.258018</ele>
        <time>2022-05-29T09:32:04.766Z</time>
      </trkpt>
      <trkpt lat="42.37015" lon="18.75394">
        <ele>76.042028</ele>
        <time>2022-05-29T09:32:05.738Z</time>
      </trkpt>
      <trkpt lat="42.37025" lon="18.75391">
        <ele>75.827832</ele>
        <time>2022-05-29T09:32:06.765Z</time>
      </trkpt>
      <trkpt lat="42.37034" lon="18.75388">
        <ele>75.614363</ele>
        <time>2022-05-29T09:32:07.770Z</time>
      </trkpt>
      <trkpt lat="42.37043" lon="18.75386">
        <ele>75.403747</ele>
        <time>2022-05-29T09:32:08.736Z</time>
      </trkpt>
      <trkpt lat="42.37053" lon="18.75383">
        <ele>75.190959</ele>
        <time>2022-05-29T09:32:09.749Z</time>
      </trkpt>
      <trkpt lat="42.37062" lon="18.7538">
        <ele>74.979656</ele>
        <time>2022-05-29T09:32:10.742Z</time>
      </trkpt>
      <trkpt lat="42.37071" lon="18.75377">
        <ele>74.766187</ele>
        <time>2022-05-29T09:32:11.741Z</time>
      </trkpt>
      <trkpt lat="42.37081" lon="18.75375">
        <ele>74.554523</ele>
        <time>2022-05-29T09:32:12.772Z</time>
      </trkpt>
      <trkpt lat="42.3709" lon="18.75372">
        <ele>74.347178</ele>
        <time>2022-05-29T09:32:13.732Z</time>
      </trkpt>
      <trkpt lat="42.37099" lon="18.75369">
        <ele>74.141992</ele>
        <time>2022-05-29T09:32:14.749Z</time>
      </trkpt>
      <trkpt lat="42.37108" lon="18.75366">
        <ele>73.935373</ele>
        <time>2022-05-29T09:32:15.765Z</time>
      </trkpt>
      <trkpt lat="42.37117" lon="18.75363">
        <ele>73.719773</ele>
        <time>2022-05-29T09:32:16.748Z</time>
      </trkpt>
      <trkpt lat="42.37126" lon="18.75361">
        <ele>73.502803</ele>
        <time>2022-05-29T09:32:17.757Z</time>
      </trkpt>
      <trkpt lat="42.37143" lon="18.75355">
        <ele>73.078506</ele>
        <time>2022-05-29T09:32:19.739Z</time>
      </trkpt>
      <trkpt lat="42.3716" lon="18.75349">
        <ele>72.663886</ele>
        <time>2022-05-29T09:32:21.724Z</time>
      </trkpt>
      <trkpt lat="42.37177" lon="18.75344">
        <ele>72.254314</ele>
        <time>2022-05-29T09:32:23.731Z</time>
      </trkpt>
      <trkpt lat="42.37193" lon="18.75338">
        <ele>71.846206</ele>
        <time>2022-05-29T09:32:25.736Z</time>
      </trkpt>
      <trkpt lat="42.3721" lon="18.75332">
        <ele>71.445026</ele>
        <time>2022-05-29T09:32:27.750Z</time>
      </trkpt>
      <trkpt lat="42.37225" lon="18.75326">
        <ele>71.05626</ele>
        <time>2022-05-29T09:32:29.749Z</time>
      </trkpt>
      <trkpt lat="42.37241" lon="18.75321">
        <ele>70.67947</ele>
        <time>2022-05-29T09:32:31.753Z</time>
      </trkpt>
      <trkpt lat="42.37256" lon="18.75316">
        <ele>70.311896</ele>
        <time>2022-05-29T09:32:33.736Z</time>
      </trkpt>
      <trkpt lat="42.3727" lon="18.7531">
        <ele>69.953522</ele>
        <time>2022-05-29T09:32:35.748Z</time>
      </trkpt>
      <trkpt lat="42.37284" lon="18.75305">
        <ele>69.611675</ele>
        <time>2022-05-29T09:32:37.758Z</time>
      </trkpt>
      <trkpt lat="42.37297" lon="18.75301">
        <ele>69.677523</ele>
        <time>2022-05-29T09:32:39.750Z</time>
      </trkpt>
      <trkpt lat="42.3731" lon="18.75296">
        <ele>69.770905</ele>
        <time>2022-05-29T09:32:41.747Z</time>
      </trkpt>
      <trkpt lat="42.37322" lon="18.75291">
        <ele>69.863455</ele>
        <time>2022-05-29T09:32:43.714Z</time>
      </trkpt>
      <trkpt lat="42.37334" lon="18.75286">
        <ele>69.949286</ele>
        <time>2022-05-29T09:32:45.749Z</time>
      </trkpt>
      <trkpt lat="42.37345" lon="18.75281">
        <ele>70.033437</ele>
        <time>2022-05-29T09:32:47.720Z</time>
      </trkpt>
      <trkpt lat="42.37355" lon="18.75275">
        <ele>70.113404</ele>
        <time>2022-05-29T09:32:49.769Z</time>
      </trkpt>
      <trkpt lat="42.37366" lon="18.75271">
        <ele>70.19168</ele>
        <time>2022-05-29T09:32:51.744Z</time>
      </trkpt>
      <trkpt lat="42.37376" lon="18.75266">
        <ele>70.269613</ele>
        <time>2022-05-29T09:32:53.722Z</time>
      </trkpt>
      <trkpt lat="42.37387" lon="18.75262">
        <ele>70.346218</ele>
        <time>2022-05-29T09:32:55.725Z</time>
      </trkpt>
      <trkpt lat="42.37397" lon="18.75257">
        <ele>70.424992</ele>
        <time>2022-05-29T09:32:57.745Z</time>
      </trkpt>
      <trkpt lat="42.37407" lon="18.75252">
        <ele>70.501919</ele>
        <time>2022-05-29T09:32:59.748Z</time>
      </trkpt>
      <trkpt lat="42.37418" lon="18.75247">
        <ele>70.580524</ele>
        <time>2022-05-29T09:33:01.744Z</time>
      </trkpt>
      <trkpt lat="42.37428" lon="18.75243">
        <ele>70.658963</ele>
        <time>2022-05-29T09:33:03.746Z</time>
      </trkpt>
      <trkpt lat="42.37439" lon="18.75238">
        <ele>70.736922</ele>
        <time>2022-05-29T09:33:05.766Z</time>
      </trkpt>
      <trkpt lat="42.37449" lon="18.75234">
        <ele>70.811184</ele>
        <time>2022-05-29T09:33:07.767Z</time>
      </trkpt>
      <trkpt lat="42.37459" lon="18.75229">
        <ele>70.869815</ele>
        <time>2022-05-29T09:33:09.749Z</time>
      </trkpt>
      <trkpt lat="42.37469" lon="18.75225">
        <ele>70.888171</ele>
        <time>2022-05-29T09:33:11.738Z</time>
      </trkpt>
      <trkpt lat="42.37478" lon="18.7522">
        <ele>70.906526</ele>
        <time>2022-05-29T09:33:13.747Z</time>
      </trkpt>
      <trkpt lat="42.37488" lon="18.75215">
        <ele>70.924732</ele>
        <time>2022-05-29T09:33:15.747Z</time>
      </trkpt>
      <trkpt lat="42.37498" lon="18.7521">
        <ele>70.943265</ele>
        <time>2022-05-29T09:33:17.735Z</time>
      </trkpt>
      <trkpt lat="42.37508" lon="18.75205">
        <ele>70.96241</ele>
        <time>2022-05-29T09:33:19.753Z</time>
      </trkpt>
      <trkpt lat="42.37518" lon="18.752">
        <ele>70.980663</ele>
        <time>2022-05-29T09:33:21.761Z</time>
      </trkpt>
      <trkpt lat="42.37527" lon="18.75194">
        <ele>70.998368</ele>
        <time>2022-05-29T09:33:23.771Z</time>
      </trkpt>
      <trkpt lat="42.37537" lon="18.75189">
        <ele>71.017157</ele>
        <time>2022-05-29T09:33:25.732Z</time>
      </trkpt>
      <trkpt lat="42.37548" lon="18.75183">
        <ele>71.037438</ele>
        <time>2022-05-29T09:33:27.755Z</time>
      </trkpt>
      <trkpt lat="42.37559" lon="18.75178">
        <ele>71.057791</ele>
        <time>2022-05-29T09:33:29.746Z</time>
      </trkpt>
      <trkpt lat="42.3757" lon="18.75172">
        <ele>71.078005</ele>
        <time>2022-05-29T09:33:31.738Z</time>
      </trkpt>
      <trkpt lat="42.37581" lon="18.75166">
        <ele>71.098239</ele>
        <time>2022-05-29T09:33:33.726Z</time>
      </trkpt>
      <trkpt lat="42.37591" lon="18.75161">
        <ele>71.11852</ele>
        <time>2022-05-29T09:33:35.748Z</time>
      </trkpt>
      <trkpt lat="42.37602" lon="18.75154">
        <ele>71.13904</ele>
        <time>2022-05-29T09:33:37.749Z</time>
      </trkpt>
      <trkpt lat="42.37614" lon="18.75147">
        <ele>71.162237</ele>
        <time>2022-05-29T09:33:39.756Z</time>
      </trkpt>
      <trkpt lat="42.37628" lon="18.7514">
        <ele>71.139866</ele>
        <time>2022-05-29T09:33:41.733Z</time>
      </trkpt>
      <trkpt lat="42.37641" lon="18.75134">
        <ele>71.011109</ele>
        <time>2022-05-29T09:33:43.773Z</time>
      </trkpt>
      <trkpt lat="42.37653" lon="18.75127">
        <ele>70.88245</ele>
        <time>2022-05-29T09:33:45.747Z</time>
      </trkpt>
      <trkpt lat="42.37666" lon="18.7512">
        <ele>70.756894</ele>
        <time>2022-05-29T09:33:47.727Z</time>
      </trkpt>
      <trkpt lat="42.37678" lon="18.75112">
        <ele>70.630001</ele>
        <time>2022-05-29T09:33:49.747Z</time>
      </trkpt>
      <trkpt lat="42.37691" lon="18.75105">
        <ele>70.504235</ele>
        <time>2022-05-29T09:33:51.737Z</time>
      </trkpt>
      <trkpt lat="42.37703" lon="18.75097">
        <ele>70.376786</ele>
        <time>2022-05-29T09:33:53.734Z</time>
      </trkpt>
      <trkpt lat="42.37716" lon="18.7509">
        <ele>70.248487</ele>
        <time>2022-05-29T09:33:55.724Z</time>
      </trkpt>
      <trkpt lat="42.37728" lon="18.75082">
        <ele>70.121868</ele>
        <time>2022-05-29T09:33:57.745Z</time>
      </trkpt>
      <trkpt lat="42.37741" lon="18.75075">
        <ele>69.996678</ele>
        <time>2022-05-29T09:33:59.745Z</time>
      </trkpt>
      <trkpt lat="42.37753" lon="18.75067">
        <ele>69.8664</ele>
        <time>2022-05-29T09:34:01.749Z</time>
      </trkpt>
      <trkpt lat="42.37767" lon="18.75059">
        <ele>69.731036</ele>
        <time>2022-05-29T09:34:03.744Z</time>
      </trkpt>
      <trkpt lat="42.3778" lon="18.75051">
        <ele>69.594822</ele>
        <time>2022-05-29T09:34:05.746Z</time>
      </trkpt>
      <trkpt lat="42.37794" lon="18.75043">
        <ele>69.346354</ele>
        <time>2022-05-29T09:34:07.750Z</time>
      </trkpt>
      <trkpt lat="42.37808" lon="18.75034">
        <ele>68.906833</ele>
        <time>2022-05-29T09:34:09.807Z</time>
      </trkpt>
      <trkpt lat="42.37822" lon="18.75025">
        <ele>68.471658</ele>
        <time>2022-05-29T09:34:11.742Z</time>
      </trkpt>
      <trkpt lat="42.37835" lon="18.75016">
        <ele>68.053353</ele>
        <time>2022-05-29T09:34:13.762Z</time>
      </trkpt>
      <trkpt lat="42.37848" lon="18.75007">
        <ele>67.635049</ele>
        <time>2022-05-29T09:34:15.746Z</time>
      </trkpt>
      <trkpt lat="42.37861" lon="18.74998">
        <ele>67.203732</ele>
        <time>2022-05-29T09:34:17.755Z</time>
      </trkpt>
      <trkpt lat="42.37875" lon="18.74989">
        <ele>66.773365</ele>
        <time>2022-05-29T09:34:19.769Z</time>
      </trkpt>
      <trkpt lat="42.37888" lon="18.74979">
        <ele>66.347686</ele>
        <time>2022-05-29T09:34:21.738Z</time>
      </trkpt>
      <trkpt lat="42.37902" lon="18.74969">
        <ele>65.90188</ele>
        <time>2022-05-29T09:34:23.764Z</time>
      </trkpt>
      <trkpt lat="42.37915" lon="18.74958">
        <ele>65.463785</ele>
        <time>2022-05-29T09:34:25.766Z</time>
      </trkpt>
      <trkpt lat="42.37928" lon="18.74948">
        <ele>65.026767</ele>
        <time>2022-05-29T09:34:27.749Z</time>
      </trkpt>
      <trkpt lat="42.37942" lon="18.74936">
        <ele>64.576118</ele>
        <time>2022-05-29T09:34:29.747Z</time>
      </trkpt>
      <trkpt lat="42.37955" lon="18.74925">
        <ele>64.310858</ele>
        <time>2022-05-29T09:34:31.726Z</time>
      </trkpt>
      <trkpt lat="42.37969" lon="18.74915">
        <ele>64.180913</ele>
        <time>2022-05-29T09:34:33.728Z</time>
      </trkpt>
      <trkpt lat="42.37982" lon="18.74904">
        <ele>64.05036</ele>
        <time>2022-05-29T09:34:35.748Z</time>
      </trkpt>
      <trkpt lat="42.37996" lon="18.74894">
        <ele>63.918237</ele>
        <time>2022-05-29T09:34:37.730Z</time>
      </trkpt>
      <trkpt lat="42.3801" lon="18.74884">
        <ele>63.785385</ele>
        <time>2022-05-29T09:34:39.766Z</time>
      </trkpt>
      <trkpt lat="42.38024" lon="18.74872">
        <ele>63.647637</ele>
        <time>2022-05-29T09:34:41.745Z</time>
      </trkpt>
      <trkpt lat="42.38038" lon="18.74861">
        <ele>63.514096</ele>
        <time>2022-05-29T09:34:43.750Z</time>
      </trkpt>
      <trkpt lat="42.38052" lon="18.7485">
        <ele>63.380744</ele>
        <time>2022-05-29T09:34:45.747Z</time>
      </trkpt>
      <trkpt lat="42.38065" lon="18.74838">
        <ele>63.247392</ele>
        <time>2022-05-29T09:34:47.755Z</time>
      </trkpt>
      <trkpt lat="42.38078" lon="18.74826">
        <ele>63.118899</ele>
        <time>2022-05-29T09:34:49.737Z</time>
      </trkpt>
      <trkpt lat="42.38091" lon="18.74814">
        <ele>62.987304</ele>
        <time>2022-05-29T09:34:51.762Z</time>
      </trkpt>
      <trkpt lat="42.38105" lon="18.74803">
        <ele>62.861344</ele>
        <time>2022-05-29T09:34:53.753Z</time>
      </trkpt>
      <trkpt lat="42.38118" lon="18.74791">
        <ele>62.757058</ele>
        <time>2022-05-29T09:34:55.755Z</time>
      </trkpt>
      <trkpt lat="42.38132" lon="18.7478">
        <ele>62.655258</ele>
        <time>2022-05-29T09:34:57.739Z</time>
      </trkpt>
      <trkpt lat="42.38144" lon="18.74769">
        <ele>62.556487</ele>
        <time>2022-05-29T09:34:59.758Z</time>
      </trkpt>
      <trkpt lat="42.38157" lon="18.74758">
        <ele>62.456378</ele>
        <time>2022-05-29T09:35:01.746Z</time>
      </trkpt>
      <trkpt lat="42.38169" lon="18.74747">
        <ele>62.358996</ele>
        <time>2022-05-29T09:35:03.746Z</time>
      </trkpt>
      <trkpt lat="42.38182" lon="18.74735">
        <ele>62.262156</ele>
        <time>2022-05-29T09:35:05.736Z</time>
      </trkpt>
      <trkpt lat="42.38194" lon="18.74724">
        <ele>62.164227</ele>
        <time>2022-05-29T09:35:07.743Z</time>
      </trkpt>
      <trkpt lat="42.38207" lon="18.74712">
        <ele>62.062777</ele>
        <time>2022-05-29T09:35:09.743Z</time>
      </trkpt>
      <trkpt lat="42.3822" lon="18.747">
        <ele>61.960512</ele>
        <time>2022-05-29T09:35:11.739Z</time>
      </trkpt>
      <trkpt lat="42.38232" lon="18.74688">
        <ele>61.857975</ele>
        <time>2022-05-29T09:35:13.739Z</time>
      </trkpt>
      <trkpt lat="42.38245" lon="18.74676">
        <ele>61.755168</ele>
        <time>2022-05-29T09:35:15.751Z</time>
      </trkpt>
      <trkpt lat="42.38258" lon="18.74664">
        <ele>61.560584</ele>
        <time>2022-05-29T09:35:17.752Z</time>
      </trkpt>
      <trkpt lat="42.3827" lon="18.74652">
        <ele>61.298751</ele>
        <time>2022-05-29T09:35:19.746Z</time>
      </trkpt>
      <trkpt lat="42.38283" lon="18.7464">
        <ele>61.032516</ele>
        <time>2022-05-29T09:35:21.729Z</time>
      </trkpt>
      <trkpt lat="42.38295" lon="18.74628">
        <ele>60.771331</ele>
        <time>2022-05-29T09:35:23.750Z</time>
      </trkpt>
      <trkpt lat="42.38308" lon="18.74615">
        <ele>60.495215</ele>
        <time>2022-05-29T09:35:25.768Z</time>
      </trkpt>
      <trkpt lat="42.38321" lon="18.74602">
        <ele>60.221779</ele>
        <time>2022-05-29T09:35:27.754Z</time>
      </trkpt>
      <trkpt lat="42.38333" lon="18.74589">
        <ele>59.952482</ele>
        <time>2022-05-29T09:35:29.750Z</time>
      </trkpt>
      <trkpt lat="42.38345" lon="18.74577">
        <ele>59.688395</ele>
        <time>2022-05-29T09:35:31.734Z</time>
      </trkpt>
      <trkpt lat="42.38359" lon="18.74566">
        <ele>59.419359</ele>
        <time>2022-05-29T09:35:33.727Z</time>
      </trkpt>
      <trkpt lat="42.38372" lon="18.74555">
        <ele>59.148858</ele>
        <time>2022-05-29T09:35:35.771Z</time>
      </trkpt>
      <trkpt lat="42.38385" lon="18.74542">
        <ele>58.876939</ele>
        <time>2022-05-29T09:35:37.758Z</time>
      </trkpt>
      <trkpt lat="42.38397" lon="18.74529">
        <ele>58.60472</ele>
        <time>2022-05-29T09:35:39.751Z</time>
      </trkpt>
      <trkpt lat="42.38409" lon="18.74516">
        <ele>58.342698</ele>
        <time>2022-05-29T09:35:41.739Z</time>
      </trkpt>
      <trkpt lat="42.38422" lon="18.74503">
        <ele>58.072926</ele>
        <time>2022-05-29T09:35:43.755Z</time>
      </trkpt>
      <trkpt lat="42.38435" lon="18.74489">
        <ele>57.800309</ele>
        <time>2022-05-29T09:35:45.745Z</time>
      </trkpt>
      <trkpt lat="42.38448" lon="18.74475">
        <ele>57.52383</ele>
        <time>2022-05-29T09:35:47.743Z</time>
      </trkpt>
      <trkpt lat="42.3846" lon="18.7446">
        <ele>57.244343</ele>
        <time>2022-05-29T09:35:49.733Z</time>
      </trkpt>
      <trkpt lat="42.38473" lon="18.74445">
        <ele>56.965303</ele>
        <time>2022-05-29T09:35:51.763Z</time>
      </trkpt>
      <trkpt lat="42.38485" lon="18.74432">
        <ele>56.696085</ele>
        <time>2022-05-29T09:35:53.729Z</time>
      </trkpt>
      <trkpt lat="42.38498" lon="18.74419">
        <ele>56.426035</ele>
        <time>2022-05-29T09:35:55.759Z</time>
      </trkpt>
      <trkpt lat="42.38511" lon="18.74406">
        <ele>56.167994</ele>
        <time>2022-05-29T09:35:57.734Z</time>
      </trkpt>
      <trkpt lat="42.38523" lon="18.74393">
        <ele>55.906861</ele>
        <time>2022-05-29T09:35:59.810Z</time>
      </trkpt>
      <trkpt lat="42.38535" lon="18.74379">
        <ele>55.63841</ele>
        <time>2022-05-29T09:36:01.752Z</time>
      </trkpt>
      <trkpt lat="42.38548" lon="18.74366">
        <ele>55.292716</ele>
        <time>2022-05-29T09:36:03.747Z</time>
      </trkpt>
      <trkpt lat="42.38561" lon="18.74353">
        <ele>54.928905</ele>
        <time>2022-05-29T09:36:05.757Z</time>
      </trkpt>
      <trkpt lat="42.38574" lon="18.7434">
        <ele>54.570787</ele>
        <time>2022-05-29T09:36:07.743Z</time>
      </trkpt>
      <trkpt lat="42.38587" lon="18.74327">
        <ele>54.221734</ele>
        <time>2022-05-29T09:36:09.734Z</time>
      </trkpt>
      <trkpt lat="42.386" lon="18.74315">
        <ele>53.871171</ele>
        <time>2022-05-29T09:36:11.751Z</time>
      </trkpt>
      <trkpt lat="42.38613" lon="18.74302">
        <ele>53.523364</ele>
        <time>2022-05-29T09:36:13.730Z</time>
      </trkpt>
      <trkpt lat="42.38625" lon="18.7429">
        <ele>53.178201</ele>
        <time>2022-05-29T09:36:15.735Z</time>
      </trkpt>
      <trkpt lat="42.38638" lon="18.74277">
        <ele>52.832073</ele>
        <time>2022-05-29T09:36:17.732Z</time>
      </trkpt>
      <trkpt lat="42.3865" lon="18.74265">
        <ele>52.485776</ele>
        <time>2022-05-29T09:36:19.757Z</time>
      </trkpt>
      <trkpt lat="42.38663" lon="18.74252">
        <ele>52.13397</ele>
        <time>2022-05-29T09:36:21.794Z</time>
      </trkpt>
      <trkpt lat="42.38676" lon="18.74239">
        <ele>51.781504</ele>
        <time>2022-05-29T09:36:23.734Z</time>
      </trkpt>
      <trkpt lat="42.38688" lon="18.74227">
        <ele>51.612258</ele>
        <time>2022-05-29T09:36:25.736Z</time>
      </trkpt>
      <trkpt lat="42.38701" lon="18.74215">
        <ele>51.626573</ele>
        <time>2022-05-29T09:36:27.734Z</time>
      </trkpt>
      <trkpt lat="42.38714" lon="18.74202">
        <ele>51.641621</ele>
        <time>2022-05-29T09:36:29.747Z</time>
      </trkpt>
      <trkpt lat="42.38727" lon="18.74189">
        <ele>51.657093</ele>
        <time>2022-05-29T09:36:31.745Z</time>
      </trkpt>
      <trkpt lat="42.3874" lon="18.74177">
        <ele>51.671986</ele>
        <time>2022-05-29T09:36:33.742Z</time>
      </trkpt>
      <trkpt lat="42.38753" lon="18.74165">
        <ele>51.686878</ele>
        <time>2022-05-29T09:36:35.748Z</time>
      </trkpt>
      <trkpt lat="42.38766" lon="18.74153">
        <ele>51.701305</ele>
        <time>2022-05-29T09:36:37.718Z</time>
      </trkpt>
      <trkpt lat="42.38778" lon="18.74141">
        <ele>51.715306</ele>
        <time>2022-05-29T09:36:39.728Z</time>
      </trkpt>
      <trkpt lat="42.3879" lon="18.7413">
        <ele>51.729071</ele>
        <time>2022-05-29T09:36:41.755Z</time>
      </trkpt>
      <trkpt lat="42.38802" lon="18.74119">
        <ele>51.742604</ele>
        <time>2022-05-29T09:36:43.765Z</time>
      </trkpt>
      <trkpt lat="42.38814" lon="18.74108">
        <ele>51.755788</ele>
        <time>2022-05-29T09:36:45.751Z</time>
      </trkpt>
      <trkpt lat="42.38825" lon="18.74097">
        <ele>51.768625</ele>
        <time>2022-05-29T09:36:47.741Z</time>
      </trkpt>
      <trkpt lat="42.38836" lon="18.74088">
        <ele>51.723173</ele>
        <time>2022-05-29T09:36:49.745Z</time>
      </trkpt>
      <trkpt lat="42.38846" lon="18.74079">
        <ele>51.640384</ele>
        <time>2022-05-29T09:36:51.754Z</time>
      </trkpt>
      <trkpt lat="42.38856" lon="18.7407">
        <ele>51.555878</ele>
        <time>2022-05-29T09:36:53.737Z</time>
      </trkpt>
      <trkpt lat="42.38865" lon="18.74061">
        <ele>51.474572</ele>
        <time>2022-05-29T09:36:55.734Z</time>
      </trkpt>
      <trkpt lat="42.38875" lon="18.74052">
        <ele>51.389099</ele>
        <time>2022-05-29T09:36:57.755Z</time>
      </trkpt>
      <trkpt lat="42.38884" lon="18.74043">
        <ele>51.306054</ele>
        <time>2022-05-29T09:36:59.760Z</time>
      </trkpt>
      <trkpt lat="42.38894" lon="18.74033">
        <ele>51.222131</ele>
        <time>2022-05-29T09:37:01.737Z</time>
      </trkpt>
      <trkpt lat="42.38905" lon="18.74025">
        <ele>51.134645</ele>
        <time>2022-05-29T09:37:03.746Z</time>
      </trkpt>
      <trkpt lat="42.38914" lon="18.74016">
        <ele>51.055982</ele>
        <time>2022-05-29T09:37:05.753Z</time>
      </trkpt>
      <trkpt lat="42.38923" lon="18.74008">
        <ele>50.975276</ele>
        <time>2022-05-29T09:37:07.733Z</time>
      </trkpt>
      <trkpt lat="42.38932" lon="18.74">
        <ele>50.901243</ele>
        <time>2022-05-29T09:37:09.739Z</time>
      </trkpt>
      <trkpt lat="42.38941" lon="18.73993">
        <ele>50.827329</ele>
        <time>2022-05-29T09:37:11.770Z</time>
      </trkpt>
      <trkpt lat="42.38951" lon="18.73985">
        <ele>50.750987</ele>
        <time>2022-05-29T09:37:13.750Z</time>
      </trkpt>
      <trkpt lat="42.38959" lon="18.73978">
        <ele>50.680179</ele>
        <time>2022-05-29T09:37:15.735Z</time>
      </trkpt>
      <trkpt lat="42.38968" lon="18.73971">
        <ele>50.608771</ele>
        <time>2022-05-29T09:37:17.722Z</time>
      </trkpt>
      <trkpt lat="42.38976" lon="18.73964">
        <ele>50.540588</ele>
        <time>2022-05-29T09:37:19.732Z</time>
      </trkpt>
      <trkpt lat="42.38984" lon="18.73957">
        <ele>50.501813</ele>
        <time>2022-05-29T09:37:21.729Z</time>
      </trkpt>
      <trkpt lat="42.38992" lon="18.73951">
        <ele>50.498241</ele>
        <time>2022-05-29T09:37:23.731Z</time>
      </trkpt>
      <trkpt lat="42.39" lon="18.73943">
        <ele>50.494464</ele>
        <time>2022-05-29T09:37:25.748Z</time>
      </trkpt>
      <trkpt lat="42.39009" lon="18.73936">
        <ele>50.490606</ele>
        <time>2022-05-29T09:37:27.750Z</time>
      </trkpt>
      <trkpt lat="42.39018" lon="18.73928">
        <ele>50.486573</ele>
        <time>2022-05-29T09:37:29.743Z</time>
      </trkpt>
      <trkpt lat="42.39027" lon="18.73921">
        <ele>50.4826</ele>
        <time>2022-05-29T09:37:31.761Z</time>
      </trkpt>
      <trkpt lat="42.39036" lon="18.73913">
        <ele>50.47844</ele>
        <time>2022-05-29T09:37:33.761Z</time>
      </trkpt>
      <trkpt lat="42.39045" lon="18.73906">
        <ele>50.474232</ele>
        <time>2022-05-29T09:37:35.835Z</time>
      </trkpt>
      <trkpt lat="42.39054" lon="18.73898">
        <ele>50.470057</ele>
        <time>2022-05-29T09:37:37.747Z</time>
      </trkpt>
      <trkpt lat="42.39063" lon="18.7389">
        <ele>50.466025</ele>
        <time>2022-05-29T09:37:39.753Z</time>
      </trkpt>
      <trkpt lat="42.39071" lon="18.73883">
        <ele>50.462423</ele>
        <time>2022-05-29T09:37:41.735Z</time>
      </trkpt>
      <trkpt lat="42.3908" lon="18.73876">
        <ele>50.45853</ele>
        <time>2022-05-29T09:37:43.772Z</time>
      </trkpt>
      <trkpt lat="42.39088" lon="18.73868">
        <ele>50.454467</ele>
        <time>2022-05-29T09:37:45.747Z</time>
      </trkpt>
      <trkpt lat="42.39097" lon="18.73859">
        <ele>50.450403</ele>
        <time>2022-05-29T09:37:47.741Z</time>
      </trkpt>
      <trkpt lat="42.39106" lon="18.73851">
        <ele>50.446403</ele>
        <time>2022-05-29T09:37:49.736Z</time>
      </trkpt>
      <trkpt lat="42.39114" lon="18.73843">
        <ele>50.44241</ele>
        <time>2022-05-29T09:37:51.748Z</time>
      </trkpt>
      <trkpt lat="42.39122" lon="18.73833">
        <ele>50.438281</ele>
        <time>2022-05-29T09:37:53.751Z</time>
      </trkpt>
      <trkpt lat="42.3913" lon="18.73825">
        <ele>50.437216</ele>
        <time>2022-05-29T09:37:55.801Z</time>
      </trkpt>
      <trkpt lat="42.39138" lon="18.73816">
        <ele>50.489372</ele>
        <time>2022-05-29T09:37:57.744Z</time>
      </trkpt>
      <trkpt lat="42.39146" lon="18.73808">
        <ele>50.540076</ele>
        <time>2022-05-29T09:37:59.774Z</time>
      </trkpt>
      <trkpt lat="42.39155" lon="18.738">
        <ele>50.59501</ele>
        <time>2022-05-29T09:38:01.743Z</time>
      </trkpt>
      <trkpt lat="42.39165" lon="18.73796">
        <ele>50.649612</ele>
        <time>2022-05-29T09:38:03.757Z</time>
      </trkpt>
      <trkpt lat="42.39176" lon="18.73796">
        <ele>50.706797</ele>
        <time>2022-05-29T09:38:05.753Z</time>
      </trkpt>
      <trkpt lat="42.39186" lon="18.73797">
        <ele>50.757889</ele>
        <time>2022-05-29T09:38:07.807Z</time>
      </trkpt>
      <trkpt lat="42.39196" lon="18.73794">
        <ele>50.808322</ele>
        <time>2022-05-29T09:38:09.739Z</time>
      </trkpt>
      <trkpt lat="42.39203" lon="18.73784">
        <ele>50.861651</ele>
        <time>2022-05-29T09:38:11.737Z</time>
      </trkpt>
      <trkpt lat="42.39208" lon="18.73773">
        <ele>50.912825</ele>
        <time>2022-05-29T09:38:13.761Z</time>
      </trkpt>
      <trkpt lat="42.39215" lon="18.73763">
        <ele>50.964971</ele>
        <time>2022-05-29T09:38:15.755Z</time>
      </trkpt>
      <trkpt lat="42.39224" lon="18.73755">
        <ele>51.021074</ele>
        <time>2022-05-29T09:38:17.731Z</time>
      </trkpt>
      <trkpt lat="42.39234" lon="18.73749">
        <ele>51.073386</ele>
        <time>2022-05-29T09:38:19.760Z</time>
      </trkpt>
      <trkpt lat="42.39243" lon="18.73745">
        <ele>51.125976</ele>
        <time>2022-05-29T09:38:21.789Z</time>
      </trkpt>
      <trkpt lat="42.39252" lon="18.73739">
        <ele>51.174812</ele>
        <time>2022-05-29T09:38:23.735Z</time>
      </trkpt>
      <trkpt lat="42.39261" lon="18.73734">
        <ele>51.226981</ele>
        <time>2022-05-29T09:38:25.748Z</time>
      </trkpt>
      <trkpt lat="42.3927" lon="18.73728">
        <ele>51.280441</ele>
        <time>2022-05-29T09:38:27.727Z</time>
      </trkpt>
      <trkpt lat="42.3928" lon="18.73721">
        <ele>51.334644</ele>
        <time>2022-05-29T09:38:29.739Z</time>
      </trkpt>
      <trkpt lat="42.39289" lon="18.73715">
        <ele>51.302452</ele>
        <time>2022-05-29T09:38:31.730Z</time>
      </trkpt>
      <trkpt lat="42.39299" lon="18.73708">
        <ele>51.179095</ele>
        <time>2022-05-29T09:38:33.742Z</time>
      </trkpt>
      <trkpt lat="42.39308" lon="18.737">
        <ele>51.056443</ele>
        <time>2022-05-29T09:38:35.749Z</time>
      </trkpt>
      <trkpt lat="42.39319" lon="18.73693">
        <ele>50.927031</ele>
        <time>2022-05-29T09:38:37.751Z</time>
      </trkpt>
      <trkpt lat="42.39329" lon="18.73685">
        <ele>50.795667</ele>
        <time>2022-05-29T09:38:39.748Z</time>
      </trkpt>
      <trkpt lat="42.39339" lon="18.73678">
        <ele>50.668598</ele>
        <time>2022-05-29T09:38:41.740Z</time>
      </trkpt>
      <trkpt lat="42.39349" lon="18.7367">
        <ele>50.537015</ele>
        <time>2022-05-29T09:38:43.751Z</time>
      </trkpt>
      <trkpt lat="42.39359" lon="18.73662">
        <ele>50.409143</ele>
        <time>2022-05-29T09:38:45.737Z</time>
      </trkpt>
      <trkpt lat="42.39369" lon="18.73655">
        <ele>50.283444</ele>
        <time>2022-05-29T09:38:47.753Z</time>
      </trkpt>
      <trkpt lat="42.39379" lon="18.73647">
        <ele>50.153791</ele>
        <time>2022-05-29T09:38:49.724Z</time>
      </trkpt>
      <trkpt lat="42.3939" lon="18.73639">
        <ele>50.02301</ele>
        <time>2022-05-29T09:38:51.733Z</time>
      </trkpt>
      <trkpt lat="42.394" lon="18.73631">
        <ele>49.89651</ele>
        <time>2022-05-29T09:38:53.724Z</time>
      </trkpt>
      <trkpt lat="42.3941" lon="18.73624">
        <ele>49.768649</ele>
        <time>2022-05-29T09:38:55.743Z</time>
      </trkpt>
      <trkpt lat="42.3942" lon="18.73616">
        <ele>49.635694</ele>
        <time>2022-05-29T09:38:57.741Z</time>
      </trkpt>
      <trkpt lat="42.39431" lon="18.73608">
        <ele>49.499174</ele>
        <time>2022-05-29T09:38:59.751Z</time>
      </trkpt>
      <trkpt lat="42.39441" lon="18.736">
        <ele>49.365252</ele>
        <time>2022-05-29T09:39:01.779Z</time>
      </trkpt>
      <trkpt lat="42.39452" lon="18.73592">
        <ele>49.297137</ele>
        <time>2022-05-29T09:39:03.728Z</time>
      </trkpt>
      <trkpt lat="42.39463" lon="18.73583">
        <ele>49.226767</ele>
        <time>2022-05-29T09:39:05.757Z</time>
      </trkpt>
      <trkpt lat="42.39474" lon="18.73575">
        <ele>49.157075</ele>
        <time>2022-05-29T09:39:07.743Z</time>
      </trkpt>
      <trkpt lat="42.39485" lon="18.73566">
        <ele>49.086296</ele>
        <time>2022-05-29T09:39:09.719Z</time>
      </trkpt>
      <trkpt lat="42.39496" lon="18.73557">
        <ele>49.017282</ele>
        <time>2022-05-29T09:39:11.735Z</time>
      </trkpt>
      <trkpt lat="42.39507" lon="18.73549">
        <ele>48.950895</ele>
        <time>2022-05-29T09:39:13.744Z</time>
      </trkpt>
      <trkpt lat="42.39517" lon="18.73542">
        <ele>48.886536</ele>
        <time>2022-05-29T09:39:15.751Z</time>
      </trkpt>
      <trkpt lat="42.39527" lon="18.73534">
        <ele>48.821305</ele>
        <time>2022-05-29T09:39:17.764Z</time>
      </trkpt>
      <trkpt lat="42.39538" lon="18.73526">
        <ele>48.75289</ele>
        <time>2022-05-29T09:39:19.743Z</time>
      </trkpt>
      <trkpt lat="42.39549" lon="18.73517">
        <ele>48.684077</ele>
        <time>2022-05-29T09:39:21.759Z</time>
      </trkpt>
      <trkpt lat="42.3956" lon="18.73509">
        <ele>48.615942</ele>
        <time>2022-05-29T09:39:23.751Z</time>
      </trkpt>
      <trkpt lat="42.3957" lon="18.73501">
        <ele>48.550321</ele>
        <time>2022-05-29T09:39:25.749Z</time>
      </trkpt>
      <trkpt lat="42.39581" lon="18.73494">
        <ele>48.483453</ele>
        <time>2022-05-29T09:39:27.746Z</time>
      </trkpt>
      <trkpt lat="42.39592" lon="18.73486">
        <ele>48.41687</ele>
        <time>2022-05-29T09:39:29.742Z</time>
      </trkpt>
      <trkpt lat="42.39602" lon="18.73478">
        <ele>48.343111</ele>
        <time>2022-05-29T09:39:31.747Z</time>
      </trkpt>
      <trkpt lat="42.39612" lon="18.73469">
        <ele>48.25103</ele>
        <time>2022-05-29T09:39:33.718Z</time>
      </trkpt>
      <trkpt lat="42.39622" lon="18.73461">
        <ele>48.161597</ele>
        <time>2022-05-29T09:39:35.738Z</time>
      </trkpt>
      <trkpt lat="42.39633" lon="18.73453">
        <ele>48.069314</ele>
        <time>2022-05-29T09:39:37.721Z</time>
      </trkpt>
      <trkpt lat="42.39643" lon="18.73444">
        <ele>47.976082</ele>
        <time>2022-05-29T09:39:39.744Z</time>
      </trkpt>
      <trkpt lat="42.39653" lon="18.73436">
        <ele>47.882849</ele>
        <time>2022-05-29T09:39:41.754Z</time>
      </trkpt>
      <trkpt lat="42.39664" lon="18.73427">
        <ele>47.784502</ele>
        <time>2022-05-29T09:39:43.735Z</time>
      </trkpt>
      <trkpt lat="42.39675" lon="18.73418">
        <ele>47.685863</ele>
        <time>2022-05-29T09:39:45.763Z</time>
      </trkpt>
      <trkpt lat="42.39686" lon="18.73409">
        <ele>47.590364</ele>
        <time>2022-05-29T09:39:47.750Z</time>
      </trkpt>
      <trkpt lat="42.39696" lon="18.73401">
        <ele>47.504502</ele>
        <time>2022-05-29T09:39:49.737Z</time>
      </trkpt>
      <trkpt lat="42.39705" lon="18.73393">
        <ele>47.416677</ele>
        <time>2022-05-29T09:39:51.756Z</time>
      </trkpt>
      <trkpt lat="42.39716" lon="18.73384">
        <ele>47.321643</ele>
        <time>2022-05-29T09:39:53.765Z</time>
      </trkpt>
      <trkpt lat="42.39726" lon="18.73376">
        <ele>47.229465</ele>
        <time>2022-05-29T09:39:55.757Z</time>
      </trkpt>
      <trkpt lat="42.39736" lon="18.73367">
        <ele>47.139192</ele>
        <time>2022-05-29T09:39:57.735Z</time>
      </trkpt>
      <trkpt lat="42.39746" lon="18.73358">
        <ele>47.045666</ele>
        <time>2022-05-29T09:39:59.735Z</time>
      </trkpt>
      <trkpt lat="42.39757" lon="18.7335">
        <ele>46.971506</ele>
        <time>2022-05-29T09:40:01.745Z</time>
      </trkpt>
      <trkpt lat="42.39767" lon="18.73341">
        <ele>46.919765</ele>
        <time>2022-05-29T09:40:03.735Z</time>
      </trkpt>
      <trkpt lat="42.39777" lon="18.73333">
        <ele>46.869069</ele>
        <time>2022-05-29T09:40:05.753Z</time>
      </trkpt>
      <trkpt lat="42.39786" lon="18.73324">
        <ele>46.820503</ele>
        <time>2022-05-29T09:40:07.726Z</time>
      </trkpt>
      <trkpt lat="42.39796" lon="18.73316">
        <ele>46.77036</ele>
        <time>2022-05-29T09:40:09.752Z</time>
      </trkpt>
      <trkpt lat="42.39806" lon="18.73307">
        <ele>46.721284</ele>
        <time>2022-05-29T09:40:11.716Z</time>
      </trkpt>
      <trkpt lat="42.39815" lon="18.73299">
        <ele>46.672218</ele>
        <time>2022-05-29T09:40:13.744Z</time>
      </trkpt>
      <trkpt lat="42.39825" lon="18.7329">
        <ele>46.623508</ele>
        <time>2022-05-29T09:40:15.749Z</time>
      </trkpt>
      <trkpt lat="42.39834" lon="18.73282">
        <ele>46.575151</ele>
        <time>2022-05-29T09:40:17.732Z</time>
      </trkpt>
      <trkpt lat="42.39843" lon="18.73274">
        <ele>46.527859</ele>
        <time>2022-05-29T09:40:19.725Z</time>
      </trkpt>
      <trkpt lat="42.39852" lon="18.73266">
        <ele>46.482705</ele>
        <time>2022-05-29T09:40:21.742Z</time>
      </trkpt>
      <trkpt lat="42.39861" lon="18.73257">
        <ele>46.433625</ele>
        <time>2022-05-29T09:40:23.748Z</time>
      </trkpt>
      <trkpt lat="42.39871" lon="18.73248">
        <ele>46.383315</ele>
        <time>2022-05-29T09:40:25.739Z</time>
      </trkpt>
      <trkpt lat="42.39881" lon="18.73239">
        <ele>46.332647</ele>
        <time>2022-05-29T09:40:27.780Z</time>
      </trkpt>
      <trkpt lat="42.3989" lon="18.7323">
        <ele>46.282338</ele>
        <time>2022-05-29T09:40:29.768Z</time>
      </trkpt>
      <trkpt lat="42.39899" lon="18.73221">
        <ele>46.23414</ele>
        <time>2022-05-29T09:40:31.732Z</time>
      </trkpt>
      <trkpt lat="42.39908" lon="18.73212">
        <ele>46.236642</ele>
        <time>2022-05-29T09:40:33.738Z</time>
      </trkpt>
      <trkpt lat="42.39918" lon="18.73204">
        <ele>46.25558</ele>
        <time>2022-05-29T09:40:35.737Z</time>
      </trkpt>
      <trkpt lat="42.39927" lon="18.73195">
        <ele>46.275454</ele>
        <time>2022-05-29T09:40:37.727Z</time>
      </trkpt>
      <trkpt lat="42.39936" lon="18.73186">
        <ele>46.295278</ele>
        <time>2022-05-29T09:40:39.743Z</time>
      </trkpt>
      <trkpt lat="42.39946" lon="18.73176">
        <ele>46.31612</ele>
        <time>2022-05-29T09:40:41.768Z</time>
      </trkpt>
      <trkpt lat="42.39955" lon="18.73166">
        <ele>46.336298</ele>
        <time>2022-05-29T09:40:43.723Z</time>
      </trkpt>
      <trkpt lat="42.39964" lon="18.73157">
        <ele>46.355339</ele>
        <time>2022-05-29T09:40:45.756Z</time>
      </trkpt>
      <trkpt lat="42.39973" lon="18.73148">
        <ele>46.375794</ele>
        <time>2022-05-29T09:40:47.735Z</time>
      </trkpt>
      <trkpt lat="42.39982" lon="18.73138">
        <ele>46.395481</ele>
        <time>2022-05-29T09:40:49.750Z</time>
      </trkpt>
      <trkpt lat="42.39991" lon="18.73129">
        <ele>46.41543</ele>
        <time>2022-05-29T09:40:51.773Z</time>
      </trkpt>
      <trkpt lat="42.40001" lon="18.73119">
        <ele>46.435763</ele>
        <time>2022-05-29T09:40:53.745Z</time>
      </trkpt>
      <trkpt lat="42.4001" lon="18.7311">
        <ele>46.455295</ele>
        <time>2022-05-29T09:40:55.736Z</time>
      </trkpt>
      <trkpt lat="42.40019" lon="18.73101">
        <ele>46.476096</ele>
        <time>2022-05-29T09:40:57.754Z</time>
      </trkpt>
      <trkpt lat="42.40029" lon="18.73091">
        <ele>46.49653</ele>
        <time>2022-05-29T09:40:59.732Z</time>
      </trkpt>
      <trkpt lat="42.40038" lon="18.73081">
        <ele>46.516319</ele>
        <time>2022-05-29T09:41:01.737Z</time>
      </trkpt>
      <trkpt lat="42.40046" lon="18.73072">
        <ele>46.539381</ele>
        <time>2022-05-29T09:41:03.732Z</time>
      </trkpt>
      <trkpt lat="42.40055" lon="18.73063">
        <ele>46.600745</ele>
        <time>2022-05-29T09:41:05.774Z</time>
      </trkpt>
      <trkpt lat="42.40064" lon="18.73054">
        <ele>46.661664</ele>
        <time>2022-05-29T09:41:07.743Z</time>
      </trkpt>
      <trkpt lat="42.40072" lon="18.73045">
        <ele>46.719884</ele>
        <time>2022-05-29T09:41:09.750Z</time>
      </trkpt>
      <trkpt lat="42.4008" lon="18.73036">
        <ele>46.777668</ele>
        <time>2022-05-29T09:41:11.728Z</time>
      </trkpt>
      <trkpt lat="42.40088" lon="18.73027">
        <ele>46.834328</ele>
        <time>2022-05-29T09:41:13.764Z</time>
      </trkpt>
      <trkpt lat="42.40096" lon="18.73018">
        <ele>46.893061</ele>
        <time>2022-05-29T09:41:15.749Z</time>
      </trkpt>
      <trkpt lat="42.40104" lon="18.73009">
        <ele>46.952745</ele>
        <time>2022-05-29T09:41:17.739Z</time>
      </trkpt>
      <trkpt lat="42.40113" lon="18.73">
        <ele>47.01122</ele>
        <time>2022-05-29T09:41:19.745Z</time>
      </trkpt>
      <trkpt lat="42.40121" lon="18.72991">
        <ele>47.069696</ele>
        <time>2022-05-29T09:41:21.746Z</time>
      </trkpt>
      <trkpt lat="42.40129" lon="18.72983">
        <ele>47.128352</ele>
        <time>2022-05-29T09:41:23.755Z</time>
      </trkpt>
      <trkpt lat="42.40137" lon="18.72973">
        <ele>47.185075</ele>
        <time>2022-05-29T09:41:25.741Z</time>
      </trkpt>
      <trkpt lat="42.40144" lon="18.72964">
        <ele>47.24042</ele>
        <time>2022-05-29T09:41:27.737Z</time>
      </trkpt>
      <trkpt lat="42.40152" lon="18.72955">
        <ele>47.296455</ele>
        <time>2022-05-29T09:41:29.755Z</time>
      </trkpt>
      <trkpt lat="42.40159" lon="18.72947">
        <ele>47.348888</ele>
        <time>2022-05-29T09:41:31.752Z</time>
      </trkpt>
      <trkpt lat="42.40166" lon="18.72939">
        <ele>47.402999</ele>
        <time>2022-05-29T09:41:33.733Z</time>
      </trkpt>
      <trkpt lat="42.40174" lon="18.7293">
        <ele>47.45642</ele>
        <time>2022-05-29T09:41:35.752Z</time>
      </trkpt>
      <trkpt lat="42.40181" lon="18.72922">
        <ele>47.509725</ele>
        <time>2022-05-29T09:41:37.729Z</time>
      </trkpt>
      <trkpt lat="42.40188" lon="18.72913">
        <ele>47.576188</ele>
        <time>2022-05-29T09:41:39.757Z</time>
      </trkpt>
      <trkpt lat="42.40196" lon="18.72904">
        <ele>47.660281</ele>
        <time>2022-05-29T09:41:41.772Z</time>
      </trkpt>
      <trkpt lat="42.40204" lon="18.72895">
        <ele>47.741749</ele>
        <time>2022-05-29T09:41:43.735Z</time>
      </trkpt>
      <trkpt lat="42.40211" lon="18.72886">
        <ele>47.819386</ele>
        <time>2022-05-29T09:41:45.738Z</time>
      </trkpt>
      <trkpt lat="42.40218" lon="18.72878">
        <ele>47.900242</ele>
        <time>2022-05-29T09:41:47.754Z</time>
      </trkpt>
      <trkpt lat="42.40225" lon="18.7287">
        <ele>47.975131</ele>
        <time>2022-05-29T09:41:49.743Z</time>
      </trkpt>
      <trkpt lat="42.40233" lon="18.72861">
        <ele>48.055379</ele>
        <time>2022-05-29T09:41:51.766Z</time>
      </trkpt>
      <trkpt lat="42.4024" lon="18.72851">
        <ele>48.139435</ele>
        <time>2022-05-29T09:41:53.790Z</time>
      </trkpt>
      <trkpt lat="42.40248" lon="18.72842">
        <ele>48.22113</ele>
        <time>2022-05-29T09:41:55.748Z</time>
      </trkpt>
      <trkpt lat="42.40255" lon="18.72834">
        <ele>48.299422</ele>
        <time>2022-05-29T09:41:57.733Z</time>
      </trkpt>
      <trkpt lat="42.40262" lon="18.72826">
        <ele>48.374252</ele>
        <time>2022-05-29T09:41:59.747Z</time>
      </trkpt>
      <trkpt lat="42.40269" lon="18.72817">
        <ele>48.450303</ele>
        <time>2022-05-29T09:42:01.732Z</time>
      </trkpt>
      <trkpt lat="42.40277" lon="18.72809">
        <ele>48.527142</ele>
        <time>2022-05-29T09:42:03.754Z</time>
      </trkpt>
      <trkpt lat="42.40284" lon="18.728">
        <ele>48.605988</ele>
        <time>2022-05-29T09:42:05.734Z</time>
      </trkpt>
      <trkpt lat="42.40291" lon="18.72792">
        <ele>48.682221</ele>
        <time>2022-05-29T09:42:07.756Z</time>
      </trkpt>
      <trkpt lat="42.40298" lon="18.72784">
        <ele>48.755483</ele>
        <time>2022-05-29T09:42:09.783Z</time>
      </trkpt>
      <trkpt lat="42.40305" lon="18.72775">
        <ele>48.833544</ele>
        <time>2022-05-29T09:42:11.737Z</time>
      </trkpt>
      <trkpt lat="42.40313" lon="18.72766">
        <ele>48.923442</ele>
        <time>2022-05-29T09:42:13.734Z</time>
      </trkpt>
      <trkpt lat="42.40321" lon="18.72756">
        <ele>49.003978</ele>
        <time>2022-05-29T09:42:15.726Z</time>
      </trkpt>
      <trkpt lat="42.40328" lon="18.72748">
        <ele>49.062317</ele>
        <time>2022-05-29T09:42:17.748Z</time>
      </trkpt>
      <trkpt lat="42.40335" lon="18.7274">
        <ele>49.11972</ele>
        <time>2022-05-29T09:42:19.747Z</time>
      </trkpt>
      <trkpt lat="42.40343" lon="18.72731">
        <ele>49.180203</ele>
        <time>2022-05-29T09:42:21.755Z</time>
      </trkpt>
      <trkpt lat="42.4035" lon="18.72722">
        <ele>49.241155</ele>
        <time>2022-05-29T09:42:23.738Z</time>
      </trkpt>
      <trkpt lat="42.40357" lon="18.72714">
        <ele>49.300265</ele>
        <time>2022-05-29T09:42:25.759Z</time>
      </trkpt>
      <trkpt lat="42.40364" lon="18.72705">
        <ele>49.360589</ele>
        <time>2022-05-29T09:42:27.746Z</time>
      </trkpt>
      <trkpt lat="42.40371" lon="18.72697">
        <ele>49.418459</ele>
        <time>2022-05-29T09:42:29.770Z</time>
      </trkpt>
      <trkpt lat="42.40378" lon="18.72689">
        <ele>49.47448</ele>
        <time>2022-05-29T09:42:31.753Z</time>
      </trkpt>
      <trkpt lat="42.40385" lon="18.7268">
        <ele>49.530958</ele>
        <time>2022-05-29T09:42:33.744Z</time>
      </trkpt>
      <trkpt lat="42.40392" lon="18.72672">
        <ele>49.590671</ele>
        <time>2022-05-29T09:42:35.728Z</time>
      </trkpt>
      <trkpt lat="42.404" lon="18.72662">
        <ele>49.65454</ele>
        <time>2022-05-29T09:42:37.791Z</time>
      </trkpt>
      <trkpt lat="42.40407" lon="18.72654">
        <ele>49.712712</ele>
        <time>2022-05-29T09:42:39.748Z</time>
      </trkpt>
      <trkpt lat="42.40414" lon="18.72645">
        <ele>49.774883</ele>
        <time>2022-05-29T09:42:41.738Z</time>
      </trkpt>
      <trkpt lat="42.40421" lon="18.72637">
        <ele>49.833523</ele>
        <time>2022-05-29T09:42:43.740Z</time>
      </trkpt>
      <trkpt lat="42.40429" lon="18.72628">
        <ele>49.89734</ele>
        <time>2022-05-29T09:42:45.736Z</time>
      </trkpt>
      <trkpt lat="42.40437" lon="18.72619">
        <ele>49.959236</ele>
        <time>2022-05-29T09:42:47.730Z</time>
      </trkpt>
      <trkpt lat="42.40444" lon="18.7261">
        <ele>50.020489</ele>
        <time>2022-05-29T09:42:49.766Z</time>
      </trkpt>
      <trkpt lat="42.40451" lon="18.72602">
        <ele>50.080252</ele>
        <time>2022-05-29T09:42:51.737Z</time>
      </trkpt>
      <trkpt lat="42.40459" lon="18.72594">
        <ele>50.072626</ele>
        <time>2022-05-29T09:42:53.754Z</time>
      </trkpt>
      <trkpt lat="42.40466" lon="18.72585">
        <ele>49.985217</ele>
        <time>2022-05-29T09:42:55.752Z</time>
      </trkpt>
      <trkpt lat="42.40474" lon="18.72576">
        <ele>49.901445</ele>
        <time>2022-05-29T09:42:57.746Z</time>
      </trkpt>
      <trkpt lat="42.40481" lon="18.72567">
        <ele>49.815974</ele>
        <time>2022-05-29T09:42:59.758Z</time>
      </trkpt>
      <trkpt lat="42.40488" lon="18.72558">
        <ele>49.73071</ele>
        <time>2022-05-29T09:43:01.744Z</time>
      </trkpt>
      <trkpt lat="42.40496" lon="18.72549">
        <ele>49.641806</ele>
        <time>2022-05-29T09:43:03.755Z</time>
      </trkpt>
      <trkpt lat="42.40504" lon="18.7254">
        <ele>49.555469</ele>
        <time>2022-05-29T09:43:05.749Z</time>
      </trkpt>
      <trkpt lat="42.40511" lon="18.72531">
        <ele>49.465675</ele>
        <time>2022-05-29T09:43:07.750Z</time>
      </trkpt>
      <trkpt lat="42.40519" lon="18.72523">
        <ele>49.382485</ele>
        <time>2022-05-29T09:43:09.734Z</time>
      </trkpt>
      <trkpt lat="42.40526" lon="18.72514">
        <ele>49.295495</ele>
        <time>2022-05-29T09:43:11.731Z</time>
      </trkpt>
      <trkpt lat="42.40534" lon="18.72505">
        <ele>49.207599</ele>
        <time>2022-05-29T09:43:13.743Z</time>
      </trkpt>
      <trkpt lat="42.40542" lon="18.72496">
        <ele>49.118628</ele>
        <time>2022-05-29T09:43:15.748Z</time>
      </trkpt>
      <trkpt lat="42.4055" lon="18.72487">
        <ele>49.029515</ele>
        <time>2022-05-29T09:43:17.735Z</time>
      </trkpt>
      <trkpt lat="42.40557" lon="18.72477">
        <ele>48.942741</ele>
        <time>2022-05-29T09:43:19.730Z</time>
      </trkpt>
      <trkpt lat="42.40565" lon="18.72468">
        <ele>48.852948</ele>
        <time>2022-05-29T09:43:21.750Z</time>
      </trkpt>
      <trkpt lat="42.40573" lon="18.72459">
        <ele>48.762122</ele>
        <time>2022-05-29T09:43:23.752Z</time>
      </trkpt>
      <trkpt lat="42.40581" lon="18.7245">
        <ele>48.672987</ele>
        <time>2022-05-29T09:43:25.750Z</time>
      </trkpt>
      <trkpt lat="42.40589" lon="18.7244">
        <ele>48.579557</ele>
        <time>2022-05-29T09:43:27.754Z</time>
      </trkpt>
      <trkpt lat="42.40597" lon="18.72431">
        <ele>48.56079</ele>
        <time>2022-05-29T09:43:29.746Z</time>
      </trkpt>
      <trkpt lat="42.40606" lon="18.72421">
        <ele>48.56949</ele>
        <time>2022-05-29T09:43:31.743Z</time>
      </trkpt>
      <trkpt lat="42.40614" lon="18.72411">
        <ele>48.57813</ele>
        <time>2022-05-29T09:43:33.730Z</time>
      </trkpt>
      <trkpt lat="42.40623" lon="18.72401">
        <ele>48.586868</ele>
        <time>2022-05-29T09:43:35.752Z</time>
      </trkpt>
      <trkpt lat="42.40631" lon="18.72391">
        <ele>48.595702</ele>
        <time>2022-05-29T09:43:37.751Z</time>
      </trkpt>
      <trkpt lat="42.4064" lon="18.72382">
        <ele>48.604061</ele>
        <time>2022-05-29T09:43:39.734Z</time>
      </trkpt>
      <trkpt lat="42.40648" lon="18.72373">
        <ele>48.612203</ele>
        <time>2022-05-29T09:43:41.754Z</time>
      </trkpt>
      <trkpt lat="42.40655" lon="18.72364">
        <ele>48.620212</ele>
        <time>2022-05-29T09:43:43.753Z</time>
      </trkpt>
      <trkpt lat="42.40663" lon="18.72355">
        <ele>48.628257</ele>
        <time>2022-05-29T09:43:45.739Z</time>
      </trkpt>
      <trkpt lat="42.40671" lon="18.72346">
        <ele>48.636423</ele>
        <time>2022-05-29T09:43:47.756Z</time>
      </trkpt>
      <trkpt lat="42.4068" lon="18.72337">
        <ele>48.644662</ele>
        <time>2022-05-29T09:43:49.735Z</time>
      </trkpt>
      <trkpt lat="42.40688" lon="18.72328">
        <ele>48.652827</ele>
        <time>2022-05-29T09:43:51.732Z</time>
      </trkpt>
      <trkpt lat="42.40696" lon="18.72319">
        <ele>48.661247</ele>
        <time>2022-05-29T09:43:53.747Z</time>
      </trkpt>
      <trkpt lat="42.40704" lon="18.72309">
        <ele>48.669679</ele>
        <time>2022-05-29T09:43:55.736Z</time>
      </trkpt>
      <trkpt lat="42.40713" lon="18.723">
        <ele>48.678353</ele>
        <time>2022-05-29T09:43:57.743Z</time>
      </trkpt>
      <trkpt lat="42.40722" lon="18.72291">
        <ele>48.68692</ele>
        <time>2022-05-29T09:43:59.718Z</time>
      </trkpt>
      <trkpt lat="42.4073" lon="18.72282">
        <ele>48.690527</ele>
        <time>2022-05-29T09:44:01.770Z</time>
      </trkpt>
      <trkpt lat="42.40739" lon="18.72274">
        <ele>48.626063</ele>
        <time>2022-05-29T09:44:03.776Z</time>
      </trkpt>
      <trkpt lat="42.40748" lon="18.72265">
        <ele>48.559051</ele>
        <time>2022-05-29T09:44:05.763Z</time>
      </trkpt>
      <trkpt lat="42.40757" lon="18.72256">
        <ele>48.490252</ele>
        <time>2022-05-29T09:44:07.743Z</time>
      </trkpt>
      <trkpt lat="42.40766" lon="18.72248">
        <ele>48.423241</ele>
        <time>2022-05-29T09:44:09.763Z</time>
      </trkpt>
      <trkpt lat="42.40775" lon="18.72239">
        <ele>48.35573</ele>
        <time>2022-05-29T09:44:11.739Z</time>
      </trkpt>
      <trkpt lat="42.40783" lon="18.72231">
        <ele>48.291276</ele>
        <time>2022-05-29T09:44:13.733Z</time>
      </trkpt>
      <trkpt lat="42.40792" lon="18.72223">
        <ele>48.226061</ele>
        <time>2022-05-29T09:44:15.737Z</time>
      </trkpt>
      <trkpt lat="42.40801" lon="18.72215">
        <ele>48.159317</ele>
        <time>2022-05-29T09:44:17.752Z</time>
      </trkpt>
      <trkpt lat="42.4081" lon="18.72207">
        <ele>48.095615</ele>
        <time>2022-05-29T09:44:19.731Z</time>
      </trkpt>
      <trkpt lat="42.40818" lon="18.72199">
        <ele>48.030906</ele>
        <time>2022-05-29T09:44:21.756Z</time>
      </trkpt>
      <trkpt lat="42.40827" lon="18.72191">
        <ele>47.966445</ele>
        <time>2022-05-29T09:44:23.746Z</time>
      </trkpt>
      <trkpt lat="42.40836" lon="18.72183">
        <ele>47.904275</ele>
        <time>2022-05-29T09:44:25.741Z</time>
      </trkpt>
      <trkpt lat="42.40844" lon="18.72175">
        <ele>47.842596</ele>
        <time>2022-05-29T09:44:27.750Z</time>
      </trkpt>
      <trkpt lat="42.40853" lon="18.72168">
        <ele>47.777589</ele>
        <time>2022-05-29T09:44:29.742Z</time>
      </trkpt>
      <trkpt lat="42.40862" lon="18.7216">
        <ele>47.712061</ele>
        <time>2022-05-29T09:44:31.740Z</time>
      </trkpt>
      <trkpt lat="42.40871" lon="18.72152">
        <ele>47.644557</ele>
        <time>2022-05-29T09:44:33.733Z</time>
      </trkpt>
      <trkpt lat="42.4088" lon="18.72144">
        <ele>47.582674</ele>
        <time>2022-05-29T09:44:35.764Z</time>
      </trkpt>
      <trkpt lat="42.40888" lon="18.72137">
        <ele>47.535729</ele>
        <time>2022-05-29T09:44:37.766Z</time>
      </trkpt>
      <trkpt lat="42.40897" lon="18.72129">
        <ele>47.487028</ele>
        <time>2022-05-29T09:44:39.738Z</time>
      </trkpt>
      <trkpt lat="42.40906" lon="18.72122">
        <ele>47.439089</ele>
        <time>2022-05-29T09:44:41.754Z</time>
      </trkpt>
      <trkpt lat="42.40915" lon="18.72114">
        <ele>47.388688</ele>
        <time>2022-05-29T09:44:43.784Z</time>
      </trkpt>
      <trkpt lat="42.40925" lon="18.72107">
        <ele>47.336303</ele>
        <time>2022-05-29T09:44:45.724Z</time>
      </trkpt>
      <trkpt lat="42.40934" lon="18.72101">
        <ele>47.284753</ele>
        <time>2022-05-29T09:44:47.769Z</time>
      </trkpt>
      <trkpt lat="42.40943" lon="18.72094">
        <ele>47.236264</ele>
        <time>2022-05-29T09:44:49.733Z</time>
      </trkpt>
      <trkpt lat="42.40953" lon="18.72086">
        <ele>47.183641</ele>
        <time>2022-05-29T09:44:51.739Z</time>
      </trkpt>
      <trkpt lat="42.40963" lon="18.7208">
        <ele>47.130837</ele>
        <time>2022-05-29T09:44:53.731Z</time>
      </trkpt>
      <trkpt lat="42.40972" lon="18.72073">
        <ele>47.081937</ele>
        <time>2022-05-29T09:44:55.735Z</time>
      </trkpt>
      <trkpt lat="42.40981" lon="18.72066">
        <ele>47.03502</ele>
        <time>2022-05-29T09:44:57.753Z</time>
      </trkpt>
      <trkpt lat="42.40989" lon="18.7206">
        <ele>46.990339</ele>
        <time>2022-05-29T09:44:59.751Z</time>
      </trkpt>
      <trkpt lat="42.40998" lon="18.72054">
        <ele>46.943717</ele>
        <time>2022-05-29T09:45:01.744Z</time>
      </trkpt>
      <trkpt lat="42.41008" lon="18.72048">
        <ele>46.894636</ele>
        <time>2022-05-29T09:45:03.744Z</time>
      </trkpt>
      <trkpt lat="42.41017" lon="18.72041">
        <ele>46.844401</ele>
        <time>2022-05-29T09:45:05.757Z</time>
      </trkpt>
      <trkpt lat="42.41027" lon="18.72034">
        <ele>46.792174</ele>
        <time>2022-05-29T09:45:07.758Z</time>
      </trkpt>
      <trkpt lat="42.41037" lon="18.72028">
        <ele>46.744606</ele>
        <time>2022-05-29T09:45:09.726Z</time>
      </trkpt>
      <trkpt lat="42.41046" lon="18.72022">
        <ele>46.725891</ele>
        <time>2022-05-29T09:45:11.755Z</time>
      </trkpt>
      <trkpt lat="42.41056" lon="18.72015">
        <ele>46.708053</ele>
        <time>2022-05-29T09:45:13.735Z</time>
      </trkpt>
      <trkpt lat="42.41065" lon="18.7201">
        <ele>46.69084</ele>
        <time>2022-05-29T09:45:15.731Z</time>
      </trkpt>
      <trkpt lat="42.41074" lon="18.72004">
        <ele>46.673474</ele>
        <time>2022-05-29T09:45:17.751Z</time>
      </trkpt>
      <trkpt lat="42.41083" lon="18.71998">
        <ele>46.656368</ele>
        <time>2022-05-29T09:45:19.739Z</time>
      </trkpt>
      <trkpt lat="42.41093" lon="18.71993">
        <ele>46.638791</ele>
        <time>2022-05-29T09:45:21.748Z</time>
      </trkpt>
      <trkpt lat="42.41102" lon="18.71987">
        <ele>46.621198</ele>
        <time>2022-05-29T09:45:23.761Z</time>
      </trkpt>
      <trkpt lat="42.41111" lon="18.71982">
        <ele>46.605016</ele>
        <time>2022-05-29T09:45:25.769Z</time>
      </trkpt>
      <trkpt lat="42.41119" lon="18.71976">
        <ele>46.588681</ele>
        <time>2022-05-29T09:45:27.745Z</time>
      </trkpt>
      <trkpt lat="42.41128" lon="18.71971">
        <ele>46.57229</ele>
        <time>2022-05-29T09:45:29.771Z</time>
      </trkpt>
      <trkpt lat="42.41138" lon="18.71966">
        <ele>46.555378</ele>
        <time>2022-05-29T09:45:31.739Z</time>
      </trkpt>
      <trkpt lat="42.41147" lon="18.71961">
        <ele>46.537715</ele>
        <time>2022-05-29T09:45:33.751Z</time>
      </trkpt>
      <trkpt lat="42.41158" lon="18.71956">
        <ele>46.518732</ele>
        <time>2022-05-29T09:45:35.747Z</time>
      </trkpt>
      <trkpt lat="42.41167" lon="18.7195">
        <ele>46.500524</ele>
        <time>2022-05-29T09:45:37.756Z</time>
      </trkpt>
      <trkpt lat="42.41177" lon="18.71945">
        <ele>46.482817</ele>
        <time>2022-05-29T09:45:39.810Z</time>
      </trkpt>
      <trkpt lat="42.41187" lon="18.7194">
        <ele>46.46495</ele>
        <time>2022-05-29T09:45:41.743Z</time>
      </trkpt>
      <trkpt lat="42.41197" lon="18.71935">
        <ele>46.447403</ele>
        <time>2022-05-29T09:45:43.737Z</time>
      </trkpt>
      <trkpt lat="42.41206" lon="18.7193">
        <ele>46.403609</ele>
        <time>2022-05-29T09:45:45.725Z</time>
      </trkpt>
      <trkpt lat="42.41216" lon="18.71926">
        <ele>46.331853</ele>
        <time>2022-05-29T09:45:47.740Z</time>
      </trkpt>
      <trkpt lat="42.41227" lon="18.71921">
        <ele>46.259464</ele>
        <time>2022-05-29T09:45:49.742Z</time>
      </trkpt>
      <trkpt lat="42.41236" lon="18.71916">
        <ele>46.189279</ele>
        <time>2022-05-29T09:45:51.741Z</time>
      </trkpt>
      <trkpt lat="42.41245" lon="18.71912">
        <ele>46.125901</ele>
        <time>2022-05-29T09:45:53.730Z</time>
      </trkpt>
      <trkpt lat="42.41255" lon="18.71908">
        <ele>46.061256</ele>
        <time>2022-05-29T09:45:55.719Z</time>
      </trkpt>
      <trkpt lat="42.41264" lon="18.71903">
        <ele>45.994828</ele>
        <time>2022-05-29T09:45:57.752Z</time>
      </trkpt>
      <trkpt lat="42.41273" lon="18.71899">
        <ele>45.932491</ele>
        <time>2022-05-29T09:45:59.766Z</time>
      </trkpt>
      <trkpt lat="42.41281" lon="18.71895">
        <ele>45.870841</ele>
        <time>2022-05-29T09:46:01.758Z</time>
      </trkpt>
      <trkpt lat="42.41291" lon="18.71891">
        <ele>45.801885</ele>
        <time>2022-05-29T09:46:03.768Z</time>
      </trkpt>
      <trkpt lat="42.41301" lon="18.71886">
        <ele>45.732974</ele>
        <time>2022-05-29T09:46:05.734Z</time>
      </trkpt>
      <trkpt lat="42.41311" lon="18.71882">
        <ele>45.663746</ele>
        <time>2022-05-29T09:46:07.756Z</time>
      </trkpt>
      <trkpt lat="42.41321" lon="18.71878">
        <ele>45.593227</ele>
        <time>2022-05-29T09:46:09.736Z</time>
      </trkpt>
      <trkpt lat="42.41331" lon="18.71874">
        <ele>45.523904</ele>
        <time>2022-05-29T09:46:11.740Z</time>
      </trkpt>
      <trkpt lat="42.41341" lon="18.7187">
        <ele>45.455443</ele>
        <time>2022-05-29T09:46:13.725Z</time>
      </trkpt>
      <trkpt lat="42.41351" lon="18.71866">
        <ele>45.386487</ele>
        <time>2022-05-29T09:46:15.769Z</time>
      </trkpt>
      <trkpt lat="42.41361" lon="18.71862">
        <ele>45.316902</ele>
        <time>2022-05-29T09:46:17.750Z</time>
      </trkpt>
      <trkpt lat="42.4137" lon="18.71859">
        <ele>45.252088</ele>
        <time>2022-05-29T09:46:19.733Z</time>
      </trkpt>
      <trkpt lat="42.4138" lon="18.71855">
        <ele>45.365024</ele>
        <time>2022-05-29T09:46:21.737Z</time>
      </trkpt>
      <trkpt lat="42.41389" lon="18.71851">
        <ele>45.522514</ele>
        <time>2022-05-29T09:46:23.769Z</time>
      </trkpt>
      <trkpt lat="42.41398" lon="18.71848">
        <ele>45.678983</ele>
        <time>2022-05-29T09:46:25.744Z</time>
      </trkpt>
      <trkpt lat="42.41407" lon="18.71845">
        <ele>45.827641</ele>
        <time>2022-05-29T09:46:27.729Z</time>
      </trkpt>
      <trkpt lat="42.41416" lon="18.71842">
        <ele>45.978871</ele>
        <time>2022-05-29T09:46:29.736Z</time>
      </trkpt>
      <trkpt lat="42.41429" lon="18.71838">
        <ele>46.185641</ele>
        <time>2022-05-29T09:46:32.747Z</time>
      </trkpt>
      <trkpt lat="42.41442" lon="18.71835">
        <ele>46.394519</ele>
        <time>2022-05-29T09:46:35.750Z</time>
      </trkpt>
      <trkpt lat="42.4145" lon="18.71833">
        <ele>46.541091</ele>
        <time>2022-05-29T09:46:37.713Z</time>
      </trkpt>
      <trkpt lat="42.41463" lon="18.71829">
        <ele>46.744148</ele>
        <time>2022-05-29T09:46:40.771Z</time>
      </trkpt>
      <trkpt lat="42.41475" lon="18.71824">
        <ele>46.956544</ele>
        <time>2022-05-29T09:46:43.743Z</time>
      </trkpt>
      <trkpt lat="42.41486" lon="18.7182">
        <ele>47.145529</ele>
        <time>2022-05-29T09:46:46.771Z</time>
      </trkpt>
      <trkpt lat="42.41497" lon="18.71816">
        <ele>47.327309</ele>
        <time>2022-05-29T09:46:49.753Z</time>
      </trkpt>
      <trkpt lat="42.41506" lon="18.71813">
        <ele>47.474851</ele>
        <time>2022-05-29T09:46:52.743Z</time>
      </trkpt>
      <trkpt lat="42.41515" lon="18.7181">
        <ele>47.629437</ele>
        <time>2022-05-29T09:46:55.744Z</time>
      </trkpt>
      <trkpt lat="42.41526" lon="18.71806">
        <ele>47.800386</ele>
        <time>2022-05-29T09:46:58.752Z</time>
      </trkpt>
      <trkpt lat="42.41536" lon="18.71802">
        <ele>47.974054</ele>
        <time>2022-05-29T09:47:01.751Z</time>
      </trkpt>
      <trkpt lat="42.41546" lon="18.71799">
        <ele>48.132707</ele>
        <time>2022-05-29T09:47:04.733Z</time>
      </trkpt>
      <trkpt lat="42.41555" lon="18.71795">
        <ele>48.423067</ele>
        <time>2022-05-29T09:47:07.741Z</time>
      </trkpt>
      <trkpt lat="42.41565" lon="18.71792">
        <ele>48.729054</ele>
        <time>2022-05-29T09:47:10.749Z</time>
      </trkpt>
      <trkpt lat="42.41576" lon="18.71791">
        <ele>49.080388</ele>
        <time>2022-05-29T09:47:13.751Z</time>
      </trkpt>
      <trkpt lat="42.41588" lon="18.7179">
        <ele>49.426915</ele>
        <time>2022-05-29T09:47:16.755Z</time>
      </trkpt>
      <trkpt lat="42.41598" lon="18.71789">
        <ele>49.745263</ele>
        <time>2022-05-29T09:47:19.719Z</time>
      </trkpt>
      <trkpt lat="42.41608" lon="18.7179">
        <ele>50.050935</ele>
        <time>2022-05-29T09:47:22.748Z</time>
      </trkpt>
      <trkpt lat="42.41618" lon="18.71789">
        <ele>50.340694</ele>
        <time>2022-05-29T09:47:25.787Z</time>
      </trkpt>
      <trkpt lat="42.41628" lon="18.71785">
        <ele>50.666415</ele>
        <time>2022-05-29T09:47:28.729Z</time>
      </trkpt>
      <trkpt lat="42.41637" lon="18.71777">
        <ele>50.996531</ele>
        <time>2022-05-29T09:47:31.744Z</time>
      </trkpt>
      <trkpt lat="42.41647" lon="18.71773">
        <ele>51.31877</ele>
        <time>2022-05-29T09:47:34.758Z</time>
      </trkpt>
      <trkpt lat="42.41657" lon="18.7177">
        <ele>51.624937</ele>
        <time>2022-05-29T09:47:37.755Z</time>
      </trkpt>
      <trkpt lat="42.41667" lon="18.71766">
        <ele>51.934633</ele>
        <time>2022-05-29T09:47:40.748Z</time>
      </trkpt>
      <trkpt lat="42.41676" lon="18.71762">
        <ele>52.229027</ele>
        <time>2022-05-29T09:47:43.735Z</time>
      </trkpt>
      <trkpt lat="42.41685" lon="18.71758">
        <ele>52.514356</ele>
        <time>2022-05-29T09:47:46.738Z</time>
      </trkpt>
      <trkpt lat="42.41693" lon="18.71754">
        <ele>52.798394</ele>
        <time>2022-05-29T09:47:49.752Z</time>
      </trkpt>
      <trkpt lat="42.41702" lon="18.7175">
        <ele>53.076297</ele>
        <time>2022-05-29T09:47:52.733Z</time>
      </trkpt>
      <trkpt lat="42.41711" lon="18.71748">
        <ele>53.358636</ele>
        <time>2022-05-29T09:47:55.748Z</time>
      </trkpt>
      <trkpt lat="42.4172" lon="18.71745">
        <ele>53.637473</ele>
        <time>2022-05-29T09:47:58.731Z</time>
      </trkpt>
      <trkpt lat="42.41732" lon="18.71741">
        <ele>54.021883</ele>
        <time>2022-05-29T09:48:02.737Z</time>
      </trkpt>
      <trkpt lat="42.41743" lon="18.71738">
        <ele>54.376331</ele>
        <time>2022-05-29T09:48:06.741Z</time>
      </trkpt>
      <trkpt lat="42.41753" lon="18.71734">
        <ele>54.732978</ele>
        <time>2022-05-29T09:48:10.733Z</time>
      </trkpt>
      <trkpt lat="42.41762" lon="18.71731">
        <ele>55.021153</ele>
        <time>2022-05-29T09:48:13.735Z</time>
      </trkpt>
      <trkpt lat="42.41773" lon="18.71725">
        <ele>55.402473</ele>
        <time>2022-05-29T09:48:17.749Z</time>
      </trkpt>
      <trkpt lat="42.41782" lon="18.71721">
        <ele>55.699783</ele>
        <time>2022-05-29T09:48:20.757Z</time>
      </trkpt>
      <trkpt lat="42.41791" lon="18.71716">
        <ele>55.997567</ele>
        <time>2022-05-29T09:48:23.727Z</time>
      </trkpt>
      <trkpt lat="42.41799" lon="18.71711">
        <ele>56.302172</ele>
        <time>2022-05-29T09:48:26.772Z</time>
      </trkpt>
      <trkpt lat="42.41811" lon="18.71706">
        <ele>56.684385</ele>
        <time>2022-05-29T09:48:30.746Z</time>
      </trkpt>
      <trkpt lat="42.41819" lon="18.71701">
        <ele>56.981062</ele>
        <time>2022-05-29T09:48:33.752Z</time>
      </trkpt>
      <trkpt lat="42.41829" lon="18.71695">
        <ele>57.324443</ele>
        <time>2022-05-29T09:48:37.759Z</time>
      </trkpt>
      <trkpt lat="42.41838" lon="18.71688">
        <ele>57.672371</ele>
        <time>2022-05-29T09:48:41.727Z</time>
      </trkpt>
      <trkpt lat="42.41847" lon="18.71683">
        <ele>57.964154</ele>
        <time>2022-05-29T09:48:44.745Z</time>
      </trkpt>
      <trkpt lat="42.41855" lon="18.71676">
        <ele>58.262813</ele>
        <time>2022-05-29T09:48:47.745Z</time>
      </trkpt>
      <trkpt lat="42.41866" lon="18.71669">
        <ele>58.654214</ele>
        <time>2022-05-29T09:48:51.737Z</time>
      </trkpt>
      <trkpt lat="42.41874" lon="18.71663">
        <ele>58.957684</ele>
        <time>2022-05-29T09:48:54.777Z</time>
      </trkpt>
      <trkpt lat="42.41882" lon="18.71657">
        <ele>59.253601</ele>
        <time>2022-05-29T09:48:57.745Z</time>
      </trkpt>
      <trkpt lat="42.41892" lon="18.71649">
        <ele>59.733528</ele>
        <time>2022-05-29T09:49:01.734Z</time>
      </trkpt>
      <trkpt lat="42.41901" lon="18.71641">
        <ele>60.290185</ele>
        <time>2022-05-29T09:49:05.756Z</time>
      </trkpt>
      <trkpt lat="42.41911" lon="18.71634">
        <ele>60.79216</ele>
        <time>2022-05-29T09:49:08.745Z</time>
      </trkpt>
      <trkpt lat="42.4192" lon="18.71628">
        <ele>61.299047</ele>
        <time>2022-05-29T09:49:11.770Z</time>
      </trkpt>
      <trkpt lat="42.41928" lon="18.71621">
        <ele>61.7855</ele>
        <time>2022-05-29T09:49:14.749Z</time>
      </trkpt>
      <trkpt lat="42.41937" lon="18.71614">
        <ele>62.253307</ele>
        <time>2022-05-29T09:49:17.735Z</time>
      </trkpt>
      <trkpt lat="42.41945" lon="18.71607">
        <ele>62.747189</ele>
        <time>2022-05-29T09:49:20.753Z</time>
      </trkpt>
      <trkpt lat="42.41954" lon="18.716">
        <ele>63.269877</ele>
        <time>2022-05-29T09:49:23.732Z</time>
      </trkpt>
      <trkpt lat="42.41963" lon="18.71593">
        <ele>63.755824</ele>
        <time>2022-05-29T09:49:26.732Z</time>
      </trkpt>
      <trkpt lat="42.41971" lon="18.71584">
        <ele>64.272946</ele>
        <time>2022-05-29T09:49:29.757Z</time>
      </trkpt>
      <trkpt lat="42.41979" lon="18.71575">
        <ele>64.777352</ele>
        <time>2022-05-29T09:49:32.747Z</time>
      </trkpt>
      <trkpt lat="42.41987" lon="18.71567">
        <ele>65.259191</ele>
        <time>2022-05-29T09:49:35.740Z</time>
      </trkpt>
      <trkpt lat="42.41996" lon="18.7156">
        <ele>65.766798</ele>
        <time>2022-05-29T09:49:38.740Z</time>
      </trkpt>
      <trkpt lat="42.42005" lon="18.7155">
        <ele>66.312691</ele>
        <time>2022-05-29T09:49:41.738Z</time>
      </trkpt>
      <trkpt lat="42.42013" lon="18.71539">
        <ele>66.890498</ele>
        <time>2022-05-29T09:49:44.729Z</time>
      </trkpt>
      <trkpt lat="42.42023" lon="18.71527">
        <ele>67.543143</ele>
        <time>2022-05-29T09:49:47.764Z</time>
      </trkpt>
      <trkpt lat="42.42033" lon="18.71515">
        <ele>68.178828</ele>
        <time>2022-05-29T09:49:50.743Z</time>
      </trkpt>
      <trkpt lat="42.42043" lon="18.71503">
        <ele>67.801687</ele>
        <time>2022-05-29T09:49:53.738Z</time>
      </trkpt>
      <trkpt lat="42.4205" lon="18.71494">
        <ele>67.538757</ele>
        <time>2022-05-29T09:49:55.758Z</time>
      </trkpt>
      <trkpt lat="42.42056" lon="18.71485">
        <ele>67.283109</ele>
        <time>2022-05-29T09:49:57.735Z</time>
      </trkpt>
      <trkpt lat="42.42063" lon="18.71476">
        <ele>67.021223</ele>
        <time>2022-05-29T09:49:59.745Z</time>
      </trkpt>
      <trkpt lat="42.42069" lon="18.71467">
        <ele>66.767889</ele>
        <time>2022-05-29T09:50:01.761Z</time>
      </trkpt>
      <trkpt lat="42.42076" lon="18.71459">
        <ele>66.516095</ele>
        <time>2022-05-29T09:50:03.743Z</time>
      </trkpt>
      <trkpt lat="42.42083" lon="18.7145">
        <ele>66.248021</ele>
        <time>2022-05-29T09:50:05.735Z</time>
      </trkpt>
      <trkpt lat="42.4209" lon="18.71441">
        <ele>65.984757</ele>
        <time>2022-05-29T09:50:07.764Z</time>
      </trkpt>
      <trkpt lat="42.42096" lon="18.71432">
        <ele>65.73204</ele>
        <time>2022-05-29T09:50:09.752Z</time>
      </trkpt>
      <trkpt lat="42.42103" lon="18.71422">
        <ele>65.462829</ele>
        <time>2022-05-29T09:50:11.741Z</time>
      </trkpt>
      <trkpt lat="42.42109" lon="18.71412">
        <ele>65.202665</ele>
        <time>2022-05-29T09:50:13.752Z</time>
      </trkpt>
      <trkpt lat="42.42114" lon="18.71402">
        <ele>64.939271</ele>
        <time>2022-05-29T09:50:15.752Z</time>
      </trkpt>
      <trkpt lat="42.4212" lon="18.71392">
        <ele>64.677495</ele>
        <time>2022-05-29T09:50:17.749Z</time>
      </trkpt>
      <trkpt lat="42.42126" lon="18.71382">
        <ele>64.415455</ele>
        <time>2022-05-29T09:50:19.731Z</time>
      </trkpt>
      <trkpt lat="42.42132" lon="18.71372">
        <ele>64.15861</ele>
        <time>2022-05-29T09:50:21.753Z</time>
      </trkpt>
      <trkpt lat="42.42138" lon="18.71361">
        <ele>63.876882</ele>
        <time>2022-05-29T09:50:23.746Z</time>
      </trkpt>
      <trkpt lat="42.42145" lon="18.71351">
        <ele>63.598321</ele>
        <time>2022-05-29T09:50:25.713Z</time>
      </trkpt>
      <trkpt lat="42.4215" lon="18.71341">
        <ele>63.33661</ele>
        <time>2022-05-29T09:50:27.724Z</time>
      </trkpt>
      <trkpt lat="42.42155" lon="18.7133">
        <ele>63.174817</ele>
        <time>2022-05-29T09:50:29.707Z</time>
      </trkpt>
      <trkpt lat="42.42161" lon="18.7132">
        <ele>63.13087</ele>
        <time>2022-05-29T09:50:31.728Z</time>
      </trkpt>
      <trkpt lat="42.42166" lon="18.71309">
        <ele>63.087418</ele>
        <time>2022-05-29T09:50:33.726Z</time>
      </trkpt>
      <trkpt lat="42.42171" lon="18.71298">
        <ele>63.043346</ele>
        <time>2022-05-29T09:50:35.732Z</time>
      </trkpt>
      <trkpt lat="42.42176" lon="18.71288">
        <ele>63.001553</ele>
        <time>2022-05-29T09:50:37.741Z</time>
      </trkpt>
      <trkpt lat="42.42181" lon="18.71277">
        <ele>62.95704</ele>
        <time>2022-05-29T09:50:39.736Z</time>
      </trkpt>
      <trkpt lat="42.42186" lon="18.71266">
        <ele>62.913046</ele>
        <time>2022-05-29T09:50:41.775Z</time>
      </trkpt>
      <trkpt lat="42.42191" lon="18.71256">
        <ele>62.869753</ele>
        <time>2022-05-29T09:50:43.737Z</time>
      </trkpt>
      <trkpt lat="42.42197" lon="18.71244">
        <ele>62.821489</ele>
        <time>2022-05-29T09:50:45.740Z</time>
      </trkpt>
      <trkpt lat="42.42202" lon="18.71232">
        <ele>62.774466</ele>
        <time>2022-05-29T09:50:47.757Z</time>
      </trkpt>
      <trkpt lat="42.42207" lon="18.7122">
        <ele>62.727803</ele>
        <time>2022-05-29T09:50:49.732Z</time>
      </trkpt>
      <trkpt lat="42.42211" lon="18.71209">
        <ele>62.685057</ele>
        <time>2022-05-29T09:50:51.742Z</time>
      </trkpt>
      <trkpt lat="42.42215" lon="18.71198">
        <ele>62.642695</ele>
        <time>2022-05-29T09:50:53.763Z</time>
      </trkpt>
      <trkpt lat="42.42221" lon="18.71182">
        <ele>62.580443</ele>
        <time>2022-05-29T09:50:56.740Z</time>
      </trkpt>
      <trkpt lat="42.42225" lon="18.71171">
        <ele>62.538618</ele>
        <time>2022-05-29T09:50:58.725Z</time>
      </trkpt>
      <trkpt lat="42.4223" lon="18.71154">
        <ele>62.476948</ele>
        <time>2022-05-29T09:51:01.736Z</time>
      </trkpt>
      <trkpt lat="42.42236" lon="18.71139">
        <ele>62.416758</ele>
        <time>2022-05-29T09:51:04.756Z</time>
      </trkpt>
      <trkpt lat="42.4224" lon="18.71127">
        <ele>62.373608</ele>
        <time>2022-05-29T09:51:06.751Z</time>
      </trkpt>
      <trkpt lat="42.42244" lon="18.71116">
        <ele>62.243872</ele>
        <time>2022-05-29T09:51:08.721Z</time>
      </trkpt>
      <trkpt lat="42.42248" lon="18.71104">
        <ele>62.066187</ele>
        <time>2022-05-29T09:51:10.764Z</time>
      </trkpt>
      <trkpt lat="42.42252" lon="18.71092">
        <ele>61.877419</ele>
        <time>2022-05-29T09:51:12.730Z</time>
      </trkpt>
      <trkpt lat="42.42256" lon="18.7108">
        <ele>61.685009</ele>
        <time>2022-05-29T09:51:14.740Z</time>
      </trkpt>
      <trkpt lat="42.42261" lon="18.71068">
        <ele>61.500191</ele>
        <time>2022-05-29T09:51:16.753Z</time>
      </trkpt>
      <trkpt lat="42.42265" lon="18.71056">
        <ele>61.312777</ele>
        <time>2022-05-29T09:51:18.760Z</time>
      </trkpt>
      <trkpt lat="42.4227" lon="18.71044">
        <ele>61.112486</ele>
        <time>2022-05-29T09:51:20.727Z</time>
      </trkpt>
      <trkpt lat="42.42276" lon="18.71031">
        <ele>60.91067</ele>
        <time>2022-05-29T09:51:22.736Z</time>
      </trkpt>
      <trkpt lat="42.4228" lon="18.71018">
        <ele>60.703163</ele>
        <time>2022-05-29T09:51:24.733Z</time>
      </trkpt>
      <trkpt lat="42.42286" lon="18.71005">
        <ele>60.491426</ele>
        <time>2022-05-29T09:51:26.763Z</time>
      </trkpt>
      <trkpt lat="42.42291" lon="18.70991">
        <ele>60.2793</ele>
        <time>2022-05-29T09:51:28.739Z</time>
      </trkpt>
      <trkpt lat="42.42295" lon="18.70978">
        <ele>60.085379</ele>
        <time>2022-05-29T09:51:30.738Z</time>
      </trkpt>
      <trkpt lat="42.423" lon="18.70965">
        <ele>59.871872</ele>
        <time>2022-05-29T09:51:32.744Z</time>
      </trkpt>
      <trkpt lat="42.42305" lon="18.70951">
        <ele>59.656767</ele>
        <time>2022-05-29T09:51:34.727Z</time>
      </trkpt>
      <trkpt lat="42.4231" lon="18.70937">
        <ele>59.427834</ele>
        <time>2022-05-29T09:51:36.736Z</time>
      </trkpt>
      <trkpt lat="42.42316" lon="18.70921">
        <ele>59.186733</ele>
        <time>2022-05-29T09:51:38.737Z</time>
      </trkpt>
      <trkpt lat="42.42321" lon="18.70906">
        <ele>58.950252</ele>
        <time>2022-05-29T09:51:40.710Z</time>
      </trkpt>
      <trkpt lat="42.42327" lon="18.70891">
        <ele>58.526259</ele>
        <time>2022-05-29T09:51:42.733Z</time>
      </trkpt>
      <trkpt lat="42.42334" lon="18.70876">
        <ele>58.078169</ele>
        <time>2022-05-29T09:51:44.732Z</time>
      </trkpt>
      <trkpt lat="42.4234" lon="18.70861">
        <ele>57.63786</ele>
        <time>2022-05-29T09:51:46.764Z</time>
      </trkpt>
      <trkpt lat="42.42346" lon="18.70845">
        <ele>57.203968</ele>
        <time>2022-05-29T09:51:48.744Z</time>
      </trkpt>
      <trkpt lat="42.42352" lon="18.7083">
        <ele>56.770352</ele>
        <time>2022-05-29T09:51:50.752Z</time>
      </trkpt>
      <trkpt lat="42.42358" lon="18.70815">
        <ele>56.326157</ele>
        <time>2022-05-29T09:51:52.747Z</time>
      </trkpt>
      <trkpt lat="42.42364" lon="18.708">
        <ele>55.889728</ele>
        <time>2022-05-29T09:51:54.751Z</time>
      </trkpt>
      <trkpt lat="42.4237" lon="18.70785">
        <ele>55.446562</ele>
        <time>2022-05-29T09:51:56.756Z</time>
      </trkpt>
      <trkpt lat="42.42376" lon="18.70768">
        <ele>54.973422</ele>
        <time>2022-05-29T09:51:58.736Z</time>
      </trkpt>
      <trkpt lat="42.42383" lon="18.70752">
        <ele>54.509673</ele>
        <time>2022-05-29T09:52:00.746Z</time>
      </trkpt>
      <trkpt lat="42.42389" lon="18.70737">
        <ele>54.056483</ele>
        <time>2022-05-29T09:52:02.732Z</time>
      </trkpt>
      <trkpt lat="42.42396" lon="18.70721">
        <ele>53.608396</ele>
        <time>2022-05-29T09:52:04.737Z</time>
      </trkpt>
      <trkpt lat="42.42402" lon="18.70707">
        <ele>53.176255</ele>
        <time>2022-05-29T09:52:06.732Z</time>
      </trkpt>
      <trkpt lat="42.42408" lon="18.70693">
        <ele>52.762523</ele>
        <time>2022-05-29T09:52:08.736Z</time>
      </trkpt>
      <trkpt lat="42.42415" lon="18.70679">
        <ele>52.581319</ele>
        <time>2022-05-29T09:52:10.731Z</time>
      </trkpt>
      <trkpt lat="42.42423" lon="18.70665">
        <ele>52.405881</ele>
        <time>2022-05-29T09:52:12.732Z</time>
      </trkpt>
      <trkpt lat="42.4243" lon="18.70651">
        <ele>52.226374</ele>
        <time>2022-05-29T09:52:14.791Z</time>
      </trkpt>
      <trkpt lat="42.42438" lon="18.70636">
        <ele>52.045225</ele>
        <time>2022-05-29T09:52:16.746Z</time>
      </trkpt>
      <trkpt lat="42.42446" lon="18.70622">
        <ele>51.864774</ele>
        <time>2022-05-29T09:52:18.743Z</time>
      </trkpt>
      <trkpt lat="42.42456" lon="18.70608">
        <ele>51.675647</ele>
        <time>2022-05-29T09:52:20.740Z</time>
      </trkpt>
      <trkpt lat="42.42465" lon="18.70594">
        <ele>51.488156</ele>
        <time>2022-05-29T09:52:22.734Z</time>
      </trkpt>
      <trkpt lat="42.42475" lon="18.7058">
        <ele>51.300679</ele>
        <time>2022-05-29T09:52:24.710Z</time>
      </trkpt>
      <trkpt lat="42.42484" lon="18.70566">
        <ele>51.115746</ele>
        <time>2022-05-29T09:52:26.726Z</time>
      </trkpt>
      <trkpt lat="42.42492" lon="18.70553">
        <ele>50.940977</ele>
        <time>2022-05-29T09:52:28.736Z</time>
      </trkpt>
      <trkpt lat="42.42501" lon="18.7054">
        <ele>50.762484</ele>
        <time>2022-05-29T09:52:30.730Z</time>
      </trkpt>
      <trkpt lat="42.4251" lon="18.70528">
        <ele>50.591378</ele>
        <time>2022-05-29T09:52:32.718Z</time>
      </trkpt>
      <trkpt lat="42.42519" lon="18.70516">
        <ele>50.419087</ele>
        <time>2022-05-29T09:52:34.771Z</time>
      </trkpt>
      <trkpt lat="42.42528" lon="18.70505">
        <ele>50.284406</ele>
        <time>2022-05-29T09:52:36.727Z</time>
      </trkpt>
      <trkpt lat="42.42536" lon="18.70493">
        <ele>50.236284</ele>
        <time>2022-05-29T09:52:38.719Z</time>
      </trkpt>
      <trkpt lat="42.42534" lon="18.70479">
        <ele>50.195303</ele>
        <time>2022-05-29T09:52:42.719Z</time>
      </trkpt>
      <trkpt lat="42.42528" lon="18.70469">
        <ele>50.159301</ele>
        <time>2022-05-29T09:52:45.745Z</time>
      </trkpt>
      <trkpt lat="42.42533" lon="18.70454">
        <ele>50.111244</ele>
        <time>2022-05-29T09:52:48.732Z</time>
      </trkpt>
      <trkpt lat="42.4254" lon="18.70444">
        <ele>50.070129</ele>
        <time>2022-05-29T09:52:50.755Z</time>
      </trkpt>
      <trkpt lat="42.42547" lon="18.70432">
        <ele>50.026414</ele>
        <time>2022-05-29T09:52:52.772Z</time>
      </trkpt>
      <trkpt lat="42.42553" lon="18.70421">
        <ele>49.983786</ele>
        <time>2022-05-29T09:52:54.754Z</time>
      </trkpt>
      <trkpt lat="42.42561" lon="18.7041">
        <ele>49.940141</ele>
        <time>2022-05-29T09:52:56.725Z</time>
      </trkpt>
      <trkpt lat="42.42568" lon="18.70398">
        <ele>49.89479</ele>
        <time>2022-05-29T09:52:58.757Z</time>
      </trkpt>
      <trkpt lat="42.42575" lon="18.70388">
        <ele>49.852607</ele>
        <time>2022-05-29T09:53:00.734Z</time>
      </trkpt>
      <trkpt lat="42.42582" lon="18.70378">
        <ele>49.812117</ele>
        <time>2022-05-29T09:53:02.753Z</time>
      </trkpt>
      <trkpt lat="42.42589" lon="18.70369">
        <ele>49.774003</ele>
        <time>2022-05-29T09:53:04.748Z</time>
      </trkpt>
      <trkpt lat="42.42599" lon="18.70358">
        <ele>49.723891</ele>
        <time>2022-05-29T09:53:07.735Z</time>
      </trkpt>
      <trkpt lat="42.42606" lon="18.70349">
        <ele>49.6869</ele>
        <time>2022-05-29T09:53:09.737Z</time>
      </trkpt>
      <trkpt lat="42.42612" lon="18.70341">
        <ele>49.650791</ele>
        <time>2022-05-29T09:53:11.727Z</time>
      </trkpt>
      <trkpt lat="42.4262" lon="18.70326">
        <ele>49.597981</ele>
        <time>2022-05-29T09:53:14.720Z</time>
      </trkpt>
      <trkpt lat="42.42624" lon="18.70311">
        <ele>49.522818</ele>
        <time>2022-05-29T09:53:17.732Z</time>
      </trkpt>
      <trkpt lat="42.42626" lon="18.70294">
        <ele>49.428402</ele>
        <time>2022-05-29T09:53:20.731Z</time>
      </trkpt>
      <trkpt lat="42.42623" lon="18.70279">
        <ele>49.3434</ele>
        <time>2022-05-29T09:53:23.748Z</time>
      </trkpt>
      <trkpt lat="42.42622" lon="18.70265">
        <ele>49.267302</ele>
        <time>2022-05-29T09:53:28.763Z</time>
      </trkpt>
      <trkpt lat="42.42621" lon="18.70249">
        <ele>49.178551</ele>
        <time>2022-05-29T09:53:32.728Z</time>
      </trkpt>
      <trkpt lat="42.4262" lon="18.70235">
        <ele>49.099084</ele>
        <time>2022-05-29T09:53:35.738Z</time>
      </trkpt>
      <trkpt lat="42.42618" lon="18.70219">
        <ele>49.013018</ele>
        <time>2022-05-29T09:53:38.742Z</time>
      </trkpt>
      <trkpt lat="42.42615" lon="18.70203">
        <ele>48.920815</ele>
        <time>2022-05-29T09:53:41.742Z</time>
      </trkpt>
      <trkpt lat="42.42613" lon="18.70185">
        <ele>48.823486</ele>
        <time>2022-05-29T09:53:44.736Z</time>
      </trkpt>
      <trkpt lat="42.42613" lon="18.70168">
        <ele>48.728695</ele>
        <time>2022-05-29T09:53:47.726Z</time>
      </trkpt>
      <trkpt lat="42.42617" lon="18.70152">
        <ele>48.632572</ele>
        <time>2022-05-29T09:53:50.738Z</time>
      </trkpt>
      <trkpt lat="42.42622" lon="18.70141">
        <ele>48.564838</ele>
        <time>2022-05-29T09:53:52.727Z</time>
      </trkpt>
      <trkpt lat="42.42629" lon="18.70127">
        <ele>48.470049</ele>
        <time>2022-05-29T09:53:55.726Z</time>
      </trkpt>
      <trkpt lat="42.42636" lon="18.70115">
        <ele>48.386726</ele>
        <time>2022-05-29T09:53:58.746Z</time>
      </trkpt>
      <trkpt lat="42.42642" lon="18.70103">
        <ele>48.307333</ele>
        <time>2022-05-29T09:54:01.765Z</time>
      </trkpt>
      <trkpt lat="42.42649" lon="18.70094">
        <ele>48.230286</ele>
        <time>2022-05-29T09:54:04.757Z</time>
      </trkpt>
      <trkpt lat="42.42661" lon="18.70094">
        <ele>48.011176</ele>
        <time>2022-05-29T09:54:08.732Z</time>
      </trkpt>
      <trkpt lat="42.42671" lon="18.70102">
        <ele>47.803101</ele>
        <time>2022-05-29T09:54:11.730Z</time>
      </trkpt>
      <trkpt lat="42.42678" lon="18.70111">
        <ele>47.637399</ele>
        <time>2022-05-29T09:54:13.726Z</time>
      </trkpt>
      <trkpt lat="42.42685" lon="18.7012">
        <ele>47.46467</ele>
        <time>2022-05-29T09:54:15.790Z</time>
      </trkpt>
      <trkpt lat="42.42692" lon="18.70128">
        <ele>47.297227</ele>
        <time>2022-05-29T09:54:17.731Z</time>
      </trkpt>
      <trkpt lat="42.42699" lon="18.70136">
        <ele>47.136308</ele>
        <time>2022-05-29T09:54:19.722Z</time>
      </trkpt>
      <trkpt lat="42.42709" lon="18.70146">
        <ele>46.912547</ele>
        <time>2022-05-29T09:54:22.722Z</time>
      </trkpt>
      <trkpt lat="42.42719" lon="18.70156">
        <ele>46.689044</ele>
        <time>2022-05-29T09:54:25.728Z</time>
      </trkpt>
      <trkpt lat="42.42727" lon="18.70163">
        <ele>46.526742</ele>
        <time>2022-05-29T09:54:27.735Z</time>
      </trkpt>
      <trkpt lat="42.42736" lon="18.70167">
        <ele>46.358431</ele>
        <time>2022-05-29T09:54:29.731Z</time>
      </trkpt>
      <trkpt lat="42.42748" lon="18.70171">
        <ele>46.125833</ele>
        <time>2022-05-29T09:54:32.729Z</time>
      </trkpt>
      <trkpt lat="42.42761" lon="18.70173">
        <ele>45.905639</ele>
        <time>2022-05-29T09:54:35.725Z</time>
      </trkpt>
      <trkpt lat="42.42773" lon="18.70174">
        <ele>45.686068</ele>
        <time>2022-05-29T09:54:38.733Z</time>
      </trkpt>
      <trkpt lat="42.42786" lon="18.70175">
        <ele>45.44729</ele>
        <time>2022-05-29T09:54:41.773Z</time>
      </trkpt>
      <trkpt lat="42.42799" lon="18.70173">
        <ele>45.217624</ele>
        <time>2022-05-29T09:54:44.727Z</time>
      </trkpt>
      <trkpt lat="42.42809" lon="18.70172">
        <ele>45.046215</ele>
        <time>2022-05-29T09:54:47.735Z</time>
      </trkpt>
      <trkpt lat="42.42818" lon="18.7017">
        <ele>45.212713</ele>
        <time>2022-05-29T09:54:53.729Z</time>
      </trkpt>
      <trkpt lat="42.4283" lon="18.70166">
        <ele>45.428882</ele>
        <time>2022-05-29T09:54:57.727Z</time>
      </trkpt>
      <trkpt lat="42.4284" lon="18.70165">
        <ele>45.622325</ele>
        <time>2022-05-29T09:55:00.724Z</time>
      </trkpt>
      <trkpt lat="42.42852" lon="18.70163">
        <ele>45.838991</ele>
        <time>2022-05-29T09:55:03.767Z</time>
      </trkpt>
      <trkpt lat="42.42864" lon="18.70161">
        <ele>46.051875</ele>
        <time>2022-05-29T09:55:06.718Z</time>
      </trkpt>
      <trkpt lat="42.42875" lon="18.70159">
        <ele>46.257203</ele>
        <time>2022-05-29T09:55:09.744Z</time>
      </trkpt>
      <trkpt lat="42.42887" lon="18.70157">
        <ele>46.47026</ele>
        <time>2022-05-29T09:55:12.741Z</time>
      </trkpt>
      <trkpt lat="42.42898" lon="18.70154">
        <ele>46.68274</ele>
        <time>2022-05-29T09:55:15.735Z</time>
      </trkpt>
      <trkpt lat="42.42908" lon="18.70152">
        <ele>46.872783</ele>
        <time>2022-05-29T09:55:18.743Z</time>
      </trkpt>
      <trkpt lat="42.42918" lon="18.70148">
        <ele>47.049241</ele>
        <time>2022-05-29T09:55:21.723Z</time>
      </trkpt>
      <trkpt lat="42.42923" lon="18.70138">
        <ele>47.22231</ele>
        <time>2022-05-29T09:55:24.732Z</time>
      </trkpt>
      <trkpt lat="42.42924" lon="18.70121">
        <ele>47.448158</ele>
        <time>2022-05-29T09:55:27.788Z</time>
      </trkpt>
      <trkpt lat="42.42925" lon="18.70104">
        <ele>47.679289</ele>
        <time>2022-05-29T09:55:30.739Z</time>
      </trkpt>
      <trkpt lat="42.42924" lon="18.70088">
        <ele>47.888213</ele>
        <time>2022-05-29T09:55:33.725Z</time>
      </trkpt>
      <trkpt lat="42.42924" lon="18.70074">
        <ele>48.08309</ele>
        <time>2022-05-29T09:55:36.727Z</time>
      </trkpt>
      <trkpt lat="42.42925" lon="18.7006">
        <ele>48.270438</ele>
        <time>2022-05-29T09:55:39.732Z</time>
      </trkpt>
      <trkpt lat="42.42926" lon="18.70044">
        <ele>48.906753</ele>
        <time>2022-05-29T09:55:42.740Z</time>
      </trkpt>
      <trkpt lat="42.42927" lon="18.70028">
        <ele>49.642956</ele>
        <time>2022-05-29T09:55:45.745Z</time>
      </trkpt>
      <trkpt lat="42.42928" lon="18.70015">
        <ele>50.292419</ele>
        <time>2022-05-29T09:55:48.744Z</time>
      </trkpt>
      <trkpt lat="42.42931" lon="18.70002">
        <ele>50.923562</ele>
        <time>2022-05-29T09:55:51.732Z</time>
      </trkpt>
      <trkpt lat="42.4293" lon="18.69988">
        <ele>51.553913</ele>
        <time>2022-05-29T09:55:54.731Z</time>
      </trkpt>
      <trkpt lat="42.42928" lon="18.69974">
        <ele>52.221795</ele>
        <time>2022-05-29T09:55:57.745Z</time>
      </trkpt>
      <trkpt lat="42.42926" lon="18.6996">
        <ele>52.911561</ele>
        <time>2022-05-29T09:56:01.735Z</time>
      </trkpt>
      <trkpt lat="42.42926" lon="18.69945">
        <ele>53.611696</ele>
        <time>2022-05-29T09:56:05.724Z</time>
      </trkpt>
      <trkpt lat="42.42924" lon="18.69932">
        <ele>54.25804</ele>
        <time>2022-05-29T09:56:08.737Z</time>
      </trkpt>
      <trkpt lat="42.4292" lon="18.69917">
        <ele>54.976506</ele>
        <time>2022-05-29T09:56:11.717Z</time>
      </trkpt>
      <trkpt lat="42.42919" lon="18.69902">
        <ele>55.683548</ele>
        <time>2022-05-29T09:56:15.730Z</time>
      </trkpt>
      <trkpt lat="42.4292" lon="18.69889">
        <ele>56.29124</ele>
        <time>2022-05-29T09:56:19.719Z</time>
      </trkpt>
      <trkpt lat="42.42923" lon="18.69875">
        <ele>57.006105</ele>
        <time>2022-05-29T09:56:23.728Z</time>
      </trkpt>
      <trkpt lat="42.42926" lon="18.69863">
        <ele>57.592308</ele>
        <time>2022-05-29T09:56:26.744Z</time>
      </trkpt>
      <trkpt lat="42.42928" lon="18.69851">
        <ele>58.184031</ele>
        <time>2022-05-29T09:56:29.736Z</time>
      </trkpt>
      <trkpt lat="42.42928" lon="18.69834">
        <ele>58.954521</ele>
        <time>2022-05-29T09:56:32.743Z</time>
      </trkpt>
      <trkpt lat="42.42926" lon="18.6982">
        <ele>59.660127</ele>
        <time>2022-05-29T09:56:34.728Z</time>
      </trkpt>
      <trkpt lat="42.42922" lon="18.69803">
        <ele>59.163366</ele>
        <time>2022-05-29T09:56:36.746Z</time>
      </trkpt>
      <trkpt lat="42.42921" lon="18.69786">
        <ele>58.425012</ele>
        <time>2022-05-29T09:56:38.728Z</time>
      </trkpt>
      <trkpt lat="42.42921" lon="18.69768">
        <ele>57.693482</ele>
        <time>2022-05-29T09:56:40.774Z</time>
      </trkpt>
      <trkpt lat="42.42922" lon="18.69754">
        <ele>57.117841</ele>
        <time>2022-05-29T09:56:42.734Z</time>
      </trkpt>
      <trkpt lat="42.42923" lon="18.69741">
        <ele>56.572337</ele>
        <time>2022-05-29T09:56:45.742Z</time>
      </trkpt>
      <trkpt lat="42.42925" lon="18.69726">
        <ele>55.939334</ele>
        <time>2022-05-29T09:56:49.759Z</time>
      </trkpt>
      <trkpt lat="42.42926" lon="18.6971">
        <ele>55.27342</ele>
        <time>2022-05-29T09:56:52.732Z</time>
      </trkpt>
      <trkpt lat="42.42925" lon="18.69695">
        <ele>54.663863</ele>
        <time>2022-05-29T09:56:55.746Z</time>
      </trkpt>
      <trkpt lat="42.42922" lon="18.69683">
        <ele>54.138137</ele>
        <time>2022-05-29T09:56:58.727Z</time>
      </trkpt>
      <trkpt lat="42.42921" lon="18.6967">
        <ele>53.613131</ele>
        <time>2022-05-29T09:57:02.752Z</time>
      </trkpt>
      <trkpt lat="42.4292" lon="18.69655">
        <ele>52.97928</ele>
        <time>2022-05-29T09:57:07.734Z</time>
      </trkpt>
      <trkpt lat="42.42915" lon="18.69643">
        <ele>52.401387</ele>
        <time>2022-05-29T09:57:11.719Z</time>
      </trkpt>
      <trkpt lat="42.42904" lon="18.69641">
        <ele>51.823129</ele>
        <time>2022-05-29T09:57:16.730Z</time>
      </trkpt>
      <trkpt lat="42.42898" lon="18.69658">
        <ele>51.044413</ele>
        <time>2022-05-29T09:58:25.716Z</time>
      </trkpt>
      <trkpt lat="42.42906" lon="18.69666">
        <ele>50.478299</ele>
        <time>2022-05-29T09:58:31.741Z</time>
      </trkpt>
      <trkpt lat="42.42914" lon="18.6966">
        <ele>49.965069</ele>
        <time>2022-05-29T09:58:35.740Z</time>
      </trkpt>
      <trkpt lat="42.42917" lon="18.69647">
        <ele>49.608892</ele>
        <time>2022-05-29T09:58:38.742Z</time>
      </trkpt>
      <trkpt lat="42.42918" lon="18.69632">
        <ele>49.408537</ele>
        <time>2022-05-29T09:58:42.740Z</time>
      </trkpt>
      <trkpt lat="42.42925" lon="18.6962">
        <ele>49.207026</ele>
        <time>2022-05-29T09:58:46.750Z</time>
      </trkpt>
      <trkpt lat="42.42933" lon="18.69609">
        <ele>49.007612</ele>
        <time>2022-05-29T09:58:50.744Z</time>
      </trkpt>
      <trkpt lat="42.42936" lon="18.69596">
        <ele>48.826728</ele>
        <time>2022-05-29T09:58:54.734Z</time>
      </trkpt>
      <trkpt lat="42.42942" lon="18.69583">
        <ele>48.616338</ele>
        <time>2022-05-29T09:58:59.730Z</time>
      </trkpt>
      <trkpt lat="42.42951" lon="18.69574">
        <ele>48.415357</ele>
        <time>2022-05-29T09:59:03.735Z</time>
      </trkpt>
      <trkpt lat="42.42961" lon="18.69569">
        <ele>48.235926</ele>
        <time>2022-05-29T09:59:07.733Z</time>
      </trkpt>
      <trkpt lat="42.42971" lon="18.69565">
        <ele>48.045287</ele>
        <time>2022-05-29T09:59:11.740Z</time>
      </trkpt>
      <trkpt lat="42.42981" lon="18.69564">
        <ele>47.863476</ele>
        <time>2022-05-29T09:59:15.737Z</time>
      </trkpt>
      <trkpt lat="42.42991" lon="18.69558">
        <ele>47.662557</ele>
        <time>2022-05-29T09:59:19.738Z</time>
      </trkpt>
      <trkpt lat="42.43001" lon="18.69552">
        <ele>47.469882</ele>
        <time>2022-05-29T09:59:23.737Z</time>
      </trkpt>
      <trkpt lat="42.4301" lon="18.69547">
        <ele>47.290401</ele>
        <time>2022-05-29T09:59:27.732Z</time>
      </trkpt>
      <trkpt lat="42.43019" lon="18.69541">
        <ele>47.116735</ele>
        <time>2022-05-29T09:59:31.740Z</time>
      </trkpt>
      <trkpt lat="42.43029" lon="18.69539">
        <ele>46.939184</ele>
        <time>2022-05-29T09:59:38.717Z</time>
      </trkpt>
      <trkpt lat="42.43039" lon="18.69536">
        <ele>46.7541</ele>
        <time>2022-05-29T09:59:45.735Z</time>
      </trkpt>
      <trkpt lat="42.43049" lon="18.69535">
        <ele>46.570169</ele>
        <time>2022-05-29T09:59:50.724Z</time>
      </trkpt>
      <trkpt lat="42.43057" lon="18.69526">
        <ele>46.640981</ele>
        <time>2022-05-29T09:59:57.728Z</time>
      </trkpt>
      <trkpt lat="42.43062" lon="18.69516">
        <ele>47.006682</ele>
        <time>2022-05-29T10:00:02.721Z</time>
      </trkpt>
      <trkpt lat="42.43069" lon="18.69506">
        <ele>47.399604</ele>
        <time>2022-05-29T10:00:07.730Z</time>
      </trkpt>
      <trkpt lat="42.43075" lon="18.69495">
        <ele>47.789431</ele>
        <time>2022-05-29T10:00:12.745Z</time>
      </trkpt>
      <trkpt lat="42.43085" lon="18.69491">
        <ele>48.211291</ele>
        <time>2022-05-29T10:00:18.711Z</time>
      </trkpt>
      <trkpt lat="42.43094" lon="18.69485">
        <ele>48.617861</ele>
        <time>2022-05-29T10:00:23.737Z</time>
      </trkpt>
      <trkpt lat="42.43102" lon="18.6948">
        <ele>48.978322</ele>
        <time>2022-05-29T10:00:28.741Z</time>
      </trkpt>
      <trkpt lat="42.43112" lon="18.69481">
        <ele>49.379673</ele>
        <time>2022-05-29T10:00:35.738Z</time>
      </trkpt>
      <trkpt lat="42.43123" lon="18.69476">
        <ele>49.813405</ele>
        <time>2022-05-29T10:00:41.722Z</time>
      </trkpt>
      <trkpt lat="42.43133" lon="18.69473">
        <ele>50.208038</ele>
        <time>2022-05-29T10:00:46.759Z</time>
      </trkpt>
      <trkpt lat="42.43142" lon="18.6947">
        <ele>50.580817</ele>
        <time>2022-05-29T10:00:50.729Z</time>
      </trkpt>
      <trkpt lat="42.43145" lon="18.69455">
        <ele>51.044012</ele>
        <time>2022-05-29T10:00:54.738Z</time>
      </trkpt>
      <trkpt lat="42.43145" lon="18.69442">
        <ele>51.419343</ele>
        <time>2022-05-29T10:00:57.734Z</time>
      </trkpt>
      <trkpt lat="42.43146" lon="18.69429">
        <ele>51.803589</ele>
        <time>2022-05-29T10:01:00.737Z</time>
      </trkpt>
      <trkpt lat="42.43148" lon="18.69413">
        <ele>52.268883</ele>
        <time>2022-05-29T10:01:04.728Z</time>
      </trkpt>
      <trkpt lat="42.43149" lon="18.69398">
        <ele>52.715226</ele>
        <time>2022-05-29T10:01:08.726Z</time>
      </trkpt>
      <trkpt lat="42.4315" lon="18.69385">
        <ele>53.109164</ele>
        <time>2022-05-29T10:01:12.731Z</time>
      </trkpt>
      <trkpt lat="42.43159" lon="18.6938">
        <ele>53.478682</ele>
        <time>2022-05-29T10:01:22.778Z</time>
      </trkpt>
      <trkpt lat="42.43169" lon="18.69373">
        <ele>53.584271</ele>
        <time>2022-05-29T10:06:25.705Z</time>
      </trkpt>
      <trkpt lat="42.43187" lon="18.69372">
        <ele>53.52167</ele>
        <time>2022-05-29T10:24:21.715Z</time>
      </trkpt>
      <trkpt lat="42.43204" lon="18.69366">
        <ele>53.462723</ele>
        <time>2022-05-29T10:24:31.723Z</time>
      </trkpt>
      <trkpt lat="42.43214" lon="18.69364">
        <ele>53.430429</ele>
        <time>2022-05-29T10:24:34.749Z</time>
      </trkpt>
      <trkpt lat="42.43223" lon="18.69361">
        <ele>53.39859</ele>
        <time>2022-05-29T10:24:37.718Z</time>
      </trkpt>
      <trkpt lat="42.43233" lon="18.69359">
        <ele>53.363192</ele>
        <time>2022-05-29T10:24:41.726Z</time>
      </trkpt>
      <trkpt lat="42.43243" lon="18.69356">
        <ele>53.328458</ele>
        <time>2022-05-29T10:24:46.755Z</time>
      </trkpt>
      <trkpt lat="42.43253" lon="18.69351">
        <ele>53.294135</ele>
        <time>2022-05-29T10:24:52.737Z</time>
      </trkpt>
      <trkpt lat="42.43264" lon="18.6935">
        <ele>53.255326</ele>
        <time>2022-05-29T10:24:56.724Z</time>
      </trkpt>
      <trkpt lat="42.43273" lon="18.69358">
        <ele>53.221022</ele>
        <time>2022-05-29T10:25:01.711Z</time>
      </trkpt>
      <trkpt lat="42.43276" lon="18.6937">
        <ele>53.18933</ele>
        <time>2022-05-29T10:25:06.736Z</time>
      </trkpt>
      <trkpt lat="42.4328" lon="18.69383">
        <ele>53.15533</ele>
        <time>2022-05-29T10:25:10.735Z</time>
      </trkpt>
      <trkpt lat="42.43281" lon="18.69396">
        <ele>53.122604</ele>
        <time>2022-05-29T10:25:14.735Z</time>
      </trkpt>
      <trkpt lat="42.4328" lon="18.69411">
        <ele>53.086239</ele>
        <time>2022-05-29T10:25:19.717Z</time>
      </trkpt>
      <trkpt lat="42.43286" lon="18.69422">
        <ele>53.05129</ele>
        <time>2022-05-29T10:25:23.728Z</time>
      </trkpt>
      <trkpt lat="42.43296" lon="18.69421">
        <ele>53.018791</ele>
        <time>2022-05-29T10:25:27.726Z</time>
      </trkpt>
      <trkpt lat="42.43305" lon="18.69421">
        <ele>53.196685</ele>
        <time>2022-05-29T10:25:31.736Z</time>
      </trkpt>
      <trkpt lat="42.43317" lon="18.6942">
        <ele>53.553618</ele>
        <time>2022-05-29T10:25:35.749Z</time>
      </trkpt>
      <trkpt lat="42.43327" lon="18.69419">
        <ele>53.870445</ele>
        <time>2022-05-29T10:25:39.725Z</time>
      </trkpt>
      <trkpt lat="42.43336" lon="18.6942">
        <ele>54.149677</ele>
        <time>2022-05-29T10:25:42.719Z</time>
      </trkpt>
      <trkpt lat="42.4334" lon="18.69407">
        <ele>54.467691</ele>
        <time>2022-05-29T10:25:47.737Z</time>
      </trkpt>
      <trkpt lat="42.43339" lon="18.69392">
        <ele>54.813489</ele>
        <time>2022-05-29T10:25:51.721Z</time>
      </trkpt>
      <trkpt lat="42.43338" lon="18.69378">
        <ele>55.132287</ele>
        <time>2022-05-29T10:25:55.776Z</time>
      </trkpt>
      <trkpt lat="42.43337" lon="18.69365">
        <ele>55.415287</ele>
        <time>2022-05-29T10:25:58.716Z</time>
      </trkpt>
      <trkpt lat="42.43336" lon="18.69352">
        <ele>55.7188</ele>
        <time>2022-05-29T10:26:01.736Z</time>
      </trkpt>
      <trkpt lat="42.43339" lon="18.6934">
        <ele>56.018352</ele>
        <time>2022-05-29T10:26:05.723Z</time>
      </trkpt>
      <trkpt lat="42.43347" lon="18.69334">
        <ele>56.303637</ele>
        <time>2022-05-29T10:26:10.736Z</time>
      </trkpt>
      <trkpt lat="42.43356" lon="18.69328">
        <ele>56.603321</ele>
        <time>2022-05-29T10:26:15.725Z</time>
      </trkpt>
      <trkpt lat="42.43364" lon="18.69319">
        <ele>56.927156</ele>
        <time>2022-05-29T10:26:19.715Z</time>
      </trkpt>
      <trkpt lat="42.43374" lon="18.69315">
        <ele>57.260144</ele>
        <time>2022-05-29T10:26:23.725Z</time>
      </trkpt>
      <trkpt lat="42.43385" lon="18.69313">
        <ele>57.592471</ele>
        <time>2022-05-29T10:26:27.735Z</time>
      </trkpt>
      <trkpt lat="42.43395" lon="18.69312">
        <ele>57.911277</ele>
        <time>2022-05-29T10:26:31.731Z</time>
      </trkpt>
      <trkpt lat="42.43405" lon="18.69309">
        <ele>58.227154</ele>
        <time>2022-05-29T10:26:35.719Z</time>
      </trkpt>
      <trkpt lat="42.43415" lon="18.69306">
        <ele>58.550944</ele>
        <time>2022-05-29T10:26:39.716Z</time>
      </trkpt>
      <trkpt lat="42.43424" lon="18.69302">
        <ele>58.43294</ele>
        <time>2022-05-29T10:26:43.712Z</time>
      </trkpt>
      <trkpt lat="42.43434" lon="18.693">
        <ele>58.250959</ele>
        <time>2022-05-29T10:26:47.753Z</time>
      </trkpt>
      <trkpt lat="42.43444" lon="18.69294">
        <ele>58.071404</ele>
        <time>2022-05-29T10:26:51.742Z</time>
      </trkpt>
      <trkpt lat="42.43453" lon="18.69291">
        <ele>57.894962</ele>
        <time>2022-05-29T10:26:54.720Z</time>
      </trkpt>
      <trkpt lat="42.43465" lon="18.69293">
        <ele>57.684809</ele>
        <time>2022-05-29T10:26:58.722Z</time>
      </trkpt>
      <trkpt lat="42.43476" lon="18.69292">
        <ele>57.479415</ele>
        <time>2022-05-29T10:27:02.727Z</time>
      </trkpt>
      <trkpt lat="42.43488" lon="18.69289">
        <ele>57.272541</ele>
        <time>2022-05-29T10:27:06.732Z</time>
      </trkpt>
      <trkpt lat="42.43498" lon="18.69285">
        <ele>57.087395</ele>
        <time>2022-05-29T10:27:09.724Z</time>
      </trkpt>
      <trkpt lat="42.43508" lon="18.69282">
        <ele>56.9013</ele>
        <time>2022-05-29T10:27:13.723Z</time>
      </trkpt>
      <trkpt lat="42.43519" lon="18.6928">
        <ele>56.702855</ele>
        <time>2022-05-29T10:27:17.736Z</time>
      </trkpt>
      <trkpt lat="42.43528" lon="18.69278">
        <ele>56.530139</ele>
        <time>2022-05-29T10:27:20.743Z</time>
      </trkpt>
      <trkpt lat="42.43538" lon="18.69277">
        <ele>56.352746</ele>
        <time>2022-05-29T10:27:23.732Z</time>
      </trkpt>
      <trkpt lat="42.43549" lon="18.69277">
        <ele>56.159777</ele>
        <time>2022-05-29T10:27:26.734Z</time>
      </trkpt>
      <trkpt lat="42.43559" lon="18.69274">
        <ele>55.980627</ele>
        <time>2022-05-29T10:27:29.720Z</time>
      </trkpt>
      <trkpt lat="42.43569" lon="18.69271">
        <ele>55.790361</ele>
        <time>2022-05-29T10:27:32.745Z</time>
      </trkpt>
      <trkpt lat="42.43581" lon="18.69269">
        <ele>55.573875</ele>
        <time>2022-05-29T10:27:35.763Z</time>
      </trkpt>
      <trkpt lat="42.43591" lon="18.69268">
        <ele>55.392927</ele>
        <time>2022-05-29T10:27:38.733Z</time>
      </trkpt>
      <trkpt lat="42.43601" lon="18.69266">
        <ele>55.00819</ele>
        <time>2022-05-29T10:27:41.734Z</time>
      </trkpt>
      <trkpt lat="42.43611" lon="18.69264">
        <ele>54.558737</ele>
        <time>2022-05-29T10:27:44.724Z</time>
      </trkpt>
      <trkpt lat="42.43621" lon="18.69269">
        <ele>54.086416</ele>
        <time>2022-05-29T10:27:48.721Z</time>
      </trkpt>
      <trkpt lat="42.43627" lon="18.69278">
        <ele>53.693008</ele>
        <time>2022-05-29T10:27:51.718Z</time>
      </trkpt>
      <trkpt lat="42.43633" lon="18.69288">
        <ele>53.274866</ele>
        <time>2022-05-29T10:27:54.723Z</time>
      </trkpt>
      <trkpt lat="42.43642" lon="18.693">
        <ele>52.749535</ele>
        <time>2022-05-29T10:27:58.723Z</time>
      </trkpt>
      <trkpt lat="42.43649" lon="18.69307">
        <ele>52.338004</ele>
        <time>2022-05-29T10:28:01.734Z</time>
      </trkpt>
      <trkpt lat="42.43659" lon="18.69308">
        <ele>51.912016</ele>
        <time>2022-05-29T10:28:04.743Z</time>
      </trkpt>
      <trkpt lat="42.43668" lon="18.69305">
        <ele>51.510125</ele>
        <time>2022-05-29T10:28:07.719Z</time>
      </trkpt>
      <trkpt lat="42.43677" lon="18.69301">
        <ele>51.08305</ele>
        <time>2022-05-29T10:28:13.739Z</time>
      </trkpt>
      <trkpt lat="42.43687" lon="18.69299">
        <ele>50.630325</ele>
        <time>2022-05-29T10:28:17.718Z</time>
      </trkpt>
      <trkpt lat="42.43698" lon="18.69298">
        <ele>50.155179</ele>
        <time>2022-05-29T10:28:20.718Z</time>
      </trkpt>
      <trkpt lat="42.43708" lon="18.69295">
        <ele>49.699374</ele>
        <time>2022-05-29T10:28:23.731Z</time>
      </trkpt>
      <trkpt lat="42.43718" lon="18.69292">
        <ele>49.269907</ele>
        <time>2022-05-29T10:28:26.741Z</time>
      </trkpt>
      <trkpt lat="42.43727" lon="18.69289">
        <ele>48.84604</ele>
        <time>2022-05-29T10:28:29.736Z</time>
      </trkpt>
      <trkpt lat="42.43738" lon="18.69285">
        <ele>48.355521</ele>
        <time>2022-05-29T10:28:33.736Z</time>
      </trkpt>
      <trkpt lat="42.43747" lon="18.69275">
        <ele>47.836813</ele>
        <time>2022-05-29T10:28:37.730Z</time>
      </trkpt>
      <trkpt lat="42.43755" lon="18.69264">
        <ele>47.556977</ele>
        <time>2022-05-29T10:28:41.722Z</time>
      </trkpt>
      <trkpt lat="42.43761" lon="18.69254">
        <ele>47.676464</ele>
        <time>2022-05-29T10:28:44.749Z</time>
      </trkpt>
      <trkpt lat="42.43768" lon="18.69241">
        <ele>47.813425</ele>
        <time>2022-05-29T10:28:47.725Z</time>
      </trkpt>
      <trkpt lat="42.43773" lon="18.69229">
        <ele>47.947372</ele>
        <time>2022-05-29T10:28:50.726Z</time>
      </trkpt>
      <trkpt lat="42.43778" lon="18.69217">
        <ele>48.072748</ele>
        <time>2022-05-29T10:28:53.721Z</time>
      </trkpt>
      <trkpt lat="42.43783" lon="18.69206">
        <ele>48.184709</ele>
        <time>2022-05-29T10:28:56.723Z</time>
      </trkpt>
      <trkpt lat="42.43789" lon="18.69193">
        <ele>48.326925</ele>
        <time>2022-05-29T10:29:00.717Z</time>
      </trkpt>
      <trkpt lat="42.43794" lon="18.69182">
        <ele>48.440825</ele>
        <time>2022-05-29T10:29:03.719Z</time>
      </trkpt>
      <trkpt lat="42.438" lon="18.69171">
        <ele>48.562491</ele>
        <time>2022-05-29T10:29:06.728Z</time>
      </trkpt>
      <trkpt lat="42.43809" lon="18.69166">
        <ele>48.686256</ele>
        <time>2022-05-29T10:29:10.768Z</time>
      </trkpt>
      <trkpt lat="42.43817" lon="18.69159">
        <ele>48.802595</ele>
        <time>2022-05-29T10:29:13.721Z</time>
      </trkpt>
      <trkpt lat="42.43825" lon="18.6915">
        <ele>48.931104</ele>
        <time>2022-05-29T10:29:16.718Z</time>
      </trkpt>
      <trkpt lat="42.43832" lon="18.69141">
        <ele>49.055543</ele>
        <time>2022-05-29T10:29:19.719Z</time>
      </trkpt>
      <trkpt lat="42.43839" lon="18.69133">
        <ele>49.166023</ele>
        <time>2022-05-29T10:29:22.724Z</time>
      </trkpt>
      <trkpt lat="42.43846" lon="18.69123">
        <ele>49.28781</ele>
        <time>2022-05-29T10:29:25.738Z</time>
      </trkpt>
      <trkpt lat="42.43853" lon="18.69114">
        <ele>49.410716</ele>
        <time>2022-05-29T10:29:28.734Z</time>
      </trkpt>
      <trkpt lat="42.43861" lon="18.69107">
        <ele>49.523966</ele>
        <time>2022-05-29T10:29:31.721Z</time>
      </trkpt>
      <trkpt lat="42.43868" lon="18.69098">
        <ele>49.636853</ele>
        <time>2022-05-29T10:29:34.729Z</time>
      </trkpt>
      <trkpt lat="42.43875" lon="18.6909">
        <ele>49.696671</ele>
        <time>2022-05-29T10:29:37.726Z</time>
      </trkpt>
      <trkpt lat="42.43884" lon="18.6908">
        <ele>49.609967</ele>
        <time>2022-05-29T10:29:41.717Z</time>
      </trkpt>
      <trkpt lat="42.43891" lon="18.69069">
        <ele>49.52947</ele>
        <time>2022-05-29T10:29:44.737Z</time>
      </trkpt>
      <trkpt lat="42.43897" lon="18.69059">
        <ele>49.450793</ele>
        <time>2022-05-29T10:29:47.716Z</time>
      </trkpt>
      <trkpt lat="42.43904" lon="18.69047">
        <ele>49.369157</ele>
        <time>2022-05-29T10:29:50.740Z</time>
      </trkpt>
      <trkpt lat="42.4391" lon="18.69036">
        <ele>49.293301</ele>
        <time>2022-05-29T10:29:53.720Z</time>
      </trkpt>
      <trkpt lat="42.43916" lon="18.69025">
        <ele>49.217401</ele>
        <time>2022-05-29T10:29:56.717Z</time>
      </trkpt>
      <trkpt lat="42.43922" lon="18.69014">
        <ele>49.141455</ele>
        <time>2022-05-29T10:29:59.751Z</time>
      </trkpt>
      <trkpt lat="42.43926" lon="18.69">
        <ele>49.060053</ele>
        <time>2022-05-29T10:30:02.712Z</time>
      </trkpt>
      <trkpt lat="42.43931" lon="18.68987">
        <ele>48.977958</ele>
        <time>2022-05-29T10:30:05.774Z</time>
      </trkpt>
      <trkpt lat="42.43935" lon="18.68974">
        <ele>48.899159</ele>
        <time>2022-05-29T10:30:08.719Z</time>
      </trkpt>
      <trkpt lat="42.43938" lon="18.68962">
        <ele>48.829225</ele>
        <time>2022-05-29T10:30:11.739Z</time>
      </trkpt>
      <trkpt lat="42.43941" lon="18.6895">
        <ele>48.758241</ele>
        <time>2022-05-29T10:30:14.726Z</time>
      </trkpt>
      <trkpt lat="42.43944" lon="18.68935">
        <ele>48.673567</ele>
        <time>2022-05-29T10:30:17.733Z</time>
      </trkpt>
      <trkpt lat="42.43948" lon="18.68921">
        <ele>48.592374</ele>
        <time>2022-05-29T10:30:20.733Z</time>
      </trkpt>
      <trkpt lat="42.43951" lon="18.68908">
        <ele>48.51757</ele>
        <time>2022-05-29T10:30:23.743Z</time>
      </trkpt>
      <trkpt lat="42.4395" lon="18.68894">
        <ele>48.439425</ele>
        <time>2022-05-29T10:30:26.747Z</time>
      </trkpt>
      <trkpt lat="42.4395" lon="18.68881">
        <ele>48.368471</ele>
        <time>2022-05-29T10:30:29.727Z</time>
      </trkpt>
      <trkpt lat="42.43951" lon="18.68867">
        <ele>48.428169</ele>
        <time>2022-05-29T10:30:34.770Z</time>
      </trkpt>
      <trkpt lat="42.43952" lon="18.68854">
        <ele>48.488079</ele>
        <time>2022-05-29T10:30:38.720Z</time>
      </trkpt>
      <trkpt lat="42.43954" lon="18.68838">
        <ele>48.563488</ele>
        <time>2022-05-29T10:30:42.730Z</time>
      </trkpt>
      <trkpt lat="42.43957" lon="18.68826">
        <ele>48.624532</ele>
        <time>2022-05-29T10:30:45.720Z</time>
      </trkpt>
      <trkpt lat="42.43959" lon="18.68813">
        <ele>48.684785</ele>
        <time>2022-05-29T10:30:48.758Z</time>
      </trkpt>
      <trkpt lat="42.43963" lon="18.68802">
        <ele>48.741059</ele>
        <time>2022-05-29T10:30:51.714Z</time>
      </trkpt>
      <trkpt lat="42.43965" lon="18.68787">
        <ele>48.810215</ele>
        <time>2022-05-29T10:30:55.753Z</time>
      </trkpt>
      <trkpt lat="42.43968" lon="18.68775">
        <ele>48.870614</ele>
        <time>2022-05-29T10:30:58.720Z</time>
      </trkpt>
      <trkpt lat="42.43971" lon="18.68762">
        <ele>48.935627</ele>
        <time>2022-05-29T10:31:01.716Z</time>
      </trkpt>
      <trkpt lat="42.43976" lon="18.68751">
        <ele>48.992348</ele>
        <time>2022-05-29T10:31:04.714Z</time>
      </trkpt>
      <trkpt lat="42.43983" lon="18.68739">
        <ele>49.060734</ele>
        <time>2022-05-29T10:31:08.732Z</time>
      </trkpt>
      <trkpt lat="42.4399" lon="18.68728">
        <ele>49.128523</ele>
        <time>2022-05-29T10:31:13.733Z</time>
      </trkpt>
      <trkpt lat="42.43995" lon="18.68718">
        <ele>49.186498</ele>
        <time>2022-05-29T10:31:17.726Z</time>
      </trkpt>
      <trkpt lat="42.44003" lon="18.68708">
        <ele>49.256654</ele>
        <time>2022-05-29T10:31:21.731Z</time>
      </trkpt>
      <trkpt lat="42.44012" lon="18.68699">
        <ele>49.323602</ele>
        <time>2022-05-29T10:31:25.777Z</time>
      </trkpt>
      <trkpt lat="42.44021" lon="18.68692">
        <ele>49.388884</ele>
        <time>2022-05-29T10:31:29.724Z</time>
      </trkpt>
      <trkpt lat="42.44031" lon="18.68688">
        <ele>49.451869</ele>
        <time>2022-05-29T10:31:33.740Z</time>
      </trkpt>
      <trkpt lat="42.44041" lon="18.68684">
        <ele>49.432412</ele>
        <time>2022-05-29T10:31:37.732Z</time>
      </trkpt>
      <trkpt lat="42.44051" lon="18.68683">
        <ele>49.323288</ele>
        <time>2022-05-29T10:31:40.720Z</time>
      </trkpt>
      <trkpt lat="42.4406" lon="18.68681">
        <ele>49.206961</ele>
        <time>2022-05-29T10:31:43.730Z</time>
      </trkpt>
      <trkpt lat="42.44072" lon="18.68681">
        <ele>49.0687</ele>
        <time>2022-05-29T10:31:46.725Z</time>
      </trkpt>
      <trkpt lat="42.44082" lon="18.68681">
        <ele>48.943579</ele>
        <time>2022-05-29T10:31:49.713Z</time>
      </trkpt>
      <trkpt lat="42.44094" lon="18.68682">
        <ele>48.808754</ele>
        <time>2022-05-29T10:31:52.732Z</time>
      </trkpt>
      <trkpt lat="42.44106" lon="18.68685">
        <ele>48.664092</ele>
        <time>2022-05-29T10:31:55.737Z</time>
      </trkpt>
      <trkpt lat="42.44117" lon="18.6869">
        <ele>48.518509</ele>
        <time>2022-05-29T10:31:58.722Z</time>
      </trkpt>
      <trkpt lat="42.44127" lon="18.68696">
        <ele>48.384578</ele>
        <time>2022-05-29T10:32:01.724Z</time>
      </trkpt>
      <trkpt lat="42.44137" lon="18.68702">
        <ele>48.256753</ele>
        <time>2022-05-29T10:32:05.723Z</time>
      </trkpt>
      <trkpt lat="42.44147" lon="18.68705">
        <ele>48.137233</ele>
        <time>2022-05-29T10:32:08.725Z</time>
      </trkpt>
      <trkpt lat="42.44159" lon="18.68707">
        <ele>47.996103</ele>
        <time>2022-05-29T10:32:11.731Z</time>
      </trkpt>
      <trkpt lat="42.44171" lon="18.68709">
        <ele>47.853527</ele>
        <time>2022-05-29T10:32:14.730Z</time>
      </trkpt>
      <trkpt lat="42.44182" lon="18.68708">
        <ele>47.724735</ele>
        <time>2022-05-29T10:32:17.773Z</time>
      </trkpt>
      <trkpt lat="42.44193" lon="18.68712">
        <ele>47.586622</ele>
        <time>2022-05-29T10:32:21.721Z</time>
      </trkpt>
      <trkpt lat="42.44202" lon="18.68712">
        <ele>47.475797</ele>
        <time>2022-05-29T10:32:24.724Z</time>
      </trkpt>
      <trkpt lat="42.44214" lon="18.68711">
        <ele>47.356831</ele>
        <time>2022-05-29T10:32:28.742Z</time>
      </trkpt>
      <trkpt lat="42.44223" lon="18.68709">
        <ele>47.460529</ele>
        <time>2022-05-29T10:32:31.728Z</time>
      </trkpt>
      <trkpt lat="42.44234" lon="18.68708">
        <ele>47.584007</ele>
        <time>2022-05-29T10:32:34.716Z</time>
      </trkpt>
      <trkpt lat="42.44243" lon="18.68707">
        <ele>47.693508</ele>
        <time>2022-05-29T10:32:37.743Z</time>
      </trkpt>
      <trkpt lat="42.44255" lon="18.68706">
        <ele>47.819658</ele>
        <time>2022-05-29T10:32:41.719Z</time>
      </trkpt>
      <trkpt lat="42.44265" lon="18.68707">
        <ele>47.936975</ele>
        <time>2022-05-29T10:32:45.735Z</time>
      </trkpt>
      <trkpt lat="42.44276" lon="18.68707">
        <ele>48.064243</ele>
        <time>2022-05-29T10:32:49.715Z</time>
      </trkpt>
      <trkpt lat="42.44287" lon="18.68706">
        <ele>48.185394</ele>
        <time>2022-05-29T10:32:52.713Z</time>
      </trkpt>
      <trkpt lat="42.44297" lon="18.68701">
        <ele>48.309422</ele>
        <time>2022-05-29T10:32:55.751Z</time>
      </trkpt>
      <trkpt lat="42.44308" lon="18.68697">
        <ele>48.429485</ele>
        <time>2022-05-29T10:32:58.734Z</time>
      </trkpt>
      <trkpt lat="42.44318" lon="18.68693">
        <ele>48.548969</ele>
        <time>2022-05-29T10:33:02.730Z</time>
      </trkpt>
      <trkpt lat="42.44328" lon="18.68691">
        <ele>48.665291</ele>
        <time>2022-05-29T10:33:07.741Z</time>
      </trkpt>
      <trkpt lat="42.44337" lon="18.68688">
        <ele>48.771671</ele>
        <time>2022-05-29T10:33:13.722Z</time>
      </trkpt>
      <trkpt lat="42.44347" lon="18.68687">
        <ele>48.877698</ele>
        <time>2022-05-29T10:33:18.743Z</time>
      </trkpt>
      <trkpt lat="42.44357" lon="18.68685">
        <ele>48.995778</ele>
        <time>2022-05-29T10:33:22.737Z</time>
      </trkpt>
      <trkpt lat="42.44366" lon="18.68684">
        <ele>49.097714</ele>
        <time>2022-05-29T10:33:26.734Z</time>
      </trkpt>
      <trkpt lat="42.44377" lon="18.68686">
        <ele>49.228634</ele>
        <time>2022-05-29T10:33:30.721Z</time>
      </trkpt>
      <trkpt lat="42.44387" lon="18.68692">
        <ele>49.350181</ele>
        <time>2022-05-29T10:33:33.719Z</time>
      </trkpt>
      <trkpt lat="42.44398" lon="18.68692">
        <ele>49.284771</ele>
        <time>2022-05-29T10:33:36.732Z</time>
      </trkpt>
      <trkpt lat="42.4441" lon="18.6869">
        <ele>49.159904</ele>
        <time>2022-05-29T10:33:40.760Z</time>
      </trkpt>
      <trkpt lat="42.44419" lon="18.6869">
        <ele>49.059567</ele>
        <time>2022-05-29T10:33:43.748Z</time>
      </trkpt>
      <trkpt lat="42.44428" lon="18.68689">
        <ele>48.96082</ele>
        <time>2022-05-29T10:33:46.730Z</time>
      </trkpt>
      <trkpt lat="42.44439" lon="18.68688">
        <ele>48.8508</ele>
        <time>2022-05-29T10:33:49.735Z</time>
      </trkpt>
      <trkpt lat="42.44449" lon="18.68689">
        <ele>48.738455</ele>
        <time>2022-05-29T10:33:52.727Z</time>
      </trkpt>
      <trkpt lat="42.4446" lon="18.68689">
        <ele>48.630712</ele>
        <time>2022-05-29T10:33:55.728Z</time>
      </trkpt>
      <trkpt lat="42.4447" lon="18.6869">
        <ele>48.52297</ele>
        <time>2022-05-29T10:33:58.717Z</time>
      </trkpt>
      <trkpt lat="42.44481" lon="18.6869">
        <ele>48.402563</ele>
        <time>2022-05-29T10:34:01.722Z</time>
      </trkpt>
      <trkpt lat="42.44491" lon="18.6869">
        <ele>48.299923</ele>
        <time>2022-05-29T10:34:04.712Z</time>
      </trkpt>
      <trkpt lat="42.445" lon="18.68691">
        <ele>48.199392</ele>
        <time>2022-05-29T10:34:07.740Z</time>
      </trkpt>
      <trkpt lat="42.44511" lon="18.68693">
        <ele>48.09111</ele>
        <time>2022-05-29T10:34:10.753Z</time>
      </trkpt>
      <trkpt lat="42.4452" lon="18.68694">
        <ele>47.98703</ele>
        <time>2022-05-29T10:34:13.719Z</time>
      </trkpt>
      <trkpt lat="42.44531" lon="18.68693">
        <ele>47.873847</ele>
        <time>2022-05-29T10:34:16.754Z</time>
      </trkpt>
      <trkpt lat="42.44541" lon="18.68693">
        <ele>47.765048</ele>
        <time>2022-05-29T10:34:19.725Z</time>
      </trkpt>
      <trkpt lat="42.44551" lon="18.68694">
        <ele>47.664662</ele>
        <time>2022-05-29T10:34:22.749Z</time>
      </trkpt>
      <trkpt lat="42.44561" lon="18.68696">
        <ele>47.556492</ele>
        <time>2022-05-29T10:34:25.726Z</time>
      </trkpt>
      <trkpt lat="42.44571" lon="18.68698">
        <ele>47.498248</ele>
        <time>2022-05-29T10:34:28.745Z</time>
      </trkpt>
      <trkpt lat="42.44582" lon="18.68698">
        <ele>47.623213</ele>
        <time>2022-05-29T10:34:32.740Z</time>
      </trkpt>
      <trkpt lat="42.44592" lon="18.68698">
        <ele>47.728137</ele>
        <time>2022-05-29T10:34:35.736Z</time>
      </trkpt>
      <trkpt lat="42.44601" lon="18.68699">
        <ele>47.834444</ele>
        <time>2022-05-29T10:34:38.723Z</time>
      </trkpt>
      <trkpt lat="42.44613" lon="18.68703">
        <ele>47.965941</ele>
        <time>2022-05-29T10:34:42.748Z</time>
      </trkpt>
      <trkpt lat="42.44624" lon="18.68706">
        <ele>48.095835</ele>
        <time>2022-05-29T10:34:46.739Z</time>
      </trkpt>
      <trkpt lat="42.44636" lon="18.6871">
        <ele>48.232235</ele>
        <time>2022-05-29T10:34:51.745Z</time>
      </trkpt>
      <trkpt lat="42.44648" lon="18.68705">
        <ele>48.370522</ele>
        <time>2022-05-29T10:34:54.732Z</time>
      </trkpt>
      <trkpt lat="42.4466" lon="18.68703">
        <ele>48.507727</ele>
        <time>2022-05-29T10:34:57.723Z</time>
      </trkpt>
      <trkpt lat="42.44674" lon="18.68704">
        <ele>48.661866</ele>
        <time>2022-05-29T10:35:00.772Z</time>
      </trkpt>
      <trkpt lat="42.44684" lon="18.68703">
        <ele>48.777204</ele>
        <time>2022-05-29T10:35:03.747Z</time>
      </trkpt>
      <trkpt lat="42.44695" lon="18.68699">
        <ele>48.901486</ele>
        <time>2022-05-29T10:35:06.725Z</time>
      </trkpt>
      <trkpt lat="42.44705" lon="18.68693">
        <ele>49.026943</ele>
        <time>2022-05-29T10:35:09.719Z</time>
      </trkpt>
      <trkpt lat="42.44715" lon="18.68685">
        <ele>49.155261</ele>
        <time>2022-05-29T10:35:12.729Z</time>
      </trkpt>
      <trkpt lat="42.44722" lon="18.68677">
        <ele>49.260636</ele>
        <time>2022-05-29T10:35:15.742Z</time>
      </trkpt>
      <trkpt lat="42.4473" lon="18.6867">
        <ele>49.364081</ele>
        <time>2022-05-29T10:35:18.742Z</time>
      </trkpt>
      <trkpt lat="42.44738" lon="18.68664">
        <ele>49.46617</ele>
        <time>2022-05-29T10:35:21.749Z</time>
      </trkpt>
      <trkpt lat="42.44747" lon="18.68655">
        <ele>49.400397</ele>
        <time>2022-05-29T10:35:25.719Z</time>
      </trkpt>
      <trkpt lat="42.44758" lon="18.6865">
        <ele>49.303395</ele>
        <time>2022-05-29T10:35:29.735Z</time>
      </trkpt>
      <trkpt lat="42.44767" lon="18.68648">
        <ele>49.222054</ele>
        <time>2022-05-29T10:35:32.729Z</time>
      </trkpt>
      <trkpt lat="42.44776" lon="18.6865">
        <ele>49.145749</ele>
        <time>2022-05-29T10:35:35.715Z</time>
      </trkpt>
      <trkpt lat="42.44787" lon="18.68658">
        <ele>49.04711</ele>
        <time>2022-05-29T10:35:39.713Z</time>
      </trkpt>
      <trkpt lat="42.44795" lon="18.68666">
        <ele>48.965594</ele>
        <time>2022-05-29T10:35:43.721Z</time>
      </trkpt>
      <trkpt lat="42.44801" lon="18.68677">
        <ele>48.88087</ele>
        <time>2022-05-29T10:35:48.738Z</time>
      </trkpt>
      <trkpt lat="42.44807" lon="18.68686">
        <ele>48.804814</ele>
        <time>2022-05-29T10:35:53.781Z</time>
      </trkpt>
      <trkpt lat="42.44817" lon="18.68692">
        <ele>48.711212</ele>
        <time>2022-05-29T10:35:57.720Z</time>
      </trkpt>
      <trkpt lat="42.44828" lon="18.6869">
        <ele>48.618347</ele>
        <time>2022-05-29T10:36:00.751Z</time>
      </trkpt>
      <trkpt lat="42.44839" lon="18.68688">
        <ele>48.527313</ele>
        <time>2022-05-29T10:36:04.753Z</time>
      </trkpt>
      <trkpt lat="42.4485" lon="18.68685">
        <ele>48.428073</ele>
        <time>2022-05-29T10:36:08.711Z</time>
      </trkpt>
      <trkpt lat="42.4486" lon="18.68681">
        <ele>48.343191</ele>
        <time>2022-05-29T10:36:11.724Z</time>
      </trkpt>
      <trkpt lat="42.44871" lon="18.68675">
        <ele>48.248816</ele>
        <time>2022-05-29T10:36:14.718Z</time>
      </trkpt>
      <trkpt lat="42.44881" lon="18.68668">
        <ele>48.152853</ele>
        <time>2022-05-29T10:36:17.730Z</time>
      </trkpt>
      <trkpt lat="42.44891" lon="18.68659">
        <ele>48.051201</ele>
        <time>2022-05-29T10:36:20.720Z</time>
      </trkpt>
      <trkpt lat="42.449" lon="18.6865">
        <ele>47.96964</ele>
        <time>2022-05-29T10:36:23.730Z</time>
      </trkpt>
      <trkpt lat="42.44908" lon="18.68643">
        <ele>47.935072</ele>
        <time>2022-05-29T10:36:26.717Z</time>
      </trkpt>
      <trkpt lat="42.44916" lon="18.68634">
        <ele>47.897004</ele>
        <time>2022-05-29T10:36:29.722Z</time>
      </trkpt>
      <trkpt lat="42.44923" lon="18.68626">
        <ele>47.859702</ele>
        <time>2022-05-29T10:36:32.713Z</time>
      </trkpt>
      <trkpt lat="42.44931" lon="18.68616">
        <ele>47.819512</ele>
        <time>2022-05-29T10:36:35.734Z</time>
      </trkpt>
      <trkpt lat="42.4494" lon="18.68605">
        <ele>47.773054</ele>
        <time>2022-05-29T10:36:38.746Z</time>
      </trkpt>
      <trkpt lat="42.4495" lon="18.68594">
        <ele>47.724683</ele>
        <time>2022-05-29T10:36:41.733Z</time>
      </trkpt>
      <trkpt lat="42.4496" lon="18.68583">
        <ele>47.675724</ele>
        <time>2022-05-29T10:36:44.724Z</time>
      </trkpt>
      <trkpt lat="42.44969" lon="18.68572">
        <ele>47.629367</ele>
        <time>2022-05-29T10:36:47.732Z</time>
      </trkpt>
      <trkpt lat="42.4498" lon="18.6856">
        <ele>47.577298</ele>
        <time>2022-05-29T10:36:50.727Z</time>
      </trkpt>
      <trkpt lat="42.44987" lon="18.68552">
        <ele>47.542906</ele>
        <time>2022-05-29T10:36:52.740Z</time>
      </trkpt>
      <trkpt lat="42.44995" lon="18.68544">
        <ele>47.506716</ele>
        <time>2022-05-29T10:36:54.740Z</time>
      </trkpt>
      <trkpt lat="42.45002" lon="18.68537">
        <ele>47.470887</ele>
        <time>2022-05-29T10:36:56.719Z</time>
      </trkpt>
      <trkpt lat="42.4501" lon="18.6853">
        <ele>47.435228</ele>
        <time>2022-05-29T10:36:58.761Z</time>
      </trkpt>
      <trkpt lat="42.45018" lon="18.68523">
        <ele>47.400162</ele>
        <time>2022-05-29T10:37:00.718Z</time>
      </trkpt>
      <trkpt lat="42.45027" lon="18.68517">
        <ele>47.363429</ele>
        <time>2022-05-29T10:37:02.724Z</time>
      </trkpt>
      <trkpt lat="42.45036" lon="18.68513">
        <ele>47.326022</ele>
        <time>2022-05-29T10:37:04.736Z</time>
      </trkpt>
      <trkpt lat="42.45045" lon="18.68508">
        <ele>47.341383</ele>
        <time>2022-05-29T10:37:06.728Z</time>
      </trkpt>
      <trkpt lat="42.45054" lon="18.68505">
        <ele>47.476195</ele>
        <time>2022-05-29T10:37:08.743Z</time>
      </trkpt>
      <trkpt lat="42.45064" lon="18.68504">
        <ele>47.614664</ele>
        <time>2022-05-29T10:37:10.744Z</time>
      </trkpt>
      <trkpt lat="42.45074" lon="18.68502">
        <ele>47.754128</ele>
        <time>2022-05-29T10:37:12.732Z</time>
      </trkpt>
      <trkpt lat="42.45084" lon="18.68501">
        <ele>47.900015</ele>
        <time>2022-05-29T10:37:14.723Z</time>
      </trkpt>
      <trkpt lat="42.45094" lon="18.685">
        <ele>48.047477</ele>
        <time>2022-05-29T10:37:16.740Z</time>
      </trkpt>
      <trkpt lat="42.45104" lon="18.68498">
        <ele>48.188236</ele>
        <time>2022-05-29T10:37:18.739Z</time>
      </trkpt>
      <trkpt lat="42.45114" lon="18.68497">
        <ele>48.333496</ele>
        <time>2022-05-29T10:37:20.709Z</time>
      </trkpt>
      <trkpt lat="42.45125" lon="18.68494">
        <ele>48.48483</ele>
        <time>2022-05-29T10:37:22.727Z</time>
      </trkpt>
      <trkpt lat="42.45133" lon="18.68491">
        <ele>48.614772</ele>
        <time>2022-05-29T10:37:24.776Z</time>
      </trkpt>
      <trkpt lat="42.45146" lon="18.68487">
        <ele>48.804628</ele>
        <time>2022-05-29T10:37:27.756Z</time>
      </trkpt>
      <trkpt lat="42.45155" lon="18.68483">
        <ele>48.935457</ele>
        <time>2022-05-29T10:37:29.765Z</time>
      </trkpt>
      <trkpt lat="42.45164" lon="18.68478">
        <ele>49.073004</ele>
        <time>2022-05-29T10:37:31.727Z</time>
      </trkpt>
      <trkpt lat="42.45173" lon="18.68474">
        <ele>49.210902</ele>
        <time>2022-05-29T10:37:33.787Z</time>
      </trkpt>
      <trkpt lat="42.45183" lon="18.6847">
        <ele>49.359271</ele>
        <time>2022-05-29T10:37:35.715Z</time>
      </trkpt>
      <trkpt lat="42.45193" lon="18.68466">
        <ele>49.504291</ele>
        <time>2022-05-29T10:37:37.737Z</time>
      </trkpt>
      <trkpt lat="42.45203" lon="18.68462">
        <ele>49.652519</ele>
        <time>2022-05-29T10:37:39.719Z</time>
      </trkpt>
      <trkpt lat="42.45214" lon="18.68459">
        <ele>49.81386</ele>
        <time>2022-05-29T10:37:41.735Z</time>
      </trkpt>
      <trkpt lat="42.45224" lon="18.68455">
        <ele>49.767975</ele>
        <time>2022-05-29T10:37:43.723Z</time>
      </trkpt>
      <trkpt lat="42.45234" lon="18.6845">
        <ele>49.62264</ele>
        <time>2022-05-29T10:37:45.722Z</time>
      </trkpt>
      <trkpt lat="42.45244" lon="18.68448">
        <ele>49.47685</ele>
        <time>2022-05-29T10:37:47.734Z</time>
      </trkpt>
      <trkpt lat="42.45254" lon="18.68445">
        <ele>49.329012</ele>
        <time>2022-05-29T10:37:49.731Z</time>
      </trkpt>
      <trkpt lat="42.45264" lon="18.68441">
        <ele>49.184108</ele>
        <time>2022-05-29T10:37:51.748Z</time>
      </trkpt>
      <trkpt lat="42.45274" lon="18.68438">
        <ele>49.030893</ele>
        <time>2022-05-29T10:37:53.751Z</time>
      </trkpt>
      <trkpt lat="42.45285" lon="18.68435">
        <ele>48.876034</ele>
        <time>2022-05-29T10:37:55.756Z</time>
      </trkpt>
      <trkpt lat="42.45295" lon="18.68431">
        <ele>48.721171</ele>
        <time>2022-05-29T10:37:57.761Z</time>
      </trkpt>
      <trkpt lat="42.45305" lon="18.68426">
        <ele>48.574212</ele>
        <time>2022-05-29T10:37:59.749Z</time>
      </trkpt>
      <trkpt lat="42.45315" lon="18.68423">
        <ele>48.421491</ele>
        <time>2022-05-29T10:38:01.730Z</time>
      </trkpt>
      <trkpt lat="42.45326" lon="18.6842">
        <ele>48.270162</ele>
        <time>2022-05-29T10:38:03.747Z</time>
      </trkpt>
      <trkpt lat="42.45336" lon="18.68417">
        <ele>48.116284</ele>
        <time>2022-05-29T10:38:05.724Z</time>
      </trkpt>
      <trkpt lat="42.45347" lon="18.68414">
        <ele>47.962262</ele>
        <time>2022-05-29T10:38:07.736Z</time>
      </trkpt>
      <trkpt lat="42.45357" lon="18.6841">
        <ele>47.815429</ele>
        <time>2022-05-29T10:38:09.736Z</time>
      </trkpt>
      <trkpt lat="42.45366" lon="18.68406">
        <ele>47.670465</ele>
        <time>2022-05-29T10:38:11.732Z</time>
      </trkpt>
      <trkpt lat="42.45376" lon="18.68401">
        <ele>47.52759</ele>
        <time>2022-05-29T10:38:13.747Z</time>
      </trkpt>
      <trkpt lat="42.45385" lon="18.68398">
        <ele>47.391749</ele>
        <time>2022-05-29T10:38:15.750Z</time>
      </trkpt>
      <trkpt lat="42.45394" lon="18.68393">
        <ele>47.243253</ele>
        <time>2022-05-29T10:38:17.724Z</time>
      </trkpt>
      <trkpt lat="42.45404" lon="18.68388">
        <ele>47.090497</ele>
        <time>2022-05-29T10:38:19.738Z</time>
      </trkpt>
      <trkpt lat="42.45412" lon="18.68383">
        <ele>46.941729</ele>
        <time>2022-05-29T10:38:21.736Z</time>
      </trkpt>
      <trkpt lat="42.45421" lon="18.68378">
        <ele>46.789241</ele>
        <time>2022-05-29T10:38:23.781Z</time>
      </trkpt>
      <trkpt lat="42.4543" lon="18.68371">
        <ele>46.637</ele>
        <time>2022-05-29T10:38:25.724Z</time>
      </trkpt>
      <trkpt lat="42.45439" lon="18.68364">
        <ele>46.485638</ele>
        <time>2022-05-29T10:38:27.758Z</time>
      </trkpt>
      <trkpt lat="42.45447" lon="18.68356">
        <ele>46.331793</ele>
        <time>2022-05-29T10:38:29.767Z</time>
      </trkpt>
      <trkpt lat="42.45454" lon="18.68348">
        <ele>46.181974</ele>
        <time>2022-05-29T10:38:31.745Z</time>
      </trkpt>
      <trkpt lat="42.45462" lon="18.68339">
        <ele>46.031605</ele>
        <time>2022-05-29T10:38:33.724Z</time>
      </trkpt>
      <trkpt lat="42.45469" lon="18.6833">
        <ele>45.8835</ele>
        <time>2022-05-29T10:38:35.739Z</time>
      </trkpt>
      <trkpt lat="42.45476" lon="18.68322">
        <ele>45.739961</ele>
        <time>2022-05-29T10:38:37.740Z</time>
      </trkpt>
      <trkpt lat="42.45482" lon="18.68312">
        <ele>45.590718</ele>
        <time>2022-05-29T10:38:39.729Z</time>
      </trkpt>
      <trkpt lat="42.45491" lon="18.68298">
        <ele>45.384505</ele>
        <time>2022-05-29T10:38:42.716Z</time>
      </trkpt>
      <trkpt lat="42.45496" lon="18.68287">
        <ele>45.236824</ele>
        <time>2022-05-29T10:38:44.737Z</time>
      </trkpt>
      <trkpt lat="42.45503" lon="18.68277">
        <ele>45.082322</ele>
        <time>2022-05-29T10:38:46.728Z</time>
      </trkpt>
      <trkpt lat="42.45509" lon="18.68267">
        <ele>44.930075</ele>
        <time>2022-05-29T10:38:48.735Z</time>
      </trkpt>
      <trkpt lat="42.45516" lon="18.68256">
        <ele>44.772309</ele>
        <time>2022-05-29T10:38:50.757Z</time>
      </trkpt>
      <trkpt lat="42.45523" lon="18.68245">
        <ele>44.612669</ele>
        <time>2022-05-29T10:38:52.732Z</time>
      </trkpt>
      <trkpt lat="42.4553" lon="18.68234">
        <ele>44.576416</ele>
        <time>2022-05-29T10:38:54.765Z</time>
      </trkpt>
      <trkpt lat="42.45537" lon="18.68224">
        <ele>44.652214</ele>
        <time>2022-05-29T10:38:56.742Z</time>
      </trkpt>
      <trkpt lat="42.45543" lon="18.68214">
        <ele>44.72349</ele>
        <time>2022-05-29T10:38:58.727Z</time>
      </trkpt>
      <trkpt lat="42.4555" lon="18.68205">
        <ele>44.791621</ele>
        <time>2022-05-29T10:39:00.767Z</time>
      </trkpt>
      <trkpt lat="42.45557" lon="18.68197">
        <ele>44.856786</ele>
        <time>2022-05-29T10:39:02.752Z</time>
      </trkpt>
      <trkpt lat="42.45565" lon="18.6819">
        <ele>44.92227</ele>
        <time>2022-05-29T10:39:04.758Z</time>
      </trkpt>
      <trkpt lat="42.45573" lon="18.68184">
        <ele>44.988783</ele>
        <time>2022-05-29T10:39:06.721Z</time>
      </trkpt>
      <trkpt lat="42.45582" lon="18.68179">
        <ele>45.057607</ele>
        <time>2022-05-29T10:39:08.766Z</time>
      </trkpt>
      <trkpt lat="42.45591" lon="18.68175">
        <ele>45.128798</ele>
        <time>2022-05-29T10:39:10.760Z</time>
      </trkpt>
      <trkpt lat="42.456" lon="18.68172">
        <ele>45.194051</ele>
        <time>2022-05-29T10:39:12.742Z</time>
      </trkpt>
      <trkpt lat="42.45609" lon="18.6817">
        <ele>45.261534</ele>
        <time>2022-05-29T10:39:14.742Z</time>
      </trkpt>
      <trkpt lat="42.45619" lon="18.68168">
        <ele>45.334542</ele>
        <time>2022-05-29T10:39:16.736Z</time>
      </trkpt>
      <trkpt lat="42.45629" lon="18.68168">
        <ele>45.40719</ele>
        <time>2022-05-29T10:39:18.744Z</time>
      </trkpt>
      <trkpt lat="42.45639" lon="18.68169">
        <ele>45.479226</ele>
        <time>2022-05-29T10:39:20.740Z</time>
      </trkpt>
      <trkpt lat="42.45649" lon="18.6817">
        <ele>45.549374</ele>
        <time>2022-05-29T10:39:22.750Z</time>
      </trkpt>
      <trkpt lat="42.45658" lon="18.68173">
        <ele>45.61604</ele>
        <time>2022-05-29T10:39:24.741Z</time>
      </trkpt>
      <trkpt lat="42.45668" lon="18.68175">
        <ele>45.684925</ele>
        <time>2022-05-29T10:39:26.737Z</time>
      </trkpt>
      <trkpt lat="42.45677" lon="18.68179">
        <ele>45.754887</ele>
        <time>2022-05-29T10:39:28.744Z</time>
      </trkpt>
      <trkpt lat="42.45686" lon="18.68183">
        <ele>45.823846</ele>
        <time>2022-05-29T10:39:30.744Z</time>
      </trkpt>
      <trkpt lat="42.45696" lon="18.68186">
        <ele>46.000789</ele>
        <time>2022-05-29T10:39:32.750Z</time>
      </trkpt>
      <trkpt lat="42.45706" lon="18.68189">
        <ele>46.191497</ele>
        <time>2022-05-29T10:39:34.752Z</time>
      </trkpt>
      <trkpt lat="42.45715" lon="18.68192">
        <ele>46.381899</ele>
        <time>2022-05-29T10:39:36.716Z</time>
      </trkpt>
      <trkpt lat="42.45725" lon="18.68195">
        <ele>46.563804</ele>
        <time>2022-05-29T10:39:38.767Z</time>
      </trkpt>
      <trkpt lat="42.45734" lon="18.68195">
        <ele>46.738625</ele>
        <time>2022-05-29T10:39:40.749Z</time>
      </trkpt>
      <trkpt lat="42.45747" lon="18.68193">
        <ele>46.979298</ele>
        <time>2022-05-29T10:39:43.743Z</time>
      </trkpt>
      <trkpt lat="42.45759" lon="18.68188">
        <ele>47.221966</ele>
        <time>2022-05-29T10:39:46.733Z</time>
      </trkpt>
      <trkpt lat="42.45771" lon="18.68179">
        <ele>47.476499</ele>
        <time>2022-05-29T10:39:49.752Z</time>
      </trkpt>
      <trkpt lat="42.4578" lon="18.68172">
        <ele>47.662947</ele>
        <time>2022-05-29T10:39:51.780Z</time>
      </trkpt>
      <trkpt lat="42.45788" lon="18.68164">
        <ele>47.854102</ele>
        <time>2022-05-29T10:39:53.735Z</time>
      </trkpt>
      <trkpt lat="42.45797" lon="18.68158">
        <ele>48.04129</ele>
        <time>2022-05-29T10:39:55.743Z</time>
      </trkpt>
      <trkpt lat="42.45806" lon="18.68154">
        <ele>48.219497</ele>
        <time>2022-05-29T10:39:57.732Z</time>
      </trkpt>
      <trkpt lat="42.45816" lon="18.68152">
        <ele>48.41716</ele>
        <time>2022-05-29T10:39:59.734Z</time>
      </trkpt>
      <trkpt lat="42.45828" lon="18.68153">
        <ele>48.62954</ele>
        <time>2022-05-29T10:40:01.727Z</time>
      </trkpt>
      <trkpt lat="42.45839" lon="18.68156">
        <ele>48.839869</ele>
        <time>2022-05-29T10:40:03.734Z</time>
      </trkpt>
      <trkpt lat="42.45849" lon="18.68159">
        <ele>49.045282</ele>
        <time>2022-05-29T10:40:05.742Z</time>
      </trkpt>
      <trkpt lat="42.45861" lon="18.6816">
        <ele>49.182177</ele>
        <time>2022-05-29T10:40:07.734Z</time>
      </trkpt>
      <trkpt lat="42.45872" lon="18.68162">
        <ele>49.092056</ele>
        <time>2022-05-29T10:40:09.736Z</time>
      </trkpt>
      <trkpt lat="42.45883" lon="18.68164">
        <ele>49.004851</ele>
        <time>2022-05-29T10:40:11.730Z</time>
      </trkpt>
      <trkpt lat="42.45892" lon="18.68167">
        <ele>48.929471</ele>
        <time>2022-05-29T10:40:13.721Z</time>
      </trkpt>
      <trkpt lat="42.45902" lon="18.68171">
        <ele>48.848892</ele>
        <time>2022-05-29T10:40:15.723Z</time>
      </trkpt>
      <trkpt lat="42.45912" lon="18.68175">
        <ele>48.764185</ele>
        <time>2022-05-29T10:40:17.740Z</time>
      </trkpt>
      <trkpt lat="42.45922" lon="18.6818">
        <ele>48.681345</ele>
        <time>2022-05-29T10:40:19.712Z</time>
      </trkpt>
      <trkpt lat="42.45932" lon="18.68188">
        <ele>48.58937</ele>
        <time>2022-05-29T10:40:21.756Z</time>
      </trkpt>
      <trkpt lat="42.45941" lon="18.68199">
        <ele>48.490679</ele>
        <time>2022-05-29T10:40:23.734Z</time>
      </trkpt>
      <trkpt lat="42.45951" lon="18.68209">
        <ele>48.394874</ele>
        <time>2022-05-29T10:40:25.789Z</time>
      </trkpt>
      <trkpt lat="42.45959" lon="18.68219">
        <ele>48.307687</ele>
        <time>2022-05-29T10:40:27.721Z</time>
      </trkpt>
      <trkpt lat="42.45967" lon="18.68229">
        <ele>48.221489</ele>
        <time>2022-05-29T10:40:29.744Z</time>
      </trkpt>
      <trkpt lat="42.45975" lon="18.68239">
        <ele>48.13451</ele>
        <time>2022-05-29T10:40:31.752Z</time>
      </trkpt>
      <trkpt lat="42.45985" lon="18.68249">
        <ele>48.039078</ele>
        <time>2022-05-29T10:40:33.736Z</time>
      </trkpt>
      <trkpt lat="42.45993" lon="18.68258">
        <ele>47.951442</ele>
        <time>2022-05-29T10:40:35.732Z</time>
      </trkpt>
      <trkpt lat="42.46002" lon="18.68268">
        <ele>47.859745</ele>
        <time>2022-05-29T10:40:37.773Z</time>
      </trkpt>
      <trkpt lat="42.46011" lon="18.68278">
        <ele>47.778259</ele>
        <time>2022-05-29T10:40:39.736Z</time>
      </trkpt>
      <trkpt lat="42.4602" lon="18.68289">
        <ele>47.768872</ele>
        <time>2022-05-29T10:40:41.763Z</time>
      </trkpt>
      <trkpt lat="42.46028" lon="18.68299">
        <ele>47.759437</ele>
        <time>2022-05-29T10:40:43.781Z</time>
      </trkpt>
      <trkpt lat="42.46035" lon="18.6831">
        <ele>47.750598</ele>
        <time>2022-05-29T10:40:45.739Z</time>
      </trkpt>
      <trkpt lat="42.46043" lon="18.6832">
        <ele>47.741924</ele>
        <time>2022-05-29T10:40:47.724Z</time>
      </trkpt>
      <trkpt lat="42.46051" lon="18.68329">
        <ele>47.733165</ele>
        <time>2022-05-29T10:40:49.745Z</time>
      </trkpt>
      <trkpt lat="42.46059" lon="18.68337">
        <ele>47.724728</ele>
        <time>2022-05-29T10:40:51.768Z</time>
      </trkpt>
      <trkpt lat="42.46069" lon="18.68343">
        <ele>47.716149</ele>
        <time>2022-05-29T10:40:53.747Z</time>
      </trkpt>
      <trkpt lat="42.46079" lon="18.68348">
        <ele>47.707533</ele>
        <time>2022-05-29T10:40:55.755Z</time>
      </trkpt>
      <trkpt lat="42.46088" lon="18.6835">
        <ele>47.699269</ele>
        <time>2022-05-29T10:40:57.762Z</time>
      </trkpt>
      <trkpt lat="42.46101" lon="18.68351">
        <ele>47.688534</ele>
        <time>2022-05-29T10:41:00.743Z</time>
      </trkpt>
      <trkpt lat="42.46113" lon="18.68348">
        <ele>47.678751</ele>
        <time>2022-05-29T10:41:03.734Z</time>
      </trkpt>
      <trkpt lat="42.46126" lon="18.68345">
        <ele>47.667988</ele>
        <time>2022-05-29T10:41:06.745Z</time>
      </trkpt>
      <trkpt lat="42.46138" lon="18.68339">
        <ele>47.657215</ele>
        <time>2022-05-29T10:41:09.777Z</time>
      </trkpt>
      <trkpt lat="42.4615" lon="18.68329">
        <ele>47.646103</ele>
        <time>2022-05-29T10:41:12.760Z</time>
      </trkpt>
      <trkpt lat="42.46157" lon="18.68321">
        <ele>47.638201</ele>
        <time>2022-05-29T10:41:14.731Z</time>
      </trkpt>
      <trkpt lat="42.46167" lon="18.68309">
        <ele>47.566483</ele>
        <time>2022-05-29T10:41:17.740Z</time>
      </trkpt>
      <trkpt lat="42.46175" lon="18.683">
        <ele>47.441097</ele>
        <time>2022-05-29T10:41:19.738Z</time>
      </trkpt>
      <trkpt lat="42.46183" lon="18.68292">
        <ele>47.315421</ele>
        <time>2022-05-29T10:41:21.735Z</time>
      </trkpt>
      <trkpt lat="42.46192" lon="18.68284">
        <ele>47.184213</ele>
        <time>2022-05-29T10:41:23.744Z</time>
      </trkpt>
      <trkpt lat="42.46202" lon="18.68278">
        <ele>47.055822</ele>
        <time>2022-05-29T10:41:25.745Z</time>
      </trkpt>
      <trkpt lat="42.46211" lon="18.68274">
        <ele>46.928324</ele>
        <time>2022-05-29T10:41:27.743Z</time>
      </trkpt>
      <trkpt lat="42.46222" lon="18.68272">
        <ele>46.793162</ele>
        <time>2022-05-29T10:41:29.732Z</time>
      </trkpt>
      <trkpt lat="42.46233" lon="18.68273">
        <ele>46.656368</ele>
        <time>2022-05-29T10:41:31.784Z</time>
      </trkpt>
      <trkpt lat="42.46244" lon="18.68276">
        <ele>46.52258</ele>
        <time>2022-05-29T10:41:33.722Z</time>
      </trkpt>
      <trkpt lat="42.46253" lon="18.68282">
        <ele>46.392292</ele>
        <time>2022-05-29T10:41:35.734Z</time>
      </trkpt>
      <trkpt lat="42.46261" lon="18.6829">
        <ele>46.267163</ele>
        <time>2022-05-29T10:41:37.733Z</time>
      </trkpt>
      <trkpt lat="42.46268" lon="18.68298">
        <ele>46.15001</ele>
        <time>2022-05-29T10:41:39.754Z</time>
      </trkpt>
      <trkpt lat="42.46276" lon="18.68306">
        <ele>46.0308</ele>
        <time>2022-05-29T10:41:41.738Z</time>
      </trkpt>
      <trkpt lat="42.46284" lon="18.68314">
        <ele>45.908296</ele>
        <time>2022-05-29T10:41:43.742Z</time>
      </trkpt>
      <trkpt lat="42.46292" lon="18.68321">
        <ele>45.787136</ele>
        <time>2022-05-29T10:41:45.751Z</time>
      </trkpt>
      <trkpt lat="42.46301" lon="18.68326">
        <ele>45.664783</ele>
        <time>2022-05-29T10:41:47.743Z</time>
      </trkpt>
      <trkpt lat="42.46311" lon="18.68329">
        <ele>45.540233</ele>
        <time>2022-05-29T10:41:49.753Z</time>
      </trkpt>
      <trkpt lat="42.46322" lon="18.68332">
        <ele>45.405408</ele>
        <time>2022-05-29T10:41:51.751Z</time>
      </trkpt>
      <trkpt lat="42.46333" lon="18.68334">
        <ele>45.341895</ele>
        <time>2022-05-29T10:41:53.741Z</time>
      </trkpt>
      <trkpt lat="42.46343" lon="18.68335">
        <ele>45.286538</ele>
        <time>2022-05-29T10:41:55.757Z</time>
      </trkpt>
      <trkpt lat="42.46353" lon="18.68337">
        <ele>45.233442</ele>
        <time>2022-05-29T10:41:57.762Z</time>
      </trkpt>
      <trkpt lat="42.46363" lon="18.68338">
        <ele>45.180089</ele>
        <time>2022-05-29T10:41:59.746Z</time>
      </trkpt>
      <trkpt lat="42.46373" lon="18.6834">
        <ele>45.125058</ele>
        <time>2022-05-29T10:42:01.739Z</time>
      </trkpt>
      <trkpt lat="42.46384" lon="18.68343">
        <ele>45.06782</ele>
        <time>2022-05-29T10:42:03.744Z</time>
      </trkpt>
      <trkpt lat="42.46394" lon="18.68345">
        <ele>45.011297</ele>
        <time>2022-05-29T10:42:05.731Z</time>
      </trkpt>
      <trkpt lat="42.46405" lon="18.6835">
        <ele>44.951937</ele>
        <time>2022-05-29T10:42:07.787Z</time>
      </trkpt>
      <trkpt lat="42.46415" lon="18.68357">
        <ele>44.894062</ele>
        <time>2022-05-29T10:42:09.750Z</time>
      </trkpt>
      <trkpt lat="42.46425" lon="18.68365">
        <ele>44.833559</ele>
        <time>2022-05-29T10:42:11.722Z</time>
      </trkpt>
      <trkpt lat="42.46434" lon="18.68374">
        <ele>44.774363</ele>
        <time>2022-05-29T10:42:13.732Z</time>
      </trkpt>
      <trkpt lat="42.4644" lon="18.68385">
        <ele>44.719208</ele>
        <time>2022-05-29T10:42:15.764Z</time>
      </trkpt>
      <trkpt lat="42.46446" lon="18.68395">
        <ele>44.666458</ele>
        <time>2022-05-29T10:42:17.745Z</time>
      </trkpt>
      <trkpt lat="42.46452" lon="18.68407">
        <ele>44.614774</ele>
        <time>2022-05-29T10:42:19.732Z</time>
      </trkpt>
      <trkpt lat="42.46457" lon="18.68418">
        <ele>44.563142</ele>
        <time>2022-05-29T10:42:21.742Z</time>
      </trkpt>
      <trkpt lat="42.46462" lon="18.68428">
        <ele>44.514465</ele>
        <time>2022-05-29T10:42:23.751Z</time>
      </trkpt>
      <trkpt lat="42.46468" lon="18.68439">
        <ele>44.461971</ele>
        <time>2022-05-29T10:42:25.748Z</time>
      </trkpt>
      <trkpt lat="42.46472" lon="18.6845">
        <ele>44.498683</ele>
        <time>2022-05-29T10:42:27.724Z</time>
      </trkpt>
      <trkpt lat="42.46477" lon="18.68461">
        <ele>44.584531</ele>
        <time>2022-05-29T10:42:29.724Z</time>
      </trkpt>
      <trkpt lat="42.46482" lon="18.68471">
        <ele>44.670214</ele>
        <time>2022-05-29T10:42:31.745Z</time>
      </trkpt>
      <trkpt lat="42.4649" lon="18.68486">
        <ele>44.795403</ele>
        <time>2022-05-29T10:42:34.738Z</time>
      </trkpt>
      <trkpt lat="42.46496" lon="18.68501">
        <ele>44.91144</ele>
        <time>2022-05-29T10:42:37.742Z</time>
      </trkpt>
      <trkpt lat="42.46502" lon="18.68514">
        <ele>45.022965</ele>
        <time>2022-05-29T10:42:40.733Z</time>
      </trkpt>
      <trkpt lat="42.46509" lon="18.68528">
        <ele>45.137964</ele>
        <time>2022-05-29T10:42:43.747Z</time>
      </trkpt>
      <trkpt lat="42.46517" lon="18.68542">
        <ele>45.25861</ele>
        <time>2022-05-29T10:42:46.832Z</time>
      </trkpt>
      <trkpt lat="42.46523" lon="18.68552">
        <ele>45.34804</ele>
        <time>2022-05-29T10:42:48.754Z</time>
      </trkpt>
      <trkpt lat="42.46529" lon="18.68563">
        <ele>45.438022</ele>
        <time>2022-05-29T10:42:50.754Z</time>
      </trkpt>
      <trkpt lat="42.46534" lon="18.68574">
        <ele>45.532473</ele>
        <time>2022-05-29T10:42:52.760Z</time>
      </trkpt>
      <trkpt lat="42.4654" lon="18.68586">
        <ele>45.629898</ele>
        <time>2022-05-29T10:42:54.743Z</time>
      </trkpt>
      <trkpt lat="42.46546" lon="18.68597">
        <ele>45.724879</ele>
        <time>2022-05-29T10:42:56.821Z</time>
      </trkpt>
      <trkpt lat="42.46554" lon="18.68612">
        <ele>45.849862</ele>
        <time>2022-05-29T10:42:59.783Z</time>
      </trkpt>
      <trkpt lat="42.4656" lon="18.68622">
        <ele>45.938184</ele>
        <time>2022-05-29T10:43:01.781Z</time>
      </trkpt>
      <trkpt lat="42.46566" lon="18.68632">
        <ele>46.030285</ele>
        <time>2022-05-29T10:43:03.781Z</time>
      </trkpt>
      <trkpt lat="42.46575" lon="18.68641">
        <ele>46.134057</ele>
        <time>2022-05-29T10:43:05.754Z</time>
      </trkpt>
      <trkpt lat="42.46584" lon="18.68646">
        <ele>46.218074</ele>
        <time>2022-05-29T10:43:07.744Z</time>
      </trkpt>
      <trkpt lat="42.46595" lon="18.68649">
        <ele>46.311055</ele>
        <time>2022-05-29T10:43:09.743Z</time>
      </trkpt>
      <trkpt lat="42.46605" lon="18.68649">
        <ele>46.393033</ele>
        <time>2022-05-29T10:43:11.810Z</time>
      </trkpt>
      <trkpt lat="42.46618" lon="18.68648">
        <ele>46.497383</ele>
        <time>2022-05-29T10:43:14.723Z</time>
      </trkpt>
      <trkpt lat="42.46628" lon="18.68648">
        <ele>46.582674</ele>
        <time>2022-05-29T10:43:17.739Z</time>
      </trkpt>
      <trkpt lat="42.46638" lon="18.68648">
        <ele>46.660519</ele>
        <time>2022-05-29T10:43:21.755Z</time>
      </trkpt>
      <trkpt lat="42.46647" lon="18.68646">
        <ele>46.735682</ele>
        <time>2022-05-29T10:43:25.748Z</time>
      </trkpt>
      <trkpt lat="42.46659" lon="18.68647">
        <ele>46.835966</ele>
        <time>2022-05-29T10:43:29.742Z</time>
      </trkpt>
      <trkpt lat="42.46669" lon="18.68648">
        <ele>46.922988</ele>
        <time>2022-05-29T10:43:32.740Z</time>
      </trkpt>
      <trkpt lat="42.46681" lon="18.68649">
        <ele>47.022505</ele>
        <time>2022-05-29T10:43:35.744Z</time>
      </trkpt>
      <trkpt lat="42.46694" lon="18.6865">
        <ele>47.128708</ele>
        <time>2022-05-29T10:43:38.760Z</time>
      </trkpt>
      <trkpt lat="42.46708" lon="18.68649">
        <ele>47.242156</ele>
        <time>2022-05-29T10:43:41.746Z</time>
      </trkpt>
      <trkpt lat="42.46719" lon="18.68645">
        <ele>47.33882</ele>
        <time>2022-05-29T10:43:44.737Z</time>
      </trkpt>
      <trkpt lat="42.46728" lon="18.68636">
        <ele>47.433751</ele>
        <time>2022-05-29T10:43:47.761Z</time>
      </trkpt>
      <trkpt lat="42.46737" lon="18.68629">
        <ele>47.513992</ele>
        <time>2022-05-29T10:43:49.770Z</time>
      </trkpt>
      <trkpt lat="42.46744" lon="18.6862">
        <ele>47.591402</ele>
        <time>2022-05-29T10:43:51.780Z</time>
      </trkpt>
      <trkpt lat="42.4675" lon="18.68612">
        <ele>47.517394</ele>
        <time>2022-05-29T10:43:53.724Z</time>
      </trkpt>
      <trkpt lat="42.46756" lon="18.68602">
        <ele>47.360193</ele>
        <time>2022-05-29T10:43:55.734Z</time>
      </trkpt>
      <trkpt lat="42.46763" lon="18.68591">
        <ele>47.193072</ele>
        <time>2022-05-29T10:43:57.730Z</time>
      </trkpt>
      <trkpt lat="42.46769" lon="18.68581">
        <ele>47.033891</ele>
        <time>2022-05-29T10:43:59.744Z</time>
      </trkpt>
      <trkpt lat="42.46775" lon="18.68571">
        <ele>46.879603</ele>
        <time>2022-05-29T10:44:01.730Z</time>
      </trkpt>
      <trkpt lat="42.46784" lon="18.6856">
        <ele>46.67572</ele>
        <time>2022-05-29T10:44:04.748Z</time>
      </trkpt>
      <trkpt lat="42.46795" lon="18.68554">
        <ele>46.482629</ele>
        <time>2022-05-29T10:44:07.735Z</time>
      </trkpt>
      <trkpt lat="42.46807" lon="18.68554">
        <ele>46.275644</ele>
        <time>2022-05-29T10:44:10.761Z</time>
      </trkpt>
      <trkpt lat="42.4682" lon="18.68558">
        <ele>46.067125</ele>
        <time>2022-05-29T10:44:13.762Z</time>
      </trkpt>
      <trkpt lat="42.46831" lon="18.68564">
        <ele>45.869499</ele>
        <time>2022-05-29T10:44:16.727Z</time>
      </trkpt>
      <trkpt lat="42.46843" lon="18.6857">
        <ele>45.664062</ele>
        <time>2022-05-29T10:44:19.762Z</time>
      </trkpt>
      <trkpt lat="42.46855" lon="18.68577">
        <ele>45.447255</ele>
        <time>2022-05-29T10:44:22.738Z</time>
      </trkpt>
      <trkpt lat="42.46867" lon="18.68584">
        <ele>45.231655</ele>
        <time>2022-05-29T10:44:25.759Z</time>
      </trkpt>
      <trkpt lat="42.46878" lon="18.68591">
        <ele>45.032597</ele>
        <time>2022-05-29T10:44:28.743Z</time>
      </trkpt>
      <trkpt lat="42.4689" lon="18.68598">
        <ele>44.816542</ele>
        <time>2022-05-29T10:44:31.764Z</time>
      </trkpt>
      <trkpt lat="42.46899" lon="18.686">
        <ele>44.665511</ele>
        <time>2022-05-29T10:44:33.752Z</time>
      </trkpt>
      <trkpt lat="42.46909" lon="18.68598">
        <ele>44.692955</ele>
        <time>2022-05-29T10:44:35.739Z</time>
      </trkpt>
      <trkpt lat="42.46918" lon="18.68598">
        <ele>44.720256</ele>
        <time>2022-05-29T10:44:37.744Z</time>
      </trkpt>
      <trkpt lat="42.4693" lon="18.68601">
        <ele>44.757708</ele>
        <time>2022-05-29T10:44:40.763Z</time>
      </trkpt>
      <trkpt lat="42.46941" lon="18.68607">
        <ele>44.793692</ele>
        <time>2022-05-29T10:44:43.738Z</time>
      </trkpt>
      <trkpt lat="42.46951" lon="18.68618">
        <ele>44.831488</ele>
        <time>2022-05-29T10:44:46.739Z</time>
      </trkpt>
      <trkpt lat="42.4696" lon="18.68631">
        <ele>44.870267</ele>
        <time>2022-05-29T10:44:49.736Z</time>
      </trkpt>
      <trkpt lat="42.4697" lon="18.68641">
        <ele>44.908488</ele>
        <time>2022-05-29T10:44:52.736Z</time>
      </trkpt>
      <trkpt lat="42.4698" lon="18.68649">
        <ele>44.944922</ele>
        <time>2022-05-29T10:44:55.733Z</time>
      </trkpt>
      <trkpt lat="42.46992" lon="18.68657">
        <ele>44.984326</ele>
        <time>2022-05-29T10:44:58.745Z</time>
      </trkpt>
      <trkpt lat="42.47003" lon="18.68664">
        <ele>45.02243</ele>
        <time>2022-05-29T10:45:01.751Z</time>
      </trkpt>
      <trkpt lat="42.47015" lon="18.68671">
        <ele>45.061835</ele>
        <time>2022-05-29T10:45:04.733Z</time>
      </trkpt>
      <trkpt lat="42.47028" lon="18.68677">
        <ele>45.102034</ele>
        <time>2022-05-29T10:45:07.746Z</time>
      </trkpt>
      <trkpt lat="42.47039" lon="18.68682">
        <ele>45.139626</ele>
        <time>2022-05-29T10:45:10.738Z</time>
      </trkpt>
      <trkpt lat="42.47052" lon="18.68688">
        <ele>45.178436</ele>
        <time>2022-05-29T10:45:13.727Z</time>
      </trkpt>
      <trkpt lat="42.47064" lon="18.68693">
        <ele>45.257802</ele>
        <time>2022-05-29T10:45:16.746Z</time>
      </trkpt>
      <trkpt lat="42.47077" lon="18.68694">
        <ele>45.441055</ele>
        <time>2022-05-29T10:45:19.747Z</time>
      </trkpt>
      <trkpt lat="42.4709" lon="18.68693">
        <ele>45.629595</ele>
        <time>2022-05-29T10:45:22.742Z</time>
      </trkpt>
      <trkpt lat="42.47099" lon="18.68692">
        <ele>45.760727</ele>
        <time>2022-05-29T10:45:24.756Z</time>
      </trkpt>
      <trkpt lat="42.47111" lon="18.6869">
        <ele>45.94809</ele>
        <time>2022-05-29T10:45:27.761Z</time>
      </trkpt>
      <trkpt lat="42.47125" lon="18.68688">
        <ele>46.138858</ele>
        <time>2022-05-29T10:45:30.748Z</time>
      </trkpt>
      <trkpt lat="42.47137" lon="18.68686">
        <ele>46.316245</ele>
        <time>2022-05-29T10:45:33.742Z</time>
      </trkpt>
      <trkpt lat="42.47146" lon="18.68686">
        <ele>46.446639</ele>
        <time>2022-05-29T10:45:35.747Z</time>
      </trkpt>
      <trkpt lat="42.47158" lon="18.68687">
        <ele>46.631014</ele>
        <time>2022-05-29T10:45:38.747Z</time>
      </trkpt>
      <trkpt lat="42.47171" lon="18.68686">
        <ele>46.815806</ele>
        <time>2022-05-29T10:45:41.746Z</time>
      </trkpt>
      <trkpt lat="42.4718" lon="18.68683">
        <ele>46.946134</ele>
        <time>2022-05-29T10:45:43.723Z</time>
      </trkpt>
      <trkpt lat="42.47192" lon="18.68679">
        <ele>47.127259</ele>
        <time>2022-05-29T10:45:46.732Z</time>
      </trkpt>
      <trkpt lat="42.47203" lon="18.68674">
        <ele>47.296809</ele>
        <time>2022-05-29T10:45:49.734Z</time>
      </trkpt>
      <trkpt lat="42.47216" lon="18.68669">
        <ele>47.490714</ele>
        <time>2022-05-29T10:45:52.736Z</time>
      </trkpt>
      <trkpt lat="42.47225" lon="18.68665">
        <ele>47.622792</ele>
        <time>2022-05-29T10:45:54.743Z</time>
      </trkpt>
      <trkpt lat="42.47234" lon="18.68663">
        <ele>47.762247</ele>
        <time>2022-05-29T10:45:56.746Z</time>
      </trkpt>
      <trkpt lat="42.47247" lon="18.68661">
        <ele>47.86751</ele>
        <time>2022-05-29T10:45:59.759Z</time>
      </trkpt>
      <trkpt lat="42.47257" lon="18.6866">
        <ele>47.919474</ele>
        <time>2022-05-29T10:46:01.766Z</time>
      </trkpt>
      <trkpt lat="42.47266" lon="18.68658">
        <ele>47.971663</ele>
        <time>2022-05-29T10:46:03.737Z</time>
      </trkpt>
      <trkpt lat="42.47279" lon="18.68655">
        <ele>48.04406</ele>
        <time>2022-05-29T10:46:06.728Z</time>
      </trkpt>
      <trkpt lat="42.47292" lon="18.6865">
        <ele>48.117211</ele>
        <time>2022-05-29T10:46:09.739Z</time>
      </trkpt>
      <trkpt lat="42.47301" lon="18.68647">
        <ele>48.167608</ele>
        <time>2022-05-29T10:46:11.748Z</time>
      </trkpt>
      <trkpt lat="42.47314" lon="18.68648">
        <ele>48.242889</ele>
        <time>2022-05-29T10:46:14.756Z</time>
      </trkpt>
      <trkpt lat="42.47323" lon="18.68651">
        <ele>48.294417</ele>
        <time>2022-05-29T10:46:16.751Z</time>
      </trkpt>
      <trkpt lat="42.47335" lon="18.68657">
        <ele>48.362156</ele>
        <time>2022-05-29T10:46:19.741Z</time>
      </trkpt>
      <trkpt lat="42.47344" lon="18.68665">
        <ele>48.421685</ele>
        <time>2022-05-29T10:46:22.750Z</time>
      </trkpt>
      <trkpt lat="42.47351" lon="18.68674">
        <ele>48.477777</ele>
        <time>2022-05-29T10:46:25.739Z</time>
      </trkpt>
      <trkpt lat="42.47359" lon="18.68681">
        <ele>48.530006</ele>
        <time>2022-05-29T10:46:28.738Z</time>
      </trkpt>
      <trkpt lat="42.47367" lon="18.68687">
        <ele>48.580977</ele>
        <time>2022-05-29T10:46:31.753Z</time>
      </trkpt>
      <trkpt lat="42.47375" lon="18.68694">
        <ele>48.63263</ele>
        <time>2022-05-29T10:46:34.725Z</time>
      </trkpt>
      <trkpt lat="42.47385" lon="18.68701">
        <ele>48.695648</ele>
        <time>2022-05-29T10:46:38.752Z</time>
      </trkpt>
      <trkpt lat="42.47393" lon="18.68708">
        <ele>48.749031</ele>
        <time>2022-05-29T10:46:41.755Z</time>
      </trkpt>
      <trkpt lat="42.47401" lon="18.68715">
        <ele>48.799629</ele>
        <time>2022-05-29T10:46:44.768Z</time>
      </trkpt>
      <trkpt lat="42.47409" lon="18.68724">
        <ele>49.047343</ele>
        <time>2022-05-29T10:46:48.740Z</time>
      </trkpt>
      <trkpt lat="42.47418" lon="18.68734">
        <ele>49.322646</ele>
        <time>2022-05-29T10:46:52.749Z</time>
      </trkpt>
      <trkpt lat="42.47425" lon="18.68744">
        <ele>49.582933</ele>
        <time>2022-05-29T10:46:56.735Z</time>
      </trkpt>
      <trkpt lat="42.47433" lon="18.68754">
        <ele>49.850115</ele>
        <time>2022-05-29T10:47:00.741Z</time>
      </trkpt>
      <trkpt lat="42.4744" lon="18.68764">
        <ele>50.102156</ele>
        <time>2022-05-29T10:47:04.732Z</time>
      </trkpt>
      <trkpt lat="42.47448" lon="18.68773">
        <ele>50.367629</ele>
        <time>2022-05-29T10:47:08.745Z</time>
      </trkpt>
      <trkpt lat="42.47456" lon="18.68778">
        <ele>50.598125</ele>
        <time>2022-05-29T10:47:11.737Z</time>
      </trkpt>
      <trkpt lat="42.47464" lon="18.68785">
        <ele>50.826008</ele>
        <time>2022-05-29T10:47:14.729Z</time>
      </trkpt>
      <trkpt lat="42.47473" lon="18.68794">
        <ele>51.113427</ele>
        <time>2022-05-29T10:47:18.727Z</time>
      </trkpt>
      <trkpt lat="42.47478" lon="18.68808">
        <ele>51.400838</ele>
        <time>2022-05-29T10:47:22.748Z</time>
      </trkpt>
      <trkpt lat="42.47481" lon="18.68822">
        <ele>51.679296</ele>
        <time>2022-05-29T10:47:26.729Z</time>
      </trkpt>
      <trkpt lat="42.47483" lon="18.68837">
        <ele>51.955845</ele>
        <time>2022-05-29T10:47:30.739Z</time>
      </trkpt>
      <trkpt lat="42.47487" lon="18.68852">
        <ele>52.250537</ele>
        <time>2022-05-29T10:47:34.736Z</time>
      </trkpt>
      <trkpt lat="42.47496" lon="18.6886">
        <ele>52.529198</ele>
        <time>2022-05-29T10:47:37.771Z</time>
      </trkpt>
      <trkpt lat="42.47505" lon="18.68868">
        <ele>52.790222</ele>
        <time>2022-05-29T10:47:40.734Z</time>
      </trkpt>
      <trkpt lat="42.47514" lon="18.68874">
        <ele>53.043847</ele>
        <time>2022-05-29T10:47:43.751Z</time>
      </trkpt>
      <trkpt lat="42.47522" lon="18.6888">
        <ele>53.28325</ele>
        <time>2022-05-29T10:47:46.737Z</time>
      </trkpt>
      <trkpt lat="42.47531" lon="18.68887">
        <ele>53.329111</ele>
        <time>2022-05-29T10:47:49.742Z</time>
      </trkpt>
      <trkpt lat="42.47541" lon="18.68894">
        <ele>53.332191</ele>
        <time>2022-05-29T10:47:52.735Z</time>
      </trkpt>
      <trkpt lat="42.4755" lon="18.689">
        <ele>53.334992</ele>
        <time>2022-05-29T10:47:55.744Z</time>
      </trkpt>
      <trkpt lat="42.47559" lon="18.68906">
        <ele>53.337735</ele>
        <time>2022-05-29T10:47:58.757Z</time>
      </trkpt>
      <trkpt lat="42.47569" lon="18.68913">
        <ele>53.340992</ele>
        <time>2022-05-29T10:48:02.750Z</time>
      </trkpt>
      <trkpt lat="42.47578" lon="18.68922">
        <ele>53.344141</ele>
        <time>2022-05-29T10:48:06.764Z</time>
      </trkpt>
      <trkpt lat="42.47586" lon="18.6893">
        <ele>53.346907</ele>
        <time>2022-05-29T10:48:10.757Z</time>
      </trkpt>
      <trkpt lat="42.47596" lon="18.68937">
        <ele>53.35003</ele>
        <time>2022-05-29T10:48:14.752Z</time>
      </trkpt>
      <trkpt lat="42.47606" lon="18.68944">
        <ele>53.353278</ele>
        <time>2022-05-29T10:48:18.730Z</time>
      </trkpt>
      <trkpt lat="42.47615" lon="18.68951">
        <ele>53.356122</ele>
        <time>2022-05-29T10:48:22.732Z</time>
      </trkpt>
      <trkpt lat="42.47623" lon="18.68958">
        <ele>53.358877</ele>
        <time>2022-05-29T10:48:26.732Z</time>
      </trkpt>
      <trkpt lat="42.47633" lon="18.68964">
        <ele>53.361958</ele>
        <time>2022-05-29T10:48:31.735Z</time>
      </trkpt>
      <trkpt lat="42.47642" lon="18.68971">
        <ele>53.364778</ele>
        <time>2022-05-29T10:48:36.724Z</time>
      </trkpt>
      <trkpt lat="42.47651" lon="18.68977">
        <ele>53.367574</ele>
        <time>2022-05-29T10:48:40.735Z</time>
      </trkpt>
      <trkpt lat="42.4766" lon="18.68983">
        <ele>53.370443</ele>
        <time>2022-05-29T10:48:44.740Z</time>
      </trkpt>
      <trkpt lat="42.47669" lon="18.68988">
        <ele>53.373116</ele>
        <time>2022-05-29T10:48:48.735Z</time>
      </trkpt>
      <trkpt lat="42.47678" lon="18.68992">
        <ele>53.375723</ele>
        <time>2022-05-29T10:48:52.740Z</time>
      </trkpt>
      <trkpt lat="42.47689" lon="18.68996">
        <ele>53.462212</ele>
        <time>2022-05-29T10:48:56.738Z</time>
      </trkpt>
      <trkpt lat="42.47699" lon="18.69003">
        <ele>53.615061</ele>
        <time>2022-05-29T10:49:00.723Z</time>
      </trkpt>
      <trkpt lat="42.47708" lon="18.69012">
        <ele>53.768988</ele>
        <time>2022-05-29T10:49:04.741Z</time>
      </trkpt>
      <trkpt lat="42.47716" lon="18.69019">
        <ele>53.890575</ele>
        <time>2022-05-29T10:49:07.738Z</time>
      </trkpt>
      <trkpt lat="42.47723" lon="18.69027">
        <ele>54.018553</ele>
        <time>2022-05-29T10:49:12.770Z</time>
      </trkpt>
      <trkpt lat="42.47725" lon="18.69041">
        <ele>54.160133</ele>
        <time>2022-05-29T10:49:20.750Z</time>
      </trkpt>
      <trkpt lat="42.47724" lon="18.69055">
        <ele>54.303025</ele>
        <time>2022-05-29T10:49:24.754Z</time>
      </trkpt>
      <trkpt lat="42.47724" lon="18.69069">
        <ele>54.439509</ele>
        <time>2022-05-29T10:49:27.740Z</time>
      </trkpt>
      <trkpt lat="42.47722" lon="18.69084">
        <ele>54.591587</ele>
        <time>2022-05-29T10:49:30.734Z</time>
      </trkpt>
      <trkpt lat="42.4772" lon="18.691">
        <ele>54.758731</ele>
        <time>2022-05-29T10:49:33.751Z</time>
      </trkpt>
      <trkpt lat="42.47717" lon="18.69119">
        <ele>54.946396</ele>
        <time>2022-05-29T10:49:36.754Z</time>
      </trkpt>
      <trkpt lat="42.47716" lon="18.69134">
        <ele>55.097025</ele>
        <time>2022-05-29T10:49:38.742Z</time>
      </trkpt>
      <trkpt lat="42.47714" lon="18.69149">
        <ele>55.251455</ele>
        <time>2022-05-29T10:49:40.759Z</time>
      </trkpt>
      <trkpt lat="42.47712" lon="18.69165">
        <ele>55.407103</ele>
        <time>2022-05-29T10:49:42.730Z</time>
      </trkpt>
      <trkpt lat="42.47709" lon="18.69181">
        <ele>55.569568</ele>
        <time>2022-05-29T10:49:44.744Z</time>
      </trkpt>
      <trkpt lat="42.47705" lon="18.69197">
        <ele>55.736385</ele>
        <time>2022-05-29T10:49:46.741Z</time>
      </trkpt>
      <trkpt lat="42.47702" lon="18.69212">
        <ele>55.928093</ele>
        <time>2022-05-29T10:49:48.735Z</time>
      </trkpt>
      <trkpt lat="42.47699" lon="18.69228">
        <ele>56.146232</ele>
        <time>2022-05-29T10:49:50.733Z</time>
      </trkpt>
      <trkpt lat="42.47696" lon="18.69243">
        <ele>56.359467</ele>
        <time>2022-05-29T10:49:52.737Z</time>
      </trkpt>
      <trkpt lat="42.47692" lon="18.69256">
        <ele>56.552924</ele>
        <time>2022-05-29T10:49:54.760Z</time>
      </trkpt>
      <trkpt lat="42.47689" lon="18.69269">
        <ele>56.73313</ele>
        <time>2022-05-29T10:49:56.743Z</time>
      </trkpt>
      <trkpt lat="42.47684" lon="18.69285">
        <ele>56.967769</ele>
        <time>2022-05-29T10:49:59.740Z</time>
      </trkpt>
      <trkpt lat="42.47681" lon="18.69296">
        <ele>57.130838</ele>
        <time>2022-05-29T10:50:01.721Z</time>
      </trkpt>
      <trkpt lat="42.47676" lon="18.69313">
        <ele>57.369744</ele>
        <time>2022-05-29T10:50:04.776Z</time>
      </trkpt>
      <trkpt lat="42.47672" lon="18.69328">
        <ele>57.592245</ele>
        <time>2022-05-29T10:50:07.751Z</time>
      </trkpt>
      <trkpt lat="42.47668" lon="18.69344">
        <ele>57.806605</ele>
        <time>2022-05-29T10:50:10.731Z</time>
      </trkpt>
      <trkpt lat="42.47664" lon="18.69359">
        <ele>58.021487</ele>
        <time>2022-05-29T10:50:13.734Z</time>
      </trkpt>
      <trkpt lat="42.47661" lon="18.69372">
        <ele>58.213055</ele>
        <time>2022-05-29T10:50:16.740Z</time>
      </trkpt>
      <trkpt lat="42.47656" lon="18.69386">
        <ele>58.422268</ele>
        <time>2022-05-29T10:50:20.734Z</time>
      </trkpt>
      <trkpt lat="42.47651" lon="18.694">
        <ele>58.636879</ele>
        <time>2022-05-29T10:50:24.752Z</time>
      </trkpt>
      <trkpt lat="42.47649" lon="18.69415">
        <ele>58.837082</ele>
        <time>2022-05-29T10:50:28.752Z</time>
      </trkpt>
      <trkpt lat="42.47646" lon="18.69429">
        <ele>59.033802</ele>
        <time>2022-05-29T10:50:32.747Z</time>
      </trkpt>
      <trkpt lat="42.47642" lon="18.69444">
        <ele>59.002089</ele>
        <time>2022-05-29T10:50:36.740Z</time>
      </trkpt>
      <trkpt lat="42.47638" lon="18.69456">
        <ele>58.909395</ele>
        <time>2022-05-29T10:50:39.736Z</time>
      </trkpt>
      <trkpt lat="42.47634" lon="18.69468">
        <ele>58.820602</ele>
        <time>2022-05-29T10:50:42.734Z</time>
      </trkpt>
      <trkpt lat="42.4763" lon="18.69481">
        <ele>58.728454</ele>
        <time>2022-05-29T10:50:45.725Z</time>
      </trkpt>
      <trkpt lat="42.47627" lon="18.69492">
        <ele>58.642121</ele>
        <time>2022-05-29T10:50:48.727Z</time>
      </trkpt>
      <trkpt lat="42.47621" lon="18.69506">
        <ele>58.53351</ele>
        <time>2022-05-29T10:50:52.776Z</time>
      </trkpt>
      <trkpt lat="42.47617" lon="18.69519">
        <ele>58.440942</ele>
        <time>2022-05-29T10:50:55.746Z</time>
      </trkpt>
      <trkpt lat="42.47612" lon="18.69534">
        <ele>58.323038</ele>
        <time>2022-05-29T10:50:58.783Z</time>
      </trkpt>
      <trkpt lat="42.47607" lon="18.6955">
        <ele>58.205115</ele>
        <time>2022-05-29T10:51:01.743Z</time>
      </trkpt>
      <trkpt lat="42.47603" lon="18.69566">
        <ele>58.085271</ele>
        <time>2022-05-29T10:51:04.766Z</time>
      </trkpt>
      <trkpt lat="42.47597" lon="18.69582">
        <ele>57.970213</ele>
        <time>2022-05-29T10:51:07.742Z</time>
      </trkpt>
      <trkpt lat="42.47593" lon="18.69595">
        <ele>57.869107</ele>
        <time>2022-05-29T10:51:10.742Z</time>
      </trkpt>
      <trkpt lat="42.4759" lon="18.6961">
        <ele>57.762934</ele>
        <time>2022-05-29T10:51:13.731Z</time>
      </trkpt>
      <trkpt lat="42.47585" lon="18.69626">
        <ele>57.641163</ele>
        <time>2022-05-29T10:51:16.742Z</time>
      </trkpt>
      <trkpt lat="42.47582" lon="18.69639">
        <ele>57.548354</ele>
        <time>2022-05-29T10:51:18.728Z</time>
      </trkpt>
      <trkpt lat="42.47579" lon="18.69653">
        <ele>57.453439</ele>
        <time>2022-05-29T10:51:20.752Z</time>
      </trkpt>
      <trkpt lat="42.47576" lon="18.69668">
        <ele>57.061977</ele>
        <time>2022-05-29T10:51:22.741Z</time>
      </trkpt>
      <trkpt lat="42.47575" lon="18.69683">
        <ele>56.505473</ele>
        <time>2022-05-29T10:51:24.760Z</time>
      </trkpt>
      <trkpt lat="42.47574" lon="18.69697">
        <ele>55.974305</ele>
        <time>2022-05-29T10:51:26.732Z</time>
      </trkpt>
      <trkpt lat="42.47572" lon="18.69712">
        <ele>55.413254</ele>
        <time>2022-05-29T10:51:28.745Z</time>
      </trkpt>
      <trkpt lat="42.47571" lon="18.69727">
        <ele>54.848696</ele>
        <time>2022-05-29T10:51:30.726Z</time>
      </trkpt>
      <trkpt lat="42.47573" lon="18.69743">
        <ele>54.279919</ele>
        <time>2022-05-29T10:51:32.762Z</time>
      </trkpt>
      <trkpt lat="42.47574" lon="18.69758">
        <ele>53.705737</ele>
        <time>2022-05-29T10:51:34.737Z</time>
      </trkpt>
      <trkpt lat="42.47574" lon="18.69775">
        <ele>53.083382</ele>
        <time>2022-05-29T10:51:36.724Z</time>
      </trkpt>
      <trkpt lat="42.47572" lon="18.69791">
        <ele>52.496378</ele>
        <time>2022-05-29T10:51:38.749Z</time>
      </trkpt>
      <trkpt lat="42.47569" lon="18.69806">
        <ele>51.901717</ele>
        <time>2022-05-29T10:51:40.740Z</time>
      </trkpt>
      <trkpt lat="42.47564" lon="18.69822">
        <ele>51.284397</ele>
        <time>2022-05-29T10:51:42.735Z</time>
      </trkpt>
      <trkpt lat="42.47558" lon="18.69836">
        <ele>50.669986</ele>
        <time>2022-05-29T10:51:44.741Z</time>
      </trkpt>
      <trkpt lat="42.47551" lon="18.69848">
        <ele>50.088238</ele>
        <time>2022-05-29T10:51:46.751Z</time>
      </trkpt>
      <trkpt lat="42.47543" lon="18.69859">
        <ele>49.551985</ele>
        <time>2022-05-29T10:51:48.731Z</time>
      </trkpt>
      <trkpt lat="42.47535" lon="18.69868">
        <ele>49.043239</ele>
        <time>2022-05-29T10:51:50.756Z</time>
      </trkpt>
      <trkpt lat="42.47527" lon="18.69877">
        <ele>48.514431</ele>
        <time>2022-05-29T10:51:52.751Z</time>
      </trkpt>
      <trkpt lat="42.47519" lon="18.69886">
        <ele>48.501782</ele>
        <time>2022-05-29T10:51:54.731Z</time>
      </trkpt>
      <trkpt lat="42.47511" lon="18.69896">
        <ele>48.577194</ele>
        <time>2022-05-29T10:51:56.729Z</time>
      </trkpt>
      <trkpt lat="42.47504" lon="18.69906">
        <ele>48.649831</ele>
        <time>2022-05-29T10:51:58.761Z</time>
      </trkpt>
      <trkpt lat="42.47501" lon="18.69918">
        <ele>48.715612</ele>
        <time>2022-05-29T10:52:00.716Z</time>
      </trkpt>
      <trkpt lat="42.47498" lon="18.69934">
        <ele>48.802179</ele>
        <time>2022-05-29T10:52:03.730Z</time>
      </trkpt>
      <trkpt lat="42.47494" lon="18.69951">
        <ele>48.895681</ele>
        <time>2022-05-29T10:52:06.717Z</time>
      </trkpt>
      <trkpt lat="42.47487" lon="18.69965">
        <ele>48.982563</ele>
        <time>2022-05-29T10:52:09.717Z</time>
      </trkpt>
      <trkpt lat="42.47481" lon="18.69978">
        <ele>49.066123</ele>
        <time>2022-05-29T10:52:12.733Z</time>
      </trkpt>
      <trkpt lat="42.47475" lon="18.69992">
        <ele>49.14913</ele>
        <time>2022-05-29T10:52:15.723Z</time>
      </trkpt>
      <trkpt lat="42.4747" lon="18.70005">
        <ele>49.2252</ele>
        <time>2022-05-29T10:52:18.719Z</time>
      </trkpt>
      <trkpt lat="42.47469" lon="18.70018">
        <ele>49.294848</ele>
        <time>2022-05-29T10:52:21.719Z</time>
      </trkpt>
      <trkpt lat="42.4747" lon="18.70031">
        <ele>49.36458</ele>
        <time>2022-05-29T10:52:24.729Z</time>
      </trkpt>
      <trkpt lat="42.47471" lon="18.70045">
        <ele>49.437739</ele>
        <time>2022-05-29T10:52:27.718Z</time>
      </trkpt>
      <trkpt lat="42.47473" lon="18.7006">
        <ele>49.515127</ele>
        <time>2022-05-29T10:52:30.719Z</time>
      </trkpt>
      <trkpt lat="42.47475" lon="18.70074">
        <ele>49.593554</ele>
        <time>2022-05-29T10:52:33.720Z</time>
      </trkpt>
      <trkpt lat="42.47471" lon="18.7009">
        <ele>49.679419</ele>
        <time>2022-05-29T10:52:36.744Z</time>
      </trkpt>
      <trkpt lat="42.47466" lon="18.70104">
        <ele>49.708494</ele>
        <time>2022-05-29T10:52:39.718Z</time>
      </trkpt>
      <trkpt lat="42.47459" lon="18.70117">
        <ele>49.698363</ele>
        <time>2022-05-29T10:52:42.723Z</time>
      </trkpt>
      <trkpt lat="42.47452" lon="18.70128">
        <ele>49.68944</ele>
        <time>2022-05-29T10:52:45.743Z</time>
      </trkpt>
      <trkpt lat="42.47445" lon="18.7014">
        <ele>49.680456</ele>
        <time>2022-05-29T10:52:48.731Z</time>
      </trkpt>
      <trkpt lat="42.47438" lon="18.70151">
        <ele>49.671012</ele>
        <time>2022-05-29T10:52:51.732Z</time>
      </trkpt>
      <trkpt lat="42.47429" lon="18.7016">
        <ele>49.661342</ele>
        <time>2022-05-29T10:52:54.740Z</time>
      </trkpt>
      <trkpt lat="42.47419" lon="18.70168">
        <ele>49.652061</ele>
        <time>2022-05-29T10:52:57.769Z</time>
      </trkpt>
      <trkpt lat="42.47409" lon="18.70176">
        <ele>49.642255</ele>
        <time>2022-05-29T10:53:00.716Z</time>
      </trkpt>
      <trkpt lat="42.47398" lon="18.70182">
        <ele>49.632162</ele>
        <time>2022-05-29T10:53:03.755Z</time>
      </trkpt>
      <trkpt lat="42.47388" lon="18.70189">
        <ele>49.622854</ele>
        <time>2022-05-29T10:53:06.727Z</time>
      </trkpt>
      <trkpt lat="42.47379" lon="18.70195">
        <ele>49.614235</ele>
        <time>2022-05-29T10:53:09.732Z</time>
      </trkpt>
      <trkpt lat="42.4737" lon="18.70205">
        <ele>49.605112</ele>
        <time>2022-05-29T10:53:12.731Z</time>
      </trkpt>
      <trkpt lat="42.47362" lon="18.70218">
        <ele>49.594202</ele>
        <time>2022-05-29T10:53:15.717Z</time>
      </trkpt>
      <trkpt lat="42.47355" lon="18.70232">
        <ele>49.583714</ele>
        <time>2022-05-29T10:53:18.716Z</time>
      </trkpt>
      <trkpt lat="42.47351" lon="18.70247">
        <ele>49.574076</ele>
        <time>2022-05-29T10:53:21.756Z</time>
      </trkpt>
      <trkpt lat="42.47348" lon="18.70263">
        <ele>49.564252</ele>
        <time>2022-05-29T10:53:24.732Z</time>
      </trkpt>
      <trkpt lat="42.47348" lon="18.70277">
        <ele>49.419814</ele>
        <time>2022-05-29T10:53:27.762Z</time>
      </trkpt>
      <trkpt lat="42.47346" lon="18.70291">
        <ele>49.280649</ele>
        <time>2022-05-29T10:53:30.736Z</time>
      </trkpt>
      <trkpt lat="42.47344" lon="18.70306">
        <ele>49.125385</ele>
        <time>2022-05-29T10:53:33.728Z</time>
      </trkpt>
      <trkpt lat="42.47341" lon="18.70322">
        <ele>48.955706</ele>
        <time>2022-05-29T10:53:36.753Z</time>
      </trkpt>
      <trkpt lat="42.47338" lon="18.70337">
        <ele>48.792051</ele>
        <time>2022-05-29T10:53:39.723Z</time>
      </trkpt>
      <trkpt lat="42.47334" lon="18.70352">
        <ele>48.625152</ele>
        <time>2022-05-29T10:53:42.730Z</time>
      </trkpt>
      <trkpt lat="42.47328" lon="18.70367">
        <ele>48.449766</ele>
        <time>2022-05-29T10:53:45.756Z</time>
      </trkpt>
      <trkpt lat="42.47321" lon="18.70382">
        <ele>48.266924</ele>
        <time>2022-05-29T10:53:48.724Z</time>
      </trkpt>
      <trkpt lat="42.47314" lon="18.70398">
        <ele>48.080554</ele>
        <time>2022-05-29T10:53:51.728Z</time>
      </trkpt>
      <trkpt lat="42.47307" lon="18.70414">
        <ele>47.897575</ele>
        <time>2022-05-29T10:53:54.739Z</time>
      </trkpt>
      <trkpt lat="42.473" lon="18.70428">
        <ele>47.716012</ele>
        <time>2022-05-29T10:53:57.736Z</time>
      </trkpt>
      <trkpt lat="42.47291" lon="18.7044">
        <ele>47.545414</ele>
        <time>2022-05-29T10:54:00.729Z</time>
      </trkpt>
      <trkpt lat="42.47281" lon="18.70449">
        <ele>47.371573</ele>
        <time>2022-05-29T10:54:03.742Z</time>
      </trkpt>
      <trkpt lat="42.47272" lon="18.70453">
        <ele>47.246152</ele>
        <time>2022-05-29T10:54:05.734Z</time>
      </trkpt>
      <trkpt lat="42.47263" lon="18.70457">
        <ele>47.106368</ele>
        <time>2022-05-29T10:54:07.743Z</time>
      </trkpt>
      <trkpt lat="42.47253" lon="18.70459">
        <ele>47.149422</ele>
        <time>2022-05-29T10:54:09.729Z</time>
      </trkpt>
      <trkpt lat="42.4724" lon="18.70463">
        <ele>47.313639</ele>
        <time>2022-05-29T10:54:12.758Z</time>
      </trkpt>
      <trkpt lat="42.47229" lon="18.70472">
        <ele>47.470288</ele>
        <time>2022-05-29T10:54:15.743Z</time>
      </trkpt>
      <trkpt lat="42.47219" lon="18.70483">
        <ele>47.635078</ele>
        <time>2022-05-29T10:54:18.754Z</time>
      </trkpt>
      <trkpt lat="42.47211" lon="18.70497">
        <ele>47.795715</ele>
        <time>2022-05-29T10:54:21.739Z</time>
      </trkpt>
      <trkpt lat="42.47205" lon="18.70512">
        <ele>47.956717</ele>
        <time>2022-05-29T10:54:24.731Z</time>
      </trkpt>
      <trkpt lat="42.47201" lon="18.70529">
        <ele>48.117624</ele>
        <time>2022-05-29T10:54:27.732Z</time>
      </trkpt>
      <trkpt lat="42.47199" lon="18.70546">
        <ele>48.279406</ele>
        <time>2022-05-29T10:54:30.723Z</time>
      </trkpt>
      <trkpt lat="42.47196" lon="18.70563">
        <ele>48.439784</ele>
        <time>2022-05-29T10:54:33.738Z</time>
      </trkpt>
      <trkpt lat="42.4719" lon="18.70579">
        <ele>48.602142</ele>
        <time>2022-05-29T10:54:36.762Z</time>
      </trkpt>
      <trkpt lat="42.47183" lon="18.70594">
        <ele>48.762984</ele>
        <time>2022-05-29T10:54:39.742Z</time>
      </trkpt>
      <trkpt lat="42.47177" lon="18.70608">
        <ele>48.917509</ele>
        <time>2022-05-29T10:54:42.731Z</time>
      </trkpt>
      <trkpt lat="42.47174" lon="18.70624">
        <ele>49.062558</ele>
        <time>2022-05-29T10:54:45.742Z</time>
      </trkpt>
      <trkpt lat="42.47173" lon="18.70638">
        <ele>49.197126</ele>
        <time>2022-05-29T10:54:48.744Z</time>
      </trkpt>
      <trkpt lat="42.47174" lon="18.70656">
        <ele>49.323355</ele>
        <time>2022-05-29T10:54:51.733Z</time>
      </trkpt>
      <trkpt lat="42.47175" lon="18.70668">
        <ele>49.357994</ele>
        <time>2022-05-29T10:54:53.748Z</time>
      </trkpt>
      <trkpt lat="42.47178" lon="18.7068">
        <ele>49.392616</ele>
        <time>2022-05-29T10:54:55.752Z</time>
      </trkpt>
      <trkpt lat="42.47183" lon="18.70696">
        <ele>49.443318</ele>
        <time>2022-05-29T10:54:58.739Z</time>
      </trkpt>
      <trkpt lat="42.47188" lon="18.70712">
        <ele>49.492423</ele>
        <time>2022-05-29T10:55:01.739Z</time>
      </trkpt>
      <trkpt lat="42.47194" lon="18.70728">
        <ele>49.541762</ele>
        <time>2022-05-29T10:55:04.728Z</time>
      </trkpt>
      <trkpt lat="42.472" lon="18.70743">
        <ele>49.589785</ele>
        <time>2022-05-29T10:55:07.742Z</time>
      </trkpt>
      <trkpt lat="42.47206" lon="18.70758">
        <ele>49.637102</ele>
        <time>2022-05-29T10:55:10.742Z</time>
      </trkpt>
      <trkpt lat="42.47209" lon="18.70774">
        <ele>49.682685</ele>
        <time>2022-05-29T10:55:13.737Z</time>
      </trkpt>
      <trkpt lat="42.47214" lon="18.70789">
        <ele>49.729163</ele>
        <time>2022-05-29T10:55:16.735Z</time>
      </trkpt>
      <trkpt lat="42.47218" lon="18.70806">
        <ele>49.77973</ele>
        <time>2022-05-29T10:55:19.742Z</time>
      </trkpt>
      <trkpt lat="42.47224" lon="18.70822">
        <ele>49.828994</ele>
        <time>2022-05-29T10:55:22.738Z</time>
      </trkpt>
      <trkpt lat="42.47229" lon="18.70837">
        <ele>49.877148</ele>
        <time>2022-05-29T10:55:25.758Z</time>
      </trkpt>
      <trkpt lat="42.47236" lon="18.70852">
        <ele>49.925063</ele>
        <time>2022-05-29T10:55:28.732Z</time>
      </trkpt>
      <trkpt lat="42.47242" lon="18.70866">
        <ele>49.972182</ele>
        <time>2022-05-29T10:55:31.756Z</time>
      </trkpt>
      <trkpt lat="42.47249" lon="18.7088">
        <ele>49.864635</ele>
        <time>2022-05-29T10:55:34.737Z</time>
      </trkpt>
      <trkpt lat="42.47257" lon="18.70895">
        <ele>49.619542</ele>
        <time>2022-05-29T10:55:37.745Z</time>
      </trkpt>
      <trkpt lat="42.47264" lon="18.70909">
        <ele>49.3904</ele>
        <time>2022-05-29T10:55:40.744Z</time>
      </trkpt>
      <trkpt lat="42.4727" lon="18.70925">
        <ele>49.156157</ele>
        <time>2022-05-29T10:55:43.735Z</time>
      </trkpt>
      <trkpt lat="42.47274" lon="18.70941">
        <ele>48.921546</ele>
        <time>2022-05-29T10:55:46.743Z</time>
      </trkpt>
      <trkpt lat="42.47274" lon="18.70959">
        <ele>48.689171</ele>
        <time>2022-05-29T10:55:49.736Z</time>
      </trkpt>
      <trkpt lat="42.47271" lon="18.70975">
        <ele>48.468757</ele>
        <time>2022-05-29T10:55:52.733Z</time>
      </trkpt>
      <trkpt lat="42.47267" lon="18.7099">
        <ele>48.247574</ele>
        <time>2022-05-29T10:55:55.742Z</time>
      </trkpt>
      <trkpt lat="42.47263" lon="18.71005">
        <ele>48.045221</ele>
        <time>2022-05-29T10:55:58.724Z</time>
      </trkpt>
      <trkpt lat="42.47259" lon="18.71018">
        <ele>47.848644</ele>
        <time>2022-05-29T10:56:01.737Z</time>
      </trkpt>
      <trkpt lat="42.47255" lon="18.71031">
        <ele>47.666335</ele>
        <time>2022-05-29T10:56:04.750Z</time>
      </trkpt>
      <trkpt lat="42.4725" lon="18.71043">
        <ele>47.472212</ele>
        <time>2022-05-29T10:56:07.748Z</time>
      </trkpt>
      <trkpt lat="42.47246" lon="18.71057">
        <ele>47.273005</ele>
        <time>2022-05-29T10:56:10.732Z</time>
      </trkpt>
      <trkpt lat="42.47243" lon="18.71072">
        <ele>47.07199</ele>
        <time>2022-05-29T10:56:13.741Z</time>
      </trkpt>
      <trkpt lat="42.47242" lon="18.71088">
        <ele>46.853883</ele>
        <time>2022-05-29T10:56:16.758Z</time>
      </trkpt>
      <trkpt lat="42.47241" lon="18.71105">
        <ele>46.789094</ele>
        <time>2022-05-29T10:56:19.739Z</time>
      </trkpt>
      <trkpt lat="42.47238" lon="18.71122">
        <ele>46.891993</ele>
        <time>2022-05-29T10:56:22.731Z</time>
      </trkpt>
      <trkpt lat="42.47235" lon="18.7114">
        <ele>46.998727</ele>
        <time>2022-05-29T10:56:25.765Z</time>
      </trkpt>
      <trkpt lat="42.47235" lon="18.71156">
        <ele>47.09795</ele>
        <time>2022-05-29T10:56:28.744Z</time>
      </trkpt>
      <trkpt lat="42.47235" lon="18.71172">
        <ele>47.190629</ele>
        <time>2022-05-29T10:56:31.736Z</time>
      </trkpt>
      <trkpt lat="42.47236" lon="18.71187">
        <ele>47.283216</ele>
        <time>2022-05-29T10:56:34.748Z</time>
      </trkpt>
      <trkpt lat="42.47237" lon="18.71204">
        <ele>47.384245</ele>
        <time>2022-05-29T10:56:37.737Z</time>
      </trkpt>
      <trkpt lat="42.4724" lon="18.71222">
        <ele>47.490296</ele>
        <time>2022-05-29T10:56:40.747Z</time>
      </trkpt>
      <trkpt lat="42.47243" lon="18.71238">
        <ele>47.588619</ele>
        <time>2022-05-29T10:56:43.753Z</time>
      </trkpt>
      <trkpt lat="42.47246" lon="18.71254">
        <ele>47.685384</ele>
        <time>2022-05-29T10:56:46.732Z</time>
      </trkpt>
      <trkpt lat="42.47249" lon="18.71269">
        <ele>47.781341</ele>
        <time>2022-05-29T10:56:49.750Z</time>
      </trkpt>
      <trkpt lat="42.4725" lon="18.71283">
        <ele>47.863399</ele>
        <time>2022-05-29T10:56:52.718Z</time>
      </trkpt>
      <trkpt lat="42.47247" lon="18.713">
        <ele>47.966224</ele>
        <time>2022-05-29T10:56:55.753Z</time>
      </trkpt>
      <trkpt lat="42.47245" lon="18.71312">
        <ele>48.039297</ele>
        <time>2022-05-29T10:56:57.742Z</time>
      </trkpt>
      <trkpt lat="42.47241" lon="18.71323">
        <ele>48.112338</ele>
        <time>2022-05-29T10:56:59.764Z</time>
      </trkpt>
      <trkpt lat="42.47236" lon="18.71335">
        <ele>48.189726</ele>
        <time>2022-05-29T10:57:01.742Z</time>
      </trkpt>
      <trkpt lat="42.47232" lon="18.71347">
        <ele>48.229812</ele>
        <time>2022-05-29T10:57:03.741Z</time>
      </trkpt>
      <trkpt lat="42.47229" lon="18.71359">
        <ele>48.268245</ele>
        <time>2022-05-29T10:57:05.738Z</time>
      </trkpt>
      <trkpt lat="42.4723" lon="18.71375">
        <ele>48.319185</ele>
        <time>2022-05-29T10:57:08.732Z</time>
      </trkpt>
      <trkpt lat="42.47231" lon="18.71392">
        <ele>48.369759</ele>
        <time>2022-05-29T10:57:11.735Z</time>
      </trkpt>
      <trkpt lat="42.47231" lon="18.71408">
        <ele>48.417474</ele>
        <time>2022-05-29T10:57:14.739Z</time>
      </trkpt>
      <trkpt lat="42.47226" lon="18.71423">
        <ele>48.469142</ele>
        <time>2022-05-29T10:57:17.749Z</time>
      </trkpt>
      <trkpt lat="42.47221" lon="18.71439">
        <ele>48.52312</ele>
        <time>2022-05-29T10:57:20.730Z</time>
      </trkpt>
      <trkpt lat="42.47212" lon="18.71452">
        <ele>48.575017</ele>
        <time>2022-05-29T10:57:23.776Z</time>
      </trkpt>
      <trkpt lat="42.47202" lon="18.71458">
        <ele>48.62087</ele>
        <time>2022-05-29T10:57:26.731Z</time>
      </trkpt>
      <trkpt lat="42.47191" lon="18.71468">
        <ele>48.675273</ele>
        <time>2022-05-29T10:57:29.732Z</time>
      </trkpt>
      <trkpt lat="42.47181" lon="18.71478">
        <ele>48.729529</ele>
        <time>2022-05-29T10:57:32.760Z</time>
      </trkpt>
      <trkpt lat="42.4717" lon="18.71489">
        <ele>48.783996</ele>
        <time>2022-05-29T10:57:35.737Z</time>
      </trkpt>
      <trkpt lat="42.4716" lon="18.71498">
        <ele>48.835836</ele>
        <time>2022-05-29T10:57:38.730Z</time>
      </trkpt>
      <trkpt lat="42.47148" lon="18.71506">
        <ele>48.891421</ele>
        <time>2022-05-29T10:57:41.744Z</time>
      </trkpt>
      <trkpt lat="42.47139" lon="18.71511">
        <ele>48.931711</ele>
        <time>2022-05-29T10:57:43.778Z</time>
      </trkpt>
      <trkpt lat="42.47127" lon="18.71517">
        <ele>48.95175</ele>
        <time>2022-05-29T10:57:46.741Z</time>
      </trkpt>
      <trkpt lat="42.47117" lon="18.71525">
        <ele>48.970053</ele>
        <time>2022-05-29T10:57:49.742Z</time>
      </trkpt>
      <trkpt lat="42.47107" lon="18.71532">
        <ele>48.987939</ele>
        <time>2022-05-29T10:57:52.733Z</time>
      </trkpt>
      <trkpt lat="42.47097" lon="18.71541">
        <ele>49.007016</ele>
        <time>2022-05-29T10:57:55.741Z</time>
      </trkpt>
      <trkpt lat="42.47087" lon="18.71552">
        <ele>49.026768</ele>
        <time>2022-05-29T10:57:58.749Z</time>
      </trkpt>
      <trkpt lat="42.47078" lon="18.71562">
        <ele>49.046101</ele>
        <time>2022-05-29T10:58:01.732Z</time>
      </trkpt>
      <trkpt lat="42.47068" lon="18.71572">
        <ele>49.065386</ele>
        <time>2022-05-29T10:58:04.752Z</time>
      </trkpt>
      <trkpt lat="42.4706" lon="18.71579">
        <ele>49.08032</ele>
        <time>2022-05-29T10:58:06.740Z</time>
      </trkpt>
      <trkpt lat="42.47052" lon="18.71588">
        <ele>49.096599</ele>
        <time>2022-05-29T10:58:08.741Z</time>
      </trkpt>
      <trkpt lat="42.47046" lon="18.71597">
        <ele>49.111951</ele>
        <time>2022-05-29T10:58:10.745Z</time>
      </trkpt>
      <trkpt lat="42.47039" lon="18.71607">
        <ele>49.126984</ele>
        <time>2022-05-29T10:58:12.743Z</time>
      </trkpt>
      <trkpt lat="42.47034" lon="18.71618">
        <ele>49.14228</ele>
        <time>2022-05-29T10:58:14.730Z</time>
      </trkpt>
      <trkpt lat="42.47029" lon="18.7163">
        <ele>49.158313</ele>
        <time>2022-05-29T10:58:16.719Z</time>
      </trkpt>
      <trkpt lat="42.47025" lon="18.71641">
        <ele>49.17371</ele>
        <time>2022-05-29T10:58:18.751Z</time>
      </trkpt>
      <trkpt lat="42.4702" lon="18.71653">
        <ele>49.189106</ele>
        <time>2022-05-29T10:58:20.740Z</time>
      </trkpt>
      <trkpt lat="42.47016" lon="18.71664">
        <ele>49.20394</ele>
        <time>2022-05-29T10:58:22.746Z</time>
      </trkpt>
      <trkpt lat="42.47012" lon="18.71676">
        <ele>49.207856</ele>
        <time>2022-05-29T10:58:24.746Z</time>
      </trkpt>
      <trkpt lat="42.47008" lon="18.71687">
        <ele>49.074853</ele>
        <time>2022-05-29T10:58:26.745Z</time>
      </trkpt>
      <trkpt lat="42.47004" lon="18.71704">
        <ele>48.889573</ele>
        <time>2022-05-29T10:58:29.743Z</time>
      </trkpt>
      <trkpt lat="42.46999" lon="18.71721">
        <ele>48.702471</ele>
        <time>2022-05-29T10:58:32.745Z</time>
      </trkpt>
      <trkpt lat="42.46998" lon="18.71734">
        <ele>48.568231</ele>
        <time>2022-05-29T10:58:34.740Z</time>
      </trkpt>
      <trkpt lat="42.46996" lon="18.71746">
        <ele>48.440106</ele>
        <time>2022-05-29T10:58:36.757Z</time>
      </trkpt>
      <trkpt lat="42.46995" lon="18.71759">
        <ele>48.305876</ele>
        <time>2022-05-29T10:58:38.750Z</time>
      </trkpt>
      <trkpt lat="42.46996" lon="18.71776">
        <ele>48.130446</ele>
        <time>2022-05-29T10:58:41.728Z</time>
      </trkpt>
      <trkpt lat="42.46997" lon="18.71794">
        <ele>47.944485</ele>
        <time>2022-05-29T10:58:44.733Z</time>
      </trkpt>
      <trkpt lat="42.46998" lon="18.71812">
        <ele>47.759047</ele>
        <time>2022-05-29T10:58:47.744Z</time>
      </trkpt>
      <trkpt lat="42.47002" lon="18.71828">
        <ele>47.57958</ele>
        <time>2022-05-29T10:58:50.740Z</time>
      </trkpt>
      <trkpt lat="42.47006" lon="18.71846">
        <ele>47.393315</ele>
        <time>2022-05-29T10:58:53.769Z</time>
      </trkpt>
      <trkpt lat="42.4701" lon="18.71863">
        <ele>47.206721</ele>
        <time>2022-05-29T10:58:56.760Z</time>
      </trkpt>
      <trkpt lat="42.47012" lon="18.71875">
        <ele>47.077548</ele>
        <time>2022-05-29T10:58:58.737Z</time>
      </trkpt>
      <trkpt lat="42.47014" lon="18.71893">
        <ele>46.891791</ele>
        <time>2022-05-29T10:59:01.728Z</time>
      </trkpt>
      <trkpt lat="42.47014" lon="18.71905">
        <ele>46.75996</ele>
        <time>2022-05-29T10:59:03.739Z</time>
      </trkpt>
      <trkpt lat="42.47014" lon="18.71918">
        <ele>46.760453</ele>
        <time>2022-05-29T10:59:05.760Z</time>
      </trkpt>
      <trkpt lat="42.47015" lon="18.7193">
        <ele>46.897231</ele>
        <time>2022-05-29T10:59:07.787Z</time>
      </trkpt>
      <trkpt lat="42.47015" lon="18.71943">
        <ele>47.036452</ele>
        <time>2022-05-29T10:59:09.729Z</time>
      </trkpt>
      <trkpt lat="42.47015" lon="18.7196">
        <ele>47.230955</ele>
        <time>2022-05-29T10:59:12.739Z</time>
      </trkpt>
      <trkpt lat="42.47012" lon="18.71977">
        <ele>47.42127</ele>
        <time>2022-05-29T10:59:15.734Z</time>
      </trkpt>
      <trkpt lat="42.47009" lon="18.71992">
        <ele>47.599504</ele>
        <time>2022-05-29T10:59:18.750Z</time>
      </trkpt>
      <trkpt lat="42.47006" lon="18.72008">
        <ele>47.774116</ele>
        <time>2022-05-29T10:59:21.733Z</time>
      </trkpt>
      <trkpt lat="42.47002" lon="18.72023">
        <ele>47.957184</ele>
        <time>2022-05-29T10:59:24.730Z</time>
      </trkpt>
      <trkpt lat="42.46997" lon="18.72038">
        <ele>48.142692</ele>
        <time>2022-05-29T10:59:27.751Z</time>
      </trkpt>
      <trkpt lat="42.46988" lon="18.72052">
        <ele>48.345863</ele>
        <time>2022-05-29T10:59:30.724Z</time>
      </trkpt>
      <trkpt lat="42.46982" lon="18.72062">
        <ele>48.484569</ele>
        <time>2022-05-29T10:59:32.749Z</time>
      </trkpt>
      <trkpt lat="42.46977" lon="18.72073">
        <ele>48.625892</ele>
        <time>2022-05-29T10:59:34.738Z</time>
      </trkpt>
      <trkpt lat="42.46972" lon="18.72083">
        <ele>48.769233</ele>
        <time>2022-05-29T10:59:36.739Z</time>
      </trkpt>
      <trkpt lat="42.46966" lon="18.72094">
        <ele>48.915048</ele>
        <time>2022-05-29T10:59:38.738Z</time>
      </trkpt>
      <trkpt lat="42.46959" lon="18.72109">
        <ele>49.113767</ele>
        <time>2022-05-29T10:59:41.786Z</time>
      </trkpt>
      <trkpt lat="42.46951" lon="18.72124">
        <ele>49.312485</ele>
        <time>2022-05-29T10:59:44.757Z</time>
      </trkpt>
      <trkpt lat="42.46944" lon="18.72138">
        <ele>49.503012</ele>
        <time>2022-05-29T10:59:47.738Z</time>
      </trkpt>
      <trkpt lat="42.46937" lon="18.72152">
        <ele>49.687015</ele>
        <time>2022-05-29T10:59:50.738Z</time>
      </trkpt>
      <trkpt lat="42.46931" lon="18.72167">
        <ele>49.875659</ele>
        <time>2022-05-29T10:59:53.746Z</time>
      </trkpt>
      <trkpt lat="42.46926" lon="18.72178">
        <ele>50.010366</ele>
        <time>2022-05-29T10:59:55.748Z</time>
      </trkpt>
      <trkpt lat="42.46921" lon="18.72188">
        <ele>50.149703</ele>
        <time>2022-05-29T10:59:57.733Z</time>
      </trkpt>
      <trkpt lat="42.46914" lon="18.72199">
        <ele>50.303206</ele>
        <time>2022-05-29T10:59:59.768Z</time>
      </trkpt>
      <trkpt lat="42.46908" lon="18.7221">
        <ele>50.452593</ele>
        <time>2022-05-29T11:00:01.744Z</time>
      </trkpt>
      <trkpt lat="42.46903" lon="18.72221">
        <ele>50.59613</ele>
        <time>2022-05-29T11:00:03.760Z</time>
      </trkpt>
      <trkpt lat="42.46898" lon="18.72236">
        <ele>50.78021</ele>
        <time>2022-05-29T11:00:06.732Z</time>
      </trkpt>
      <trkpt lat="42.46895" lon="18.72252">
        <ele>50.95406</ele>
        <time>2022-05-29T11:00:09.736Z</time>
      </trkpt>
      <trkpt lat="42.46893" lon="18.72267">
        <ele>51.126499</ele>
        <time>2022-05-29T11:00:12.725Z</time>
      </trkpt>
      <trkpt lat="42.4689" lon="18.72282">
        <ele>51.299313</ele>
        <time>2022-05-29T11:00:15.719Z</time>
      </trkpt>
      <trkpt lat="42.46887" lon="18.72297">
        <ele>51.456946</ele>
        <time>2022-05-29T11:00:18.738Z</time>
      </trkpt>
      <trkpt lat="42.46884" lon="18.72309">
        <ele>51.59629</ele>
        <time>2022-05-29T11:00:21.761Z</time>
      </trkpt>
      <trkpt lat="42.46882" lon="18.72323">
        <ele>51.751792</ele>
        <time>2022-05-29T11:00:25.762Z</time>
      </trkpt>
      <trkpt lat="42.46881" lon="18.72337">
        <ele>51.912692</ele>
        <time>2022-05-29T11:00:29.739Z</time>
      </trkpt>
      <trkpt lat="42.46883" lon="18.72352">
        <ele>52.073258</ele>
        <time>2022-05-29T11:00:34.730Z</time>
      </trkpt>
      <trkpt lat="42.46883" lon="18.72366">
        <ele>52.208424</ele>
        <time>2022-05-29T11:00:38.734Z</time>
      </trkpt>
      <trkpt lat="42.46881" lon="18.72378">
        <ele>52.324039</ele>
        <time>2022-05-29T11:00:41.745Z</time>
      </trkpt>
      <trkpt lat="42.46879" lon="18.72391">
        <ele>52.441316</ele>
        <time>2022-05-29T11:00:44.737Z</time>
      </trkpt>
      <trkpt lat="42.46877" lon="18.72406">
        <ele>52.588084</ele>
        <time>2022-05-29T11:00:48.775Z</time>
      </trkpt>
      <trkpt lat="42.46874" lon="18.72421">
        <ele>52.733519</ele>
        <time>2022-05-29T11:00:52.735Z</time>
      </trkpt>
      <trkpt lat="42.46871" lon="18.72435">
        <ele>52.872454</ele>
        <time>2022-05-29T11:00:56.736Z</time>
      </trkpt>
      <trkpt lat="42.46868" lon="18.7245">
        <ele>53.01144</ele>
        <time>2022-05-29T11:01:00.757Z</time>
      </trkpt>
      <trkpt lat="42.46864" lon="18.72463">
        <ele>53.151734</ele>
        <time>2022-05-29T11:01:04.738Z</time>
      </trkpt>
      <trkpt lat="42.4686" lon="18.72475">
        <ele>53.276482</ele>
        <time>2022-05-29T11:01:08.734Z</time>
      </trkpt>
      <trkpt lat="42.46857" lon="18.72488">
        <ele>53.398013</ele>
        <time>2022-05-29T11:01:12.746Z</time>
      </trkpt>
      <trkpt lat="42.46854" lon="18.72502">
        <ele>53.540952</ele>
        <time>2022-05-29T11:01:16.740Z</time>
      </trkpt>
      <trkpt lat="42.46852" lon="18.72515">
        <ele>53.663815</ele>
        <time>2022-05-29T11:01:19.737Z</time>
      </trkpt>
      <trkpt lat="42.46849" lon="18.72529">
        <ele>53.797216</ele>
        <time>2022-05-29T11:01:22.754Z</time>
      </trkpt>
      <trkpt lat="42.46843" lon="18.72543">
        <ele>53.951117</ele>
        <time>2022-05-29T11:01:25.749Z</time>
      </trkpt>
      <trkpt lat="42.46838" lon="18.72555">
        <ele>54.073004</ele>
        <time>2022-05-29T11:01:27.743Z</time>
      </trkpt>
      <trkpt lat="42.46832" lon="18.72566">
        <ele>54.202724</ele>
        <time>2022-05-29T11:01:29.750Z</time>
      </trkpt>
      <trkpt lat="42.46826" lon="18.72576">
        <ele>54.331824</ele>
        <time>2022-05-29T11:01:31.756Z</time>
      </trkpt>
      <trkpt lat="42.46819" lon="18.72588">
        <ele>54.09704</ele>
        <time>2022-05-29T11:01:33.757Z</time>
      </trkpt>
      <trkpt lat="42.46811" lon="18.72599">
        <ele>53.825666</ele>
        <time>2022-05-29T11:01:35.721Z</time>
      </trkpt>
      <trkpt lat="42.46802" lon="18.7261">
        <ele>53.521506</ele>
        <time>2022-05-29T11:01:37.733Z</time>
      </trkpt>
      <trkpt lat="42.46793" lon="18.72622">
        <ele>53.207562</ele>
        <time>2022-05-29T11:01:39.748Z</time>
      </trkpt>
      <trkpt lat="42.46784" lon="18.72635">
        <ele>52.870299</ele>
        <time>2022-05-29T11:01:41.740Z</time>
      </trkpt>
      <trkpt lat="42.46773" lon="18.72649">
        <ele>52.500502</ele>
        <time>2022-05-29T11:01:43.756Z</time>
      </trkpt>
      <trkpt lat="42.46762" lon="18.72662">
        <ele>52.129291</ele>
        <time>2022-05-29T11:01:45.743Z</time>
      </trkpt>
      <trkpt lat="42.46751" lon="18.72674">
        <ele>51.777906</ele>
        <time>2022-05-29T11:01:47.771Z</time>
      </trkpt>
      <trkpt lat="42.46741" lon="18.72687">
        <ele>51.430338</ele>
        <time>2022-05-29T11:01:49.748Z</time>
      </trkpt>
      <trkpt lat="42.46731" lon="18.72699">
        <ele>51.099236</ele>
        <time>2022-05-29T11:01:51.736Z</time>
      </trkpt>
      <trkpt lat="42.46723" lon="18.72713">
        <ele>50.767456</ele>
        <time>2022-05-29T11:01:53.754Z</time>
      </trkpt>
      <trkpt lat="42.46714" lon="18.72727">
        <ele>50.435801</ele>
        <time>2022-05-29T11:01:55.771Z</time>
      </trkpt>
      <trkpt lat="42.46707" lon="18.72741">
        <ele>50.119099</ele>
        <time>2022-05-29T11:01:57.741Z</time>
      </trkpt>
      <trkpt lat="42.46701" lon="18.72754">
        <ele>49.837288</ele>
        <time>2022-05-29T11:01:59.763Z</time>
      </trkpt>
      <trkpt lat="42.46695" lon="18.72766">
        <ele>49.737049</ele>
        <time>2022-05-29T11:02:01.753Z</time>
      </trkpt>
      <trkpt lat="42.46689" lon="18.72776">
        <ele>49.649275</ele>
        <time>2022-05-29T11:02:03.740Z</time>
      </trkpt>
      <trkpt lat="42.46681" lon="18.7279">
        <ele>49.523202</ele>
        <time>2022-05-29T11:02:06.742Z</time>
      </trkpt>
      <trkpt lat="42.46674" lon="18.72803">
        <ele>49.407291</ele>
        <time>2022-05-29T11:02:09.743Z</time>
      </trkpt>
      <trkpt lat="42.46667" lon="18.72818">
        <ele>49.287675</ele>
        <time>2022-05-29T11:02:12.759Z</time>
      </trkpt>
      <trkpt lat="42.4666" lon="18.72833">
        <ele>49.162682</ele>
        <time>2022-05-29T11:02:15.744Z</time>
      </trkpt>
      <trkpt lat="42.46654" lon="18.72848">
        <ele>49.042864</ele>
        <time>2022-05-29T11:02:18.780Z</time>
      </trkpt>
      <trkpt lat="42.46647" lon="18.72863">
        <ele>48.921128</ele>
        <time>2022-05-29T11:02:21.736Z</time>
      </trkpt>
      <trkpt lat="42.46641" lon="18.72878">
        <ele>48.799989</ele>
        <time>2022-05-29T11:02:24.746Z</time>
      </trkpt>
      <trkpt lat="42.46635" lon="18.72892">
        <ele>48.687398</ele>
        <time>2022-05-29T11:02:27.788Z</time>
      </trkpt>
      <trkpt lat="42.46629" lon="18.72907">
        <ele>48.565267</ele>
        <time>2022-05-29T11:02:30.740Z</time>
      </trkpt>
      <trkpt lat="42.46625" lon="18.72923">
        <ele>48.448123</ele>
        <time>2022-05-29T11:02:33.737Z</time>
      </trkpt>
      <trkpt lat="42.46622" lon="18.72939">
        <ele>48.331044</ele>
        <time>2022-05-29T11:02:36.742Z</time>
      </trkpt>
      <trkpt lat="42.46617" lon="18.72955">
        <ele>48.21352</ele>
        <time>2022-05-29T11:02:39.749Z</time>
      </trkpt>
      <trkpt lat="42.46613" lon="18.72969">
        <ele>48.126343</ele>
        <time>2022-05-29T11:02:42.732Z</time>
      </trkpt>
      <trkpt lat="42.46609" lon="18.72983">
        <ele>48.083841</ele>
        <time>2022-05-29T11:02:45.750Z</time>
      </trkpt>
      <trkpt lat="42.46604" lon="18.72998">
        <ele>48.040636</ele>
        <time>2022-05-29T11:02:48.743Z</time>
      </trkpt>
      <trkpt lat="42.46599" lon="18.73013">
        <ele>47.994027</ele>
        <time>2022-05-29T11:02:51.752Z</time>
      </trkpt>
      <trkpt lat="42.46595" lon="18.73024">
        <ele>47.958196</ele>
        <time>2022-05-29T11:02:53.743Z</time>
      </trkpt>
      <trkpt lat="42.4659" lon="18.73035">
        <ele>47.922917</ele>
        <time>2022-05-29T11:02:55.742Z</time>
      </trkpt>
      <trkpt lat="42.46585" lon="18.73046">
        <ele>47.88728</ele>
        <time>2022-05-29T11:02:57.755Z</time>
      </trkpt>
      <trkpt lat="42.4658" lon="18.73057">
        <ele>47.852548</ele>
        <time>2022-05-29T11:02:59.739Z</time>
      </trkpt>
      <trkpt lat="42.46573" lon="18.73071">
        <ele>47.80309</ele>
        <time>2022-05-29T11:03:02.739Z</time>
      </trkpt>
      <trkpt lat="42.46565" lon="18.73085">
        <ele>47.7559</ele>
        <time>2022-05-29T11:03:05.751Z</time>
      </trkpt>
      <trkpt lat="42.46558" lon="18.73098">
        <ele>47.710237</ele>
        <time>2022-05-29T11:03:08.767Z</time>
      </trkpt>
      <trkpt lat="42.46551" lon="18.7311">
        <ele>47.666843</ele>
        <time>2022-05-29T11:03:11.752Z</time>
      </trkpt>
      <trkpt lat="42.46544" lon="18.73125">
        <ele>47.618497</ele>
        <time>2022-05-29T11:03:14.736Z</time>
      </trkpt>
      <trkpt lat="42.46539" lon="18.73141">
        <ele>47.569838</ele>
        <time>2022-05-29T11:03:17.715Z</time>
      </trkpt>
      <trkpt lat="42.46536" lon="18.73158">
        <ele>47.522552</ele>
        <time>2022-05-29T11:03:20.728Z</time>
      </trkpt>
      <trkpt lat="42.46532" lon="18.73172">
        <ele>47.480962</ele>
        <time>2022-05-29T11:03:23.767Z</time>
      </trkpt>
      <trkpt lat="42.46529" lon="18.73187">
        <ele>47.701145</ele>
        <time>2022-05-29T11:03:26.761Z</time>
      </trkpt>
      <trkpt lat="42.46526" lon="18.73198">
        <ele>48.060645</ele>
        <time>2022-05-29T11:03:28.738Z</time>
      </trkpt>
      <trkpt lat="42.46524" lon="18.73211">
        <ele>48.428231</ele>
        <time>2022-05-29T11:03:30.753Z</time>
      </trkpt>
      <trkpt lat="42.46524" lon="18.73227">
        <ele>48.915799</ele>
        <time>2022-05-29T11:03:33.731Z</time>
      </trkpt>
      <trkpt lat="42.46525" lon="18.73244">
        <ele>49.394398</ele>
        <time>2022-05-29T11:03:36.735Z</time>
      </trkpt>
      <trkpt lat="42.46525" lon="18.73256">
        <ele>49.768136</ele>
        <time>2022-05-29T11:03:40.756Z</time>
      </trkpt>
      <trkpt lat="42.46522" lon="18.7327">
        <ele>50.181398</ele>
        <time>2022-05-29T11:03:45.734Z</time>
      </trkpt>
      <trkpt lat="42.46522" lon="18.73284">
        <ele>50.579372</ele>
        <time>2022-05-29T11:03:49.760Z</time>
      </trkpt>
      <trkpt lat="42.46519" lon="18.73296">
        <ele>50.966789</ele>
        <time>2022-05-29T11:03:53.727Z</time>
      </trkpt>
      <trkpt lat="42.46517" lon="18.7331">
        <ele>51.377337</ele>
        <time>2022-05-29T11:03:57.736Z</time>
      </trkpt>
      <trkpt lat="42.46516" lon="18.73327">
        <ele>51.857358</ele>
        <time>2022-05-29T11:04:01.756Z</time>
      </trkpt>
      <trkpt lat="42.46513" lon="18.73341">
        <ele>52.297538</ele>
        <time>2022-05-29T11:04:05.743Z</time>
      </trkpt>
      <trkpt lat="42.46508" lon="18.73355">
        <ele>52.742683</ele>
        <time>2022-05-29T11:04:09.763Z</time>
      </trkpt>
      <trkpt lat="42.46504" lon="18.7337">
        <ele>53.19327</ele>
        <time>2022-05-29T11:04:13.729Z</time>
      </trkpt>
      <trkpt lat="42.46499" lon="18.73384">
        <ele>53.669178</ele>
        <time>2022-05-29T11:04:17.750Z</time>
      </trkpt>
      <trkpt lat="42.46492" lon="18.73396">
        <ele>54.099251</ele>
        <time>2022-05-29T11:04:20.742Z</time>
      </trkpt>
      <trkpt lat="42.46484" lon="18.7341">
        <ele>54.517735</ele>
        <time>2022-05-29T11:04:23.738Z</time>
      </trkpt>
      <trkpt lat="42.46478" lon="18.73421">
        <ele>54.025231</ele>
        <time>2022-05-29T11:04:25.740Z</time>
      </trkpt>
      <trkpt lat="42.46471" lon="18.73432">
        <ele>53.503894</ele>
        <time>2022-05-29T11:04:27.752Z</time>
      </trkpt>
      <trkpt lat="42.46464" lon="18.73444">
        <ele>52.958206</ele>
        <time>2022-05-29T11:04:29.756Z</time>
      </trkpt>
      <trkpt lat="42.46456" lon="18.73457">
        <ele>52.372634</ele>
        <time>2022-05-29T11:04:31.750Z</time>
      </trkpt>
      <trkpt lat="42.46448" lon="18.7347">
        <ele>51.741798</ele>
        <time>2022-05-29T11:04:33.740Z</time>
      </trkpt>
      <trkpt lat="42.46439" lon="18.73483">
        <ele>51.103746</ele>
        <time>2022-05-29T11:04:35.734Z</time>
      </trkpt>
      <trkpt lat="42.46429" lon="18.73495">
        <ele>50.452976</ele>
        <time>2022-05-29T11:04:37.728Z</time>
      </trkpt>
      <trkpt lat="42.4642" lon="18.73508">
        <ele>49.819139</ele>
        <time>2022-05-29T11:04:39.743Z</time>
      </trkpt>
      <trkpt lat="42.4641" lon="18.73518">
        <ele>49.223644</ele>
        <time>2022-05-29T11:04:41.739Z</time>
      </trkpt>
      <trkpt lat="42.46401" lon="18.73527">
        <ele>48.693527</ele>
        <time>2022-05-29T11:04:43.769Z</time>
      </trkpt>
      <trkpt lat="42.46392" lon="18.73535">
        <ele>48.157384</ele>
        <time>2022-05-29T11:04:45.762Z</time>
      </trkpt>
      <trkpt lat="42.46383" lon="18.73545">
        <ele>47.614387</ele>
        <time>2022-05-29T11:04:47.742Z</time>
      </trkpt>
      <trkpt lat="42.46375" lon="18.73555">
        <ele>47.075656</ele>
        <time>2022-05-29T11:04:49.732Z</time>
      </trkpt>
      <trkpt lat="42.46367" lon="18.73564">
        <ele>46.560674</ele>
        <time>2022-05-29T11:04:51.741Z</time>
      </trkpt>
      <trkpt lat="42.46359" lon="18.73573">
        <ele>46.066048</ele>
        <time>2022-05-29T11:04:53.739Z</time>
      </trkpt>
      <trkpt lat="42.4635" lon="18.73586">
        <ele>45.877242</ele>
        <time>2022-05-29T11:04:56.746Z</time>
      </trkpt>
      <trkpt lat="42.46344" lon="18.73599">
        <ele>45.910331</ele>
        <time>2022-05-29T11:04:59.740Z</time>
      </trkpt>
      <trkpt lat="42.46338" lon="18.73613">
        <ele>45.942395</ele>
        <time>2022-05-29T11:05:02.757Z</time>
      </trkpt>
      <trkpt lat="42.46333" lon="18.73625">
        <ele>45.971653</ele>
        <time>2022-05-29T11:05:06.732Z</time>
      </trkpt>
      <trkpt lat="42.46324" lon="18.73637">
        <ele>46.007617</ele>
        <time>2022-05-29T11:05:09.731Z</time>
      </trkpt>
      <trkpt lat="42.46319" lon="18.73647">
        <ele>46.03283</ele>
        <time>2022-05-29T11:05:11.779Z</time>
      </trkpt>
      <trkpt lat="42.46309" lon="18.73658">
        <ele>46.068271</ele>
        <time>2022-05-29T11:05:14.740Z</time>
      </trkpt>
      <trkpt lat="42.46299" lon="18.73668">
        <ele>46.102353</ele>
        <time>2022-05-29T11:05:17.722Z</time>
      </trkpt>
      <trkpt lat="42.4629" lon="18.73675">
        <ele>46.133629</ele>
        <time>2022-05-29T11:05:20.764Z</time>
      </trkpt>
      <trkpt lat="42.46279" lon="18.73683">
        <ele>46.167382</ele>
        <time>2022-05-29T11:05:23.773Z</time>
      </trkpt>
      <trkpt lat="42.46268" lon="18.73689">
        <ele>46.20144</ele>
        <time>2022-05-29T11:05:26.741Z</time>
      </trkpt>
      <trkpt lat="42.46256" lon="18.73696">
        <ele>46.236612</ele>
        <time>2022-05-29T11:05:29.749Z</time>
      </trkpt>
      <trkpt lat="42.46245" lon="18.73706">
        <ele>46.27476</ele>
        <time>2022-05-29T11:05:32.748Z</time>
      </trkpt>
      <trkpt lat="42.46235" lon="18.73711">
        <ele>46.305167</ele>
        <time>2022-05-29T11:05:34.772Z</time>
      </trkpt>
      <trkpt lat="42.46225" lon="18.73714">
        <ele>46.333309</ele>
        <time>2022-05-29T11:05:36.740Z</time>
      </trkpt>
      <trkpt lat="42.46215" lon="18.73716">
        <ele>46.376817</ele>
        <time>2022-05-29T11:05:38.730Z</time>
      </trkpt>
      <trkpt lat="42.46207" lon="18.73717">
        <ele>46.593022</ele>
        <time>2022-05-29T11:05:40.741Z</time>
      </trkpt>
      <trkpt lat="42.46195" lon="18.7372">
        <ele>46.876176</ele>
        <time>2022-05-29T11:05:43.756Z</time>
      </trkpt>
      <trkpt lat="42.46185" lon="18.73722">
        <ele>47.106954</ele>
        <time>2022-05-29T11:05:45.773Z</time>
      </trkpt>
      <trkpt lat="42.46176" lon="18.73725">
        <ele>47.341634</ele>
        <time>2022-05-29T11:05:47.737Z</time>
      </trkpt>
      <trkpt lat="42.46164" lon="18.73731">
        <ele>47.656766</ele>
        <time>2022-05-29T11:05:50.756Z</time>
      </trkpt>
      <trkpt lat="42.46152" lon="18.73739">
        <ele>47.9702</ele>
        <time>2022-05-29T11:05:53.730Z</time>
      </trkpt>
      <trkpt lat="42.46142" lon="18.73747">
        <ele>48.243921</ele>
        <time>2022-05-29T11:05:56.745Z</time>
      </trkpt>
      <trkpt lat="42.46133" lon="18.73755">
        <ele>48.509331</ele>
        <time>2022-05-29T11:05:59.756Z</time>
      </trkpt>
      <trkpt lat="42.46125" lon="18.73764">
        <ele>48.7678</ele>
        <time>2022-05-29T11:06:02.768Z</time>
      </trkpt>
      <trkpt lat="42.46118" lon="18.73774">
        <ele>49.010397</ele>
        <time>2022-05-29T11:06:05.740Z</time>
      </trkpt>
      <trkpt lat="42.46111" lon="18.73784">
        <ele>49.260594</ele>
        <time>2022-05-29T11:06:08.751Z</time>
      </trkpt>
      <trkpt lat="42.46103" lon="18.73795">
        <ele>49.519789</ele>
        <time>2022-05-29T11:06:12.739Z</time>
      </trkpt>
      <trkpt lat="42.4609" lon="18.73819">
        <ele>50.055068</ele>
        <time>2022-05-29T11:08:55.773Z</time>
      </trkpt>
      <trkpt lat="42.46084" lon="18.73829">
        <ele>50.28175</ele>
        <time>2022-05-29T11:08:59.750Z</time>
      </trkpt>
      <trkpt lat="42.46078" lon="18.7384">
        <ele>50.532234</ele>
        <time>2022-05-29T11:09:03.745Z</time>
      </trkpt>
      <trkpt lat="42.46071" lon="18.73851">
        <ele>50.650217</ele>
        <time>2022-05-29T11:09:07.776Z</time>
      </trkpt>
      <trkpt lat="42.46064" lon="18.73865">
        <ele>50.506665</ele>
        <time>2022-05-29T11:09:11.764Z</time>
      </trkpt>
      <trkpt lat="42.46057" lon="18.73878">
        <ele>50.361769</ele>
        <time>2022-05-29T11:09:14.739Z</time>
      </trkpt>
      <trkpt lat="42.46052" lon="18.73891">
        <ele>50.234611</ele>
        <time>2022-05-29T11:09:17.737Z</time>
      </trkpt>
      <trkpt lat="42.46046" lon="18.73903">
        <ele>50.10988</ele>
        <time>2022-05-29T11:09:20.738Z</time>
      </trkpt>
      <trkpt lat="42.4604" lon="18.73913">
        <ele>50.001051</ele>
        <time>2022-05-29T11:09:23.744Z</time>
      </trkpt>
      <trkpt lat="42.46034" lon="18.73924">
        <ele>49.88193</ele>
        <time>2022-05-29T11:09:26.743Z</time>
      </trkpt>
      <trkpt lat="42.4603" lon="18.73937">
        <ele>49.758158</ele>
        <time>2022-05-29T11:09:29.739Z</time>
      </trkpt>
      <trkpt lat="42.46025" lon="18.73949">
        <ele>49.636706</ele>
        <time>2022-05-29T11:09:32.721Z</time>
      </trkpt>
      <trkpt lat="42.4602" lon="18.7396">
        <ele>49.523381</ele>
        <time>2022-05-29T11:09:35.736Z</time>
      </trkpt>
      <trkpt lat="42.46013" lon="18.73969">
        <ele>49.411227</ele>
        <time>2022-05-29T11:09:38.725Z</time>
      </trkpt>
      <trkpt lat="42.46003" lon="18.73974">
        <ele>49.292166</ele>
        <time>2022-05-29T11:09:41.750Z</time>
      </trkpt>
      <trkpt lat="42.45993" lon="18.73982">
        <ele>49.15925</ele>
        <time>2022-05-29T11:09:44.751Z</time>
      </trkpt>
      <trkpt lat="42.45984" lon="18.73991">
        <ele>49.027125</ele>
        <time>2022-05-29T11:09:47.734Z</time>
      </trkpt>
      <trkpt lat="42.45975" lon="18.73999">
        <ele>48.900831</ele>
        <time>2022-05-29T11:09:50.754Z</time>
      </trkpt>
      <trkpt lat="42.45968" lon="18.74008">
        <ele>48.781266</ele>
        <time>2022-05-29T11:09:53.781Z</time>
      </trkpt>
      <trkpt lat="42.4596" lon="18.74018">
        <ele>48.660249</ele>
        <time>2022-05-29T11:09:56.754Z</time>
      </trkpt>
      <trkpt lat="42.45953" lon="18.74027">
        <ele>48.515281</ele>
        <time>2022-05-29T11:09:59.734Z</time>
      </trkpt>
      <trkpt lat="42.45946" lon="18.74038">
        <ele>48.322704</ele>
        <time>2022-05-29T11:10:02.754Z</time>
      </trkpt>
      <trkpt lat="42.4594" lon="18.74049">
        <ele>48.140492</ele>
        <time>2022-05-29T11:10:05.774Z</time>
      </trkpt>
      <trkpt lat="42.45934" lon="18.74061">
        <ele>47.942101</ele>
        <time>2022-05-29T11:10:08.760Z</time>
      </trkpt>
      <trkpt lat="42.45928" lon="18.74074">
        <ele>47.744828</ele>
        <time>2022-05-29T11:10:11.739Z</time>
      </trkpt>
      <trkpt lat="42.45925" lon="18.74088">
        <ele>47.547484</ele>
        <time>2022-05-29T11:10:14.756Z</time>
      </trkpt>
      <trkpt lat="42.4592" lon="18.74102">
        <ele>47.337027</ele>
        <time>2022-05-29T11:10:17.774Z</time>
      </trkpt>
      <trkpt lat="42.45913" lon="18.74116">
        <ele>47.12077</ele>
        <time>2022-05-29T11:10:20.756Z</time>
      </trkpt>
      <trkpt lat="42.45906" lon="18.74129">
        <ele>46.892221</ele>
        <time>2022-05-29T11:10:23.734Z</time>
      </trkpt>
      <trkpt lat="42.45899" lon="18.74143">
        <ele>46.675147</ele>
        <time>2022-05-29T11:10:26.737Z</time>
      </trkpt>
      <trkpt lat="42.45892" lon="18.74156">
        <ele>46.458419</ele>
        <time>2022-05-29T11:10:29.727Z</time>
      </trkpt>
      <trkpt lat="42.45883" lon="18.74166">
        <ele>46.240616</ele>
        <time>2022-05-29T11:10:32.734Z</time>
      </trkpt>
      <trkpt lat="42.45873" lon="18.74172">
        <ele>46.047527</ele>
        <time>2022-05-29T11:10:35.739Z</time>
      </trkpt>
      <trkpt lat="42.45863" lon="18.74178">
        <ele>45.844824</ele>
        <time>2022-05-29T11:10:38.728Z</time>
      </trkpt>
      <trkpt lat="42.45853" lon="18.74183">
        <ele>45.65299</ele>
        <time>2022-05-29T11:10:41.743Z</time>
      </trkpt>
      <trkpt lat="42.45842" lon="18.74189">
        <ele>45.440084</ele>
        <time>2022-05-29T11:10:44.733Z</time>
      </trkpt>
      <trkpt lat="42.45832" lon="18.74196">
        <ele>45.358643</ele>
        <time>2022-05-29T11:10:47.733Z</time>
      </trkpt>
      <trkpt lat="42.45823" lon="18.74202">
        <ele>45.458316</ele>
        <time>2022-05-29T11:10:50.748Z</time>
      </trkpt>
      <trkpt lat="42.45813" lon="18.74207">
        <ele>45.560175</ele>
        <time>2022-05-29T11:10:53.754Z</time>
      </trkpt>
      <trkpt lat="42.45802" lon="18.74215">
        <ele>45.676747</ele>
        <time>2022-05-29T11:10:56.721Z</time>
      </trkpt>
      <trkpt lat="42.45795" lon="18.74223">
        <ele>45.765195</ele>
        <time>2022-05-29T11:10:58.756Z</time>
      </trkpt>
      <trkpt lat="42.45785" lon="18.74235">
        <ele>45.893642</ele>
        <time>2022-05-29T11:11:01.741Z</time>
      </trkpt>
      <trkpt lat="42.45777" lon="18.74242">
        <ele>45.980683</ele>
        <time>2022-05-29T11:11:03.722Z</time>
      </trkpt>
      <trkpt lat="42.45767" lon="18.74254">
        <ele>46.109252</ele>
        <time>2022-05-29T11:11:06.736Z</time>
      </trkpt>
      <trkpt lat="42.45757" lon="18.74266">
        <ele>46.237023</ele>
        <time>2022-05-29T11:11:09.740Z</time>
      </trkpt>
      <trkpt lat="42.45749" lon="18.74281">
        <ele>46.36858</ele>
        <time>2022-05-29T11:11:12.730Z</time>
      </trkpt>
      <trkpt lat="42.45743" lon="18.74291">
        <ele>46.457227</ele>
        <time>2022-05-29T11:11:14.741Z</time>
      </trkpt>
      <trkpt lat="42.45738" lon="18.74306">
        <ele>46.569377</ele>
        <time>2022-05-29T11:11:17.742Z</time>
      </trkpt>
      <trkpt lat="42.45735" lon="18.74317">
        <ele>46.655365</ele>
        <time>2022-05-29T11:11:19.758Z</time>
      </trkpt>
      <trkpt lat="42.45729" lon="18.74333">
        <ele>46.779064</ele>
        <time>2022-05-29T11:11:22.742Z</time>
      </trkpt>
      <trkpt lat="42.45724" lon="18.74348">
        <ele>46.893863</ele>
        <time>2022-05-29T11:11:25.748Z</time>
      </trkpt>
      <trkpt lat="42.45717" lon="18.74363">
        <ele>47.018726</ele>
        <time>2022-05-29T11:11:28.740Z</time>
      </trkpt>
      <trkpt lat="42.45711" lon="18.74373">
        <ele>46.993132</ele>
        <time>2022-05-29T11:11:30.740Z</time>
      </trkpt>
      <trkpt lat="42.45705" lon="18.74383">
        <ele>46.953358</ele>
        <time>2022-05-29T11:11:32.739Z</time>
      </trkpt>
      <trkpt lat="42.45699" lon="18.74398">
        <ele>46.902854</ele>
        <time>2022-05-29T11:11:35.743Z</time>
      </trkpt>
      <trkpt lat="42.45692" lon="18.74413">
        <ele>46.846659</ele>
        <time>2022-05-29T11:11:38.740Z</time>
      </trkpt>
      <trkpt lat="42.45686" lon="18.74423">
        <ele>46.807109</ele>
        <time>2022-05-29T11:11:40.726Z</time>
      </trkpt>
      <trkpt lat="42.45677" lon="18.74437">
        <ele>46.749942</ele>
        <time>2022-05-29T11:11:43.755Z</time>
      </trkpt>
      <trkpt lat="42.45668" lon="18.74451">
        <ele>46.695271</ele>
        <time>2022-05-29T11:11:46.724Z</time>
      </trkpt>
      <trkpt lat="42.45662" lon="18.74463">
        <ele>46.649455</ele>
        <time>2022-05-29T11:11:49.737Z</time>
      </trkpt>
      <trkpt lat="42.45655" lon="18.74474">
        <ele>46.604626</ele>
        <time>2022-05-29T11:11:52.748Z</time>
      </trkpt>
      <trkpt lat="42.45648" lon="18.74486">
        <ele>46.556538</ele>
        <time>2022-05-29T11:11:55.740Z</time>
      </trkpt>
      <trkpt lat="42.45641" lon="18.745">
        <ele>46.505235</ele>
        <time>2022-05-29T11:11:58.756Z</time>
      </trkpt>
      <trkpt lat="42.45635" lon="18.74515">
        <ele>46.453574</ele>
        <time>2022-05-29T11:12:01.760Z</time>
      </trkpt>
      <trkpt lat="42.45629" lon="18.74528">
        <ele>46.406088</ele>
        <time>2022-05-29T11:12:04.736Z</time>
      </trkpt>
      <trkpt lat="42.45625" lon="18.74543">
        <ele>46.357067</ele>
        <time>2022-05-29T11:12:07.737Z</time>
      </trkpt>
      <trkpt lat="42.4562" lon="18.74558">
        <ele>46.305794</ele>
        <time>2022-05-29T11:12:10.740Z</time>
      </trkpt>
      <trkpt lat="42.45615" lon="18.74574">
        <ele>46.180812</ele>
        <time>2022-05-29T11:12:13.733Z</time>
      </trkpt>
      <trkpt lat="42.45612" lon="18.74586">
        <ele>46.043457</ele>
        <time>2022-05-29T11:12:15.738Z</time>
      </trkpt>
      <trkpt lat="42.45607" lon="18.74602">
        <ele>45.84711</ele>
        <time>2022-05-29T11:12:18.740Z</time>
      </trkpt>
      <trkpt lat="42.45605" lon="18.74614">
        <ele>45.71193</ele>
        <time>2022-05-29T11:12:20.731Z</time>
      </trkpt>
      <trkpt lat="42.45603" lon="18.7463">
        <ele>45.531471</ele>
        <time>2022-05-29T11:12:23.739Z</time>
      </trkpt>
      <trkpt lat="42.45601" lon="18.74646">
        <ele>45.346594</ele>
        <time>2022-05-29T11:12:26.736Z</time>
      </trkpt>
      <trkpt lat="42.45598" lon="18.74661">
        <ele>45.179001</ele>
        <time>2022-05-29T11:12:29.733Z</time>
      </trkpt>
      <trkpt lat="42.45595" lon="18.74675">
        <ele>45.017646</ele>
        <time>2022-05-29T11:12:32.750Z</time>
      </trkpt>
      <trkpt lat="42.45589" lon="18.74686">
        <ele>44.870467</ele>
        <time>2022-05-29T11:12:37.732Z</time>
      </trkpt>
      <trkpt lat="42.45583" lon="18.74696">
        <ele>44.727064</ele>
        <time>2022-05-29T11:12:42.745Z</time>
      </trkpt>
      <trkpt lat="42.45579" lon="18.74707">
        <ele>44.579984</ele>
        <time>2022-05-29T11:12:46.744Z</time>
      </trkpt>
      <trkpt lat="42.45573" lon="18.74718">
        <ele>44.427697</ele>
        <time>2022-05-29T11:12:49.744Z</time>
      </trkpt>
      <trkpt lat="42.45566" lon="18.74729">
        <ele>44.267948</ele>
        <time>2022-05-29T11:12:52.740Z</time>
      </trkpt>
      <trkpt lat="42.45557" lon="18.74739">
        <ele>44.098394</ele>
        <time>2022-05-29T11:12:55.750Z</time>
      </trkpt>
      <trkpt lat="42.45546" lon="18.74745">
        <ele>43.912224</ele>
        <time>2022-05-29T11:12:58.751Z</time>
      </trkpt>
      <trkpt lat="42.45534" lon="18.7475">
        <ele>43.736434</ele>
        <time>2022-05-29T11:13:01.733Z</time>
      </trkpt>
      <trkpt lat="42.45524" lon="18.74753">
        <ele>43.568894</ele>
        <time>2022-05-29T11:13:04.745Z</time>
      </trkpt>
      <trkpt lat="42.45513" lon="18.74757">
        <ele>43.963441</ele>
        <time>2022-05-29T11:13:07.728Z</time>
      </trkpt>
      <trkpt lat="42.45502" lon="18.74758">
        <ele>44.377687</ele>
        <time>2022-05-29T11:13:10.724Z</time>
      </trkpt>
      <trkpt lat="42.4549" lon="18.7476">
        <ele>44.79845</ele>
        <time>2022-05-29T11:13:13.745Z</time>
      </trkpt>
      <trkpt lat="42.45477" lon="18.74764">
        <ele>45.271573</ele>
        <time>2022-05-29T11:13:16.725Z</time>
      </trkpt>
      <trkpt lat="42.45465" lon="18.74768">
        <ele>45.749938</ele>
        <time>2022-05-29T11:13:19.745Z</time>
      </trkpt>
      <trkpt lat="42.45453" lon="18.74771">
        <ele>46.185152</ele>
        <time>2022-05-29T11:13:22.740Z</time>
      </trkpt>
      <trkpt lat="42.45442" lon="18.74778">
        <ele>46.609984</ele>
        <time>2022-05-29T11:13:25.749Z</time>
      </trkpt>
      <trkpt lat="42.45433" lon="18.74787">
        <ele>47.033266</ele>
        <time>2022-05-29T11:13:28.728Z</time>
      </trkpt>
      <trkpt lat="42.45423" lon="18.74796">
        <ele>47.480655</ele>
        <time>2022-05-29T11:13:31.950Z</time>
      </trkpt>
      <trkpt lat="42.45412" lon="18.74807">
        <ele>47.979485</ele>
        <time>2022-05-29T11:13:34.752Z</time>
      </trkpt>
      <trkpt lat="42.45403" lon="18.74813">
        <ele>48.331841</ele>
        <time>2022-05-29T11:13:36.735Z</time>
      </trkpt>
      <trkpt lat="42.45396" lon="18.7482">
        <ele>48.668828</ele>
        <time>2022-05-29T11:13:38.733Z</time>
      </trkpt>
      <trkpt lat="42.45385" lon="18.74828">
        <ele>49.114325</ele>
        <time>2022-05-29T11:13:41.738Z</time>
      </trkpt>
      <trkpt lat="42.45373" lon="18.74834">
        <ele>49.581977</ele>
        <time>2022-05-29T11:13:44.738Z</time>
      </trkpt>
      <trkpt lat="42.45361" lon="18.74837">
        <ele>50.023536</ele>
        <time>2022-05-29T11:13:47.741Z</time>
      </trkpt>
      <trkpt lat="42.45351" lon="18.74842">
        <ele>50.187641</ele>
        <time>2022-05-29T11:13:50.739Z</time>
      </trkpt>
      <trkpt lat="42.45341" lon="18.74847">
        <ele>50.259164</ele>
        <time>2022-05-29T11:13:53.742Z</time>
      </trkpt>
      <trkpt lat="42.4533" lon="18.74853">
        <ele>50.337816</ele>
        <time>2022-05-29T11:13:56.742Z</time>
      </trkpt>
      <trkpt lat="42.4532" lon="18.7486">
        <ele>50.413592</ele>
        <time>2022-05-29T11:13:59.739Z</time>
      </trkpt>
      <trkpt lat="42.45311" lon="18.74867">
        <ele>50.483517</ele>
        <time>2022-05-29T11:14:02.745Z</time>
      </trkpt>
      <trkpt lat="42.45303" lon="18.74873">
        <ele>50.549075</ele>
        <time>2022-05-29T11:14:06.737Z</time>
      </trkpt>
      <trkpt lat="42.45294" lon="18.74881">
        <ele>50.61764</ele>
        <time>2022-05-29T11:14:10.757Z</time>
      </trkpt>
      <trkpt lat="42.45286" lon="18.74889">
        <ele>50.683368</ele>
        <time>2022-05-29T11:14:14.823Z</time>
      </trkpt>
      <trkpt lat="42.45294" lon="18.7488">
        <ele>50.752351</ele>
        <time>2022-05-29T11:14:29.722Z</time>
      </trkpt>
      <trkpt lat="42.45306" lon="18.74873">
        <ele>50.835433</ele>
        <time>2022-05-29T11:14:33.730Z</time>
      </trkpt>
      <trkpt lat="42.45316" lon="18.74868">
        <ele>50.909565</ele>
        <time>2022-05-29T11:14:36.755Z</time>
      </trkpt>
      <trkpt lat="42.45327" lon="18.74865">
        <ele>50.988887</ele>
        <time>2022-05-29T11:14:39.722Z</time>
      </trkpt>
      <trkpt lat="42.45336" lon="18.7486">
        <ele>51.053016</ele>
        <time>2022-05-29T11:14:42.723Z</time>
      </trkpt>
      <trkpt lat="42.45347" lon="18.74853">
        <ele>51.134055</ele>
        <time>2022-05-29T11:14:46.735Z</time>
      </trkpt>
      <trkpt lat="42.45356" lon="18.74855">
        <ele>51.197612</ele>
        <time>2022-05-29T11:14:51.758Z</time>
      </trkpt>
      <trkpt lat="42.45338" lon="18.74849">
        <ele>51.324488</ele>
        <time>2022-05-29T11:15:35.735Z</time>
      </trkpt>
      <trkpt lat="42.45327" lon="18.74854">
        <ele>51.19239</ele>
        <time>2022-05-29T11:15:39.721Z</time>
      </trkpt>
      <trkpt lat="42.45317" lon="18.74861">
        <ele>50.958978</ele>
        <time>2022-05-29T11:15:43.742Z</time>
      </trkpt>
      <trkpt lat="42.45308" lon="18.74868">
        <ele>50.72189</ele>
        <time>2022-05-29T11:15:47.721Z</time>
      </trkpt>
      <trkpt lat="42.453" lon="18.74877">
        <ele>50.512881</ele>
        <time>2022-05-29T11:15:51.739Z</time>
      </trkpt>
      <trkpt lat="42.45293" lon="18.74885">
        <ele>50.297116</ele>
        <time>2022-05-29T11:15:54.781Z</time>
      </trkpt>
      <trkpt lat="42.45285" lon="18.74892">
        <ele>50.093378</ele>
        <time>2022-05-29T11:15:57.740Z</time>
      </trkpt>
      <trkpt lat="42.45278" lon="18.74904">
        <ele>49.850988</ele>
        <time>2022-05-29T11:16:02.734Z</time>
      </trkpt>
      <trkpt lat="42.4527" lon="18.74912">
        <ele>49.645919</ele>
        <time>2022-05-29T11:16:05.776Z</time>
      </trkpt>
      <trkpt lat="42.45261" lon="18.74922">
        <ele>49.398939</ele>
        <time>2022-05-29T11:16:09.760Z</time>
      </trkpt>
      <trkpt lat="42.45253" lon="18.74927">
        <ele>49.203097</ele>
        <time>2022-05-29T11:16:12.732Z</time>
      </trkpt>
      <trkpt lat="42.45246" lon="18.74935">
        <ele>48.998485</ele>
        <time>2022-05-29T11:16:15.736Z</time>
      </trkpt>
      <trkpt lat="42.45236" lon="18.74945">
        <ele>48.744198</ele>
        <time>2022-05-29T11:16:19.723Z</time>
      </trkpt>
      <trkpt lat="42.45227" lon="18.7495">
        <ele>48.523876</ele>
        <time>2022-05-29T11:16:23.736Z</time>
      </trkpt>
      <trkpt lat="42.45218" lon="18.74953">
        <ele>48.317882</ele>
        <time>2022-05-29T11:16:26.731Z</time>
      </trkpt>
      <trkpt lat="42.45207" lon="18.74957">
        <ele>48.075711</ele>
        <time>2022-05-29T11:16:29.708Z</time>
      </trkpt>
      <trkpt lat="42.45196" lon="18.74962">
        <ele>47.83127</ele>
        <time>2022-05-29T11:16:32.738Z</time>
      </trkpt>
      <trkpt lat="42.45185" lon="18.74968">
        <ele>47.580758</ele>
        <time>2022-05-29T11:16:35.748Z</time>
      </trkpt>
      <trkpt lat="42.45176" lon="18.74973">
        <ele>47.386826</ele>
        <time>2022-05-29T11:16:38.732Z</time>
      </trkpt>
      <trkpt lat="42.45165" lon="18.74977">
        <ele>47.190821</ele>
        <time>2022-05-29T11:16:41.725Z</time>
      </trkpt>
      <trkpt lat="42.45154" lon="18.74983">
        <ele>46.979172</ele>
        <time>2022-05-29T11:16:44.721Z</time>
      </trkpt>
      <trkpt lat="42.45144" lon="18.7499">
        <ele>46.784483</ele>
        <time>2022-05-29T11:16:47.734Z</time>
      </trkpt>
      <trkpt lat="42.45134" lon="18.74992">
        <ele>46.600564</ele>
        <time>2022-05-29T11:16:50.723Z</time>
      </trkpt>
      <trkpt lat="42.45123" lon="18.7499">
        <ele>46.413214</ele>
        <time>2022-05-29T11:16:53.727Z</time>
      </trkpt>
      <trkpt lat="42.45111" lon="18.74992">
        <ele>46.196829</ele>
        <time>2022-05-29T11:16:56.752Z</time>
      </trkpt>
      <trkpt lat="42.451" lon="18.74998">
        <ele>46.004526</ele>
        <time>2022-05-29T11:16:58.711Z</time>
      </trkpt>
      <trkpt lat="42.45091" lon="18.75004">
        <ele>45.818637</ele>
        <time>2022-05-29T11:17:00.731Z</time>
      </trkpt>
      <trkpt lat="42.45083" lon="18.75011">
        <ele>45.658373</ele>
        <time>2022-05-29T11:17:02.758Z</time>
      </trkpt>
      <trkpt lat="42.45073" lon="18.75021">
        <ele>45.435338</ele>
        <time>2022-05-29T11:17:05.734Z</time>
      </trkpt>
      <trkpt lat="42.45064" lon="18.75031">
        <ele>45.23155</ele>
        <time>2022-05-29T11:17:08.753Z</time>
      </trkpt>
      <trkpt lat="42.45056" lon="18.75039">
        <ele>45.064157</ele>
        <time>2022-05-29T11:17:11.729Z</time>
      </trkpt>
      <trkpt lat="42.45049" lon="18.75048">
        <ele>44.888871</ele>
        <time>2022-05-29T11:17:14.739Z</time>
      </trkpt>
      <trkpt lat="42.4504" lon="18.7506">
        <ele>44.677256</ele>
        <time>2022-05-29T11:17:17.734Z</time>
      </trkpt>
      <trkpt lat="42.45032" lon="18.7507">
        <ele>44.493151</ele>
        <time>2022-05-29T11:17:20.740Z</time>
      </trkpt>
      <trkpt lat="42.45025" lon="18.75082">
        <ele>44.269596</ele>
        <time>2022-05-29T11:17:23.737Z</time>
      </trkpt>
      <trkpt lat="42.45018" lon="18.75095">
        <ele>43.986067</ele>
        <time>2022-05-29T11:17:26.736Z</time>
      </trkpt>
      <trkpt lat="42.45011" lon="18.75107">
        <ele>43.705412</ele>
        <time>2022-05-29T11:17:29.728Z</time>
      </trkpt>
      <trkpt lat="42.45005" lon="18.75119">
        <ele>43.443592</ele>
        <time>2022-05-29T11:17:32.742Z</time>
      </trkpt>
      <trkpt lat="42.44998" lon="18.75132">
        <ele>43.154254</ele>
        <time>2022-05-29T11:17:36.725Z</time>
      </trkpt>
      <trkpt lat="42.44991" lon="18.75142">
        <ele>42.908638</ele>
        <time>2022-05-29T11:17:39.735Z</time>
      </trkpt>
      <trkpt lat="42.44983" lon="18.75154">
        <ele>42.618554</ele>
        <time>2022-05-29T11:17:42.723Z</time>
      </trkpt>
      <trkpt lat="42.44976" lon="18.75165">
        <ele>42.353113</ele>
        <time>2022-05-29T11:17:45.737Z</time>
      </trkpt>
      <trkpt lat="42.44971" lon="18.75178">
        <ele>42.088782</ele>
        <time>2022-05-29T11:17:48.751Z</time>
      </trkpt>
      <trkpt lat="42.44968" lon="18.75193">
        <ele>41.810129</ele>
        <time>2022-05-29T11:17:51.752Z</time>
      </trkpt>
      <trkpt lat="42.44965" lon="18.75208">
        <ele>41.528747</ele>
        <time>2022-05-29T11:17:54.748Z</time>
      </trkpt>
      <trkpt lat="42.44961" lon="18.75223">
        <ele>41.24494</ele>
        <time>2022-05-29T11:17:57.753Z</time>
      </trkpt>
      <trkpt lat="42.44958" lon="18.75238">
        <ele>40.962325</ele>
        <time>2022-05-29T11:18:00.721Z</time>
      </trkpt>
      <trkpt lat="42.44954" lon="18.75253">
        <ele>40.67222</ele>
        <time>2022-05-29T11:18:03.721Z</time>
      </trkpt>
      <trkpt lat="42.4495" lon="18.7527">
        <ele>40.365528</ele>
        <time>2022-05-29T11:18:06.734Z</time>
      </trkpt>
      <trkpt lat="42.44947" lon="18.75285">
        <ele>40.082035</ele>
        <time>2022-05-29T11:18:09.770Z</time>
      </trkpt>
      <trkpt lat="42.44943" lon="18.75297">
        <ele>39.778653</ele>
        <time>2022-05-29T11:18:12.742Z</time>
      </trkpt>
      <trkpt lat="42.44938" lon="18.75311">
        <ele>39.37816</ele>
        <time>2022-05-29T11:18:15.753Z</time>
      </trkpt>
      <trkpt lat="42.44933" lon="18.75325">
        <ele>38.981554</ele>
        <time>2022-05-29T11:18:18.753Z</time>
      </trkpt>
      <trkpt lat="42.4493" lon="18.75338">
        <ele>38.614491</ele>
        <time>2022-05-29T11:18:21.734Z</time>
      </trkpt>
      <trkpt lat="42.44925" lon="18.7535">
        <ele>38.251742</ele>
        <time>2022-05-29T11:18:24.752Z</time>
      </trkpt>
      <trkpt lat="42.44921" lon="18.75363">
        <ele>37.888992</ele>
        <time>2022-05-29T11:18:27.757Z</time>
      </trkpt>
      <trkpt lat="42.44914" lon="18.75375">
        <ele>37.474982</ele>
        <time>2022-05-29T11:18:30.730Z</time>
      </trkpt>
      <trkpt lat="42.44906" lon="18.75386">
        <ele>37.088089</ele>
        <time>2022-05-29T11:18:33.732Z</time>
      </trkpt>
      <trkpt lat="42.44898" lon="18.75397">
        <ele>36.681993</ele>
        <time>2022-05-29T11:18:36.756Z</time>
      </trkpt>
      <trkpt lat="42.44889" lon="18.75405">
        <ele>36.302049</ele>
        <time>2022-05-29T11:18:39.744Z</time>
      </trkpt>
      <trkpt lat="42.44879" lon="18.75408">
        <ele>35.915313</ele>
        <time>2022-05-29T11:18:42.731Z</time>
      </trkpt>
      <trkpt lat="42.44868" lon="18.7541">
        <ele>35.538785</ele>
        <time>2022-05-29T11:18:45.744Z</time>
      </trkpt>
      <trkpt lat="42.44858" lon="18.75412">
        <ele>35.184015</ele>
        <time>2022-05-29T11:18:48.733Z</time>
      </trkpt>
      <trkpt lat="42.44848" lon="18.75416">
        <ele>34.819898</ele>
        <time>2022-05-29T11:18:51.755Z</time>
      </trkpt>
      <trkpt lat="42.44839" lon="18.75421">
        <ele>34.467691</ele>
        <time>2022-05-29T11:18:54.755Z</time>
      </trkpt>
      <trkpt lat="42.44829" lon="18.75424">
        <ele>34.082371</ele>
        <time>2022-05-29T11:18:57.749Z</time>
      </trkpt>
      <trkpt lat="42.44817" lon="18.75427">
        <ele>33.64727</ele>
        <time>2022-05-29T11:19:00.771Z</time>
      </trkpt>
      <trkpt lat="42.44805" lon="18.7543">
        <ele>34.069202</ele>
        <time>2022-05-29T11:19:03.749Z</time>
      </trkpt>
      <trkpt lat="42.44794" lon="18.75431">
        <ele>34.716884</ele>
        <time>2022-05-29T11:19:06.725Z</time>
      </trkpt>
      <trkpt lat="42.44783" lon="18.75432">
        <ele>35.337139</ele>
        <time>2022-05-29T11:19:09.739Z</time>
      </trkpt>
      <trkpt lat="42.44773" lon="18.75435">
        <ele>35.957839</ele>
        <time>2022-05-29T11:19:12.740Z</time>
      </trkpt>
      <trkpt lat="42.44762" lon="18.75438">
        <ele>36.558328</ele>
        <time>2022-05-29T11:19:15.745Z</time>
      </trkpt>
      <trkpt lat="42.44752" lon="18.75441">
        <ele>37.192969</ele>
        <time>2022-05-29T11:19:18.749Z</time>
      </trkpt>
      <trkpt lat="42.44741" lon="18.75442">
        <ele>37.806139</ele>
        <time>2022-05-29T11:19:21.757Z</time>
      </trkpt>
      <trkpt lat="42.4473" lon="18.75442">
        <ele>38.452953</ele>
        <time>2022-05-29T11:19:24.742Z</time>
      </trkpt>
      <trkpt lat="42.44719" lon="18.75442">
        <ele>39.065468</ele>
        <time>2022-05-29T11:19:27.756Z</time>
      </trkpt>
      <trkpt lat="42.44708" lon="18.75442">
        <ele>39.666611</ele>
        <time>2022-05-29T11:19:30.761Z</time>
      </trkpt>
      <trkpt lat="42.44698" lon="18.7544">
        <ele>40.275823</ele>
        <time>2022-05-29T11:19:33.744Z</time>
      </trkpt>
      <trkpt lat="42.44686" lon="18.75439">
        <ele>40.924607</ele>
        <time>2022-05-29T11:19:36.743Z</time>
      </trkpt>
      <trkpt lat="42.44676" lon="18.75434">
        <ele>41.543035</ele>
        <time>2022-05-29T11:19:39.740Z</time>
      </trkpt>
      <trkpt lat="42.44667" lon="18.75425">
        <ele>42.178657</ele>
        <time>2022-05-29T11:19:42.768Z</time>
      </trkpt>
      <trkpt lat="42.44658" lon="18.75415">
        <ele>42.859032</ele>
        <time>2022-05-29T11:19:45.745Z</time>
      </trkpt>
      <trkpt lat="42.4465" lon="18.75405">
        <ele>43.51475</ele>
        <time>2022-05-29T11:19:48.724Z</time>
      </trkpt>
      <trkpt lat="42.44641" lon="18.75394">
        <ele>43.838778</ele>
        <time>2022-05-29T11:19:51.747Z</time>
      </trkpt>
      <trkpt lat="42.44633" lon="18.75384">
        <ele>43.811416</ele>
        <time>2022-05-29T11:19:54.768Z</time>
      </trkpt>
      <trkpt lat="42.44626" lon="18.75373">
        <ele>43.783315</ele>
        <time>2022-05-29T11:19:57.791Z</time>
      </trkpt>
      <trkpt lat="42.44619" lon="18.75361">
        <ele>43.756568</ele>
        <time>2022-05-29T11:20:00.742Z</time>
      </trkpt>
      <trkpt lat="42.44612" lon="18.75351">
        <ele>43.730502</ele>
        <time>2022-05-29T11:20:03.727Z</time>
      </trkpt>
      <trkpt lat="42.44606" lon="18.7534">
        <ele>43.704246</ele>
        <time>2022-05-29T11:20:06.732Z</time>
      </trkpt>
      <trkpt lat="42.446" lon="18.7533">
        <ele>43.680638</ele>
        <time>2022-05-29T11:20:09.748Z</time>
      </trkpt>
      <trkpt lat="42.44593" lon="18.7532">
        <ele>43.654847</ele>
        <time>2022-05-29T11:20:12.734Z</time>
      </trkpt>
      <trkpt lat="42.44586" lon="18.75308">
        <ele>43.627281</ele>
        <time>2022-05-29T11:20:15.752Z</time>
      </trkpt>
      <trkpt lat="42.44579" lon="18.75298">
        <ele>43.601427</ele>
        <time>2022-05-29T11:20:18.758Z</time>
      </trkpt>
      <trkpt lat="42.44571" lon="18.75288">
        <ele>43.573388</ele>
        <time>2022-05-29T11:20:21.737Z</time>
      </trkpt>
      <trkpt lat="42.44561" lon="18.75277">
        <ele>43.542041</ele>
        <time>2022-05-29T11:20:24.779Z</time>
      </trkpt>
      <trkpt lat="42.44551" lon="18.75268">
        <ele>43.511457</ele>
        <time>2022-05-29T11:20:27.739Z</time>
      </trkpt>
      <trkpt lat="42.44541" lon="18.75259">
        <ele>43.481373</ele>
        <time>2022-05-29T11:20:30.745Z</time>
      </trkpt>
      <trkpt lat="42.44531" lon="18.75251">
        <ele>43.450859</ele>
        <time>2022-05-29T11:20:33.738Z</time>
      </trkpt>
      <trkpt lat="42.4452" lon="18.75243">
        <ele>43.419838</ele>
        <time>2022-05-29T11:20:36.743Z</time>
      </trkpt>
      <trkpt lat="42.44508" lon="18.75237">
        <ele>43.388047</ele>
        <time>2022-05-29T11:20:39.748Z</time>
      </trkpt>
      <trkpt lat="42.44498" lon="18.7523">
        <ele>43.355992</ele>
        <time>2022-05-29T11:20:42.750Z</time>
      </trkpt>
      <trkpt lat="42.44488" lon="18.75222">
        <ele>43.323291</ele>
        <time>2022-05-29T11:20:45.738Z</time>
      </trkpt>
      <trkpt lat="42.44477" lon="18.75217">
        <ele>43.290897</ele>
        <time>2022-05-29T11:20:48.741Z</time>
      </trkpt>
      <trkpt lat="42.44466" lon="18.75213">
        <ele>43.259031</ele>
        <time>2022-05-29T11:20:51.785Z</time>
      </trkpt>
      <trkpt lat="42.44454" lon="18.75211">
        <ele>43.227755</ele>
        <time>2022-05-29T11:20:54.745Z</time>
      </trkpt>
      <trkpt lat="42.44443" lon="18.75211">
        <ele>43.196073</ele>
        <time>2022-05-29T11:20:57.762Z</time>
      </trkpt>
      <trkpt lat="42.44432" lon="18.75213">
        <ele>43.165834</ele>
        <time>2022-05-29T11:21:00.757Z</time>
      </trkpt>
      <trkpt lat="42.44421" lon="18.75216">
        <ele>43.134966</ele>
        <time>2022-05-29T11:21:03.760Z</time>
      </trkpt>
      <trkpt lat="42.44411" lon="18.75219">
        <ele>43.106481</ele>
        <time>2022-05-29T11:21:06.735Z</time>
      </trkpt>
      <trkpt lat="42.44403" lon="18.75228">
        <ele>43.076919</ele>
        <time>2022-05-29T11:21:09.731Z</time>
      </trkpt>
      <trkpt lat="42.44395" lon="18.75235">
        <ele>43.050222</ele>
        <time>2022-05-29T11:21:12.776Z</time>
      </trkpt>
      <trkpt lat="42.44385" lon="18.75245">
        <ele>43.015662</ele>
        <time>2022-05-29T11:21:15.743Z</time>
      </trkpt>
      <trkpt lat="42.44377" lon="18.75256">
        <ele>42.984623</ele>
        <time>2022-05-29T11:21:18.730Z</time>
      </trkpt>
      <trkpt lat="42.4437" lon="18.75268">
        <ele>42.953894</ele>
        <time>2022-05-29T11:21:21.756Z</time>
      </trkpt>
      <trkpt lat="42.44365" lon="18.75281">
        <ele>42.923654</ele>
        <time>2022-05-29T11:21:24.751Z</time>
      </trkpt>
      <trkpt lat="42.44361" lon="18.75292">
        <ele>42.908283</ele>
        <time>2022-05-29T11:21:27.762Z</time>
      </trkpt>
      <trkpt lat="42.44354" lon="18.75304">
        <ele>42.980082</ele>
        <time>2022-05-29T11:21:30.784Z</time>
      </trkpt>
      <trkpt lat="42.44348" lon="18.75317">
        <ele>43.057797</ele>
        <time>2022-05-29T11:21:33.733Z</time>
      </trkpt>
      <trkpt lat="42.4434" lon="18.75331">
        <ele>43.144086</ele>
        <time>2022-05-29T11:21:36.759Z</time>
      </trkpt>
      <trkpt lat="42.44335" lon="18.75343">
        <ele>43.213846</ele>
        <time>2022-05-29T11:21:39.751Z</time>
      </trkpt>
      <trkpt lat="42.44331" lon="18.75355">
        <ele>43.278025</ele>
        <time>2022-05-29T11:21:42.808Z</time>
      </trkpt>
      <trkpt lat="42.44328" lon="18.75368">
        <ele>43.343509</ele>
        <time>2022-05-29T11:21:45.736Z</time>
      </trkpt>
      <trkpt lat="42.44321" lon="18.7538">
        <ele>43.417683</ele>
        <time>2022-05-29T11:21:49.753Z</time>
      </trkpt>
      <trkpt lat="42.44311" lon="18.75387">
        <ele>43.491958</ele>
        <time>2022-05-29T11:21:52.771Z</time>
      </trkpt>
      <trkpt lat="42.44302" lon="18.75394">
        <ele>43.560421</ele>
        <time>2022-05-29T11:21:55.732Z</time>
      </trkpt>
      <trkpt lat="42.44293" lon="18.75399">
        <ele>43.624245</ele>
        <time>2022-05-29T11:21:59.741Z</time>
      </trkpt>
      <trkpt lat="42.44285" lon="18.75408">
        <ele>43.694673</ele>
        <time>2022-05-29T11:22:04.728Z</time>
      </trkpt>
      <trkpt lat="42.44278" lon="18.75417">
        <ele>43.757745</ele>
        <time>2022-05-29T11:22:08.747Z</time>
      </trkpt>
      <trkpt lat="42.44271" lon="18.75424">
        <ele>43.817205</ele>
        <time>2022-05-29T11:22:11.743Z</time>
      </trkpt>
      <trkpt lat="42.44262" lon="18.75433">
        <ele>43.887334</ele>
        <time>2022-05-29T11:22:15.743Z</time>
      </trkpt>
      <trkpt lat="42.44254" lon="18.75439">
        <ele>43.948127</ele>
        <time>2022-05-29T11:22:19.738Z</time>
      </trkpt>
      <trkpt lat="42.44245" lon="18.75446">
        <ele>44.017579</ele>
        <time>2022-05-29T11:22:24.750Z</time>
      </trkpt>
      <trkpt lat="42.44238" lon="18.75453">
        <ele>44.077498</ele>
        <time>2022-05-29T11:22:27.754Z</time>
      </trkpt>
      <trkpt lat="42.44228" lon="18.75457">
        <ele>44.332611</ele>
        <time>2022-05-29T11:22:30.760Z</time>
      </trkpt>
      <trkpt lat="42.44219" lon="18.7546">
        <ele>44.600481</ele>
        <time>2022-05-29T11:22:33.759Z</time>
      </trkpt>
      <trkpt lat="42.44209" lon="18.75462">
        <ele>44.880569</ele>
        <time>2022-05-29T11:22:36.764Z</time>
      </trkpt>
      <trkpt lat="42.44199" lon="18.75462">
        <ele>45.177362</ele>
        <time>2022-05-29T11:22:39.745Z</time>
      </trkpt>
      <trkpt lat="42.44188" lon="18.75462">
        <ele>45.479794</ele>
        <time>2022-05-29T11:22:42.726Z</time>
      </trkpt>
      <trkpt lat="42.44177" lon="18.75461">
        <ele>45.794616</ele>
        <time>2022-05-29T11:22:45.759Z</time>
      </trkpt>
      <trkpt lat="42.44166" lon="18.7546">
        <ele>46.123658</ele>
        <time>2022-05-29T11:22:48.750Z</time>
      </trkpt>
      <trkpt lat="42.44154" lon="18.75458">
        <ele>46.467662</ele>
        <time>2022-05-29T11:22:51.747Z</time>
      </trkpt>
      <trkpt lat="42.44144" lon="18.75453">
        <ele>46.785758</ele>
        <time>2022-05-29T11:22:54.759Z</time>
      </trkpt>
      <trkpt lat="42.44134" lon="18.75448">
        <ele>47.08862</ele>
        <time>2022-05-29T11:22:57.764Z</time>
      </trkpt>
      <trkpt lat="42.44124" lon="18.75441">
        <ele>47.416789</ele>
        <time>2022-05-29T11:23:00.753Z</time>
      </trkpt>
      <trkpt lat="42.44116" lon="18.75432">
        <ele>47.708906</ele>
        <time>2022-05-29T11:23:03.757Z</time>
      </trkpt>
      <trkpt lat="42.44107" lon="18.75427">
        <ele>47.985421</ele>
        <time>2022-05-29T11:23:05.746Z</time>
      </trkpt>
      <trkpt lat="42.44099" lon="18.75422">
        <ele>48.249845</ele>
        <time>2022-05-29T11:23:07.749Z</time>
      </trkpt>
      <trkpt lat="42.4409" lon="18.75417">
        <ele>48.522038</ele>
        <time>2022-05-29T11:23:09.735Z</time>
      </trkpt>
      <trkpt lat="42.44081" lon="18.75411">
        <ele>48.799459</ele>
        <time>2022-05-29T11:23:11.765Z</time>
      </trkpt>
      <trkpt lat="42.44073" lon="18.75406">
        <ele>49.079468</ele>
        <time>2022-05-29T11:23:13.774Z</time>
      </trkpt>
      <trkpt lat="42.44064" lon="18.75402">
        <ele>49.18133</ele>
        <time>2022-05-29T11:23:15.764Z</time>
      </trkpt>
      <trkpt lat="42.44055" lon="18.75396">
        <ele>48.880904</ele>
        <time>2022-05-29T11:23:17.781Z</time>
      </trkpt>
      <trkpt lat="42.44043" lon="18.75388">
        <ele>48.443986</ele>
        <time>2022-05-29T11:23:20.770Z</time>
      </trkpt>
      <trkpt lat="42.44034" lon="18.75383">
        <ele>48.11906</ele>
        <time>2022-05-29T11:23:22.755Z</time>
      </trkpt>
      <trkpt lat="42.44024" lon="18.75377">
        <ele>47.783189</ele>
        <time>2022-05-29T11:23:24.739Z</time>
      </trkpt>
      <trkpt lat="42.44015" lon="18.75372">
        <ele>47.460238</ele>
        <time>2022-05-29T11:23:26.745Z</time>
      </trkpt>
      <trkpt lat="42.44006" lon="18.75365">
        <ele>47.117419</ele>
        <time>2022-05-29T11:23:28.764Z</time>
      </trkpt>
      <trkpt lat="42.43997" lon="18.75359">
        <ele>46.7839</ele>
        <time>2022-05-29T11:23:30.886Z</time>
      </trkpt>
      <trkpt lat="42.43987" lon="18.75353">
        <ele>46.434418</ele>
        <time>2022-05-29T11:23:32.734Z</time>
      </trkpt>
      <trkpt lat="42.43976" lon="18.75346">
        <ele>46.056484</ele>
        <time>2022-05-29T11:23:34.764Z</time>
      </trkpt>
      <trkpt lat="42.43966" lon="18.75342">
        <ele>45.697176</ele>
        <time>2022-05-29T11:23:36.780Z</time>
      </trkpt>
      <trkpt lat="42.43953" lon="18.75343">
        <ele>45.288854</ele>
        <time>2022-05-29T11:23:39.767Z</time>
      </trkpt>
      <trkpt lat="42.43943" lon="18.75355">
        <ele>44.847469</ele>
        <time>2022-05-29T11:23:42.751Z</time>
      </trkpt>
      <trkpt lat="42.43936" lon="18.75366">
        <ele>44.530285</ele>
        <time>2022-05-29T11:23:44.747Z</time>
      </trkpt>
      <trkpt lat="42.4393" lon="18.75376">
        <ele>44.201076</ele>
        <time>2022-05-29T11:23:46.748Z</time>
      </trkpt>
      <trkpt lat="42.43923" lon="18.75386">
        <ele>43.890796</ele>
        <time>2022-05-29T11:23:48.770Z</time>
      </trkpt>
      <trkpt lat="42.43914" lon="18.75398">
        <ele>43.485683</ele>
        <time>2022-05-29T11:23:51.731Z</time>
      </trkpt>
      <trkpt lat="42.43907" lon="18.75408">
        <ele>43.347808</ele>
        <time>2022-05-29T11:23:54.762Z</time>
      </trkpt>
      <trkpt lat="42.439" lon="18.75417">
        <ele>43.229739</ele>
        <time>2022-05-29T11:23:57.743Z</time>
      </trkpt>
      <trkpt lat="42.43892" lon="18.75425">
        <ele>43.114108</ele>
        <time>2022-05-29T11:24:00.771Z</time>
      </trkpt>
      <trkpt lat="42.43883" lon="18.75433">
        <ele>42.988409</ele>
        <time>2022-05-29T11:24:03.750Z</time>
      </trkpt>
      <trkpt lat="42.43875" lon="18.75439">
        <ele>42.878734</ele>
        <time>2022-05-29T11:24:05.744Z</time>
      </trkpt>
      <trkpt lat="42.43866" lon="18.75445">
        <ele>42.757969</ele>
        <time>2022-05-29T11:24:07.751Z</time>
      </trkpt>
      <trkpt lat="42.43856" lon="18.7545">
        <ele>42.639254</ele>
        <time>2022-05-29T11:24:09.746Z</time>
      </trkpt>
      <trkpt lat="42.43846" lon="18.75456">
        <ele>42.505649</ele>
        <time>2022-05-29T11:24:11.745Z</time>
      </trkpt>
      <trkpt lat="42.43834" lon="18.75463">
        <ele>42.359976</ele>
        <time>2022-05-29T11:24:13.778Z</time>
      </trkpt>
      <trkpt lat="42.43821" lon="18.75471">
        <ele>42.190193</ele>
        <time>2022-05-29T11:24:15.773Z</time>
      </trkpt>
      <trkpt lat="42.43809" lon="18.75476">
        <ele>42.038607</ele>
        <time>2022-05-29T11:24:17.758Z</time>
      </trkpt>
      <trkpt lat="42.43798" lon="18.75481">
        <ele>41.903379</ele>
        <time>2022-05-29T11:24:19.794Z</time>
      </trkpt>
      <trkpt lat="42.43788" lon="18.75485">
        <ele>41.780886</ele>
        <time>2022-05-29T11:24:21.739Z</time>
      </trkpt>
      <trkpt lat="42.43778" lon="18.7549">
        <ele>41.660957</ele>
        <time>2022-05-29T11:24:23.753Z</time>
      </trkpt>
      <trkpt lat="42.43769" lon="18.75494">
        <ele>41.546149</ele>
        <time>2022-05-29T11:24:25.752Z</time>
      </trkpt>
      <trkpt lat="42.4376" lon="18.755">
        <ele>41.431096</ele>
        <time>2022-05-29T11:24:27.745Z</time>
      </trkpt>
      <trkpt lat="42.43751" lon="18.75506">
        <ele>41.255045</ele>
        <time>2022-05-29T11:24:29.753Z</time>
      </trkpt>
      <trkpt lat="42.43744" lon="18.75514">
        <ele>41.006386</ele>
        <time>2022-05-29T11:24:31.766Z</time>
      </trkpt>
      <trkpt lat="42.43737" lon="18.75523">
        <ele>40.744124</ele>
        <time>2022-05-29T11:24:33.752Z</time>
      </trkpt>
      <trkpt lat="42.4373" lon="18.75538">
        <ele>40.403096</ele>
        <time>2022-05-29T11:24:36.760Z</time>
      </trkpt>
      <trkpt lat="42.43723" lon="18.75547">
        <ele>40.133246</ele>
        <time>2022-05-29T11:24:39.734Z</time>
      </trkpt>
      <trkpt lat="42.43714" lon="18.75558">
        <ele>39.812541</ele>
        <time>2022-05-29T11:24:42.743Z</time>
      </trkpt>
      <trkpt lat="42.43705" lon="18.75566">
        <ele>39.512579</ele>
        <time>2022-05-29T11:24:45.761Z</time>
      </trkpt>
      <trkpt lat="42.43696" lon="18.75575">
        <ele>39.20807</ele>
        <time>2022-05-29T11:24:48.786Z</time>
      </trkpt>
      <trkpt lat="42.43687" lon="18.75584">
        <ele>38.905906</ele>
        <time>2022-05-29T11:24:51.773Z</time>
      </trkpt>
      <trkpt lat="42.43676" lon="18.7559">
        <ele>38.581536</ele>
        <time>2022-05-29T11:24:54.758Z</time>
      </trkpt>
      <trkpt lat="42.43664" lon="18.75596">
        <ele>38.233145</ele>
        <time>2022-05-29T11:24:57.751Z</time>
      </trkpt>
      <trkpt lat="42.43652" lon="18.75603">
        <ele>37.879637</ele>
        <time>2022-05-29T11:25:00.747Z</time>
      </trkpt>
      <trkpt lat="42.43641" lon="18.7561">
        <ele>37.528784</ele>
        <time>2022-05-29T11:25:03.791Z</time>
      </trkpt>
      <trkpt lat="42.43632" lon="18.75615">
        <ele>37.283785</ele>
        <time>2022-05-29T11:25:05.798Z</time>
      </trkpt>
      <trkpt lat="42.43621" lon="18.75621">
        <ele>36.946475</ele>
        <time>2022-05-29T11:25:08.760Z</time>
      </trkpt>
      <trkpt lat="42.4361" lon="18.75626">
        <ele>36.638841</ele>
        <time>2022-05-29T11:25:11.754Z</time>
      </trkpt>
      <trkpt lat="42.43599" lon="18.7563">
        <ele>36.508594</ele>
        <time>2022-05-29T11:25:14.737Z</time>
      </trkpt>
      <trkpt lat="42.43587" lon="18.75636">
        <ele>36.669003</ele>
        <time>2022-05-29T11:25:17.749Z</time>
      </trkpt>
      <trkpt lat="42.43578" lon="18.7564">
        <ele>36.78781</ele>
        <time>2022-05-29T11:25:19.814Z</time>
      </trkpt>
      <trkpt lat="42.43569" lon="18.75646">
        <ele>36.924244</ele>
        <time>2022-05-29T11:25:21.743Z</time>
      </trkpt>
      <trkpt lat="42.43559" lon="18.75652">
        <ele>37.058771</ele>
        <time>2022-05-29T11:25:23.764Z</time>
      </trkpt>
      <trkpt lat="42.4355" lon="18.75658">
        <ele>37.186738</ele>
        <time>2022-05-29T11:25:25.744Z</time>
      </trkpt>
      <trkpt lat="42.43542" lon="18.75665">
        <ele>37.308774</ele>
        <time>2022-05-29T11:25:27.772Z</time>
      </trkpt>
      <trkpt lat="42.4353" lon="18.75672">
        <ele>37.475455</ele>
        <time>2022-05-29T11:25:30.759Z</time>
      </trkpt>
      <trkpt lat="42.43517" lon="18.75676">
        <ele>37.638521</ele>
        <time>2022-05-29T11:25:33.755Z</time>
      </trkpt>
      <trkpt lat="42.43505" lon="18.75679">
        <ele>37.795123</ele>
        <time>2022-05-29T11:25:36.730Z</time>
      </trkpt>
      <trkpt lat="42.43493" lon="18.75682">
        <ele>37.951139</ele>
        <time>2022-05-29T11:25:39.763Z</time>
      </trkpt>
      <trkpt lat="42.43482" lon="18.75681">
        <ele>38.092802</ele>
        <time>2022-05-29T11:25:42.742Z</time>
      </trkpt>
      <trkpt lat="42.4347" lon="18.75686">
        <ele>38.25094</ele>
        <time>2022-05-29T11:25:45.746Z</time>
      </trkpt>
      <trkpt lat="42.43462" lon="18.75691">
        <ele>38.373027</ele>
        <time>2022-05-29T11:25:47.759Z</time>
      </trkpt>
      <trkpt lat="42.43452" lon="18.75698">
        <ele>38.503832</ele>
        <time>2022-05-29T11:25:49.762Z</time>
      </trkpt>
      <trkpt lat="42.43443" lon="18.75705">
        <ele>38.638632</ele>
        <time>2022-05-29T11:25:51.734Z</time>
      </trkpt>
      <trkpt lat="42.43433" lon="18.75716">
        <ele>38.908882</ele>
        <time>2022-05-29T11:25:54.754Z</time>
      </trkpt>
      <trkpt lat="42.43426" lon="18.75725">
        <ele>39.313918</ele>
        <time>2022-05-29T11:25:57.761Z</time>
      </trkpt>
      <trkpt lat="42.43418" lon="18.75735">
        <ele>39.718286</ele>
        <time>2022-05-29T11:26:00.750Z</time>
      </trkpt>
      <trkpt lat="42.43411" lon="18.75744">
        <ele>40.102308</ele>
        <time>2022-05-29T11:26:03.760Z</time>
      </trkpt>
      <trkpt lat="42.43403" lon="18.75754">
        <ele>40.495178</ele>
        <time>2022-05-29T11:26:06.764Z</time>
      </trkpt>
      <trkpt lat="42.43395" lon="18.75763">
        <ele>40.925769</ele>
        <time>2022-05-29T11:26:09.745Z</time>
      </trkpt>
      <trkpt lat="42.43384" lon="18.75772">
        <ele>41.399083</ele>
        <time>2022-05-29T11:26:12.750Z</time>
      </trkpt>
      <trkpt lat="42.43375" lon="18.7578">
        <ele>41.831046</ele>
        <time>2022-05-29T11:26:15.752Z</time>
      </trkpt>
      <trkpt lat="42.43364" lon="18.75785">
        <ele>42.259154</ele>
        <time>2022-05-29T11:26:18.778Z</time>
      </trkpt>
      <trkpt lat="42.43353" lon="18.75789">
        <ele>42.697576</ele>
        <time>2022-05-29T11:26:21.731Z</time>
      </trkpt>
      <trkpt lat="42.43343" lon="18.75791">
        <ele>43.109465</ele>
        <time>2022-05-29T11:26:24.753Z</time>
      </trkpt>
      <trkpt lat="42.43332" lon="18.75789">
        <ele>43.517208</ele>
        <time>2022-05-29T11:26:27.744Z</time>
      </trkpt>
      <trkpt lat="42.43321" lon="18.75786">
        <ele>43.95377</ele>
        <time>2022-05-29T11:26:30.791Z</time>
      </trkpt>
      <trkpt lat="42.4331" lon="18.75782">
        <ele>44.394659</ele>
        <time>2022-05-29T11:26:33.739Z</time>
      </trkpt>
      <trkpt lat="42.433" lon="18.75776">
        <ele>44.838304</ele>
        <time>2022-05-29T11:26:36.745Z</time>
      </trkpt>
      <trkpt lat="42.43288" lon="18.75771">
        <ele>45.299324</ele>
        <time>2022-05-29T11:26:39.737Z</time>
      </trkpt>
      <trkpt lat="42.43278" lon="18.75768">
        <ele>45.689814</ele>
        <time>2022-05-29T11:26:42.737Z</time>
      </trkpt>
      <trkpt lat="42.43267" lon="18.75765">
        <ele>45.677653</ele>
        <time>2022-05-29T11:26:45.732Z</time>
      </trkpt>
      <trkpt lat="42.43257" lon="18.75764">
        <ele>45.66617</ele>
        <time>2022-05-29T11:26:48.736Z</time>
      </trkpt>
      <trkpt lat="42.43245" lon="18.75765">
        <ele>45.653177</ele>
        <time>2022-05-29T11:26:51.774Z</time>
      </trkpt>
      <trkpt lat="42.43234" lon="18.75768">
        <ele>45.640419</ele>
        <time>2022-05-29T11:26:54.746Z</time>
      </trkpt>
      <trkpt lat="42.43224" lon="18.75773">
        <ele>45.629046</ele>
        <time>2022-05-29T11:26:57.742Z</time>
      </trkpt>
      <trkpt lat="42.43214" lon="18.7578">
        <ele>45.616834</ele>
        <time>2022-05-29T11:27:00.730Z</time>
      </trkpt>
      <trkpt lat="42.43204" lon="18.75785">
        <ele>45.604812</ele>
        <time>2022-05-29T11:27:03.745Z</time>
      </trkpt>
      <trkpt lat="42.43192" lon="18.7579">
        <ele>45.590969</ele>
        <time>2022-05-29T11:27:06.735Z</time>
      </trkpt>
      <trkpt lat="42.43181" lon="18.7579">
        <ele>45.578635</ele>
        <time>2022-05-29T11:27:09.741Z</time>
      </trkpt>
      <trkpt lat="42.43169" lon="18.75791">
        <ele>45.5652</ele>
        <time>2022-05-29T11:27:12.743Z</time>
      </trkpt>
      <trkpt lat="42.43157" lon="18.75792">
        <ele>45.552052</ele>
        <time>2022-05-29T11:27:15.738Z</time>
      </trkpt>
      <trkpt lat="42.43146" lon="18.75793">
        <ele>45.539169</ele>
        <time>2022-05-29T11:27:18.732Z</time>
      </trkpt>
      <trkpt lat="42.43134" lon="18.75794">
        <ele>45.526383</ele>
        <time>2022-05-29T11:27:21.746Z</time>
      </trkpt>
      <trkpt lat="42.43121" lon="18.75795">
        <ele>45.511819</ele>
        <time>2022-05-29T11:27:24.740Z</time>
      </trkpt>
      <trkpt lat="42.43112" lon="18.75797">
        <ele>45.501529</ele>
        <time>2022-05-29T11:27:26.736Z</time>
      </trkpt>
      <trkpt lat="42.431" lon="18.75802">
        <ele>45.50384</ele>
        <time>2022-05-29T11:27:29.772Z</time>
      </trkpt>
      <trkpt lat="42.43089" lon="18.75807">
        <ele>45.555102</ele>
        <time>2022-05-29T11:27:32.755Z</time>
      </trkpt>
      <trkpt lat="42.4308" lon="18.75812">
        <ele>45.597257</ele>
        <time>2022-05-29T11:27:35.735Z</time>
      </trkpt>
      <trkpt lat="42.4307" lon="18.75818">
        <ele>45.643813</ele>
        <time>2022-05-29T11:27:38.737Z</time>
      </trkpt>
      <trkpt lat="42.4306" lon="18.75824">
        <ele>45.693727</ele>
        <time>2022-05-29T11:27:41.733Z</time>
      </trkpt>
      <trkpt lat="42.43048" lon="18.75828">
        <ele>45.749162</ele>
        <time>2022-05-29T11:27:44.755Z</time>
      </trkpt>
      <trkpt lat="42.43036" lon="18.7583">
        <ele>45.800594</ele>
        <time>2022-05-29T11:27:47.751Z</time>
      </trkpt>
      <trkpt lat="42.43025" lon="18.75829">
        <ele>45.847632</ele>
        <time>2022-05-29T11:27:50.747Z</time>
      </trkpt>
      <trkpt lat="42.43013" lon="18.75829">
        <ele>45.901704</ele>
        <time>2022-05-29T11:27:53.738Z</time>
      </trkpt>
      <trkpt lat="42.43" lon="18.75828">
        <ele>45.960118</ele>
        <time>2022-05-29T11:27:56.734Z</time>
      </trkpt>
      <trkpt lat="42.42988" lon="18.75829">
        <ele>46.012396</ele>
        <time>2022-05-29T11:27:59.757Z</time>
      </trkpt>
      <trkpt lat="42.42977" lon="18.75829">
        <ele>46.058945</ele>
        <time>2022-05-29T11:28:02.754Z</time>
      </trkpt>
      <trkpt lat="42.42968" lon="18.75828">
        <ele>46.100739</ele>
        <time>2022-05-29T11:28:05.750Z</time>
      </trkpt>
      <trkpt lat="42.42958" lon="18.75828">
        <ele>46.145968</ele>
        <time>2022-05-29T11:28:08.743Z</time>
      </trkpt>
      <trkpt lat="42.42947" lon="18.75826">
        <ele>46.191657</ele>
        <time>2022-05-29T11:28:11.723Z</time>
      </trkpt>
      <trkpt lat="42.42935" lon="18.75825">
        <ele>46.243918</ele>
        <time>2022-05-29T11:28:14.734Z</time>
      </trkpt>
      <trkpt lat="42.42925" lon="18.75825">
        <ele>46.278656</ele>
        <time>2022-05-29T11:28:17.745Z</time>
      </trkpt>
      <trkpt lat="42.42914" lon="18.75824">
        <ele>46.266025</ele>
        <time>2022-05-29T11:28:20.744Z</time>
      </trkpt>
      <trkpt lat="42.42902" lon="18.75825">
        <ele>46.253407</ele>
        <time>2022-05-29T11:28:23.740Z</time>
      </trkpt>
      <trkpt lat="42.42889" lon="18.75826">
        <ele>46.239294</ele>
        <time>2022-05-29T11:28:26.740Z</time>
      </trkpt>
      <trkpt lat="42.42877" lon="18.75829">
        <ele>46.224852</ele>
        <time>2022-05-29T11:28:29.737Z</time>
      </trkpt>
      <trkpt lat="42.42865" lon="18.75831">
        <ele>46.212132</ele>
        <time>2022-05-29T11:28:32.742Z</time>
      </trkpt>
      <trkpt lat="42.42856" lon="18.75835">
        <ele>46.201231</ele>
        <time>2022-05-29T11:28:35.734Z</time>
      </trkpt>
      <trkpt lat="42.42846" lon="18.75839">
        <ele>46.189564</ele>
        <time>2022-05-29T11:28:38.772Z</time>
      </trkpt>
      <trkpt lat="42.42834" lon="18.75843">
        <ele>46.176044</ele>
        <time>2022-05-29T11:28:41.748Z</time>
      </trkpt>
      <trkpt lat="42.42822" lon="18.75848">
        <ele>46.162735</ele>
        <time>2022-05-29T11:28:44.738Z</time>
      </trkpt>
      <trkpt lat="42.4281" lon="18.75852">
        <ele>46.14856</ele>
        <time>2022-05-29T11:28:47.751Z</time>
      </trkpt>
      <trkpt lat="42.42798" lon="18.75857">
        <ele>46.134692</ele>
        <time>2022-05-29T11:28:50.742Z</time>
      </trkpt>
      <trkpt lat="42.42787" lon="18.75862">
        <ele>46.121514</ele>
        <time>2022-05-29T11:28:53.736Z</time>
      </trkpt>
      <trkpt lat="42.42777" lon="18.75866">
        <ele>46.110271</ele>
        <time>2022-05-29T11:28:56.752Z</time>
      </trkpt>
      <trkpt lat="42.42766" lon="18.75869">
        <ele>46.09782</ele>
        <time>2022-05-29T11:28:59.742Z</time>
      </trkpt>
      <trkpt lat="42.42754" lon="18.75871">
        <ele>46.084191</ele>
        <time>2022-05-29T11:29:02.735Z</time>
      </trkpt>
      <trkpt lat="42.42741" lon="18.75873">
        <ele>45.974001</ele>
        <time>2022-05-29T11:29:05.748Z</time>
      </trkpt>
      <trkpt lat="42.42728" lon="18.75876">
        <ele>45.844904</ele>
        <time>2022-05-29T11:29:08.720Z</time>
      </trkpt>
      <trkpt lat="42.42716" lon="18.75878">
        <ele>45.720251</ele>
        <time>2022-05-29T11:29:11.735Z</time>
      </trkpt>
      <trkpt lat="42.42704" lon="18.7588">
        <ele>45.599809</ele>
        <time>2022-05-29T11:29:14.743Z</time>
      </trkpt>
      <trkpt lat="42.42693" lon="18.75882">
        <ele>45.481374</ele>
        <time>2022-05-29T11:29:17.740Z</time>
      </trkpt>
      <trkpt lat="42.42682" lon="18.75883">
        <ele>45.371823</ele>
        <time>2022-05-29T11:29:20.751Z</time>
      </trkpt>
      <trkpt lat="42.42671" lon="18.75885">
        <ele>45.256293</ele>
        <time>2022-05-29T11:29:23.770Z</time>
      </trkpt>
      <trkpt lat="42.4266" lon="18.75888">
        <ele>45.142871</ele>
        <time>2022-05-29T11:29:26.743Z</time>
      </trkpt>
      <trkpt lat="42.42649" lon="18.7589">
        <ele>45.031556</ele>
        <time>2022-05-29T11:29:29.763Z</time>
      </trkpt>
      <trkpt lat="42.42639" lon="18.75891">
        <ele>44.937688</ele>
        <time>2022-05-29T11:29:32.748Z</time>
      </trkpt>
      <trkpt lat="42.4263" lon="18.75892">
        <ele>44.840124</ele>
        <time>2022-05-29T11:29:35.760Z</time>
      </trkpt>
      <trkpt lat="42.4262" lon="18.75894">
        <ele>44.740231</ele>
        <time>2022-05-29T11:29:38.743Z</time>
      </trkpt>
      <trkpt lat="42.4261" lon="18.75898">
        <ele>44.637835</ele>
        <time>2022-05-29T11:29:41.727Z</time>
      </trkpt>
      <trkpt lat="42.426" lon="18.75903">
        <ele>44.529963</ele>
        <time>2022-05-29T11:29:44.738Z</time>
      </trkpt>
      <trkpt lat="42.42589" lon="18.75907">
        <ele>44.41568</ele>
        <time>2022-05-29T11:29:47.862Z</time>
      </trkpt>
      <trkpt lat="42.4258" lon="18.75912">
        <ele>44.308043</ele>
        <time>2022-05-29T11:29:50.729Z</time>
      </trkpt>
      <trkpt lat="42.42569" lon="18.75919">
        <ele>43.911544</ele>
        <time>2022-05-29T11:29:53.745Z</time>
      </trkpt>
      <trkpt lat="42.4256" lon="18.75927">
        <ele>43.373574</ele>
        <time>2022-05-29T11:29:56.738Z</time>
      </trkpt>
      <trkpt lat="42.42551" lon="18.75936">
        <ele>42.847593</ele>
        <time>2022-05-29T11:29:59.742Z</time>
      </trkpt>
      <trkpt lat="42.42543" lon="18.75945">
        <ele>42.350184</ele>
        <time>2022-05-29T11:30:02.721Z</time>
      </trkpt>
      <trkpt lat="42.42537" lon="18.75954">
        <ele>41.906772</ele>
        <time>2022-05-29T11:30:05.739Z</time>
      </trkpt>
      <trkpt lat="42.4253" lon="18.75965">
        <ele>41.378993</ele>
        <time>2022-05-29T11:30:09.736Z</time>
      </trkpt>
      <trkpt lat="42.42523" lon="18.75978">
        <ele>40.813762</ele>
        <time>2022-05-29T11:30:13.750Z</time>
      </trkpt>
      <trkpt lat="42.42516" lon="18.75987">
        <ele>40.348795</ele>
        <time>2022-05-29T11:30:16.734Z</time>
      </trkpt>
      <trkpt lat="42.42509" lon="18.75995">
        <ele>39.876661</ele>
        <time>2022-05-29T11:30:19.722Z</time>
      </trkpt>
      <trkpt lat="42.42501" lon="18.76004">
        <ele>39.365301</ele>
        <time>2022-05-29T11:30:22.749Z</time>
      </trkpt>
      <trkpt lat="42.4249" lon="18.76012">
        <ele>38.773121</ele>
        <time>2022-05-29T11:30:25.732Z</time>
      </trkpt>
      <trkpt lat="42.42479" lon="18.76017">
        <ele>38.2152</ele>
        <time>2022-05-29T11:30:28.727Z</time>
      </trkpt>
      <trkpt lat="42.42466" lon="18.76022">
        <ele>37.533114</ele>
        <time>2022-05-29T11:30:31.749Z</time>
      </trkpt>
      <trkpt lat="42.42456" lon="18.76024">
        <ele>37.029602</ele>
        <time>2022-05-29T11:30:33.741Z</time>
      </trkpt>
      <trkpt lat="42.42446" lon="18.76025">
        <ele>36.53996</ele>
        <time>2022-05-29T11:30:35.743Z</time>
      </trkpt>
      <trkpt lat="42.42436" lon="18.76027">
        <ele>36.06262</ele>
        <time>2022-05-29T11:30:37.731Z</time>
      </trkpt>
      <trkpt lat="42.42422" lon="18.7603">
        <ele>35.499079</ele>
        <time>2022-05-29T11:30:40.748Z</time>
      </trkpt>
      <trkpt lat="42.42411" lon="18.76037">
        <ele>35.600562</ele>
        <time>2022-05-29T11:30:43.755Z</time>
      </trkpt>
      <trkpt lat="42.424" lon="18.76047">
        <ele>35.704359</ele>
        <time>2022-05-29T11:30:46.745Z</time>
      </trkpt>
      <trkpt lat="42.42394" lon="18.76055">
        <ele>35.776778</ele>
        <time>2022-05-29T11:30:48.781Z</time>
      </trkpt>
      <trkpt lat="42.42388" lon="18.76064">
        <ele>35.850486</ele>
        <time>2022-05-29T11:30:50.756Z</time>
      </trkpt>
      <trkpt lat="42.42381" lon="18.76074">
        <ele>35.929017</ele>
        <time>2022-05-29T11:30:52.735Z</time>
      </trkpt>
      <trkpt lat="42.42374" lon="18.76085">
        <ele>36.016532</ele>
        <time>2022-05-29T11:30:54.739Z</time>
      </trkpt>
      <trkpt lat="42.42367" lon="18.76095">
        <ele>36.09878</ele>
        <time>2022-05-29T11:30:56.745Z</time>
      </trkpt>
      <trkpt lat="42.42358" lon="18.76105">
        <ele>36.194412</ele>
        <time>2022-05-29T11:30:59.741Z</time>
      </trkpt>
      <trkpt lat="42.4235" lon="18.76115">
        <ele>36.279207</ele>
        <time>2022-05-29T11:31:02.743Z</time>
      </trkpt>
      <trkpt lat="42.42342" lon="18.76124">
        <ele>36.366697</ele>
        <time>2022-05-29T11:31:05.741Z</time>
      </trkpt>
      <trkpt lat="42.42334" lon="18.76133">
        <ele>36.450764</ele>
        <time>2022-05-29T11:31:08.744Z</time>
      </trkpt>
      <trkpt lat="42.42325" lon="18.76143">
        <ele>36.545783</ele>
        <time>2022-05-29T11:31:11.752Z</time>
      </trkpt>
      <trkpt lat="42.42316" lon="18.76154">
        <ele>36.642179</ele>
        <time>2022-05-29T11:31:14.733Z</time>
      </trkpt>
      <trkpt lat="42.42306" lon="18.76162">
        <ele>36.736252</ele>
        <time>2022-05-29T11:31:17.764Z</time>
      </trkpt>
      <trkpt lat="42.42296" lon="18.76166">
        <ele>36.822469</ele>
        <time>2022-05-29T11:31:20.754Z</time>
      </trkpt>
      <trkpt lat="42.42284" lon="18.76167">
        <ele>36.917663</ele>
        <time>2022-05-29T11:31:23.739Z</time>
      </trkpt>
      <trkpt lat="42.42272" lon="18.76171">
        <ele>36.873619</ele>
        <time>2022-05-29T11:31:26.734Z</time>
      </trkpt>
      <trkpt lat="42.4226" lon="18.76173">
        <ele>36.790325</ele>
        <time>2022-05-29T11:31:29.721Z</time>
      </trkpt>
      <trkpt lat="42.42248" lon="18.76177">
        <ele>36.707093</ele>
        <time>2022-05-29T11:31:32.738Z</time>
      </trkpt>
      <trkpt lat="42.42239" lon="18.7618">
        <ele>36.642741</ele>
        <time>2022-05-29T11:31:34.730Z</time>
      </trkpt>
      <trkpt lat="42.4223" lon="18.76186">
        <ele>36.575844</ele>
        <time>2022-05-29T11:31:36.728Z</time>
      </trkpt>
      <trkpt lat="42.42222" lon="18.76194">
        <ele>36.505009</ele>
        <time>2022-05-29T11:31:38.742Z</time>
      </trkpt>
      <trkpt lat="42.42214" lon="18.76203">
        <ele>36.434171</ele>
        <time>2022-05-29T11:31:40.744Z</time>
      </trkpt>
      <trkpt lat="42.42207" lon="18.76218">
        <ele>36.347824</ele>
        <time>2022-05-29T11:31:43.718Z</time>
      </trkpt>
      <trkpt lat="42.42201" lon="18.76232">
        <ele>36.264612</ele>
        <time>2022-05-29T11:31:46.746Z</time>
      </trkpt>
      <trkpt lat="42.42195" lon="18.76247">
        <ele>36.179163</ele>
        <time>2022-05-29T11:31:49.731Z</time>
      </trkpt>
      <trkpt lat="42.42188" lon="18.7626">
        <ele>36.097149</ele>
        <time>2022-05-29T11:31:52.712Z</time>
      </trkpt>
      <trkpt lat="42.42182" lon="18.76274">
        <ele>36.01847</ele>
        <time>2022-05-29T11:31:55.736Z</time>
      </trkpt>
      <trkpt lat="42.42177" lon="18.76285">
        <ele>35.952085</ele>
        <time>2022-05-29T11:31:58.738Z</time>
      </trkpt>
      <trkpt lat="42.42172" lon="18.76298">
        <ele>35.879106</ele>
        <time>2022-05-29T11:32:01.730Z</time>
      </trkpt>
      <trkpt lat="42.42167" lon="18.76309">
        <ele>35.815146</ele>
        <time>2022-05-29T11:32:03.747Z</time>
      </trkpt>
      <trkpt lat="42.42161" lon="18.76324">
        <ele>35.728592</ele>
        <time>2022-05-29T11:32:06.739Z</time>
      </trkpt>
      <trkpt lat="42.42159" lon="18.76336">
        <ele>35.831301</ele>
        <time>2022-05-29T11:32:08.775Z</time>
      </trkpt>
      <trkpt lat="42.42156" lon="18.76347">
        <ele>35.999841</ele>
        <time>2022-05-29T11:32:10.744Z</time>
      </trkpt>
      <trkpt lat="42.42153" lon="18.76363">
        <ele>36.214763</ele>
        <time>2022-05-29T11:32:13.717Z</time>
      </trkpt>
      <trkpt lat="42.42151" lon="18.7638">
        <ele>36.442599</ele>
        <time>2022-05-29T11:32:16.747Z</time>
      </trkpt>
      <trkpt lat="42.4215" lon="18.76392">
        <ele>36.61222</ele>
        <time>2022-05-29T11:32:18.747Z</time>
      </trkpt>
      <trkpt lat="42.42148" lon="18.76405">
        <ele>36.788146</ele>
        <time>2022-05-29T11:32:20.735Z</time>
      </trkpt>
      <trkpt lat="42.42146" lon="18.76422">
        <ele>37.021594</ele>
        <time>2022-05-29T11:32:23.745Z</time>
      </trkpt>
      <trkpt lat="42.42145" lon="18.76439">
        <ele>37.248427</ele>
        <time>2022-05-29T11:32:26.740Z</time>
      </trkpt>
      <trkpt lat="42.42142" lon="18.76455">
        <ele>37.462203</ele>
        <time>2022-05-29T11:32:29.749Z</time>
      </trkpt>
      <trkpt lat="42.4214" lon="18.76472">
        <ele>37.697998</ele>
        <time>2022-05-29T11:32:32.725Z</time>
      </trkpt>
      <trkpt lat="42.42138" lon="18.76488">
        <ele>37.920729</ele>
        <time>2022-05-29T11:32:35.731Z</time>
      </trkpt>
      <trkpt lat="42.42138" lon="18.76505">
        <ele>38.148377</ele>
        <time>2022-05-29T11:32:38.761Z</time>
      </trkpt>
      <trkpt lat="42.42137" lon="18.76522">
        <ele>38.373008</ele>
        <time>2022-05-29T11:32:41.765Z</time>
      </trkpt>
      <trkpt lat="42.42137" lon="18.76536">
        <ele>38.558688</ele>
        <time>2022-05-29T11:32:44.745Z</time>
      </trkpt>
      <trkpt lat="42.42138" lon="18.7655">
        <ele>38.753837</ele>
        <time>2022-05-29T11:32:47.741Z</time>
      </trkpt>
      <trkpt lat="42.42138" lon="18.76566">
        <ele>38.96771</ele>
        <time>2022-05-29T11:32:50.734Z</time>
      </trkpt>
      <trkpt lat="42.42138" lon="18.76581">
        <ele>39.195478</ele>
        <time>2022-05-29T11:32:53.734Z</time>
      </trkpt>
      <trkpt lat="42.42139" lon="18.76598">
        <ele>39.450396</ele>
        <time>2022-05-29T11:32:56.745Z</time>
      </trkpt>
      <trkpt lat="42.4214" lon="18.76616">
        <ele>39.716378</ele>
        <time>2022-05-29T11:32:59.726Z</time>
      </trkpt>
      <trkpt lat="42.42141" lon="18.76628">
        <ele>39.905155</ele>
        <time>2022-05-29T11:33:01.727Z</time>
      </trkpt>
      <trkpt lat="42.42143" lon="18.76646">
        <ele>40.17548</ele>
        <time>2022-05-29T11:33:04.755Z</time>
      </trkpt>
      <trkpt lat="42.42144" lon="18.76662">
        <ele>40.430335</ele>
        <time>2022-05-29T11:33:07.739Z</time>
      </trkpt>
      <trkpt lat="42.42145" lon="18.7668">
        <ele>40.689416</ele>
        <time>2022-05-29T11:33:10.818Z</time>
      </trkpt>
      <trkpt lat="42.42145" lon="18.76696">
        <ele>40.94558</ele>
        <time>2022-05-29T11:33:13.748Z</time>
      </trkpt>
      <trkpt lat="42.42146" lon="18.76713">
        <ele>41.197103</ele>
        <time>2022-05-29T11:33:16.741Z</time>
      </trkpt>
      <trkpt lat="42.42147" lon="18.76728">
        <ele>41.425955</ele>
        <time>2022-05-29T11:33:19.737Z</time>
      </trkpt>
      <trkpt lat="42.42148" lon="18.76746">
        <ele>41.703821</ele>
        <time>2022-05-29T11:33:22.727Z</time>
      </trkpt>
      <trkpt lat="42.42149" lon="18.76763">
        <ele>41.949161</ele>
        <time>2022-05-29T11:33:25.741Z</time>
      </trkpt>
      <trkpt lat="42.4215" lon="18.7678">
        <ele>42.210824</ele>
        <time>2022-05-29T11:33:28.732Z</time>
      </trkpt>
      <trkpt lat="42.42151" lon="18.76797">
        <ele>42.47344</ele>
        <time>2022-05-29T11:33:31.741Z</time>
      </trkpt>
      <trkpt lat="42.42152" lon="18.76813">
        <ele>42.708556</ele>
        <time>2022-05-29T11:33:34.782Z</time>
      </trkpt>
      <trkpt lat="42.42153" lon="18.76827">
        <ele>42.879886</ele>
        <time>2022-05-29T11:33:37.754Z</time>
      </trkpt>
      <trkpt lat="42.42154" lon="18.76841">
        <ele>43.048766</ele>
        <time>2022-05-29T11:33:40.750Z</time>
      </trkpt>
      <trkpt lat="42.42155" lon="18.76858">
        <ele>43.259698</ele>
        <time>2022-05-29T11:33:43.859Z</time>
      </trkpt>
      <trkpt lat="42.42156" lon="18.76875">
        <ele>43.470629</ele>
        <time>2022-05-29T11:33:46.733Z</time>
      </trkpt>
      <trkpt lat="42.42156" lon="18.76892">
        <ele>43.685705</ele>
        <time>2022-05-29T11:33:49.743Z</time>
      </trkpt>
      <trkpt lat="42.42157" lon="18.7691">
        <ele>43.903621</ele>
        <time>2022-05-29T11:33:52.716Z</time>
      </trkpt>
      <trkpt lat="42.42158" lon="18.76923">
        <ele>44.068826</ele>
        <time>2022-05-29T11:33:54.756Z</time>
      </trkpt>
      <trkpt lat="42.42158" lon="18.76937">
        <ele>44.237311</ele>
        <time>2022-05-29T11:33:56.819Z</time>
      </trkpt>
      <trkpt lat="42.4216" lon="18.7695">
        <ele>44.395107</ele>
        <time>2022-05-29T11:33:58.750Z</time>
      </trkpt>
      <trkpt lat="42.4216" lon="18.76965">
        <ele>44.579804</ele>
        <time>2022-05-29T11:34:01.761Z</time>
      </trkpt>
      <trkpt lat="42.42159" lon="18.76979">
        <ele>44.752816</ele>
        <time>2022-05-29T11:34:04.734Z</time>
      </trkpt>
      <trkpt lat="42.42156" lon="18.76991">
        <ele>44.910836</ele>
        <time>2022-05-29T11:34:07.751Z</time>
      </trkpt>
      <trkpt lat="42.4216" lon="18.77005">
        <ele>45.091855</ele>
        <time>2022-05-29T11:34:12.736Z</time>
      </trkpt>
      <trkpt lat="42.42168" lon="18.77014">
        <ele>45.26005</ele>
        <time>2022-05-29T11:34:14.737Z</time>
      </trkpt>
      <trkpt lat="42.42176" lon="18.77029">
        <ele>45.493401</ele>
        <time>2022-05-29T11:34:17.735Z</time>
      </trkpt>
      <trkpt lat="42.4218" lon="18.7704">
        <ele>45.646294</ele>
        <time>2022-05-29T11:34:19.739Z</time>
      </trkpt>
      <trkpt lat="42.42186" lon="18.77055">
        <ele>45.224549</ele>
        <time>2022-05-29T11:34:22.737Z</time>
      </trkpt>
      <trkpt lat="42.42192" lon="18.77071">
        <ele>44.717699</ele>
        <time>2022-05-29T11:34:25.756Z</time>
      </trkpt>
      <trkpt lat="42.42196" lon="18.77082">
        <ele>44.359555</ele>
        <time>2022-05-29T11:34:27.748Z</time>
      </trkpt>
      <trkpt lat="42.422" lon="18.77094">
        <ele>43.998878</ele>
        <time>2022-05-29T11:34:29.741Z</time>
      </trkpt>
      <trkpt lat="42.42205" lon="18.77104">
        <ele>43.644941</ele>
        <time>2022-05-29T11:34:31.729Z</time>
      </trkpt>
      <trkpt lat="42.42215" lon="18.77115">
        <ele>43.157756</ele>
        <time>2022-05-29T11:34:34.716Z</time>
      </trkpt>
      <trkpt lat="42.42226" lon="18.77123">
        <ele>42.643443</ele>
        <time>2022-05-29T11:34:37.744Z</time>
      </trkpt>
      <trkpt lat="42.42235" lon="18.77127">
        <ele>42.292515</ele>
        <time>2022-05-29T11:34:39.745Z</time>
      </trkpt>
      <trkpt lat="42.42248" lon="18.7713">
        <ele>41.780088</ele>
        <time>2022-05-29T11:34:42.731Z</time>
      </trkpt>
      <trkpt lat="42.4226" lon="18.7713">
        <ele>41.328776</ele>
        <time>2022-05-29T11:34:45.732Z</time>
      </trkpt>
      <trkpt lat="42.42269" lon="18.77129">
        <ele>40.958741</ele>
        <time>2022-05-29T11:34:47.810Z</time>
      </trkpt>
      <trkpt lat="42.42279" lon="18.77128">
        <ele>40.58426</ele>
        <time>2022-05-29T11:34:49.753Z</time>
      </trkpt>
      <trkpt lat="42.42289" lon="18.77127">
        <ele>40.198529</ele>
        <time>2022-05-29T11:34:51.745Z</time>
      </trkpt>
      <trkpt lat="42.42298" lon="18.77126">
        <ele>39.835442</ele>
        <time>2022-05-29T11:34:53.728Z</time>
      </trkpt>
      <trkpt lat="42.42307" lon="18.77125">
        <ele>39.477757</ele>
        <time>2022-05-29T11:34:55.740Z</time>
      </trkpt>
      <trkpt lat="42.4232" lon="18.7712">
        <ele>38.966191</ele>
        <time>2022-05-29T11:34:58.731Z</time>
      </trkpt>
      <trkpt lat="42.4233" lon="18.77112">
        <ele>38.645034</ele>
        <time>2022-05-29T11:35:01.733Z</time>
      </trkpt>
      <trkpt lat="42.42339" lon="18.771">
        <ele>38.557161</ele>
        <time>2022-05-29T11:35:04.748Z</time>
      </trkpt>
      <trkpt lat="42.42346" lon="18.77091">
        <ele>38.490715</ele>
        <time>2022-05-29T11:35:06.799Z</time>
      </trkpt>
      <trkpt lat="42.42352" lon="18.77082">
        <ele>38.426093</ele>
        <time>2022-05-29T11:35:08.732Z</time>
      </trkpt>
      <trkpt lat="42.42358" lon="18.77073">
        <ele>38.36195</ele>
        <time>2022-05-29T11:35:10.732Z</time>
      </trkpt>
      <trkpt lat="42.42367" lon="18.7706">
        <ele>38.269738</ele>
        <time>2022-05-29T11:35:13.740Z</time>
      </trkpt>
      <trkpt lat="42.42374" lon="18.7705">
        <ele>38.199255</ele>
        <time>2022-05-29T11:35:15.725Z</time>
      </trkpt>
      <trkpt lat="42.42381" lon="18.7704">
        <ele>38.133129</ele>
        <time>2022-05-29T11:35:17.738Z</time>
      </trkpt>
      <trkpt lat="42.4239" lon="18.77029">
        <ele>38.045222</ele>
        <time>2022-05-29T11:35:20.737Z</time>
      </trkpt>
      <trkpt lat="42.42398" lon="18.77019">
        <ele>37.971988</ele>
        <time>2022-05-29T11:35:23.743Z</time>
      </trkpt>
      <trkpt lat="42.42404" lon="18.7701">
        <ele>37.906993</ele>
        <time>2022-05-29T11:35:26.735Z</time>
      </trkpt>
      <trkpt lat="42.42412" lon="18.77001">
        <ele>37.835661</ele>
        <time>2022-05-29T11:35:30.753Z</time>
      </trkpt>
      <trkpt lat="42.4242" lon="18.76991">
        <ele>37.756912</ele>
        <time>2022-05-29T11:35:34.734Z</time>
      </trkpt>
      <trkpt lat="42.42427" lon="18.76983">
        <ele>37.693321</ele>
        <time>2022-05-29T11:35:37.733Z</time>
      </trkpt>
      <trkpt lat="42.42434" lon="18.76974">
        <ele>37.627847</ele>
        <time>2022-05-29T11:35:40.740Z</time>
      </trkpt>
      <trkpt lat="42.42441" lon="18.76965">
        <ele>37.561683</ele>
        <time>2022-05-29T11:35:43.745Z</time>
      </trkpt>
      <trkpt lat="42.42451" lon="18.76954">
        <ele>37.475014</ele>
        <time>2022-05-29T11:35:46.750Z</time>
      </trkpt>
      <trkpt lat="42.42457" lon="18.76946">
        <ele>37.440294</ele>
        <time>2022-05-29T11:35:48.732Z</time>
      </trkpt>
      <trkpt lat="42.42467" lon="18.76933">
        <ele>37.623357</ele>
        <time>2022-05-29T11:35:51.736Z</time>
      </trkpt>
      <trkpt lat="42.42475" lon="18.7692">
        <ele>37.797558</ele>
        <time>2022-05-29T11:35:54.739Z</time>
      </trkpt>
      <trkpt lat="42.42482" lon="18.76908">
        <ele>37.947404</ele>
        <time>2022-05-29T11:35:57.752Z</time>
      </trkpt>
      <trkpt lat="42.42489" lon="18.76897">
        <ele>38.093093</ele>
        <time>2022-05-29T11:36:01.732Z</time>
      </trkpt>
      <trkpt lat="42.42495" lon="18.76888">
        <ele>38.21843</ele>
        <time>2022-05-29T11:36:04.764Z</time>
      </trkpt>
      <trkpt lat="42.42502" lon="18.76878">
        <ele>38.350225</ele>
        <time>2022-05-29T11:36:07.732Z</time>
      </trkpt>
      <trkpt lat="42.42508" lon="18.76868">
        <ele>38.488146</ele>
        <time>2022-05-29T11:36:10.771Z</time>
      </trkpt>
      <trkpt lat="42.42517" lon="18.76856">
        <ele>38.653313</ele>
        <time>2022-05-29T11:36:13.749Z</time>
      </trkpt>
      <trkpt lat="42.42527" lon="18.76848">
        <ele>38.817356</ele>
        <time>2022-05-29T11:36:16.759Z</time>
      </trkpt>
      <trkpt lat="42.42537" lon="18.76844">
        <ele>38.959845</ele>
        <time>2022-05-29T11:36:19.748Z</time>
      </trkpt>
      <trkpt lat="42.42546" lon="18.76843">
        <ele>39.082597</ele>
        <time>2022-05-29T11:36:22.785Z</time>
      </trkpt>
      <trkpt lat="42.42555" lon="18.76844">
        <ele>39.207133</ele>
        <time>2022-05-29T11:36:25.753Z</time>
      </trkpt>
      <trkpt lat="42.42565" lon="18.76845">
        <ele>39.341249</ele>
        <time>2022-05-29T11:36:28.730Z</time>
      </trkpt>
      <trkpt lat="42.42576" lon="18.76847">
        <ele>39.485935</ele>
        <time>2022-05-29T11:36:32.731Z</time>
      </trkpt>
      <trkpt lat="42.42586" lon="18.76849">
        <ele>39.631883</ele>
        <time>2022-05-29T11:36:40.727Z</time>
      </trkpt>
      <trkpt lat="42.42596" lon="18.7685">
        <ele>39.763403</ele>
        <time>2022-05-29T11:36:43.732Z</time>
      </trkpt>
      <trkpt lat="42.42606" lon="18.76852">
        <ele>39.851481</ele>
        <time>2022-05-29T11:36:46.720Z</time>
      </trkpt>
      <trkpt lat="42.42617" lon="18.76856">
        <ele>39.775516</ele>
        <time>2022-05-29T11:36:49.733Z</time>
      </trkpt>
      <trkpt lat="42.42627" lon="18.76858">
        <ele>39.702158</ele>
        <time>2022-05-29T11:36:52.755Z</time>
      </trkpt>
      <trkpt lat="42.42639" lon="18.76861">
        <ele>39.624371</ele>
        <time>2022-05-29T11:36:56.734Z</time>
      </trkpt>
      <trkpt lat="42.42651" lon="18.76864">
        <ele>39.539635</ele>
        <time>2022-05-29T11:37:00.720Z</time>
      </trkpt>
      <trkpt lat="42.42661" lon="18.76867">
        <ele>39.469265</ele>
        <time>2022-05-29T11:37:03.723Z</time>
      </trkpt>
      <trkpt lat="42.42671" lon="18.7687">
        <ele>39.395529</ele>
        <time>2022-05-29T11:37:06.715Z</time>
      </trkpt>
      <trkpt lat="42.4268" lon="18.76873">
        <ele>39.329626</ele>
        <time>2022-05-29T11:37:09.719Z</time>
      </trkpt>
      <trkpt lat="42.42691" lon="18.76876">
        <ele>39.252773</ele>
        <time>2022-05-29T11:37:12.733Z</time>
      </trkpt>
      <trkpt lat="42.42704" lon="18.76881">
        <ele>39.163893</ele>
        <time>2022-05-29T11:37:15.723Z</time>
      </trkpt>
      <trkpt lat="42.42713" lon="18.76884">
        <ele>39.098338</ele>
        <time>2022-05-29T11:37:17.733Z</time>
      </trkpt>
      <trkpt lat="42.42723" lon="18.76887">
        <ele>39.026964</ele>
        <time>2022-05-29T11:37:19.754Z</time>
      </trkpt>
      <trkpt lat="42.42733" lon="18.7689">
        <ele>38.957716</ele>
        <time>2022-05-29T11:37:21.750Z</time>
      </trkpt>
      <trkpt lat="42.42746" lon="18.76895">
        <ele>38.866423</ele>
        <time>2022-05-29T11:37:24.720Z</time>
      </trkpt>
      <trkpt lat="42.42758" lon="18.76899">
        <ele>38.779726</ele>
        <time>2022-05-29T11:37:27.744Z</time>
      </trkpt>
      <trkpt lat="42.42768" lon="18.76904">
        <ele>38.70379</ele>
        <time>2022-05-29T11:37:30.741Z</time>
      </trkpt>
      <trkpt lat="42.42767" lon="18.76919">
        <ele>38.645733</ele>
        <time>2022-05-29T11:37:34.729Z</time>
      </trkpt>
      <trkpt lat="42.42765" lon="18.76932">
        <ele>38.782747</ele>
        <time>2022-05-29T11:37:36.760Z</time>
      </trkpt>
      <trkpt lat="42.42763" lon="18.76947">
        <ele>38.955388</ele>
        <time>2022-05-29T11:37:39.738Z</time>
      </trkpt>
      <trkpt lat="42.42761" lon="18.76963">
        <ele>39.135377</ele>
        <time>2022-05-29T11:37:42.738Z</time>
      </trkpt>
      <trkpt lat="42.42759" lon="18.76979">
        <ele>39.31511</ele>
        <time>2022-05-29T11:37:45.730Z</time>
      </trkpt>
      <trkpt lat="42.42757" lon="18.76996">
        <ele>39.508408</ele>
        <time>2022-05-29T11:37:48.733Z</time>
      </trkpt>
      <trkpt lat="42.42756" lon="18.77013">
        <ele>39.699757</ele>
        <time>2022-05-29T11:37:51.762Z</time>
      </trkpt>
      <trkpt lat="42.42755" lon="18.7703">
        <ele>39.885979</ele>
        <time>2022-05-29T11:37:54.722Z</time>
      </trkpt>
      <trkpt lat="42.42752" lon="18.77044">
        <ele>40.048162</ele>
        <time>2022-05-29T11:37:57.718Z</time>
      </trkpt>
      <trkpt lat="42.42749" lon="18.77059">
        <ele>40.218337</ele>
        <time>2022-05-29T11:38:00.728Z</time>
      </trkpt>
      <trkpt lat="42.42747" lon="18.77074">
        <ele>40.390175</ele>
        <time>2022-05-29T11:38:03.715Z</time>
      </trkpt>
      <trkpt lat="42.42744" lon="18.77089">
        <ele>40.563369</ele>
        <time>2022-05-29T11:38:06.735Z</time>
      </trkpt>
      <trkpt lat="42.42742" lon="18.77104">
        <ele>40.734373</ele>
        <time>2022-05-29T11:38:09.718Z</time>
      </trkpt>
      <trkpt lat="42.4274" lon="18.77119">
        <ele>40.900502</ele>
        <time>2022-05-29T11:38:12.728Z</time>
      </trkpt>
      <trkpt lat="42.42739" lon="18.77133">
        <ele>41.051103</ele>
        <time>2022-05-29T11:38:15.743Z</time>
      </trkpt>
      <trkpt lat="42.42736" lon="18.77148">
        <ele>41.223582</ele>
        <time>2022-05-29T11:38:18.731Z</time>
      </trkpt>
      <trkpt lat="42.42735" lon="18.77162">
        <ele>41.330757</ele>
        <time>2022-05-29T11:38:21.734Z</time>
      </trkpt>
      <trkpt lat="42.42733" lon="18.77178">
        <ele>41.330757</ele>
        <time>2022-05-29T11:38:26.745Z</time>
      </trkpt>
      <trkpt lat="42.42729" lon="18.77192">
        <ele>41.330757</ele>
        <time>2022-05-29T11:38:30.734Z</time>
      </trkpt>
      <trkpt lat="42.42728" lon="18.77205">
        <ele>41.330757</ele>
        <time>2022-05-29T11:38:33.731Z</time>
      </trkpt>
      <trkpt lat="42.42724" lon="18.77217">
        <ele>41.330757</ele>
        <time>2022-05-29T11:38:36.760Z</time>
      </trkpt>
      <trkpt lat="42.42723" lon="18.77231">
        <ele>41.330757</ele>
        <time>2022-05-29T11:38:40.762Z</time>
      </trkpt>
      <trkpt lat="42.42721" lon="18.77244">
        <ele>41.330757</ele>
        <time>2022-05-29T11:38:44.719Z</time>
      </trkpt>
      <trkpt lat="42.42718" lon="18.77256">
        <ele>41.330757</ele>
        <time>2022-05-29T11:38:50.731Z</time>
      </trkpt>
      <trkpt lat="42.42728" lon="18.77255">
        <ele>41.330757</ele>
        <time>2022-05-29T11:39:01.787Z</time>
      </trkpt>
      <trkpt lat="42.42737" lon="18.77253">
        <ele>41.330757</ele>
        <time>2022-05-29T11:39:06.721Z</time>
      </trkpt>
      <trkpt lat="42.42747" lon="18.7725">
        <ele>41.330757</ele>
        <time>2022-05-29T11:39:11.738Z</time>
      </trkpt>
      <trkpt lat="42.42758" lon="18.77247">
        <ele>41.330757</ele>
        <time>2022-05-29T11:39:16.755Z</time>
      </trkpt>
      <trkpt lat="42.42767" lon="18.77243">
        <ele>41.330757</ele>
        <time>2022-05-29T11:39:21.717Z</time>
      </trkpt>
      <trkpt lat="42.42776" lon="18.7724">
        <ele>41.330757</ele>
        <time>2022-05-29T11:39:30.722Z</time>
      </trkpt>
      <trkpt lat="42.42783" lon="18.77231">
        <ele>41.330757</ele>
        <time>2022-05-29T11:39:40.733Z</time>
      </trkpt>
      <trkpt lat="42.42787" lon="18.77217">
        <ele>41.330757</ele>
        <time>2022-05-29T11:39:44.731Z</time>
      </trkpt>
      <trkpt lat="42.42794" lon="18.77207">
        <ele>41.330757</ele>
        <time>2022-05-29T11:39:48.732Z</time>
      </trkpt>
      <trkpt lat="42.42802" lon="18.772">
        <ele>41.330757</ele>
        <time>2022-05-29T11:39:53.718Z</time>
      </trkpt>
      <trkpt lat="42.42805" lon="18.77206">
        <ele>41.330757</ele>
        <time>2022-05-29T11:41:00.722Z</time>
      </trkpt>
    </trkseg>
  </trk>
</gpx>